<?xml version="1.0" encoding="UTF-8" standalone="no" ?>
<gpx xmlns="http://www.topografix.com/GPX/1/1" xmlns:xsi="http://www.w3.org/2001/XMLSchema-instance" xsi:schemaLocation="http://www.topografix.com/GPX/1/1 http://www.topografix.com/GPX/1/1/gpx.xsd" version="1.1" creator="VisuGPX - https://www.visugpx.com">
  <metadata>
    <name>VSA Montagne Criterium 11 Oct 2026 Parcours 17km</name>
    <desc><![CDATA[4ième Critérium Vallis Bona 11 Oct 2026 : Parcours 17km]]></desc>
  </metadata>
  <trk>
    <name><![CDATA[SityTrail - critérium 16 km validé le 10 juin]]></name>
    <extensions>
      <line xmlns="http://www.topografix.com/GPX/gpx_style/0/2">
        <color>0000FF</color>
        <width>4</width>
      </line>
    </extensions>
    <trkseg>
      <trkpt lat="43.62336" lon="7.04461">
        <ele>161</ele>
        <time>2026-06-10T05:28:37.404+00:00</time>
      </trkpt>
      <trkpt lat="43.62336" lon="7.04464">
        <ele>161</ele>
        <time>2026-06-10T05:29:32.404+00:00</time>
      </trkpt>
      <trkpt lat="43.62334" lon="7.04466">
        <ele>161</ele>
        <time>2026-06-10T05:29:37.405+00:00</time>
      </trkpt>
      <trkpt lat="43.62329" lon="7.04464">
        <ele>161</ele>
        <time>2026-06-10T05:29:42.404+00:00</time>
      </trkpt>
      <trkpt lat="43.62324" lon="7.0446">
        <ele>161</ele>
        <time>2026-06-10T05:29:47.405+00:00</time>
      </trkpt>
      <trkpt lat="43.6232" lon="7.04457">
        <ele>163</ele>
        <time>2026-06-10T05:29:51.405+00:00</time>
      </trkpt>
      <trkpt lat="43.62313" lon="7.04459">
        <ele>162</ele>
        <time>2026-06-10T05:29:56.405+00:00</time>
      </trkpt>
      <trkpt lat="43.62308" lon="7.04458">
        <ele>163</ele>
        <time>2026-06-10T05:30:00.960+00:00</time>
      </trkpt>
      <trkpt lat="43.62303" lon="7.04455">
        <ele>163</ele>
        <time>2026-06-10T05:30:05.300+00:00</time>
      </trkpt>
      <trkpt lat="43.623" lon="7.04451">
        <ele>163</ele>
        <time>2026-06-10T05:30:09.425+00:00</time>
      </trkpt>
      <trkpt lat="43.62295" lon="7.04448">
        <ele>163</ele>
        <time>2026-06-10T05:30:13.849+00:00</time>
      </trkpt>
      <trkpt lat="43.6229" lon="7.04446">
        <ele>163</ele>
        <time>2026-06-10T05:30:18.169+00:00</time>
      </trkpt>
      <trkpt lat="43.62286" lon="7.04445">
        <ele>163</ele>
        <time>2026-06-10T05:30:22.666+00:00</time>
      </trkpt>
      <trkpt lat="43.62281" lon="7.04445">
        <ele>163</ele>
        <time>2026-06-10T05:30:26.909+00:00</time>
      </trkpt>
      <trkpt lat="43.62277" lon="7.04443">
        <ele>163</ele>
        <time>2026-06-10T05:30:31.112+00:00</time>
      </trkpt>
      <trkpt lat="43.62273" lon="7.04446">
        <ele>163</ele>
        <time>2026-06-10T05:30:35.411+00:00</time>
      </trkpt>
      <trkpt lat="43.62267" lon="7.04447">
        <ele>163</ele>
        <time>2026-06-10T05:30:39.591+00:00</time>
      </trkpt>
      <trkpt lat="43.62263" lon="7.04443">
        <ele>162</ele>
        <time>2026-06-10T05:30:43.805+00:00</time>
      </trkpt>
      <trkpt lat="43.62259" lon="7.0444">
        <ele>162</ele>
        <time>2026-06-10T05:30:47.927+00:00</time>
      </trkpt>
      <trkpt lat="43.62254" lon="7.04436">
        <ele>162</ele>
        <time>2026-06-10T05:30:52.348+00:00</time>
      </trkpt>
      <trkpt lat="43.62252" lon="7.04432">
        <ele>162</ele>
        <time>2026-06-10T05:30:56.981+00:00</time>
      </trkpt>
      <trkpt lat="43.6225" lon="7.0443">
        <ele>161</ele>
        <time>2026-06-10T05:31:01.366+00:00</time>
      </trkpt>
      <trkpt lat="43.62245" lon="7.04434">
        <ele>162</ele>
        <time>2026-06-10T05:31:05.746+00:00</time>
      </trkpt>
      <trkpt lat="43.6224" lon="7.04438">
        <ele>162</ele>
        <time>2026-06-10T05:31:09.980+00:00</time>
      </trkpt>
      <trkpt lat="43.62234" lon="7.04442">
        <ele>161</ele>
        <time>2026-06-10T05:31:14.302+00:00</time>
      </trkpt>
      <trkpt lat="43.62231" lon="7.04441">
        <ele>161</ele>
        <time>2026-06-10T05:31:18.405+00:00</time>
      </trkpt>
      <trkpt lat="43.62226" lon="7.04443">
        <ele>161</ele>
        <time>2026-06-10T05:31:23.267+00:00</time>
      </trkpt>
      <trkpt lat="43.62224" lon="7.04431">
        <ele>161</ele>
        <time>2026-06-10T05:31:27.404+00:00</time>
      </trkpt>
      <trkpt lat="43.62224" lon="7.04423">
        <ele>159</ele>
        <time>2026-06-10T05:31:31.647+00:00</time>
      </trkpt>
      <trkpt lat="43.62223" lon="7.04416">
        <ele>159</ele>
        <time>2026-06-10T05:31:35.908+00:00</time>
      </trkpt>
      <trkpt lat="43.62222" lon="7.04409">
        <ele>159</ele>
        <time>2026-06-10T05:31:40.108+00:00</time>
      </trkpt>
      <trkpt lat="43.62221" lon="7.04404">
        <ele>159</ele>
        <time>2026-06-10T05:31:44.267+00:00</time>
      </trkpt>
      <trkpt lat="43.62217" lon="7.04401">
        <ele>158</ele>
        <time>2026-06-10T05:31:48.405+00:00</time>
      </trkpt>
      <trkpt lat="43.62213" lon="7.04398">
        <ele>158</ele>
        <time>2026-06-10T05:31:52.926+00:00</time>
      </trkpt>
      <trkpt lat="43.62212" lon="7.04393">
        <ele>158</ele>
        <time>2026-06-10T05:31:57.015+00:00</time>
      </trkpt>
      <trkpt lat="43.62212" lon="7.04387">
        <ele>158</ele>
        <time>2026-06-10T05:32:01.404+00:00</time>
      </trkpt>
      <trkpt lat="43.6221" lon="7.04383">
        <ele>158</ele>
        <time>2026-06-10T05:32:05.867+00:00</time>
      </trkpt>
      <trkpt lat="43.62208" lon="7.04379">
        <ele>158</ele>
        <time>2026-06-10T05:32:10.125+00:00</time>
      </trkpt>
      <trkpt lat="43.62209" lon="7.04372">
        <ele>157</ele>
        <time>2026-06-10T05:32:14.211+00:00</time>
      </trkpt>
      <trkpt lat="43.62207" lon="7.04366">
        <ele>154</ele>
        <time>2026-06-10T05:32:18.386+00:00</time>
      </trkpt>
      <trkpt lat="43.62205" lon="7.04359">
        <ele>154</ele>
        <time>2026-06-10T05:32:22.404+00:00</time>
      </trkpt>
      <trkpt lat="43.62203" lon="7.04353">
        <ele>154</ele>
        <time>2026-06-10T05:32:26.602+00:00</time>
      </trkpt>
      <trkpt lat="43.62201" lon="7.04346">
        <ele>154</ele>
        <time>2026-06-10T05:32:30.646+00:00</time>
      </trkpt>
      <trkpt lat="43.622" lon="7.04339">
        <ele>154</ele>
        <time>2026-06-10T05:32:34.729+00:00</time>
      </trkpt>
      <trkpt lat="43.62198" lon="7.04333">
        <ele>154</ele>
        <time>2026-06-10T05:32:39.140+00:00</time>
      </trkpt>
      <trkpt lat="43.62194" lon="7.04324">
        <ele>154</ele>
        <time>2026-06-10T05:32:44.321+00:00</time>
      </trkpt>
      <trkpt lat="43.62191" lon="7.04318">
        <ele>156</ele>
        <time>2026-06-10T05:32:48.404+00:00</time>
      </trkpt>
      <trkpt lat="43.62187" lon="7.04312">
        <ele>156</ele>
        <time>2026-06-10T05:32:52.875+00:00</time>
      </trkpt>
      <trkpt lat="43.62183" lon="7.04309">
        <ele>156</ele>
        <time>2026-06-10T05:32:57.089+00:00</time>
      </trkpt>
      <trkpt lat="43.62177" lon="7.04304">
        <ele>154</ele>
        <time>2026-06-10T05:33:01.403+00:00</time>
      </trkpt>
      <trkpt lat="43.62174" lon="7.04296">
        <ele>154</ele>
        <time>2026-06-10T05:33:05.415+00:00</time>
      </trkpt>
      <trkpt lat="43.62171" lon="7.04286">
        <ele>158</ele>
        <time>2026-06-10T05:33:10.404+00:00</time>
      </trkpt>
      <trkpt lat="43.62168" lon="7.0428">
        <ele>158</ele>
        <time>2026-06-10T05:33:15.383+00:00</time>
      </trkpt>
      <trkpt lat="43.62164" lon="7.04279">
        <ele>158</ele>
        <time>2026-06-10T05:33:19.404+00:00</time>
      </trkpt>
      <trkpt lat="43.62156" lon="7.04281">
        <ele>158</ele>
        <time>2026-06-10T05:33:24.404+00:00</time>
      </trkpt>
      <trkpt lat="43.62151" lon="7.04288">
        <ele>157</ele>
        <time>2026-06-10T05:33:28.403+00:00</time>
      </trkpt>
      <trkpt lat="43.62146" lon="7.04295">
        <ele>151</ele>
        <time>2026-06-10T05:33:33.404+00:00</time>
      </trkpt>
      <trkpt lat="43.62141" lon="7.04299">
        <ele>151</ele>
        <time>2026-06-10T05:33:37.404+00:00</time>
      </trkpt>
      <trkpt lat="43.62135" lon="7.04299">
        <ele>151</ele>
        <time>2026-06-10T05:33:41.721+00:00</time>
      </trkpt>
      <trkpt lat="43.62128" lon="7.04299">
        <ele>151</ele>
        <time>2026-06-10T05:33:46.404+00:00</time>
      </trkpt>
      <trkpt lat="43.62122" lon="7.04301">
        <ele>150</ele>
        <time>2026-06-10T05:33:50.404+00:00</time>
      </trkpt>
      <trkpt lat="43.62118" lon="7.04307">
        <ele>150</ele>
        <time>2026-06-10T05:33:55.404+00:00</time>
      </trkpt>
      <trkpt lat="43.62112" lon="7.0431">
        <ele>150</ele>
        <time>2026-06-10T05:33:59.516+00:00</time>
      </trkpt>
      <trkpt lat="43.62106" lon="7.04311">
        <ele>150</ele>
        <time>2026-06-10T05:34:04.412+00:00</time>
      </trkpt>
      <trkpt lat="43.62101" lon="7.0431">
        <ele>150</ele>
        <time>2026-06-10T05:34:09.403+00:00</time>
      </trkpt>
      <trkpt lat="43.62094" lon="7.04309">
        <ele>150</ele>
        <time>2026-06-10T05:34:14.405+00:00</time>
      </trkpt>
      <trkpt lat="43.62091" lon="7.04311">
        <ele>150</ele>
        <time>2026-06-10T05:34:19.403+00:00</time>
      </trkpt>
      <trkpt lat="43.62086" lon="7.04312">
        <ele>150</ele>
        <time>2026-06-10T05:34:23.925+00:00</time>
      </trkpt>
      <trkpt lat="43.62083" lon="7.0431">
        <ele>150</ele>
        <time>2026-06-10T05:34:28.184+00:00</time>
      </trkpt>
      <trkpt lat="43.6208" lon="7.0431">
        <ele>150</ele>
        <time>2026-06-10T05:34:32.403+00:00</time>
      </trkpt>
      <trkpt lat="43.62074" lon="7.04309">
        <ele>150</ele>
        <time>2026-06-10T05:34:37.404+00:00</time>
      </trkpt>
      <trkpt lat="43.62069" lon="7.04312">
        <ele>151</ele>
        <time>2026-06-10T05:34:41.913+00:00</time>
      </trkpt>
      <trkpt lat="43.62064" lon="7.04316">
        <ele>151</ele>
        <time>2026-06-10T05:34:46.403+00:00</time>
      </trkpt>
      <trkpt lat="43.62059" lon="7.04323">
        <ele>148</ele>
        <time>2026-06-10T05:34:51.403+00:00</time>
      </trkpt>
      <trkpt lat="43.62055" lon="7.04328">
        <ele>148</ele>
        <time>2026-06-10T05:34:55.699+00:00</time>
      </trkpt>
      <trkpt lat="43.62052" lon="7.04333">
        <ele>148</ele>
        <time>2026-06-10T05:35:00.404+00:00</time>
      </trkpt>
      <trkpt lat="43.62048" lon="7.04337">
        <ele>148</ele>
        <time>2026-06-10T05:35:04.404+00:00</time>
      </trkpt>
      <trkpt lat="43.62045" lon="7.04341">
        <ele>148</ele>
        <time>2026-06-10T05:35:08.949+00:00</time>
      </trkpt>
      <trkpt lat="43.62041" lon="7.04344">
        <ele>148</ele>
        <time>2026-06-10T05:35:13.404+00:00</time>
      </trkpt>
      <trkpt lat="43.62037" lon="7.04343">
        <ele>148</ele>
        <time>2026-06-10T05:35:17.404+00:00</time>
      </trkpt>
      <trkpt lat="43.62032" lon="7.04338">
        <ele>148</ele>
        <time>2026-06-10T05:35:21.708+00:00</time>
      </trkpt>
      <trkpt lat="43.62028" lon="7.04338">
        <ele>148</ele>
        <time>2026-06-10T05:35:26.404+00:00</time>
      </trkpt>
      <trkpt lat="43.62026" lon="7.04345">
        <ele>148</ele>
        <time>2026-06-10T05:35:31.042+00:00</time>
      </trkpt>
      <trkpt lat="43.62024" lon="7.04351">
        <ele>146</ele>
        <time>2026-06-10T05:35:35.364+00:00</time>
      </trkpt>
      <trkpt lat="43.62023" lon="7.04358">
        <ele>146</ele>
        <time>2026-06-10T05:35:39.404+00:00</time>
      </trkpt>
      <trkpt lat="43.62023" lon="7.04364">
        <ele>146</ele>
        <time>2026-06-10T05:35:43.980+00:00</time>
      </trkpt>
      <trkpt lat="43.62019" lon="7.04369">
        <ele>146</ele>
        <time>2026-06-10T05:35:48.403+00:00</time>
      </trkpt>
      <trkpt lat="43.62015" lon="7.04372">
        <ele>146</ele>
        <time>2026-06-10T05:35:52.404+00:00</time>
      </trkpt>
      <trkpt lat="43.62011" lon="7.04376">
        <ele>144</ele>
        <time>2026-06-10T05:35:56.795+00:00</time>
      </trkpt>
      <trkpt lat="43.62007" lon="7.04381">
        <ele>144</ele>
        <time>2026-06-10T05:36:00.949+00:00</time>
      </trkpt>
      <trkpt lat="43.62003" lon="7.04385">
        <ele>144</ele>
        <time>2026-06-10T05:36:05.404+00:00</time>
      </trkpt>
      <trkpt lat="43.62" lon="7.0439">
        <ele>144</ele>
        <time>2026-06-10T05:36:10.410+00:00</time>
      </trkpt>
      <trkpt lat="43.61997" lon="7.04395">
        <ele>144</ele>
        <time>2026-06-10T05:36:14.924+00:00</time>
      </trkpt>
      <trkpt lat="43.61993" lon="7.04397">
        <ele>144</ele>
        <time>2026-06-10T05:36:19.403+00:00</time>
      </trkpt>
      <trkpt lat="43.61988" lon="7.04397">
        <ele>144</ele>
        <time>2026-06-10T05:36:23.404+00:00</time>
      </trkpt>
      <trkpt lat="43.61985" lon="7.04401">
        <ele>145</ele>
        <time>2026-06-10T05:36:28.253+00:00</time>
      </trkpt>
      <trkpt lat="43.61981" lon="7.04402">
        <ele>145</ele>
        <time>2026-06-10T05:36:32.404+00:00</time>
      </trkpt>
      <trkpt lat="43.61977" lon="7.04403">
        <ele>145</ele>
        <time>2026-06-10T05:36:36.867+00:00</time>
      </trkpt>
      <trkpt lat="43.61972" lon="7.04403">
        <ele>142</ele>
        <time>2026-06-10T05:36:40.948+00:00</time>
      </trkpt>
      <trkpt lat="43.61968" lon="7.04406">
        <ele>142</ele>
        <time>2026-06-10T05:36:45.268+00:00</time>
      </trkpt>
      <trkpt lat="43.61964" lon="7.0441">
        <ele>142</ele>
        <time>2026-06-10T05:36:49.403+00:00</time>
      </trkpt>
      <trkpt lat="43.61961" lon="7.04414">
        <ele>142</ele>
        <time>2026-06-10T05:36:53.404+00:00</time>
      </trkpt>
      <trkpt lat="43.61957" lon="7.04417">
        <ele>140</ele>
        <time>2026-06-10T05:36:57.404+00:00</time>
      </trkpt>
      <trkpt lat="43.61952" lon="7.04421">
        <ele>140</ele>
        <time>2026-06-10T05:37:02.404+00:00</time>
      </trkpt>
      <trkpt lat="43.61949" lon="7.04426">
        <ele>140</ele>
        <time>2026-06-10T05:37:06.925+00:00</time>
      </trkpt>
      <trkpt lat="43.61942" lon="7.04425">
        <ele>140</ele>
        <time>2026-06-10T05:37:11.403+00:00</time>
      </trkpt>
      <trkpt lat="43.61937" lon="7.04427">
        <ele>140</ele>
        <time>2026-06-10T05:37:16.404+00:00</time>
      </trkpt>
      <trkpt lat="43.61932" lon="7.0443">
        <ele>140</ele>
        <time>2026-06-10T05:37:20.768+00:00</time>
      </trkpt>
      <trkpt lat="43.61927" lon="7.04433">
        <ele>136</ele>
        <time>2026-06-10T05:37:25.411+00:00</time>
      </trkpt>
      <trkpt lat="43.61924" lon="7.0444">
        <ele>136</ele>
        <time>2026-06-10T05:37:30.429+00:00</time>
      </trkpt>
      <trkpt lat="43.61921" lon="7.04445">
        <ele>136</ele>
        <time>2026-06-10T05:37:34.999+00:00</time>
      </trkpt>
      <trkpt lat="43.61919" lon="7.04451">
        <ele>136</ele>
        <time>2026-06-10T05:37:39.351+00:00</time>
      </trkpt>
      <trkpt lat="43.61918" lon="7.04456">
        <ele>136</ele>
        <time>2026-06-10T05:37:43.729+00:00</time>
      </trkpt>
      <trkpt lat="43.61914" lon="7.04458">
        <ele>134</ele>
        <time>2026-06-10T05:37:47.934+00:00</time>
      </trkpt>
      <trkpt lat="43.61913" lon="7.04463">
        <ele>134</ele>
        <time>2026-06-10T05:37:52.403+00:00</time>
      </trkpt>
      <trkpt lat="43.61911" lon="7.04468">
        <ele>134</ele>
        <time>2026-06-10T05:37:56.687+00:00</time>
      </trkpt>
      <trkpt lat="43.61909" lon="7.04474">
        <ele>134</ele>
        <time>2026-06-10T05:38:01.403+00:00</time>
      </trkpt>
      <trkpt lat="43.61904" lon="7.04478">
        <ele>134</ele>
        <time>2026-06-10T05:38:05.699+00:00</time>
      </trkpt>
      <trkpt lat="43.619" lon="7.04482">
        <ele>133</ele>
        <time>2026-06-10T05:38:10.028+00:00</time>
      </trkpt>
      <trkpt lat="43.61897" lon="7.04488">
        <ele>132</ele>
        <time>2026-06-10T05:38:14.403+00:00</time>
      </trkpt>
      <trkpt lat="43.61893" lon="7.04492">
        <ele>132</ele>
        <time>2026-06-10T05:38:18.403+00:00</time>
      </trkpt>
      <trkpt lat="43.61889" lon="7.04499">
        <ele>132</ele>
        <time>2026-06-10T05:38:23.095+00:00</time>
      </trkpt>
      <trkpt lat="43.61883" lon="7.04502">
        <ele>132</ele>
        <time>2026-06-10T05:38:27.403+00:00</time>
      </trkpt>
      <trkpt lat="43.61882" lon="7.04501">
        <ele>132</ele>
        <time>2026-06-10T05:38:32.346+00:00</time>
      </trkpt>
      <trkpt lat="43.61881" lon="7.04501">
        <ele>132</ele>
        <time>2026-06-10T05:38:36.402+00:00</time>
      </trkpt>
      <trkpt lat="43.61874" lon="7.045">
        <ele>133</ele>
        <time>2026-06-10T05:38:40.906+00:00</time>
      </trkpt>
      <trkpt lat="43.61869" lon="7.04499">
        <ele>133</ele>
        <time>2026-06-10T05:38:45.124+00:00</time>
      </trkpt>
      <trkpt lat="43.61863" lon="7.04499">
        <ele>133</ele>
        <time>2026-06-10T05:38:49.403+00:00</time>
      </trkpt>
      <trkpt lat="43.61858" lon="7.04499">
        <ele>133</ele>
        <time>2026-06-10T05:38:54.403+00:00</time>
      </trkpt>
      <trkpt lat="43.61854" lon="7.04496">
        <ele>133</ele>
        <time>2026-06-10T05:38:59.348+00:00</time>
      </trkpt>
      <trkpt lat="43.61849" lon="7.04495">
        <ele>133</ele>
        <time>2026-06-10T05:39:04.193+00:00</time>
      </trkpt>
      <trkpt lat="43.61845" lon="7.04494">
        <ele>135</ele>
        <time>2026-06-10T05:39:08.402+00:00</time>
      </trkpt>
      <trkpt lat="43.61839" lon="7.04494">
        <ele>135</ele>
        <time>2026-06-10T05:39:13.403+00:00</time>
      </trkpt>
      <trkpt lat="43.61836" lon="7.04491">
        <ele>135</ele>
        <time>2026-06-10T05:39:17.609+00:00</time>
      </trkpt>
      <trkpt lat="43.61831" lon="7.04493">
        <ele>135</ele>
        <time>2026-06-10T05:39:22.168+00:00</time>
      </trkpt>
      <trkpt lat="43.61826" lon="7.04496">
        <ele>135</ele>
        <time>2026-06-10T05:39:26.403+00:00</time>
      </trkpt>
      <trkpt lat="43.6182" lon="7.04498">
        <ele>135</ele>
        <time>2026-06-10T05:39:31.324+00:00</time>
      </trkpt>
      <trkpt lat="43.61815" lon="7.045">
        <ele>135</ele>
        <time>2026-06-10T05:39:35.403+00:00</time>
      </trkpt>
      <trkpt lat="43.61809" lon="7.04502">
        <ele>135</ele>
        <time>2026-06-10T05:39:40.380+00:00</time>
      </trkpt>
      <trkpt lat="43.61805" lon="7.04505">
        <ele>135</ele>
        <time>2026-06-10T05:39:44.402+00:00</time>
      </trkpt>
      <trkpt lat="43.618" lon="7.0451">
        <ele>135</ele>
        <time>2026-06-10T05:39:49.187+00:00</time>
      </trkpt>
      <trkpt lat="43.61795" lon="7.04513">
        <ele>135</ele>
        <time>2026-06-10T05:39:53.403+00:00</time>
      </trkpt>
      <trkpt lat="43.61791" lon="7.0451">
        <ele>134</ele>
        <time>2026-06-10T05:39:57.683+00:00</time>
      </trkpt>
      <trkpt lat="43.61786" lon="7.04506">
        <ele>134</ele>
        <time>2026-06-10T05:40:02.403+00:00</time>
      </trkpt>
      <trkpt lat="43.61781" lon="7.04503">
        <ele>134</ele>
        <time>2026-06-10T05:40:07.222+00:00</time>
      </trkpt>
      <trkpt lat="43.61775" lon="7.04501">
        <ele>134</ele>
        <time>2026-06-10T05:40:11.402+00:00</time>
      </trkpt>
      <trkpt lat="43.61768" lon="7.04499">
        <ele>134</ele>
        <time>2026-06-10T05:40:16.149+00:00</time>
      </trkpt>
      <trkpt lat="43.61764" lon="7.04498">
        <ele>135</ele>
        <time>2026-06-10T05:40:20.402+00:00</time>
      </trkpt>
      <trkpt lat="43.61759" lon="7.04496">
        <ele>135</ele>
        <time>2026-06-10T05:40:24.402+00:00</time>
      </trkpt>
      <trkpt lat="43.61753" lon="7.04493">
        <ele>135</ele>
        <time>2026-06-10T05:40:29.244+00:00</time>
      </trkpt>
      <trkpt lat="43.61748" lon="7.04491">
        <ele>135</ele>
        <time>2026-06-10T05:40:33.402+00:00</time>
      </trkpt>
      <trkpt lat="43.61742" lon="7.0449">
        <ele>135</ele>
        <time>2026-06-10T05:40:38.065+00:00</time>
      </trkpt>
      <trkpt lat="43.61737" lon="7.04488">
        <ele>135</ele>
        <time>2026-06-10T05:40:42.185+00:00</time>
      </trkpt>
      <trkpt lat="43.61732" lon="7.04484">
        <ele>137</ele>
        <time>2026-06-10T05:40:46.409+00:00</time>
      </trkpt>
      <trkpt lat="43.61727" lon="7.04481">
        <ele>137</ele>
        <time>2026-06-10T05:40:50.824+00:00</time>
      </trkpt>
      <trkpt lat="43.61723" lon="7.04474">
        <ele>137</ele>
        <time>2026-06-10T05:40:55.142+00:00</time>
      </trkpt>
      <trkpt lat="43.6172" lon="7.04468">
        <ele>137</ele>
        <time>2026-06-10T05:40:59.403+00:00</time>
      </trkpt>
      <trkpt lat="43.61716" lon="7.04461">
        <ele>137</ele>
        <time>2026-06-10T05:41:04.403+00:00</time>
      </trkpt>
      <trkpt lat="43.61712" lon="7.04455">
        <ele>136</ele>
        <time>2026-06-10T05:41:09.145+00:00</time>
      </trkpt>
      <trkpt lat="43.6171" lon="7.04448">
        <ele>136</ele>
        <time>2026-06-10T05:41:13.403+00:00</time>
      </trkpt>
      <trkpt lat="43.61708" lon="7.0444">
        <ele>139</ele>
        <time>2026-06-10T05:41:18.403+00:00</time>
      </trkpt>
      <trkpt lat="43.61707" lon="7.04432">
        <ele>139</ele>
        <time>2026-06-10T05:41:23.168+00:00</time>
      </trkpt>
      <trkpt lat="43.61706" lon="7.04424">
        <ele>136</ele>
        <time>2026-06-10T05:41:27.402+00:00</time>
      </trkpt>
      <trkpt lat="43.61707" lon="7.04416">
        <ele>136</ele>
        <time>2026-06-10T05:41:32.403+00:00</time>
      </trkpt>
      <trkpt lat="43.61706" lon="7.04408">
        <ele>136</ele>
        <time>2026-06-10T05:41:37.182+00:00</time>
      </trkpt>
      <trkpt lat="43.61706" lon="7.04402">
        <ele>131</ele>
        <time>2026-06-10T05:41:41.402+00:00</time>
      </trkpt>
      <trkpt lat="43.61703" lon="7.04394">
        <ele>131</ele>
        <time>2026-06-10T05:41:46.208+00:00</time>
      </trkpt>
      <trkpt lat="43.617" lon="7.04387">
        <ele>131</ele>
        <time>2026-06-10T05:41:51.020+00:00</time>
      </trkpt>
      <trkpt lat="43.61697" lon="7.04381">
        <ele>131</ele>
        <time>2026-06-10T05:41:55.403+00:00</time>
      </trkpt>
      <trkpt lat="43.61695" lon="7.04373">
        <ele>130</ele>
        <time>2026-06-10T05:41:59.904+00:00</time>
      </trkpt>
      <trkpt lat="43.61693" lon="7.04366">
        <ele>130</ele>
        <time>2026-06-10T05:42:04.403+00:00</time>
      </trkpt>
      <trkpt lat="43.6169" lon="7.04359">
        <ele>130</ele>
        <time>2026-06-10T05:42:09.403+00:00</time>
      </trkpt>
      <trkpt lat="43.61687" lon="7.04354">
        <ele>130</ele>
        <time>2026-06-10T05:42:13.403+00:00</time>
      </trkpt>
      <trkpt lat="43.61684" lon="7.04349">
        <ele>130</ele>
        <time>2026-06-10T05:42:17.413+00:00</time>
      </trkpt>
      <trkpt lat="43.61681" lon="7.04341">
        <ele>131</ele>
        <time>2026-06-10T05:42:22.403+00:00</time>
      </trkpt>
      <trkpt lat="43.61678" lon="7.04333">
        <ele>129</ele>
        <time>2026-06-10T05:42:27.380+00:00</time>
      </trkpt>
      <trkpt lat="43.61676" lon="7.04326">
        <ele>129</ele>
        <time>2026-06-10T05:42:31.403+00:00</time>
      </trkpt>
      <trkpt lat="43.61673" lon="7.04321">
        <ele>129</ele>
        <time>2026-06-10T05:42:35.402+00:00</time>
      </trkpt>
      <trkpt lat="43.6167" lon="7.04316">
        <ele>131</ele>
        <time>2026-06-10T05:42:39.841+00:00</time>
      </trkpt>
      <trkpt lat="43.61665" lon="7.04311">
        <ele>131</ele>
        <time>2026-06-10T05:42:44.061+00:00</time>
      </trkpt>
      <trkpt lat="43.61662" lon="7.04306">
        <ele>131</ele>
        <time>2026-06-10T05:42:48.403+00:00</time>
      </trkpt>
      <trkpt lat="43.61659" lon="7.04299">
        <ele>131</ele>
        <time>2026-06-10T05:42:53.402+00:00</time>
      </trkpt>
      <trkpt lat="43.61656" lon="7.04292">
        <ele>133</ele>
        <time>2026-06-10T05:42:58.282+00:00</time>
      </trkpt>
      <trkpt lat="43.61655" lon="7.04286">
        <ele>133</ele>
        <time>2026-06-10T05:43:02.402+00:00</time>
      </trkpt>
      <trkpt lat="43.61652" lon="7.04278">
        <ele>133</ele>
        <time>2026-06-10T05:43:07.401+00:00</time>
      </trkpt>
      <trkpt lat="43.61649" lon="7.0427">
        <ele>133</ele>
        <time>2026-06-10T05:43:11.991+00:00</time>
      </trkpt>
      <trkpt lat="43.61647" lon="7.04263">
        <ele>133</ele>
        <time>2026-06-10T05:43:16.402+00:00</time>
      </trkpt>
      <trkpt lat="43.61644" lon="7.04257">
        <ele>133</ele>
        <time>2026-06-10T05:43:20.402+00:00</time>
      </trkpt>
      <trkpt lat="43.61642" lon="7.04249">
        <ele>133</ele>
        <time>2026-06-10T05:43:25.009+00:00</time>
      </trkpt>
      <trkpt lat="43.6164" lon="7.04242">
        <ele>133</ele>
        <time>2026-06-10T05:43:29.402+00:00</time>
      </trkpt>
      <trkpt lat="43.6164" lon="7.04235">
        <ele>133</ele>
        <time>2026-06-10T05:43:33.662+00:00</time>
      </trkpt>
      <trkpt lat="43.61638" lon="7.04227">
        <ele>133</ele>
        <time>2026-06-10T05:43:38.181+00:00</time>
      </trkpt>
      <trkpt lat="43.61637" lon="7.0422">
        <ele>133</ele>
        <time>2026-06-10T05:43:42.402+00:00</time>
      </trkpt>
      <trkpt lat="43.61633" lon="7.04214">
        <ele>133</ele>
        <time>2026-06-10T05:43:47.027+00:00</time>
      </trkpt>
      <trkpt lat="43.61633" lon="7.04207">
        <ele>133</ele>
        <time>2026-06-10T05:43:51.251+00:00</time>
      </trkpt>
      <trkpt lat="43.61633" lon="7.042">
        <ele>133</ele>
        <time>2026-06-10T05:43:55.401+00:00</time>
      </trkpt>
      <trkpt lat="43.61632" lon="7.04193">
        <ele>133</ele>
        <time>2026-06-10T05:43:59.758+00:00</time>
      </trkpt>
      <trkpt lat="43.61632" lon="7.04186">
        <ele>133</ele>
        <time>2026-06-10T05:44:04.165+00:00</time>
      </trkpt>
      <trkpt lat="43.61631" lon="7.04179">
        <ele>133</ele>
        <time>2026-06-10T05:44:08.605+00:00</time>
      </trkpt>
      <trkpt lat="43.6163" lon="7.04172">
        <ele>133</ele>
        <time>2026-06-10T05:44:13.168+00:00</time>
      </trkpt>
      <trkpt lat="43.61628" lon="7.04166">
        <ele>133</ele>
        <time>2026-06-10T05:44:17.402+00:00</time>
      </trkpt>
      <trkpt lat="43.61627" lon="7.04158">
        <ele>133</ele>
        <time>2026-06-10T05:44:22.193+00:00</time>
      </trkpt>
      <trkpt lat="43.61622" lon="7.04153">
        <ele>133</ele>
        <time>2026-06-10T05:44:26.402+00:00</time>
      </trkpt>
      <trkpt lat="43.61618" lon="7.04147">
        <ele>133</ele>
        <time>2026-06-10T05:44:31.401+00:00</time>
      </trkpt>
      <trkpt lat="43.61612" lon="7.04144">
        <ele>133</ele>
        <time>2026-06-10T05:44:36.183+00:00</time>
      </trkpt>
      <trkpt lat="43.61607" lon="7.04144">
        <ele>133</ele>
        <time>2026-06-10T05:44:40.402+00:00</time>
      </trkpt>
      <trkpt lat="43.61601" lon="7.04143">
        <ele>133</ele>
        <time>2026-06-10T05:44:45.402+00:00</time>
      </trkpt>
      <trkpt lat="43.61596" lon="7.04142">
        <ele>134</ele>
        <time>2026-06-10T05:44:50.388+00:00</time>
      </trkpt>
      <trkpt lat="43.6159" lon="7.04142">
        <ele>134</ele>
        <time>2026-06-10T05:44:55.142+00:00</time>
      </trkpt>
      <trkpt lat="43.61584" lon="7.04142">
        <ele>134</ele>
        <time>2026-06-10T05:44:59.402+00:00</time>
      </trkpt>
      <trkpt lat="43.61577" lon="7.04142">
        <ele>134</ele>
        <time>2026-06-10T05:45:04.402+00:00</time>
      </trkpt>
      <trkpt lat="43.61572" lon="7.04145">
        <ele>134</ele>
        <time>2026-06-10T05:45:09.145+00:00</time>
      </trkpt>
      <trkpt lat="43.61567" lon="7.0415">
        <ele>135</ele>
        <time>2026-06-10T05:45:13.401+00:00</time>
      </trkpt>
      <trkpt lat="43.61565" lon="7.04156">
        <ele>134</ele>
        <time>2026-06-10T05:45:18.023+00:00</time>
      </trkpt>
      <trkpt lat="43.61563" lon="7.04162">
        <ele>134</ele>
        <time>2026-06-10T05:45:22.401+00:00</time>
      </trkpt>
      <trkpt lat="43.61556" lon="7.04164">
        <ele>134</ele>
        <time>2026-06-10T05:46:12.899+00:00</time>
      </trkpt>
      <trkpt lat="43.61553" lon="7.0417">
        <ele>134</ele>
        <time>2026-06-10T05:46:17.401+00:00</time>
      </trkpt>
      <trkpt lat="43.61547" lon="7.04175">
        <ele>134</ele>
        <time>2026-06-10T05:46:22.440+00:00</time>
      </trkpt>
      <trkpt lat="43.61542" lon="7.04175">
        <ele>134</ele>
        <time>2026-06-10T05:46:27.025+00:00</time>
      </trkpt>
      <trkpt lat="43.61538" lon="7.0417">
        <ele>134</ele>
        <time>2026-06-10T05:46:31.402+00:00</time>
      </trkpt>
      <trkpt lat="43.61534" lon="7.04167">
        <ele>134</ele>
        <time>2026-06-10T05:46:36.069+00:00</time>
      </trkpt>
      <trkpt lat="43.61529" lon="7.04165">
        <ele>134</ele>
        <time>2026-06-10T05:46:40.401+00:00</time>
      </trkpt>
      <trkpt lat="43.61527" lon="7.04155">
        <ele>134</ele>
        <time>2026-06-10T05:46:45.265+00:00</time>
      </trkpt>
      <trkpt lat="43.61529" lon="7.04144">
        <ele>135</ele>
        <time>2026-06-10T05:46:49.401+00:00</time>
      </trkpt>
      <trkpt lat="43.61532" lon="7.04134">
        <ele>135</ele>
        <time>2026-06-10T05:46:54.009+00:00</time>
      </trkpt>
      <trkpt lat="43.61535" lon="7.04126">
        <ele>135</ele>
        <time>2026-06-10T05:46:58.402+00:00</time>
      </trkpt>
      <trkpt lat="43.61538" lon="7.04121">
        <ele>136</ele>
        <time>2026-06-10T05:47:02.923+00:00</time>
      </trkpt>
      <trkpt lat="43.61545" lon="7.04116">
        <ele>136</ele>
        <time>2026-06-10T05:47:07.402+00:00</time>
      </trkpt>
      <trkpt lat="43.61551" lon="7.04113">
        <ele>136</ele>
        <time>2026-06-10T05:47:12.402+00:00</time>
      </trkpt>
      <trkpt lat="43.61552" lon="7.04108">
        <ele>136</ele>
        <time>2026-06-10T05:47:16.402+00:00</time>
      </trkpt>
      <trkpt lat="43.61555" lon="7.04102">
        <ele>136</ele>
        <time>2026-06-10T05:47:21.401+00:00</time>
      </trkpt>
      <trkpt lat="43.61555" lon="7.04096">
        <ele>138</ele>
        <time>2026-06-10T05:47:25.778+00:00</time>
      </trkpt>
      <trkpt lat="43.61558" lon="7.04087">
        <ele>138</ele>
        <time>2026-06-10T05:47:30.402+00:00</time>
      </trkpt>
      <trkpt lat="43.6156" lon="7.0408">
        <ele>138</ele>
        <time>2026-06-10T05:47:34.402+00:00</time>
      </trkpt>
      <trkpt lat="43.61562" lon="7.04072">
        <ele>138</ele>
        <time>2026-06-10T05:47:38.402+00:00</time>
      </trkpt>
      <trkpt lat="43.61563" lon="7.04065">
        <ele>141</ele>
        <time>2026-06-10T05:47:42.402+00:00</time>
      </trkpt>
      <trkpt lat="43.61566" lon="7.04057">
        <ele>141</ele>
        <time>2026-06-10T05:47:47.402+00:00</time>
      </trkpt>
      <trkpt lat="43.61571" lon="7.04055">
        <ele>140</ele>
        <time>2026-06-10T05:47:52.411+00:00</time>
      </trkpt>
      <trkpt lat="43.61574" lon="7.04051">
        <ele>140</ele>
        <time>2026-06-10T05:47:56.402+00:00</time>
      </trkpt>
      <trkpt lat="43.61577" lon="7.04044">
        <ele>140</ele>
        <time>2026-06-10T05:48:00.985+00:00</time>
      </trkpt>
      <trkpt lat="43.61579" lon="7.04036">
        <ele>142</ele>
        <time>2026-06-10T05:48:05.401+00:00</time>
      </trkpt>
      <trkpt lat="43.61581" lon="7.04032">
        <ele>142</ele>
        <time>2026-06-10T05:48:09.402+00:00</time>
      </trkpt>
      <trkpt lat="43.61583" lon="7.04025">
        <ele>142</ele>
        <time>2026-06-10T05:48:14.402+00:00</time>
      </trkpt>
      <trkpt lat="43.61584" lon="7.04017">
        <ele>142</ele>
        <time>2026-06-10T05:48:19.402+00:00</time>
      </trkpt>
      <trkpt lat="43.61586" lon="7.0401">
        <ele>143</ele>
        <time>2026-06-10T05:48:23.401+00:00</time>
      </trkpt>
      <trkpt lat="43.61589" lon="7.04005">
        <ele>143</ele>
        <time>2026-06-10T05:48:28.401+00:00</time>
      </trkpt>
      <trkpt lat="43.61592" lon="7.04001">
        <ele>143</ele>
        <time>2026-06-10T05:48:32.401+00:00</time>
      </trkpt>
      <trkpt lat="43.61593" lon="7.03994">
        <ele>143</ele>
        <time>2026-06-10T05:48:37.401+00:00</time>
      </trkpt>
      <trkpt lat="43.61596" lon="7.03989">
        <ele>143</ele>
        <time>2026-06-10T05:48:41.401+00:00</time>
      </trkpt>
      <trkpt lat="43.616" lon="7.03983">
        <ele>143</ele>
        <time>2026-06-10T05:48:46.401+00:00</time>
      </trkpt>
      <trkpt lat="43.61604" lon="7.03977">
        <ele>143</ele>
        <time>2026-06-10T05:48:51.401+00:00</time>
      </trkpt>
      <trkpt lat="43.61609" lon="7.03971">
        <ele>143</ele>
        <time>2026-06-10T05:48:56.401+00:00</time>
      </trkpt>
      <trkpt lat="43.61614" lon="7.03963">
        <ele>143</ele>
        <time>2026-06-10T05:49:01.401+00:00</time>
      </trkpt>
      <trkpt lat="43.61616" lon="7.03957">
        <ele>143</ele>
        <time>2026-06-10T05:49:05.400+00:00</time>
      </trkpt>
      <trkpt lat="43.61615" lon="7.03948">
        <ele>143</ele>
        <time>2026-06-10T05:49:10.401+00:00</time>
      </trkpt>
      <trkpt lat="43.61615" lon="7.03942">
        <ele>143</ele>
        <time>2026-06-10T05:49:14.401+00:00</time>
      </trkpt>
      <trkpt lat="43.61617" lon="7.03934">
        <ele>143</ele>
        <time>2026-06-10T05:49:19.400+00:00</time>
      </trkpt>
      <trkpt lat="43.61619" lon="7.03925">
        <ele>142</ele>
        <time>2026-06-10T05:49:24.400+00:00</time>
      </trkpt>
      <trkpt lat="43.61623" lon="7.0392">
        <ele>142</ele>
        <time>2026-06-10T05:49:28.401+00:00</time>
      </trkpt>
      <trkpt lat="43.61626" lon="7.03912">
        <ele>139</ele>
        <time>2026-06-10T05:49:33.401+00:00</time>
      </trkpt>
      <trkpt lat="43.61626" lon="7.03904">
        <ele>139</ele>
        <time>2026-06-10T05:49:38.401+00:00</time>
      </trkpt>
      <trkpt lat="43.61625" lon="7.03896">
        <ele>142</ele>
        <time>2026-06-10T05:49:43.401+00:00</time>
      </trkpt>
      <trkpt lat="43.61624" lon="7.0389">
        <ele>142</ele>
        <time>2026-06-10T05:49:47.401+00:00</time>
      </trkpt>
      <trkpt lat="43.61624" lon="7.03884">
        <ele>142</ele>
        <time>2026-06-10T05:49:51.401+00:00</time>
      </trkpt>
      <trkpt lat="43.61622" lon="7.03876">
        <ele>142</ele>
        <time>2026-06-10T05:49:56.401+00:00</time>
      </trkpt>
      <trkpt lat="43.61622" lon="7.03866">
        <ele>143</ele>
        <time>2026-06-10T05:50:01.401+00:00</time>
      </trkpt>
      <trkpt lat="43.61623" lon="7.0386">
        <ele>143</ele>
        <time>2026-06-10T05:50:05.401+00:00</time>
      </trkpt>
      <trkpt lat="43.61624" lon="7.03853">
        <ele>143</ele>
        <time>2026-06-10T05:50:09.400+00:00</time>
      </trkpt>
      <trkpt lat="43.61627" lon="7.03844">
        <ele>142</ele>
        <time>2026-06-10T05:50:14.401+00:00</time>
      </trkpt>
      <trkpt lat="43.6163" lon="7.03836">
        <ele>142</ele>
        <time>2026-06-10T05:50:19.400+00:00</time>
      </trkpt>
      <trkpt lat="43.61632" lon="7.03829">
        <ele>142</ele>
        <time>2026-06-10T05:50:24.400+00:00</time>
      </trkpt>
      <trkpt lat="43.61635" lon="7.03823">
        <ele>142</ele>
        <time>2026-06-10T05:50:28.401+00:00</time>
      </trkpt>
      <trkpt lat="43.61635" lon="7.03814">
        <ele>144</ele>
        <time>2026-06-10T05:50:33.400+00:00</time>
      </trkpt>
      <trkpt lat="43.61634" lon="7.03806">
        <ele>144</ele>
        <time>2026-06-10T05:50:38.401+00:00</time>
      </trkpt>
      <trkpt lat="43.61634" lon="7.03798">
        <ele>144</ele>
        <time>2026-06-10T05:50:43.401+00:00</time>
      </trkpt>
      <trkpt lat="43.61635" lon="7.03791">
        <ele>145</ele>
        <time>2026-06-10T05:50:47.400+00:00</time>
      </trkpt>
      <trkpt lat="43.61638" lon="7.03785">
        <ele>145</ele>
        <time>2026-06-10T05:50:51.741+00:00</time>
      </trkpt>
      <trkpt lat="43.61638" lon="7.03779">
        <ele>145</ele>
        <time>2026-06-10T05:50:56.215+00:00</time>
      </trkpt>
      <trkpt lat="43.61639" lon="7.03771">
        <ele>145</ele>
        <time>2026-06-10T05:51:00.401+00:00</time>
      </trkpt>
      <trkpt lat="43.61639" lon="7.03763">
        <ele>146</ele>
        <time>2026-06-10T05:51:05.400+00:00</time>
      </trkpt>
      <trkpt lat="43.61636" lon="7.03757">
        <ele>146</ele>
        <time>2026-06-10T05:51:09.866+00:00</time>
      </trkpt>
      <trkpt lat="43.61632" lon="7.03752">
        <ele>146</ele>
        <time>2026-06-10T05:51:14.401+00:00</time>
      </trkpt>
      <trkpt lat="43.61627" lon="7.03747">
        <ele>146</ele>
        <time>2026-06-10T05:51:18.401+00:00</time>
      </trkpt>
      <trkpt lat="43.61624" lon="7.03742">
        <ele>147</ele>
        <time>2026-06-10T05:51:22.684+00:00</time>
      </trkpt>
      <trkpt lat="43.61621" lon="7.03737">
        <ele>147</ele>
        <time>2026-06-10T05:51:27.070+00:00</time>
      </trkpt>
      <trkpt lat="43.61617" lon="7.03732">
        <ele>147</ele>
        <time>2026-06-10T05:51:31.400+00:00</time>
      </trkpt>
      <trkpt lat="43.61613" lon="7.03726">
        <ele>147</ele>
        <time>2026-06-10T05:51:36.401+00:00</time>
      </trkpt>
      <trkpt lat="43.61609" lon="7.03721">
        <ele>147</ele>
        <time>2026-06-10T05:51:41.401+00:00</time>
      </trkpt>
      <trkpt lat="43.61598" lon="7.03705">
        <ele>146</ele>
        <time>2026-06-10T05:52:00.246+00:00</time>
      </trkpt>
      <trkpt lat="43.61594" lon="7.03699">
        <ele>148</ele>
        <time>2026-06-10T05:52:05.362+00:00</time>
      </trkpt>
      <trkpt lat="43.61588" lon="7.03699">
        <ele>148</ele>
        <time>2026-06-10T05:52:09.913+00:00</time>
      </trkpt>
      <trkpt lat="43.61582" lon="7.03694">
        <ele>148</ele>
        <time>2026-06-10T05:52:14.401+00:00</time>
      </trkpt>
      <trkpt lat="43.61578" lon="7.03686">
        <ele>148</ele>
        <time>2026-06-10T05:52:18.401+00:00</time>
      </trkpt>
      <trkpt lat="43.61575" lon="7.03679">
        <ele>148</ele>
        <time>2026-06-10T05:52:23.047+00:00</time>
      </trkpt>
      <trkpt lat="43.6157" lon="7.03674">
        <ele>148</ele>
        <time>2026-06-10T05:52:28.203+00:00</time>
      </trkpt>
      <trkpt lat="43.61565" lon="7.03668">
        <ele>150</ele>
        <time>2026-06-10T05:52:32.841+00:00</time>
      </trkpt>
      <trkpt lat="43.61562" lon="7.03664">
        <ele>150</ele>
        <time>2026-06-10T05:52:36.982+00:00</time>
      </trkpt>
      <trkpt lat="43.61557" lon="7.0366">
        <ele>150</ele>
        <time>2026-06-10T05:52:41.126+00:00</time>
      </trkpt>
      <trkpt lat="43.61554" lon="7.03657">
        <ele>150</ele>
        <time>2026-06-10T05:52:45.301+00:00</time>
      </trkpt>
      <trkpt lat="43.61549" lon="7.03653">
        <ele>150</ele>
        <time>2026-06-10T05:52:49.401+00:00</time>
      </trkpt>
      <trkpt lat="43.61544" lon="7.0365">
        <ele>151</ele>
        <time>2026-06-10T05:52:54.400+00:00</time>
      </trkpt>
      <trkpt lat="43.6154" lon="7.03644">
        <ele>149</ele>
        <time>2026-06-10T05:52:59.401+00:00</time>
      </trkpt>
      <trkpt lat="43.61537" lon="7.03637">
        <ele>149</ele>
        <time>2026-06-10T05:53:04.340+00:00</time>
      </trkpt>
      <trkpt lat="43.61531" lon="7.03635">
        <ele>149</ele>
        <time>2026-06-10T05:53:08.401+00:00</time>
      </trkpt>
      <trkpt lat="43.61526" lon="7.0363">
        <ele>149</ele>
        <time>2026-06-10T05:53:13.400+00:00</time>
      </trkpt>
      <trkpt lat="43.61522" lon="7.03625">
        <ele>149</ele>
        <time>2026-06-10T05:53:18.401+00:00</time>
      </trkpt>
      <trkpt lat="43.61517" lon="7.03623">
        <ele>149</ele>
        <time>2026-06-10T05:53:23.400+00:00</time>
      </trkpt>
      <trkpt lat="43.61512" lon="7.03622">
        <ele>148</ele>
        <time>2026-06-10T05:53:27.400+00:00</time>
      </trkpt>
      <trkpt lat="43.61508" lon="7.03618">
        <ele>148</ele>
        <time>2026-06-10T05:53:31.861+00:00</time>
      </trkpt>
      <trkpt lat="43.61503" lon="7.03617">
        <ele>148</ele>
        <time>2026-06-10T05:53:36.435+00:00</time>
      </trkpt>
      <trkpt lat="43.61498" lon="7.03616">
        <ele>148</ele>
        <time>2026-06-10T05:53:40.886+00:00</time>
      </trkpt>
      <trkpt lat="43.61493" lon="7.03617">
        <ele>148</ele>
        <time>2026-06-10T05:53:45.368+00:00</time>
      </trkpt>
      <trkpt lat="43.61487" lon="7.03617">
        <ele>148</ele>
        <time>2026-06-10T05:53:50.242+00:00</time>
      </trkpt>
      <trkpt lat="43.61482" lon="7.03617">
        <ele>150</ele>
        <time>2026-06-10T05:53:54.482+00:00</time>
      </trkpt>
      <trkpt lat="43.61477" lon="7.03618">
        <ele>150</ele>
        <time>2026-06-10T05:53:58.823+00:00</time>
      </trkpt>
      <trkpt lat="43.61472" lon="7.0362">
        <ele>150</ele>
        <time>2026-06-10T05:54:03.241+00:00</time>
      </trkpt>
      <trkpt lat="43.61468" lon="7.0362">
        <ele>150</ele>
        <time>2026-06-10T05:54:07.399+00:00</time>
      </trkpt>
      <trkpt lat="43.61464" lon="7.03624">
        <ele>150</ele>
        <time>2026-06-10T05:54:11.910+00:00</time>
      </trkpt>
      <trkpt lat="43.61458" lon="7.03628">
        <ele>150</ele>
        <time>2026-06-10T05:54:16.399+00:00</time>
      </trkpt>
      <trkpt lat="43.61453" lon="7.0363">
        <ele>155</ele>
        <time>2026-06-10T05:54:20.886+00:00</time>
      </trkpt>
      <trkpt lat="43.61449" lon="7.03632">
        <ele>155</ele>
        <time>2026-06-10T05:54:25.400+00:00</time>
      </trkpt>
      <trkpt lat="43.61445" lon="7.03635">
        <ele>155</ele>
        <time>2026-06-10T05:54:29.866+00:00</time>
      </trkpt>
      <trkpt lat="43.61441" lon="7.03636">
        <ele>155</ele>
        <time>2026-06-10T05:54:33.885+00:00</time>
      </trkpt>
      <trkpt lat="43.61437" lon="7.03639">
        <ele>155</ele>
        <time>2026-06-10T05:54:38.028+00:00</time>
      </trkpt>
      <trkpt lat="43.61432" lon="7.03641">
        <ele>155</ele>
        <time>2026-06-10T05:54:42.400+00:00</time>
      </trkpt>
      <trkpt lat="43.61426" lon="7.03643">
        <ele>156</ele>
        <time>2026-06-10T05:54:47.077+00:00</time>
      </trkpt>
      <trkpt lat="43.6142" lon="7.03645">
        <ele>156</ele>
        <time>2026-06-10T05:54:51.400+00:00</time>
      </trkpt>
      <trkpt lat="43.61415" lon="7.03649">
        <ele>156</ele>
        <time>2026-06-10T05:54:56.400+00:00</time>
      </trkpt>
      <trkpt lat="43.61411" lon="7.03653">
        <ele>156</ele>
        <time>2026-06-10T05:55:00.945+00:00</time>
      </trkpt>
      <trkpt lat="43.61406" lon="7.03655">
        <ele>155</ele>
        <time>2026-06-10T05:55:05.400+00:00</time>
      </trkpt>
      <trkpt lat="43.61402" lon="7.03657">
        <ele>154</ele>
        <time>2026-06-10T05:55:09.399+00:00</time>
      </trkpt>
      <trkpt lat="43.61397" lon="7.03659">
        <ele>154</ele>
        <time>2026-06-10T05:55:14.401+00:00</time>
      </trkpt>
      <trkpt lat="43.61393" lon="7.03658">
        <ele>154</ele>
        <time>2026-06-10T05:55:18.400+00:00</time>
      </trkpt>
      <trkpt lat="43.61386" lon="7.0366">
        <ele>154</ele>
        <time>2026-06-10T05:55:23.400+00:00</time>
      </trkpt>
      <trkpt lat="43.61381" lon="7.03662">
        <ele>154</ele>
        <time>2026-06-10T05:55:27.699+00:00</time>
      </trkpt>
      <trkpt lat="43.61376" lon="7.03658">
        <ele>154</ele>
        <time>2026-06-10T05:55:32.400+00:00</time>
      </trkpt>
      <trkpt lat="43.61371" lon="7.03652">
        <ele>157</ele>
        <time>2026-06-10T05:55:37.400+00:00</time>
      </trkpt>
      <trkpt lat="43.61366" lon="7.03647">
        <ele>157</ele>
        <time>2026-06-10T05:55:42.400+00:00</time>
      </trkpt>
      <trkpt lat="43.61362" lon="7.03641">
        <ele>157</ele>
        <time>2026-06-10T05:55:47.400+00:00</time>
      </trkpt>
      <trkpt lat="43.61358" lon="7.03636">
        <ele>157</ele>
        <time>2026-06-10T05:55:52.406+00:00</time>
      </trkpt>
      <trkpt lat="43.61353" lon="7.03633">
        <ele>157</ele>
        <time>2026-06-10T05:55:57.246+00:00</time>
      </trkpt>
      <trkpt lat="43.61348" lon="7.03629">
        <ele>157</ele>
        <time>2026-06-10T05:56:01.399+00:00</time>
      </trkpt>
      <trkpt lat="43.61343" lon="7.03625">
        <ele>158</ele>
        <time>2026-06-10T05:56:06.400+00:00</time>
      </trkpt>
      <trkpt lat="43.61337" lon="7.0362">
        <ele>158</ele>
        <time>2026-06-10T05:56:11.380+00:00</time>
      </trkpt>
      <trkpt lat="43.61333" lon="7.03617">
        <ele>158</ele>
        <time>2026-06-10T05:56:15.399+00:00</time>
      </trkpt>
      <trkpt lat="43.61326" lon="7.03614">
        <ele>158</ele>
        <time>2026-06-10T05:56:20.400+00:00</time>
      </trkpt>
      <trkpt lat="43.61321" lon="7.03609">
        <ele>158</ele>
        <time>2026-06-10T05:56:25.264+00:00</time>
      </trkpt>
      <trkpt lat="43.61318" lon="7.03603">
        <ele>155</ele>
        <time>2026-06-10T05:56:29.400+00:00</time>
      </trkpt>
      <trkpt lat="43.61316" lon="7.03595">
        <ele>157</ele>
        <time>2026-06-10T05:56:34.400+00:00</time>
      </trkpt>
      <trkpt lat="43.61316" lon="7.03586">
        <ele>157</ele>
        <time>2026-06-10T05:56:39.400+00:00</time>
      </trkpt>
      <trkpt lat="43.61317" lon="7.03579">
        <ele>157</ele>
        <time>2026-06-10T05:56:43.687+00:00</time>
      </trkpt>
      <trkpt lat="43.61317" lon="7.03572">
        <ele>157</ele>
        <time>2026-06-10T05:56:48.061+00:00</time>
      </trkpt>
      <trkpt lat="43.61315" lon="7.03565">
        <ele>159</ele>
        <time>2026-06-10T05:56:52.287+00:00</time>
      </trkpt>
      <trkpt lat="43.61314" lon="7.03559">
        <ele>159</ele>
        <time>2026-06-10T05:56:56.400+00:00</time>
      </trkpt>
      <trkpt lat="43.61315" lon="7.03553">
        <ele>159</ele>
        <time>2026-06-10T05:57:00.965+00:00</time>
      </trkpt>
      <trkpt lat="43.61316" lon="7.03546">
        <ele>159</ele>
        <time>2026-06-10T05:57:05.400+00:00</time>
      </trkpt>
      <trkpt lat="43.61315" lon="7.03538">
        <ele>161</ele>
        <time>2026-06-10T05:57:10.390+00:00</time>
      </trkpt>
      <trkpt lat="43.61315" lon="7.03531">
        <ele>161</ele>
        <time>2026-06-10T05:57:15.028+00:00</time>
      </trkpt>
      <trkpt lat="43.61315" lon="7.03524">
        <ele>161</ele>
        <time>2026-06-10T05:57:19.399+00:00</time>
      </trkpt>
      <trkpt lat="43.61314" lon="7.03518">
        <ele>161</ele>
        <time>2026-06-10T05:57:23.400+00:00</time>
      </trkpt>
      <trkpt lat="43.61315" lon="7.0351">
        <ele>162</ele>
        <time>2026-06-10T05:57:27.886+00:00</time>
      </trkpt>
      <trkpt lat="43.61313" lon="7.03503">
        <ele>162</ele>
        <time>2026-06-10T05:57:32.400+00:00</time>
      </trkpt>
      <trkpt lat="43.61314" lon="7.03496">
        <ele>162</ele>
        <time>2026-06-10T05:57:37.399+00:00</time>
      </trkpt>
      <trkpt lat="43.61313" lon="7.0349">
        <ele>162</ele>
        <time>2026-06-10T05:57:42.307+00:00</time>
      </trkpt>
      <trkpt lat="43.61314" lon="7.03483">
        <ele>162</ele>
        <time>2026-06-10T05:57:47.363+00:00</time>
      </trkpt>
      <trkpt lat="43.61313" lon="7.03476">
        <ele>162</ele>
        <time>2026-06-10T05:57:51.400+00:00</time>
      </trkpt>
      <trkpt lat="43.61311" lon="7.03469">
        <ele>162</ele>
        <time>2026-06-10T05:57:56.023+00:00</time>
      </trkpt>
      <trkpt lat="43.61311" lon="7.03463">
        <ele>162</ele>
        <time>2026-06-10T05:58:00.400+00:00</time>
      </trkpt>
      <trkpt lat="43.61311" lon="7.03456">
        <ele>162</ele>
        <time>2026-06-10T05:58:05.400+00:00</time>
      </trkpt>
      <trkpt lat="43.61309" lon="7.03448">
        <ele>162</ele>
        <time>2026-06-10T05:58:10.364+00:00</time>
      </trkpt>
      <trkpt lat="43.61308" lon="7.03441">
        <ele>162</ele>
        <time>2026-06-10T05:58:15.240+00:00</time>
      </trkpt>
      <trkpt lat="43.61308" lon="7.03433">
        <ele>162</ele>
        <time>2026-06-10T05:58:20.400+00:00</time>
      </trkpt>
      <trkpt lat="43.61307" lon="7.03426">
        <ele>163</ele>
        <time>2026-06-10T05:58:24.561+00:00</time>
      </trkpt>
      <trkpt lat="43.61306" lon="7.03418">
        <ele>163</ele>
        <time>2026-06-10T05:58:29.398+00:00</time>
      </trkpt>
      <trkpt lat="43.61306" lon="7.03411">
        <ele>163</ele>
        <time>2026-06-10T05:58:33.686+00:00</time>
      </trkpt>
      <trkpt lat="43.61304" lon="7.03403">
        <ele>163</ele>
        <time>2026-06-10T05:58:38.399+00:00</time>
      </trkpt>
      <trkpt lat="43.61304" lon="7.03396">
        <ele>164</ele>
        <time>2026-06-10T05:58:42.399+00:00</time>
      </trkpt>
      <trkpt lat="43.61303" lon="7.03388">
        <ele>164</ele>
        <time>2026-06-10T05:58:46.970+00:00</time>
      </trkpt>
      <trkpt lat="43.61301" lon="7.03381">
        <ele>164</ele>
        <time>2026-06-10T05:58:51.398+00:00</time>
      </trkpt>
      <trkpt lat="43.613" lon="7.03373">
        <ele>166</ele>
        <time>2026-06-10T05:58:56.207+00:00</time>
      </trkpt>
      <trkpt lat="43.61299" lon="7.03367">
        <ele>166</ele>
        <time>2026-06-10T05:59:00.228+00:00</time>
      </trkpt>
      <trkpt lat="43.61297" lon="7.0336">
        <ele>166</ele>
        <time>2026-06-10T05:59:04.398+00:00</time>
      </trkpt>
      <trkpt lat="43.61295" lon="7.03353">
        <ele>166</ele>
        <time>2026-06-10T05:59:09.399+00:00</time>
      </trkpt>
      <trkpt lat="43.61293" lon="7.03346">
        <ele>168</ele>
        <time>2026-06-10T05:59:14.389+00:00</time>
      </trkpt>
      <trkpt lat="43.6129" lon="7.03341">
        <ele>162</ele>
        <time>2026-06-10T05:59:18.399+00:00</time>
      </trkpt>
      <trkpt lat="43.61288" lon="7.03335">
        <ele>162</ele>
        <time>2026-06-10T05:59:22.398+00:00</time>
      </trkpt>
      <trkpt lat="43.61285" lon="7.03328">
        <ele>162</ele>
        <time>2026-06-10T05:59:27.399+00:00</time>
      </trkpt>
      <trkpt lat="43.61282" lon="7.0332">
        <ele>162</ele>
        <time>2026-06-10T05:59:32.366+00:00</time>
      </trkpt>
      <trkpt lat="43.61281" lon="7.03313">
        <ele>164</ele>
        <time>2026-06-10T05:59:36.398+00:00</time>
      </trkpt>
      <trkpt lat="43.61281" lon="7.03305">
        <ele>164</ele>
        <time>2026-06-10T05:59:41.141+00:00</time>
      </trkpt>
      <trkpt lat="43.61282" lon="7.03297">
        <ele>164</ele>
        <time>2026-06-10T05:59:45.399+00:00</time>
      </trkpt>
      <trkpt lat="43.6128" lon="7.0329">
        <ele>167</ele>
        <time>2026-06-10T05:59:50.018+00:00</time>
      </trkpt>
      <trkpt lat="43.61278" lon="7.03282">
        <ele>167</ele>
        <time>2026-06-10T05:59:54.399+00:00</time>
      </trkpt>
      <trkpt lat="43.61277" lon="7.03272">
        <ele>167</ele>
        <time>2026-06-10T05:59:58.946+00:00</time>
      </trkpt>
      <trkpt lat="43.61276" lon="7.03263">
        <ele>169</ele>
        <time>2026-06-10T06:00:03.399+00:00</time>
      </trkpt>
      <trkpt lat="43.61271" lon="7.03257">
        <ele>169</ele>
        <time>2026-06-10T06:00:08.399+00:00</time>
      </trkpt>
      <trkpt lat="43.61265" lon="7.03254">
        <ele>169</ele>
        <time>2026-06-10T06:00:13.366+00:00</time>
      </trkpt>
      <trkpt lat="43.6126" lon="7.03251">
        <ele>164</ele>
        <time>2026-06-10T06:00:18.145+00:00</time>
      </trkpt>
      <trkpt lat="43.61255" lon="7.03248">
        <ele>164</ele>
        <time>2026-06-10T06:00:22.399+00:00</time>
      </trkpt>
      <trkpt lat="43.61248" lon="7.03246">
        <ele>164</ele>
        <time>2026-06-10T06:00:27.399+00:00</time>
      </trkpt>
      <trkpt lat="43.61243" lon="7.03244">
        <ele>164</ele>
        <time>2026-06-10T06:00:31.889+00:00</time>
      </trkpt>
      <trkpt lat="43.61237" lon="7.03243">
        <ele>164</ele>
        <time>2026-06-10T06:00:36.399+00:00</time>
      </trkpt>
      <trkpt lat="43.61229" lon="7.03241">
        <ele>162</ele>
        <time>2026-06-10T06:00:41.343+00:00</time>
      </trkpt>
      <trkpt lat="43.61224" lon="7.03239">
        <ele>162</ele>
        <time>2026-06-10T06:00:45.399+00:00</time>
      </trkpt>
      <trkpt lat="43.61219" lon="7.03241">
        <ele>162</ele>
        <time>2026-06-10T06:00:50.123+00:00</time>
      </trkpt>
      <trkpt lat="43.61212" lon="7.03242">
        <ele>162</ele>
        <time>2026-06-10T06:00:54.242+00:00</time>
      </trkpt>
      <trkpt lat="43.61207" lon="7.03242">
        <ele>164</ele>
        <time>2026-06-10T06:00:58.399+00:00</time>
      </trkpt>
      <trkpt lat="43.61203" lon="7.03242">
        <ele>164</ele>
        <time>2026-06-10T06:01:02.661+00:00</time>
      </trkpt>
      <trkpt lat="43.61197" lon="7.03242">
        <ele>164</ele>
        <time>2026-06-10T06:01:07.121+00:00</time>
      </trkpt>
      <trkpt lat="43.61193" lon="7.03241">
        <ele>164</ele>
        <time>2026-06-10T06:01:11.301+00:00</time>
      </trkpt>
      <trkpt lat="43.61189" lon="7.03238">
        <ele>164</ele>
        <time>2026-06-10T06:01:15.333+00:00</time>
      </trkpt>
      <trkpt lat="43.61186" lon="7.03235">
        <ele>164</ele>
        <time>2026-06-10T06:01:19.399+00:00</time>
      </trkpt>
      <trkpt lat="43.61181" lon="7.03233">
        <ele>164</ele>
        <time>2026-06-10T06:01:24.168+00:00</time>
      </trkpt>
      <trkpt lat="43.61176" lon="7.03232">
        <ele>167</ele>
        <time>2026-06-10T06:01:29.399+00:00</time>
      </trkpt>
      <trkpt lat="43.6117" lon="7.03226">
        <ele>167</ele>
        <time>2026-06-10T06:01:34.399+00:00</time>
      </trkpt>
      <trkpt lat="43.61166" lon="7.03223">
        <ele>167</ele>
        <time>2026-06-10T06:01:39.399+00:00</time>
      </trkpt>
      <trkpt lat="43.61162" lon="7.03219">
        <ele>167</ele>
        <time>2026-06-10T06:01:44.106+00:00</time>
      </trkpt>
      <trkpt lat="43.61158" lon="7.03218">
        <ele>167</ele>
        <time>2026-06-10T06:01:48.225+00:00</time>
      </trkpt>
      <trkpt lat="43.61154" lon="7.03215">
        <ele>167</ele>
        <time>2026-06-10T06:01:52.922+00:00</time>
      </trkpt>
      <trkpt lat="43.6115" lon="7.03212">
        <ele>168</ele>
        <time>2026-06-10T06:01:56.944+00:00</time>
      </trkpt>
      <trkpt lat="43.61146" lon="7.0321">
        <ele>168</ele>
        <time>2026-06-10T06:02:01.399+00:00</time>
      </trkpt>
      <trkpt lat="43.61142" lon="7.03208">
        <ele>169</ele>
        <time>2026-06-10T06:02:05.523+00:00</time>
      </trkpt>
      <trkpt lat="43.61138" lon="7.03204">
        <ele>169</ele>
        <time>2026-06-10T06:02:10.389+00:00</time>
      </trkpt>
      <trkpt lat="43.61135" lon="7.03201">
        <ele>169</ele>
        <time>2026-06-10T06:02:14.827+00:00</time>
      </trkpt>
      <trkpt lat="43.6113" lon="7.03201">
        <ele>169</ele>
        <time>2026-06-10T06:02:19.399+00:00</time>
      </trkpt>
      <trkpt lat="43.61128" lon="7.03198">
        <ele>169</ele>
        <time>2026-06-10T06:02:24.182+00:00</time>
      </trkpt>
      <trkpt lat="43.61123" lon="7.03195">
        <ele>169</ele>
        <time>2026-06-10T06:02:28.722+00:00</time>
      </trkpt>
      <trkpt lat="43.61119" lon="7.03192">
        <ele>169</ele>
        <time>2026-06-10T06:02:33.131+00:00</time>
      </trkpt>
      <trkpt lat="43.61115" lon="7.03188">
        <ele>169</ele>
        <time>2026-06-10T06:02:37.784+00:00</time>
      </trkpt>
      <trkpt lat="43.61111" lon="7.03185">
        <ele>169</ele>
        <time>2026-06-10T06:02:41.947+00:00</time>
      </trkpt>
      <trkpt lat="43.61107" lon="7.03181">
        <ele>169</ele>
        <time>2026-06-10T06:02:46.399+00:00</time>
      </trkpt>
      <trkpt lat="43.61103" lon="7.03176">
        <ele>171</ele>
        <time>2026-06-10T06:02:50.771+00:00</time>
      </trkpt>
      <trkpt lat="43.61099" lon="7.03172">
        <ele>171</ele>
        <time>2026-06-10T06:02:55.066+00:00</time>
      </trkpt>
      <trkpt lat="43.61095" lon="7.03169">
        <ele>170</ele>
        <time>2026-06-10T06:02:59.264+00:00</time>
      </trkpt>
      <trkpt lat="43.6109" lon="7.03164">
        <ele>170</ele>
        <time>2026-06-10T06:03:04.180+00:00</time>
      </trkpt>
      <trkpt lat="43.61086" lon="7.03159">
        <ele>170</ele>
        <time>2026-06-10T06:03:08.360+00:00</time>
      </trkpt>
      <trkpt lat="43.61082" lon="7.03155">
        <ele>170</ele>
        <time>2026-06-10T06:03:12.399+00:00</time>
      </trkpt>
      <trkpt lat="43.61077" lon="7.03149">
        <ele>170</ele>
        <time>2026-06-10T06:03:17.399+00:00</time>
      </trkpt>
      <trkpt lat="43.61075" lon="7.03142">
        <ele>170</ele>
        <time>2026-06-10T06:03:21.399+00:00</time>
      </trkpt>
      <trkpt lat="43.61073" lon="7.03133">
        <ele>170</ele>
        <time>2026-06-10T06:03:26.399+00:00</time>
      </trkpt>
      <trkpt lat="43.61069" lon="7.03127">
        <ele>166</ele>
        <time>2026-06-10T06:03:30.962+00:00</time>
      </trkpt>
      <trkpt lat="43.61067" lon="7.03122">
        <ele>167</ele>
        <time>2026-06-10T06:03:35.398+00:00</time>
      </trkpt>
      <trkpt lat="43.61065" lon="7.03114">
        <ele>167</ele>
        <time>2026-06-10T06:03:39.842+00:00</time>
      </trkpt>
      <trkpt lat="43.61063" lon="7.03108">
        <ele>167</ele>
        <time>2026-06-10T06:03:43.941+00:00</time>
      </trkpt>
      <trkpt lat="43.6106" lon="7.03104">
        <ele>167</ele>
        <time>2026-06-10T06:03:48.398+00:00</time>
      </trkpt>
      <trkpt lat="43.61055" lon="7.03097">
        <ele>167</ele>
        <time>2026-06-10T06:03:53.149+00:00</time>
      </trkpt>
      <trkpt lat="43.61052" lon="7.0309">
        <ele>169</ele>
        <time>2026-06-10T06:03:57.777+00:00</time>
      </trkpt>
      <trkpt lat="43.6105" lon="7.03085">
        <ele>169</ele>
        <time>2026-06-10T06:04:01.806+00:00</time>
      </trkpt>
      <trkpt lat="43.61051" lon="7.03076">
        <ele>169</ele>
        <time>2026-06-10T06:04:06.345+00:00</time>
      </trkpt>
      <trkpt lat="43.61052" lon="7.03069">
        <ele>170</ele>
        <time>2026-06-10T06:04:10.398+00:00</time>
      </trkpt>
      <trkpt lat="43.61052" lon="7.03063">
        <ele>170</ele>
        <time>2026-06-10T06:04:14.724+00:00</time>
      </trkpt>
      <trkpt lat="43.61051" lon="7.03056">
        <ele>170</ele>
        <time>2026-06-10T06:04:19.400+00:00</time>
      </trkpt>
      <trkpt lat="43.61048" lon="7.03047">
        <ele>170</ele>
        <time>2026-06-10T06:04:23.761+00:00</time>
      </trkpt>
      <trkpt lat="43.61045" lon="7.03041">
        <ele>171</ele>
        <time>2026-06-10T06:04:28.397+00:00</time>
      </trkpt>
      <trkpt lat="43.61041" lon="7.03034">
        <ele>168</ele>
        <time>2026-06-10T06:04:33.398+00:00</time>
      </trkpt>
      <trkpt lat="43.61036" lon="7.03028">
        <ele>168</ele>
        <time>2026-06-10T06:04:38.398+00:00</time>
      </trkpt>
      <trkpt lat="43.61033" lon="7.03022">
        <ele>168</ele>
        <time>2026-06-10T06:04:43.398+00:00</time>
      </trkpt>
      <trkpt lat="43.61031" lon="7.03023">
        <ele>168</ele>
        <time>2026-06-10T06:04:49.398+00:00</time>
      </trkpt>
      <trkpt lat="43.61027" lon="7.03016">
        <ele>168</ele>
        <time>2026-06-10T06:04:54.398+00:00</time>
      </trkpt>
      <trkpt lat="43.61023" lon="7.03009">
        <ele>169</ele>
        <time>2026-06-10T06:04:59.398+00:00</time>
      </trkpt>
      <trkpt lat="43.61019" lon="7.03005">
        <ele>169</ele>
        <time>2026-06-10T06:05:03.398+00:00</time>
      </trkpt>
      <trkpt lat="43.61018" lon="7.03">
        <ele>169</ele>
        <time>2026-06-10T06:05:08.327+00:00</time>
      </trkpt>
      <trkpt lat="43.61016" lon="7.02995">
        <ele>169</ele>
        <time>2026-06-10T06:05:12.398+00:00</time>
      </trkpt>
      <trkpt lat="43.61014" lon="7.0299">
        <ele>168</ele>
        <time>2026-06-10T06:05:16.807+00:00</time>
      </trkpt>
      <trkpt lat="43.61014" lon="7.02985">
        <ele>170</ele>
        <time>2026-06-10T06:05:20.946+00:00</time>
      </trkpt>
      <trkpt lat="43.61012" lon="7.02981">
        <ele>170</ele>
        <time>2026-06-10T06:05:25.407+00:00</time>
      </trkpt>
      <trkpt lat="43.61009" lon="7.02977">
        <ele>170</ele>
        <time>2026-06-10T06:05:30.123+00:00</time>
      </trkpt>
      <trkpt lat="43.61006" lon="7.02973">
        <ele>170</ele>
        <time>2026-06-10T06:05:34.398+00:00</time>
      </trkpt>
      <trkpt lat="43.61003" lon="7.0297">
        <ele>170</ele>
        <time>2026-06-10T06:05:39.171+00:00</time>
      </trkpt>
      <trkpt lat="43.61001" lon="7.02966">
        <ele>170</ele>
        <time>2026-06-10T06:05:43.299+00:00</time>
      </trkpt>
      <trkpt lat="43.61" lon="7.02963">
        <ele>170</ele>
        <time>2026-06-10T06:05:47.788+00:00</time>
      </trkpt>
      <trkpt lat="43.60997" lon="7.02959">
        <ele>170</ele>
        <time>2026-06-10T06:05:52.169+00:00</time>
      </trkpt>
      <trkpt lat="43.60994" lon="7.02956">
        <ele>173</ele>
        <time>2026-06-10T06:05:56.398+00:00</time>
      </trkpt>
      <trkpt lat="43.60991" lon="7.02954">
        <ele>173</ele>
        <time>2026-06-10T06:06:00.397+00:00</time>
      </trkpt>
      <trkpt lat="43.60989" lon="7.0295">
        <ele>173</ele>
        <time>2026-06-10T06:06:04.867+00:00</time>
      </trkpt>
      <trkpt lat="43.60986" lon="7.02946">
        <ele>173</ele>
        <time>2026-06-10T06:06:09.190+00:00</time>
      </trkpt>
      <trkpt lat="43.60983" lon="7.02944">
        <ele>174</ele>
        <time>2026-06-10T06:06:13.398+00:00</time>
      </trkpt>
      <trkpt lat="43.60981" lon="7.0294">
        <ele>174</ele>
        <time>2026-06-10T06:06:17.985+00:00</time>
      </trkpt>
      <trkpt lat="43.60979" lon="7.02934">
        <ele>174</ele>
        <time>2026-06-10T06:06:22.186+00:00</time>
      </trkpt>
      <trkpt lat="43.60977" lon="7.02931">
        <ele>174</ele>
        <time>2026-06-10T06:06:26.347+00:00</time>
      </trkpt>
      <trkpt lat="43.60973" lon="7.02927">
        <ele>179</ele>
        <time>2026-06-10T06:06:30.366+00:00</time>
      </trkpt>
      <trkpt lat="43.60971" lon="7.02924">
        <ele>179</ele>
        <time>2026-06-10T06:06:34.386+00:00</time>
      </trkpt>
      <trkpt lat="43.6097" lon="7.02917">
        <ele>179</ele>
        <time>2026-06-10T06:06:38.986+00:00</time>
      </trkpt>
      <trkpt lat="43.60968" lon="7.02912">
        <ele>179</ele>
        <time>2026-06-10T06:06:43.086+00:00</time>
      </trkpt>
      <trkpt lat="43.60965" lon="7.02907">
        <ele>179</ele>
        <time>2026-06-10T06:06:47.398+00:00</time>
      </trkpt>
      <trkpt lat="43.60962" lon="7.02902">
        <ele>183</ele>
        <time>2026-06-10T06:06:52.061+00:00</time>
      </trkpt>
      <trkpt lat="43.60962" lon="7.02896">
        <ele>183</ele>
        <time>2026-06-10T06:06:56.143+00:00</time>
      </trkpt>
      <trkpt lat="43.60962" lon="7.0289">
        <ele>183</ele>
        <time>2026-06-10T06:07:00.241+00:00</time>
      </trkpt>
      <trkpt lat="43.6096" lon="7.02884">
        <ele>183</ele>
        <time>2026-06-10T06:07:04.804+00:00</time>
      </trkpt>
      <trkpt lat="43.60958" lon="7.02878">
        <ele>183</ele>
        <time>2026-06-10T06:07:09.398+00:00</time>
      </trkpt>
      <trkpt lat="43.60958" lon="7.0287">
        <ele>183</ele>
        <time>2026-06-10T06:07:14.398+00:00</time>
      </trkpt>
      <trkpt lat="43.60956" lon="7.02862">
        <ele>183</ele>
        <time>2026-06-10T06:07:19.397+00:00</time>
      </trkpt>
      <trkpt lat="43.60953" lon="7.02856">
        <ele>183</ele>
        <time>2026-06-10T06:07:24.067+00:00</time>
      </trkpt>
      <trkpt lat="43.6095" lon="7.02853">
        <ele>183</ele>
        <time>2026-06-10T06:07:28.398+00:00</time>
      </trkpt>
      <trkpt lat="43.60949" lon="7.02849">
        <ele>183</ele>
        <time>2026-06-10T06:07:32.888+00:00</time>
      </trkpt>
      <trkpt lat="43.6095" lon="7.02845">
        <ele>186</ele>
        <time>2026-06-10T06:07:37.399+00:00</time>
      </trkpt>
      <trkpt lat="43.6095" lon="7.02844">
        <ele>186</ele>
        <time>2026-06-10T06:07:42.042+00:00</time>
      </trkpt>
      <trkpt lat="43.6095" lon="7.02839">
        <ele>186</ele>
        <time>2026-06-10T06:07:46.398+00:00</time>
      </trkpt>
      <trkpt lat="43.60948" lon="7.02834">
        <ele>186</ele>
        <time>2026-06-10T06:07:50.779+00:00</time>
      </trkpt>
      <trkpt lat="43.60945" lon="7.02829">
        <ele>186</ele>
        <time>2026-06-10T06:07:54.980+00:00</time>
      </trkpt>
      <trkpt lat="43.60943" lon="7.02825">
        <ele>186</ele>
        <time>2026-06-10T06:07:58.981+00:00</time>
      </trkpt>
      <trkpt lat="43.60941" lon="7.0282">
        <ele>186</ele>
        <time>2026-06-10T06:08:03.263+00:00</time>
      </trkpt>
      <trkpt lat="43.6094" lon="7.02814">
        <ele>189</ele>
        <time>2026-06-10T06:08:08.266+00:00</time>
      </trkpt>
      <trkpt lat="43.60937" lon="7.02809">
        <ele>189</ele>
        <time>2026-06-10T06:08:12.784+00:00</time>
      </trkpt>
      <trkpt lat="43.60936" lon="7.02803">
        <ele>189</ele>
        <time>2026-06-10T06:08:17.397+00:00</time>
      </trkpt>
      <trkpt lat="43.60934" lon="7.02797">
        <ele>189</ele>
        <time>2026-06-10T06:08:21.961+00:00</time>
      </trkpt>
      <trkpt lat="43.60934" lon="7.02791">
        <ele>193</ele>
        <time>2026-06-10T06:08:26.281+00:00</time>
      </trkpt>
      <trkpt lat="43.60931" lon="7.02784">
        <ele>193</ele>
        <time>2026-06-10T06:08:30.426+00:00</time>
      </trkpt>
      <trkpt lat="43.60933" lon="7.02777">
        <ele>193</ele>
        <time>2026-06-10T06:08:35.053+00:00</time>
      </trkpt>
      <trkpt lat="43.60934" lon="7.02771">
        <ele>193</ele>
        <time>2026-06-10T06:08:39.398+00:00</time>
      </trkpt>
      <trkpt lat="43.60931" lon="7.02764">
        <ele>195</ele>
        <time>2026-06-10T06:09:10.673+00:00</time>
      </trkpt>
      <trkpt lat="43.60936" lon="7.02762">
        <ele>195</ele>
        <time>2026-06-10T06:09:14.886+00:00</time>
      </trkpt>
      <trkpt lat="43.6094" lon="7.0276">
        <ele>195</ele>
        <time>2026-06-10T06:09:19.396+00:00</time>
      </trkpt>
      <trkpt lat="43.60943" lon="7.02757">
        <ele>195</ele>
        <time>2026-06-10T06:09:24.107+00:00</time>
      </trkpt>
      <trkpt lat="43.60946" lon="7.02755">
        <ele>195</ele>
        <time>2026-06-10T06:09:28.397+00:00</time>
      </trkpt>
      <trkpt lat="43.60951" lon="7.02753">
        <ele>195</ele>
        <time>2026-06-10T06:09:33.040+00:00</time>
      </trkpt>
      <trkpt lat="43.60955" lon="7.0275">
        <ele>195</ele>
        <time>2026-06-10T06:09:37.397+00:00</time>
      </trkpt>
      <trkpt lat="43.60958" lon="7.02748">
        <ele>195</ele>
        <time>2026-06-10T06:09:41.397+00:00</time>
      </trkpt>
      <trkpt lat="43.60962" lon="7.02747">
        <ele>199</ele>
        <time>2026-06-10T06:09:46.009+00:00</time>
      </trkpt>
      <trkpt lat="43.60965" lon="7.02748">
        <ele>199</ele>
        <time>2026-06-10T06:09:50.396+00:00</time>
      </trkpt>
      <trkpt lat="43.60969" lon="7.02746">
        <ele>199</ele>
        <time>2026-06-10T06:09:55.396+00:00</time>
      </trkpt>
      <trkpt lat="43.60972" lon="7.02743">
        <ele>199</ele>
        <time>2026-06-10T06:10:00.397+00:00</time>
      </trkpt>
      <trkpt lat="43.60978" lon="7.0274">
        <ele>199</ele>
        <time>2026-06-10T06:10:05.396+00:00</time>
      </trkpt>
      <trkpt lat="43.60983" lon="7.02737">
        <ele>199</ele>
        <time>2026-06-10T06:10:09.986+00:00</time>
      </trkpt>
      <trkpt lat="43.60986" lon="7.02735">
        <ele>200</ele>
        <time>2026-06-10T06:10:14.396+00:00</time>
      </trkpt>
      <trkpt lat="43.60989" lon="7.02733">
        <ele>206</ele>
        <time>2026-06-10T06:10:19.397+00:00</time>
      </trkpt>
      <trkpt lat="43.60993" lon="7.0273">
        <ele>206</ele>
        <time>2026-06-10T06:10:24.397+00:00</time>
      </trkpt>
      <trkpt lat="43.60997" lon="7.02727">
        <ele>206</ele>
        <time>2026-06-10T06:10:29.397+00:00</time>
      </trkpt>
      <trkpt lat="43.60998" lon="7.02722">
        <ele>206</ele>
        <time>2026-06-10T06:10:33.928+00:00</time>
      </trkpt>
      <trkpt lat="43.61" lon="7.02716">
        <ele>206</ele>
        <time>2026-06-10T06:10:38.008+00:00</time>
      </trkpt>
      <trkpt lat="43.61003" lon="7.02711">
        <ele>206</ele>
        <time>2026-06-10T06:10:42.409+00:00</time>
      </trkpt>
      <trkpt lat="43.61005" lon="7.02709">
        <ele>206</ele>
        <time>2026-06-10T06:10:47.026+00:00</time>
      </trkpt>
      <trkpt lat="43.61007" lon="7.02708">
        <ele>206</ele>
        <time>2026-06-10T06:10:51.246+00:00</time>
      </trkpt>
      <trkpt lat="43.6101" lon="7.0271">
        <ele>206</ele>
        <time>2026-06-10T06:10:55.885+00:00</time>
      </trkpt>
      <trkpt lat="43.61013" lon="7.02712">
        <ele>206</ele>
        <time>2026-06-10T06:11:00.397+00:00</time>
      </trkpt>
      <trkpt lat="43.61016" lon="7.0271">
        <ele>210</ele>
        <time>2026-06-10T06:11:04.396+00:00</time>
      </trkpt>
      <trkpt lat="43.61019" lon="7.02707">
        <ele>216</ele>
        <time>2026-06-10T06:11:08.803+00:00</time>
      </trkpt>
      <trkpt lat="43.61022" lon="7.02704">
        <ele>216</ele>
        <time>2026-06-10T06:11:13.422+00:00</time>
      </trkpt>
      <trkpt lat="43.61024" lon="7.02697">
        <ele>216</ele>
        <time>2026-06-10T06:11:18.397+00:00</time>
      </trkpt>
      <trkpt lat="43.61027" lon="7.02693">
        <ele>216</ele>
        <time>2026-06-10T06:11:22.767+00:00</time>
      </trkpt>
      <trkpt lat="43.61032" lon="7.02694">
        <ele>216</ele>
        <time>2026-06-10T06:11:27.299+00:00</time>
      </trkpt>
      <trkpt lat="43.61037" lon="7.02696">
        <ele>216</ele>
        <time>2026-06-10T06:11:31.397+00:00</time>
      </trkpt>
      <trkpt lat="43.61042" lon="7.02694">
        <ele>217</ele>
        <time>2026-06-10T06:11:36.243+00:00</time>
      </trkpt>
      <trkpt lat="43.61044" lon="7.02689">
        <ele>217</ele>
        <time>2026-06-10T06:11:40.968+00:00</time>
      </trkpt>
      <trkpt lat="43.61048" lon="7.02688">
        <ele>217</ele>
        <time>2026-06-10T06:11:45.392+00:00</time>
      </trkpt>
      <trkpt lat="43.61052" lon="7.02691">
        <ele>217</ele>
        <time>2026-06-10T06:11:49.931+00:00</time>
      </trkpt>
      <trkpt lat="43.61055" lon="7.02697">
        <ele>217</ele>
        <time>2026-06-10T06:11:54.205+00:00</time>
      </trkpt>
      <trkpt lat="43.61057" lon="7.02703">
        <ele>217</ele>
        <time>2026-06-10T06:11:58.903+00:00</time>
      </trkpt>
      <trkpt lat="43.61055" lon="7.02702">
        <ele>217</ele>
        <time>2026-06-10T06:12:36.397+00:00</time>
      </trkpt>
      <trkpt lat="43.61055" lon="7.02701">
        <ele>217</ele>
        <time>2026-06-10T06:12:41.351+00:00</time>
      </trkpt>
      <trkpt lat="43.61053" lon="7.02695">
        <ele>217</ele>
        <time>2026-06-10T06:12:45.889+00:00</time>
      </trkpt>
      <trkpt lat="43.61056" lon="7.02688">
        <ele>217</ele>
        <time>2026-06-10T06:12:50.386+00:00</time>
      </trkpt>
      <trkpt lat="43.61061" lon="7.02684">
        <ele>217</ele>
        <time>2026-06-10T06:12:54.396+00:00</time>
      </trkpt>
      <trkpt lat="43.61062" lon="7.02678">
        <ele>220</ele>
        <time>2026-06-10T06:12:59.397+00:00</time>
      </trkpt>
      <trkpt lat="43.61061" lon="7.02676">
        <ele>220</ele>
        <time>2026-06-10T06:13:03.396+00:00</time>
      </trkpt>
      <trkpt lat="43.61061" lon="7.0267">
        <ele>220</ele>
        <time>2026-06-10T06:13:08.141+00:00</time>
      </trkpt>
      <trkpt lat="43.61062" lon="7.02664">
        <ele>220</ele>
        <time>2026-06-10T06:13:12.397+00:00</time>
      </trkpt>
      <trkpt lat="43.61064" lon="7.02664">
        <ele>220</ele>
        <time>2026-06-10T06:13:17.396+00:00</time>
      </trkpt>
      <trkpt lat="43.61065" lon="7.02664">
        <ele>220</ele>
        <time>2026-06-10T06:13:21.397+00:00</time>
      </trkpt>
      <trkpt lat="43.61067" lon="7.02661">
        <ele>220</ele>
        <time>2026-06-10T06:13:26.085+00:00</time>
      </trkpt>
      <trkpt lat="43.61072" lon="7.02655">
        <ele>219</ele>
        <time>2026-06-10T06:13:30.231+00:00</time>
      </trkpt>
      <trkpt lat="43.61072" lon="7.02652">
        <ele>221</ele>
        <time>2026-06-10T06:13:34.346+00:00</time>
      </trkpt>
      <trkpt lat="43.61073" lon="7.02649">
        <ele>221</ele>
        <time>2026-06-10T06:13:38.396+00:00</time>
      </trkpt>
      <trkpt lat="43.61074" lon="7.0265">
        <ele>221</ele>
        <time>2026-06-10T06:13:43.365+00:00</time>
      </trkpt>
      <trkpt lat="43.61077" lon="7.02645">
        <ele>221</ele>
        <time>2026-06-10T06:13:47.961+00:00</time>
      </trkpt>
      <trkpt lat="43.61081" lon="7.02642">
        <ele>221</ele>
        <time>2026-06-10T06:13:52.047+00:00</time>
      </trkpt>
      <trkpt lat="43.61082" lon="7.02641">
        <ele>221</ele>
        <time>2026-06-10T06:13:56.342+00:00</time>
      </trkpt>
      <trkpt lat="43.61086" lon="7.0264">
        <ele>221</ele>
        <time>2026-06-10T06:14:00.525+00:00</time>
      </trkpt>
      <trkpt lat="43.6109" lon="7.02639">
        <ele>221</ele>
        <time>2026-06-10T06:14:05.095+00:00</time>
      </trkpt>
      <trkpt lat="43.61094" lon="7.02638">
        <ele>221</ele>
        <time>2026-06-10T06:14:09.328+00:00</time>
      </trkpt>
      <trkpt lat="43.61097" lon="7.02635">
        <ele>221</ele>
        <time>2026-06-10T06:14:14.397+00:00</time>
      </trkpt>
      <trkpt lat="43.611" lon="7.02631">
        <ele>219</ele>
        <time>2026-06-10T06:14:18.884+00:00</time>
      </trkpt>
      <trkpt lat="43.61102" lon="7.02624">
        <ele>221</ele>
        <time>2026-06-10T06:14:23.397+00:00</time>
      </trkpt>
      <trkpt lat="43.61104" lon="7.02618">
        <ele>221</ele>
        <time>2026-06-10T06:14:27.398+00:00</time>
      </trkpt>
      <trkpt lat="43.61106" lon="7.0261">
        <ele>221</ele>
        <time>2026-06-10T06:14:31.742+00:00</time>
      </trkpt>
      <trkpt lat="43.6111" lon="7.02605">
        <ele>221</ele>
        <time>2026-06-10T06:14:36.321+00:00</time>
      </trkpt>
      <trkpt lat="43.61111" lon="7.02601">
        <ele>221</ele>
        <time>2026-06-10T06:14:40.297+00:00</time>
      </trkpt>
      <trkpt lat="43.61113" lon="7.02597">
        <ele>221</ele>
        <time>2026-06-10T06:14:44.720+00:00</time>
      </trkpt>
      <trkpt lat="43.61112" lon="7.02595">
        <ele>221</ele>
        <time>2026-06-10T06:14:50.323+00:00</time>
      </trkpt>
      <trkpt lat="43.61115" lon="7.0259">
        <ele>221</ele>
        <time>2026-06-10T06:14:55.061+00:00</time>
      </trkpt>
      <trkpt lat="43.61118" lon="7.02588">
        <ele>221</ele>
        <time>2026-06-10T06:14:59.142+00:00</time>
      </trkpt>
      <trkpt lat="43.61121" lon="7.02585">
        <ele>221</ele>
        <time>2026-06-10T06:15:03.263+00:00</time>
      </trkpt>
      <trkpt lat="43.61126" lon="7.02584">
        <ele>218</ele>
        <time>2026-06-10T06:15:07.601+00:00</time>
      </trkpt>
      <trkpt lat="43.61132" lon="7.02584">
        <ele>218</ele>
        <time>2026-06-10T06:15:12.149+00:00</time>
      </trkpt>
      <trkpt lat="43.61132" lon="7.02581">
        <ele>218</ele>
        <time>2026-06-10T06:15:16.396+00:00</time>
      </trkpt>
      <trkpt lat="43.61139" lon="7.02571">
        <ele>218</ele>
        <time>2026-06-10T06:15:21.166+00:00</time>
      </trkpt>
      <trkpt lat="43.61142" lon="7.02563">
        <ele>218</ele>
        <time>2026-06-10T06:15:25.346+00:00</time>
      </trkpt>
      <trkpt lat="43.61143" lon="7.02557">
        <ele>218</ele>
        <time>2026-06-10T06:15:29.395+00:00</time>
      </trkpt>
      <trkpt lat="43.61145" lon="7.02551">
        <ele>218</ele>
        <time>2026-06-10T06:15:33.967+00:00</time>
      </trkpt>
      <trkpt lat="43.61146" lon="7.02546">
        <ele>218</ele>
        <time>2026-06-10T06:15:38.396+00:00</time>
      </trkpt>
      <trkpt lat="43.61146" lon="7.02538">
        <ele>216</ele>
        <time>2026-06-10T06:15:43.395+00:00</time>
      </trkpt>
      <trkpt lat="43.61147" lon="7.02532">
        <ele>216</ele>
        <time>2026-06-10T06:15:47.853+00:00</time>
      </trkpt>
      <trkpt lat="43.61152" lon="7.02531">
        <ele>216</ele>
        <time>2026-06-10T06:15:52.346+00:00</time>
      </trkpt>
      <trkpt lat="43.61155" lon="7.02529">
        <ele>213</ele>
        <time>2026-06-10T06:15:56.329+00:00</time>
      </trkpt>
      <trkpt lat="43.61159" lon="7.02526">
        <ele>213</ele>
        <time>2026-06-10T06:16:00.395+00:00</time>
      </trkpt>
      <trkpt lat="43.61161" lon="7.02521">
        <ele>213</ele>
        <time>2026-06-10T06:16:04.395+00:00</time>
      </trkpt>
      <trkpt lat="43.61159" lon="7.02514">
        <ele>211</ele>
        <time>2026-06-10T06:16:09.106+00:00</time>
      </trkpt>
      <trkpt lat="43.61159" lon="7.0251">
        <ele>211</ele>
        <time>2026-06-10T06:16:13.396+00:00</time>
      </trkpt>
      <trkpt lat="43.61161" lon="7.02508">
        <ele>211</ele>
        <time>2026-06-10T06:16:17.733+00:00</time>
      </trkpt>
      <trkpt lat="43.61166" lon="7.02505">
        <ele>211</ele>
        <time>2026-06-10T06:16:22.146+00:00</time>
      </trkpt>
      <trkpt lat="43.61168" lon="7.025">
        <ele>211</ele>
        <time>2026-06-10T06:16:26.396+00:00</time>
      </trkpt>
      <trkpt lat="43.61169" lon="7.02495">
        <ele>211</ele>
        <time>2026-06-10T06:16:30.845+00:00</time>
      </trkpt>
      <trkpt lat="43.61171" lon="7.0249">
        <ele>211</ele>
        <time>2026-06-10T06:16:35.046+00:00</time>
      </trkpt>
      <trkpt lat="43.61175" lon="7.02487">
        <ele>211</ele>
        <time>2026-06-10T06:16:39.542+00:00</time>
      </trkpt>
      <trkpt lat="43.61179" lon="7.02482">
        <ele>209</ele>
        <time>2026-06-10T06:16:44.396+00:00</time>
      </trkpt>
      <trkpt lat="43.61182" lon="7.02476">
        <ele>204</ele>
        <time>2026-06-10T06:16:48.699+00:00</time>
      </trkpt>
      <trkpt lat="43.61182" lon="7.0247">
        <ele>204</ele>
        <time>2026-06-10T06:16:53.116+00:00</time>
      </trkpt>
      <trkpt lat="43.61183" lon="7.02464">
        <ele>204</ele>
        <time>2026-06-10T06:16:57.249+00:00</time>
      </trkpt>
      <trkpt lat="43.61182" lon="7.02458">
        <ele>204</ele>
        <time>2026-06-10T06:17:01.396+00:00</time>
      </trkpt>
      <trkpt lat="43.61185" lon="7.02451">
        <ele>204</ele>
        <time>2026-06-10T06:17:05.828+00:00</time>
      </trkpt>
      <trkpt lat="43.61189" lon="7.02445">
        <ele>204</ele>
        <time>2026-06-10T06:17:09.967+00:00</time>
      </trkpt>
      <trkpt lat="43.61195" lon="7.02444">
        <ele>204</ele>
        <time>2026-06-10T06:17:14.327+00:00</time>
      </trkpt>
      <trkpt lat="43.612" lon="7.02444">
        <ele>204</ele>
        <time>2026-06-10T06:17:19.168+00:00</time>
      </trkpt>
      <trkpt lat="43.61204" lon="7.02444">
        <ele>204</ele>
        <time>2026-06-10T06:17:23.602+00:00</time>
      </trkpt>
      <trkpt lat="43.61208" lon="7.02443">
        <ele>204</ele>
        <time>2026-06-10T06:17:27.702+00:00</time>
      </trkpt>
      <trkpt lat="43.6121" lon="7.0244">
        <ele>205</ele>
        <time>2026-06-10T06:17:31.902+00:00</time>
      </trkpt>
      <trkpt lat="43.61211" lon="7.02434">
        <ele>205</ele>
        <time>2026-06-10T06:17:36.262+00:00</time>
      </trkpt>
      <trkpt lat="43.61212" lon="7.02429">
        <ele>206</ele>
        <time>2026-06-10T06:17:40.382+00:00</time>
      </trkpt>
      <trkpt lat="43.61211" lon="7.02424">
        <ele>206</ele>
        <time>2026-06-10T06:17:44.742+00:00</time>
      </trkpt>
      <trkpt lat="43.61211" lon="7.02418">
        <ele>206</ele>
        <time>2026-06-10T06:17:48.723+00:00</time>
      </trkpt>
      <trkpt lat="43.6121" lon="7.0241">
        <ele>206</ele>
        <time>2026-06-10T06:17:53.395+00:00</time>
      </trkpt>
      <trkpt lat="43.61213" lon="7.02405">
        <ele>206</ele>
        <time>2026-06-10T06:17:58.396+00:00</time>
      </trkpt>
      <trkpt lat="43.61218" lon="7.024">
        <ele>208</ele>
        <time>2026-06-10T06:18:02.886+00:00</time>
      </trkpt>
      <trkpt lat="43.61221" lon="7.02395">
        <ele>208</ele>
        <time>2026-06-10T06:18:07.345+00:00</time>
      </trkpt>
      <trkpt lat="43.61226" lon="7.02392">
        <ele>208</ele>
        <time>2026-06-10T06:18:11.707+00:00</time>
      </trkpt>
      <trkpt lat="43.6123" lon="7.02389">
        <ele>208</ele>
        <time>2026-06-10T06:18:16.395+00:00</time>
      </trkpt>
      <trkpt lat="43.61235" lon="7.02387">
        <ele>208</ele>
        <time>2026-06-10T06:18:21.028+00:00</time>
      </trkpt>
      <trkpt lat="43.6124" lon="7.02385">
        <ele>210</ele>
        <time>2026-06-10T06:18:25.184+00:00</time>
      </trkpt>
      <trkpt lat="43.61245" lon="7.02384">
        <ele>210</ele>
        <time>2026-06-10T06:18:29.651+00:00</time>
      </trkpt>
      <trkpt lat="43.61251" lon="7.02382">
        <ele>210</ele>
        <time>2026-06-10T06:18:33.988+00:00</time>
      </trkpt>
      <trkpt lat="43.61256" lon="7.0238">
        <ele>210</ele>
        <time>2026-06-10T06:18:38.129+00:00</time>
      </trkpt>
      <trkpt lat="43.6126" lon="7.02375">
        <ele>210</ele>
        <time>2026-06-10T06:18:42.418+00:00</time>
      </trkpt>
      <trkpt lat="43.61263" lon="7.0237">
        <ele>210</ele>
        <time>2026-06-10T06:18:46.569+00:00</time>
      </trkpt>
      <trkpt lat="43.61267" lon="7.02365">
        <ele>212</ele>
        <time>2026-06-10T06:18:51.396+00:00</time>
      </trkpt>
      <trkpt lat="43.6127" lon="7.02363">
        <ele>212</ele>
        <time>2026-06-10T06:18:55.882+00:00</time>
      </trkpt>
      <trkpt lat="43.61272" lon="7.02357">
        <ele>212</ele>
        <time>2026-06-10T06:19:00.422+00:00</time>
      </trkpt>
      <trkpt lat="43.61278" lon="7.02348">
        <ele>212</ele>
        <time>2026-06-10T06:19:05.347+00:00</time>
      </trkpt>
      <trkpt lat="43.61282" lon="7.02342">
        <ele>216</ele>
        <time>2026-06-10T06:19:09.668+00:00</time>
      </trkpt>
      <trkpt lat="43.61287" lon="7.02338">
        <ele>216</ele>
        <time>2026-06-10T06:19:14.288+00:00</time>
      </trkpt>
      <trkpt lat="43.61293" lon="7.02334">
        <ele>217</ele>
        <time>2026-06-10T06:19:18.396+00:00</time>
      </trkpt>
      <trkpt lat="43.61298" lon="7.02329">
        <ele>217</ele>
        <time>2026-06-10T06:19:23.396+00:00</time>
      </trkpt>
      <trkpt lat="43.61302" lon="7.02327">
        <ele>217</ele>
        <time>2026-06-10T06:19:28.396+00:00</time>
      </trkpt>
      <trkpt lat="43.61302" lon="7.02321">
        <ele>217</ele>
        <time>2026-06-10T06:19:32.396+00:00</time>
      </trkpt>
      <trkpt lat="43.61302" lon="7.02316">
        <ele>219</ele>
        <time>2026-06-10T06:19:37.396+00:00</time>
      </trkpt>
      <trkpt lat="43.61302" lon="7.02312">
        <ele>219</ele>
        <time>2026-06-10T06:19:41.395+00:00</time>
      </trkpt>
      <trkpt lat="43.613" lon="7.02306">
        <ele>219</ele>
        <time>2026-06-10T06:19:45.983+00:00</time>
      </trkpt>
      <trkpt lat="43.61301" lon="7.02301">
        <ele>219</ele>
        <time>2026-06-10T06:19:50.395+00:00</time>
      </trkpt>
      <trkpt lat="43.61299" lon="7.02296">
        <ele>219</ele>
        <time>2026-06-10T06:19:55.134+00:00</time>
      </trkpt>
      <trkpt lat="43.61296" lon="7.0229">
        <ele>221</ele>
        <time>2026-06-10T06:19:59.688+00:00</time>
      </trkpt>
      <trkpt lat="43.61295" lon="7.02284">
        <ele>221</ele>
        <time>2026-06-10T06:20:03.907+00:00</time>
      </trkpt>
      <trkpt lat="43.61295" lon="7.02277">
        <ele>221</ele>
        <time>2026-06-10T06:20:08.048+00:00</time>
      </trkpt>
      <trkpt lat="43.61296" lon="7.0227">
        <ele>221</ele>
        <time>2026-06-10T06:20:12.394+00:00</time>
      </trkpt>
      <trkpt lat="43.61295" lon="7.02265">
        <ele>221</ele>
        <time>2026-06-10T06:20:16.646+00:00</time>
      </trkpt>
      <trkpt lat="43.61295" lon="7.02257">
        <ele>223</ele>
        <time>2026-06-10T06:20:21.394+00:00</time>
      </trkpt>
      <trkpt lat="43.61295" lon="7.02251">
        <ele>223</ele>
        <time>2026-06-10T06:20:25.395+00:00</time>
      </trkpt>
      <trkpt lat="43.61296" lon="7.02247">
        <ele>223</ele>
        <time>2026-06-10T06:20:29.883+00:00</time>
      </trkpt>
      <trkpt lat="43.61296" lon="7.02241">
        <ele>223</ele>
        <time>2026-06-10T06:20:34.143+00:00</time>
      </trkpt>
      <trkpt lat="43.61296" lon="7.02235">
        <ele>226</ele>
        <time>2026-06-10T06:20:38.990+00:00</time>
      </trkpt>
      <trkpt lat="43.61296" lon="7.02227">
        <ele>226</ele>
        <time>2026-06-10T06:20:44.346+00:00</time>
      </trkpt>
      <trkpt lat="43.61294" lon="7.02222">
        <ele>226</ele>
        <time>2026-06-10T06:20:49.394+00:00</time>
      </trkpt>
      <trkpt lat="43.61294" lon="7.02216">
        <ele>226</ele>
        <time>2026-06-10T06:20:54.109+00:00</time>
      </trkpt>
      <trkpt lat="43.61292" lon="7.02207">
        <ele>229</ele>
        <time>2026-06-10T06:20:58.394+00:00</time>
      </trkpt>
      <trkpt lat="43.61291" lon="7.022">
        <ele>226</ele>
        <time>2026-06-10T06:21:03.125+00:00</time>
      </trkpt>
      <trkpt lat="43.6129" lon="7.02192">
        <ele>226</ele>
        <time>2026-06-10T06:21:07.395+00:00</time>
      </trkpt>
      <trkpt lat="43.61289" lon="7.02184">
        <ele>226</ele>
        <time>2026-06-10T06:21:12.074+00:00</time>
      </trkpt>
      <trkpt lat="43.61288" lon="7.02176">
        <ele>228</ele>
        <time>2026-06-10T06:21:16.395+00:00</time>
      </trkpt>
      <trkpt lat="43.61289" lon="7.02166">
        <ele>228</ele>
        <time>2026-06-10T06:21:21.395+00:00</time>
      </trkpt>
      <trkpt lat="43.61287" lon="7.02157">
        <ele>228</ele>
        <time>2026-06-10T06:21:26.395+00:00</time>
      </trkpt>
      <trkpt lat="43.61285" lon="7.0215">
        <ele>227</ele>
        <time>2026-06-10T06:21:31.395+00:00</time>
      </trkpt>
      <trkpt lat="43.61285" lon="7.02143">
        <ele>227</ele>
        <time>2026-06-10T06:21:35.395+00:00</time>
      </trkpt>
      <trkpt lat="43.61285" lon="7.02137">
        <ele>227</ele>
        <time>2026-06-10T06:21:40.395+00:00</time>
      </trkpt>
      <trkpt lat="43.61283" lon="7.02128">
        <ele>227</ele>
        <time>2026-06-10T06:21:45.394+00:00</time>
      </trkpt>
      <trkpt lat="43.61282" lon="7.02119">
        <ele>227</ele>
        <time>2026-06-10T06:21:50.395+00:00</time>
      </trkpt>
      <trkpt lat="43.61281" lon="7.02112">
        <ele>227</ele>
        <time>2026-06-10T06:21:55.394+00:00</time>
      </trkpt>
      <trkpt lat="43.61282" lon="7.02105">
        <ele>227</ele>
        <time>2026-06-10T06:21:59.802+00:00</time>
      </trkpt>
      <trkpt lat="43.61283" lon="7.02097">
        <ele>227</ele>
        <time>2026-06-10T06:22:03.882+00:00</time>
      </trkpt>
      <trkpt lat="43.61282" lon="7.02091">
        <ele>227</ele>
        <time>2026-06-10T06:22:08.103+00:00</time>
      </trkpt>
      <trkpt lat="43.61279" lon="7.02085">
        <ele>227</ele>
        <time>2026-06-10T06:22:12.394+00:00</time>
      </trkpt>
      <trkpt lat="43.61275" lon="7.02079">
        <ele>227</ele>
        <time>2026-06-10T06:22:17.168+00:00</time>
      </trkpt>
      <trkpt lat="43.61271" lon="7.02073">
        <ele>227</ele>
        <time>2026-06-10T06:22:21.395+00:00</time>
      </trkpt>
      <trkpt lat="43.61269" lon="7.02068">
        <ele>227</ele>
        <time>2026-06-10T06:22:25.395+00:00</time>
      </trkpt>
      <trkpt lat="43.61266" lon="7.02059">
        <ele>227</ele>
        <time>2026-06-10T06:22:30.394+00:00</time>
      </trkpt>
      <trkpt lat="43.61265" lon="7.02051">
        <ele>227</ele>
        <time>2026-06-10T06:22:35.085+00:00</time>
      </trkpt>
      <trkpt lat="43.61263" lon="7.02045">
        <ele>226</ele>
        <time>2026-06-10T06:22:39.394+00:00</time>
      </trkpt>
      <trkpt lat="43.61256" lon="7.02041">
        <ele>227</ele>
        <time>2026-06-10T06:22:43.664+00:00</time>
      </trkpt>
      <trkpt lat="43.6125" lon="7.02035">
        <ele>227</ele>
        <time>2026-06-10T06:22:48.404+00:00</time>
      </trkpt>
      <trkpt lat="43.61249" lon="7.02023">
        <ele>227</ele>
        <time>2026-06-10T06:22:53.187+00:00</time>
      </trkpt>
      <trkpt lat="43.61252" lon="7.02012">
        <ele>228</ele>
        <time>2026-06-10T06:22:57.863+00:00</time>
      </trkpt>
      <trkpt lat="43.61256" lon="7.02006">
        <ele>228</ele>
        <time>2026-06-10T06:23:02.183+00:00</time>
      </trkpt>
      <trkpt lat="43.61257" lon="7.01998">
        <ele>228</ele>
        <time>2026-06-10T06:23:06.910+00:00</time>
      </trkpt>
      <trkpt lat="43.61254" lon="7.01991">
        <ele>228</ele>
        <time>2026-06-10T06:23:11.394+00:00</time>
      </trkpt>
      <trkpt lat="43.61252" lon="7.01985">
        <ele>228</ele>
        <time>2026-06-10T06:23:15.991+00:00</time>
      </trkpt>
      <trkpt lat="43.61251" lon="7.0198">
        <ele>228</ele>
        <time>2026-06-10T06:23:20.395+00:00</time>
      </trkpt>
      <trkpt lat="43.61249" lon="7.01971">
        <ele>228</ele>
        <time>2026-06-10T06:23:25.395+00:00</time>
      </trkpt>
      <trkpt lat="43.61248" lon="7.01963">
        <ele>228</ele>
        <time>2026-06-10T06:23:30.395+00:00</time>
      </trkpt>
      <trkpt lat="43.61246" lon="7.01958">
        <ele>227</ele>
        <time>2026-06-10T06:23:34.394+00:00</time>
      </trkpt>
      <trkpt lat="43.61242" lon="7.01949">
        <ele>227</ele>
        <time>2026-06-10T06:23:39.395+00:00</time>
      </trkpt>
      <trkpt lat="43.61239" lon="7.01941">
        <ele>227</ele>
        <time>2026-06-10T06:23:44.394+00:00</time>
      </trkpt>
      <trkpt lat="43.61238" lon="7.01934">
        <ele>227</ele>
        <time>2026-06-10T06:23:49.395+00:00</time>
      </trkpt>
      <trkpt lat="43.61236" lon="7.01927">
        <ele>226</ele>
        <time>2026-06-10T06:23:53.726+00:00</time>
      </trkpt>
      <trkpt lat="43.61236" lon="7.0192">
        <ele>226</ele>
        <time>2026-06-10T06:23:58.026+00:00</time>
      </trkpt>
      <trkpt lat="43.61239" lon="7.01915">
        <ele>226</ele>
        <time>2026-06-10T06:24:02.103+00:00</time>
      </trkpt>
      <trkpt lat="43.61243" lon="7.01914">
        <ele>226</ele>
        <time>2026-06-10T06:25:58.646+00:00</time>
      </trkpt>
      <trkpt lat="43.61242" lon="7.01908">
        <ele>226</ele>
        <time>2026-06-10T06:26:02.769+00:00</time>
      </trkpt>
      <trkpt lat="43.61246" lon="7.019">
        <ele>225</ele>
        <time>2026-06-10T06:26:06.863+00:00</time>
      </trkpt>
      <trkpt lat="43.61248" lon="7.01891">
        <ele>225</ele>
        <time>2026-06-10T06:26:11.223+00:00</time>
      </trkpt>
      <trkpt lat="43.61253" lon="7.01883">
        <ele>225</ele>
        <time>2026-06-10T06:26:15.641+00:00</time>
      </trkpt>
      <trkpt lat="43.61259" lon="7.01879">
        <ele>225</ele>
        <time>2026-06-10T06:26:20.388+00:00</time>
      </trkpt>
      <trkpt lat="43.61265" lon="7.01876">
        <ele>222</ele>
        <time>2026-06-10T06:26:25.394+00:00</time>
      </trkpt>
      <trkpt lat="43.61268" lon="7.01868">
        <ele>223</ele>
        <time>2026-06-10T06:26:30.142+00:00</time>
      </trkpt>
      <trkpt lat="43.61272" lon="7.01867">
        <ele>223</ele>
        <time>2026-06-10T06:26:34.394+00:00</time>
      </trkpt>
      <trkpt lat="43.61274" lon="7.01863">
        <ele>223</ele>
        <time>2026-06-10T06:26:38.821+00:00</time>
      </trkpt>
      <trkpt lat="43.61278" lon="7.01859">
        <ele>223</ele>
        <time>2026-06-10T06:26:43.062+00:00</time>
      </trkpt>
      <trkpt lat="43.61281" lon="7.01855">
        <ele>223</ele>
        <time>2026-06-10T06:26:47.083+00:00</time>
      </trkpt>
      <trkpt lat="43.61284" lon="7.01851">
        <ele>223</ele>
        <time>2026-06-10T06:26:51.224+00:00</time>
      </trkpt>
      <trkpt lat="43.61288" lon="7.01847">
        <ele>224</ele>
        <time>2026-06-10T06:26:55.394+00:00</time>
      </trkpt>
      <trkpt lat="43.61292" lon="7.01843">
        <ele>220</ele>
        <time>2026-06-10T06:27:00.195+00:00</time>
      </trkpt>
      <trkpt lat="43.61296" lon="7.0184">
        <ele>220</ele>
        <time>2026-06-10T06:27:04.394+00:00</time>
      </trkpt>
      <trkpt lat="43.61302" lon="7.01841">
        <ele>220</ele>
        <time>2026-06-10T06:27:09.230+00:00</time>
      </trkpt>
      <trkpt lat="43.61308" lon="7.01838">
        <ele>220</ele>
        <time>2026-06-10T06:27:14.321+00:00</time>
      </trkpt>
      <trkpt lat="43.61312" lon="7.01834">
        <ele>220</ele>
        <time>2026-06-10T06:27:18.522+00:00</time>
      </trkpt>
      <trkpt lat="43.61317" lon="7.0183">
        <ele>220</ele>
        <time>2026-06-10T06:27:23.228+00:00</time>
      </trkpt>
      <trkpt lat="43.61323" lon="7.0183">
        <ele>216</ele>
        <time>2026-06-10T06:27:28.382+00:00</time>
      </trkpt>
      <trkpt lat="43.61327" lon="7.01825">
        <ele>216</ele>
        <time>2026-06-10T06:27:32.823+00:00</time>
      </trkpt>
      <trkpt lat="43.61331" lon="7.0182">
        <ele>216</ele>
        <time>2026-06-10T06:27:37.034+00:00</time>
      </trkpt>
      <trkpt lat="43.61336" lon="7.01817">
        <ele>220</ele>
        <time>2026-06-10T06:27:41.394+00:00</time>
      </trkpt>
      <trkpt lat="43.61341" lon="7.01815">
        <ele>220</ele>
        <time>2026-06-10T06:27:45.890+00:00</time>
      </trkpt>
      <trkpt lat="43.61345" lon="7.0182">
        <ele>216</ele>
        <time>2026-06-10T06:27:50.008+00:00</time>
      </trkpt>
      <trkpt lat="43.6135" lon="7.01816">
        <ele>216</ele>
        <time>2026-06-10T06:27:54.129+00:00</time>
      </trkpt>
      <trkpt lat="43.61355" lon="7.01811">
        <ele>216</ele>
        <time>2026-06-10T06:27:58.249+00:00</time>
      </trkpt>
      <trkpt lat="43.61358" lon="7.01806">
        <ele>216</ele>
        <time>2026-06-10T06:28:02.321+00:00</time>
      </trkpt>
      <trkpt lat="43.61362" lon="7.018">
        <ele>216</ele>
        <time>2026-06-10T06:28:06.394+00:00</time>
      </trkpt>
      <trkpt lat="43.61366" lon="7.01796">
        <ele>216</ele>
        <time>2026-06-10T06:28:10.680+00:00</time>
      </trkpt>
      <trkpt lat="43.61371" lon="7.01792">
        <ele>216</ele>
        <time>2026-06-10T06:28:14.821+00:00</time>
      </trkpt>
      <trkpt lat="43.61375" lon="7.01787">
        <ele>217</ele>
        <time>2026-06-10T06:28:19.393+00:00</time>
      </trkpt>
      <trkpt lat="43.61379" lon="7.01782">
        <ele>214</ele>
        <time>2026-06-10T06:28:23.672+00:00</time>
      </trkpt>
      <trkpt lat="43.61382" lon="7.01776">
        <ele>214</ele>
        <time>2026-06-10T06:28:27.928+00:00</time>
      </trkpt>
      <trkpt lat="43.61386" lon="7.01772">
        <ele>214</ele>
        <time>2026-06-10T06:28:31.969+00:00</time>
      </trkpt>
      <trkpt lat="43.6139" lon="7.01768">
        <ele>214</ele>
        <time>2026-06-10T06:28:36.394+00:00</time>
      </trkpt>
      <trkpt lat="43.61396" lon="7.01768">
        <ele>214</ele>
        <time>2026-06-10T06:28:41.394+00:00</time>
      </trkpt>
      <trkpt lat="43.61401" lon="7.0177">
        <ele>214</ele>
        <time>2026-06-10T06:28:46.161+00:00</time>
      </trkpt>
      <trkpt lat="43.61405" lon="7.01766">
        <ele>212</ele>
        <time>2026-06-10T06:28:50.394+00:00</time>
      </trkpt>
      <trkpt lat="43.61409" lon="7.01762">
        <ele>212</ele>
        <time>2026-06-10T06:28:55.393+00:00</time>
      </trkpt>
      <trkpt lat="43.61413" lon="7.01757">
        <ele>212</ele>
        <time>2026-06-10T06:28:59.883+00:00</time>
      </trkpt>
      <trkpt lat="43.61417" lon="7.01753">
        <ele>212</ele>
        <time>2026-06-10T06:29:04.166+00:00</time>
      </trkpt>
      <trkpt lat="43.61421" lon="7.0175">
        <ele>212</ele>
        <time>2026-06-10T06:29:08.394+00:00</time>
      </trkpt>
      <trkpt lat="43.61426" lon="7.01745">
        <ele>212</ele>
        <time>2026-06-10T06:29:12.983+00:00</time>
      </trkpt>
      <trkpt lat="43.6143" lon="7.01741">
        <ele>212</ele>
        <time>2026-06-10T06:29:17.124+00:00</time>
      </trkpt>
      <trkpt lat="43.61435" lon="7.01738">
        <ele>212</ele>
        <time>2026-06-10T06:29:21.323+00:00</time>
      </trkpt>
      <trkpt lat="43.61439" lon="7.01735">
        <ele>211</ele>
        <time>2026-06-10T06:29:25.394+00:00</time>
      </trkpt>
      <trkpt lat="43.61445" lon="7.01734">
        <ele>211</ele>
        <time>2026-06-10T06:29:29.962+00:00</time>
      </trkpt>
      <trkpt lat="43.6145" lon="7.01734">
        <ele>211</ele>
        <time>2026-06-10T06:29:34.394+00:00</time>
      </trkpt>
      <trkpt lat="43.61455" lon="7.01734">
        <ele>211</ele>
        <time>2026-06-10T06:29:38.867+00:00</time>
      </trkpt>
      <trkpt lat="43.6146" lon="7.01734">
        <ele>212</ele>
        <time>2026-06-10T06:29:42.888+00:00</time>
      </trkpt>
      <trkpt lat="43.61465" lon="7.01733">
        <ele>212</ele>
        <time>2026-06-10T06:29:47.394+00:00</time>
      </trkpt>
      <trkpt lat="43.6147" lon="7.01731">
        <ele>212</ele>
        <time>2026-06-10T06:29:52.065+00:00</time>
      </trkpt>
      <trkpt lat="43.61475" lon="7.0173">
        <ele>212</ele>
        <time>2026-06-10T06:29:56.394+00:00</time>
      </trkpt>
      <trkpt lat="43.61481" lon="7.01728">
        <ele>212</ele>
        <time>2026-06-10T06:30:01.123+00:00</time>
      </trkpt>
      <trkpt lat="43.61486" lon="7.01724">
        <ele>212</ele>
        <time>2026-06-10T06:30:05.393+00:00</time>
      </trkpt>
      <trkpt lat="43.61492" lon="7.01724">
        <ele>213</ele>
        <time>2026-06-10T06:30:09.890+00:00</time>
      </trkpt>
      <trkpt lat="43.61496" lon="7.01721">
        <ele>213</ele>
        <time>2026-06-10T06:30:13.928+00:00</time>
      </trkpt>
      <trkpt lat="43.61501" lon="7.01716">
        <ele>213</ele>
        <time>2026-06-10T06:30:18.394+00:00</time>
      </trkpt>
      <trkpt lat="43.61506" lon="7.01716">
        <ele>213</ele>
        <time>2026-06-10T06:30:23.394+00:00</time>
      </trkpt>
      <trkpt lat="43.61512" lon="7.01712">
        <ele>213</ele>
        <time>2026-06-10T06:30:28.221+00:00</time>
      </trkpt>
      <trkpt lat="43.61516" lon="7.01711">
        <ele>215</ele>
        <time>2026-06-10T06:30:32.394+00:00</time>
      </trkpt>
      <trkpt lat="43.61522" lon="7.01705">
        <ele>213</ele>
        <time>2026-06-10T06:30:37.393+00:00</time>
      </trkpt>
      <trkpt lat="43.61528" lon="7.01701">
        <ele>213</ele>
        <time>2026-06-10T06:30:41.394+00:00</time>
      </trkpt>
      <trkpt lat="43.61533" lon="7.01695">
        <ele>213</ele>
        <time>2026-06-10T06:30:45.394+00:00</time>
      </trkpt>
      <trkpt lat="43.61538" lon="7.01689">
        <ele>213</ele>
        <time>2026-06-10T06:30:50.393+00:00</time>
      </trkpt>
      <trkpt lat="43.61541" lon="7.01685">
        <ele>213</ele>
        <time>2026-06-10T06:30:54.943+00:00</time>
      </trkpt>
      <trkpt lat="43.61545" lon="7.01682">
        <ele>217</ele>
        <time>2026-06-10T06:30:59.393+00:00</time>
      </trkpt>
      <trkpt lat="43.61549" lon="7.01675">
        <ele>214</ele>
        <time>2026-06-10T06:31:04.393+00:00</time>
      </trkpt>
      <trkpt lat="43.61552" lon="7.01672">
        <ele>214</ele>
        <time>2026-06-10T06:31:08.394+00:00</time>
      </trkpt>
      <trkpt lat="43.61557" lon="7.01668">
        <ele>214</ele>
        <time>2026-06-10T06:31:12.948+00:00</time>
      </trkpt>
      <trkpt lat="43.61561" lon="7.01665">
        <ele>214</ele>
        <time>2026-06-10T06:31:17.394+00:00</time>
      </trkpt>
      <trkpt lat="43.61566" lon="7.01659">
        <ele>214</ele>
        <time>2026-06-10T06:31:22.393+00:00</time>
      </trkpt>
      <trkpt lat="43.6157" lon="7.01654">
        <ele>217</ele>
        <time>2026-06-10T06:31:26.601+00:00</time>
      </trkpt>
      <trkpt lat="43.61575" lon="7.01647">
        <ele>215</ele>
        <time>2026-06-10T06:31:31.287+00:00</time>
      </trkpt>
      <trkpt lat="43.61578" lon="7.01641">
        <ele>215</ele>
        <time>2026-06-10T06:31:35.393+00:00</time>
      </trkpt>
      <trkpt lat="43.61581" lon="7.01634">
        <ele>215</ele>
        <time>2026-06-10T06:31:40.209+00:00</time>
      </trkpt>
      <trkpt lat="43.61581" lon="7.01626">
        <ele>215</ele>
        <time>2026-06-10T06:31:44.393+00:00</time>
      </trkpt>
      <trkpt lat="43.61581" lon="7.0162">
        <ele>214</ele>
        <time>2026-06-10T06:31:49.044+00:00</time>
      </trkpt>
      <trkpt lat="43.61585" lon="7.01614">
        <ele>214</ele>
        <time>2026-06-10T06:31:53.364+00:00</time>
      </trkpt>
      <trkpt lat="43.61588" lon="7.01611">
        <ele>214</ele>
        <time>2026-06-10T06:31:57.392+00:00</time>
      </trkpt>
      <trkpt lat="43.6159" lon="7.01604">
        <ele>214</ele>
        <time>2026-06-10T06:32:01.821+00:00</time>
      </trkpt>
      <trkpt lat="43.61592" lon="7.01597">
        <ele>215</ele>
        <time>2026-06-10T06:32:06.393+00:00</time>
      </trkpt>
      <trkpt lat="43.61595" lon="7.01591">
        <ele>215</ele>
        <time>2026-06-10T06:32:10.888+00:00</time>
      </trkpt>
      <trkpt lat="43.61598" lon="7.01585">
        <ele>215</ele>
        <time>2026-06-10T06:32:15.270+00:00</time>
      </trkpt>
      <trkpt lat="43.61601" lon="7.0158">
        <ele>215</ele>
        <time>2026-06-10T06:32:20.105+00:00</time>
      </trkpt>
      <trkpt lat="43.61604" lon="7.01577">
        <ele>215</ele>
        <time>2026-06-10T06:32:24.384+00:00</time>
      </trkpt>
      <trkpt lat="43.61607" lon="7.01575">
        <ele>215</ele>
        <time>2026-06-10T06:32:28.392+00:00</time>
      </trkpt>
      <trkpt lat="43.6161" lon="7.01571">
        <ele>215</ele>
        <time>2026-06-10T06:32:32.564+00:00</time>
      </trkpt>
      <trkpt lat="43.61614" lon="7.01574">
        <ele>215</ele>
        <time>2026-06-10T06:32:37.393+00:00</time>
      </trkpt>
      <trkpt lat="43.61614" lon="7.01575">
        <ele>215</ele>
        <time>2026-06-10T06:32:42.152+00:00</time>
      </trkpt>
      <trkpt lat="43.61618" lon="7.01569">
        <ele>217</ele>
        <time>2026-06-10T06:32:46.392+00:00</time>
      </trkpt>
      <trkpt lat="43.61622" lon="7.01563">
        <ele>217</ele>
        <time>2026-06-10T06:32:50.469+00:00</time>
      </trkpt>
      <trkpt lat="43.61625" lon="7.01555">
        <ele>217</ele>
        <time>2026-06-10T06:32:55.305+00:00</time>
      </trkpt>
      <trkpt lat="43.61628" lon="7.0155">
        <ele>212</ele>
        <time>2026-06-10T06:32:59.392+00:00</time>
      </trkpt>
      <trkpt lat="43.6163" lon="7.01543">
        <ele>212</ele>
        <time>2026-06-10T06:33:04.393+00:00</time>
      </trkpt>
      <trkpt lat="43.61632" lon="7.01535">
        <ele>217</ele>
        <time>2026-06-10T06:33:09.393+00:00</time>
      </trkpt>
      <trkpt lat="43.61637" lon="7.01528">
        <ele>217</ele>
        <time>2026-06-10T06:33:14.393+00:00</time>
      </trkpt>
      <trkpt lat="43.61641" lon="7.01525">
        <ele>217</ele>
        <time>2026-06-10T06:33:18.393+00:00</time>
      </trkpt>
      <trkpt lat="43.61647" lon="7.0152">
        <ele>217</ele>
        <time>2026-06-10T06:33:23.393+00:00</time>
      </trkpt>
      <trkpt lat="43.61651" lon="7.01515">
        <ele>217</ele>
        <time>2026-06-10T06:33:28.393+00:00</time>
      </trkpt>
      <trkpt lat="43.61655" lon="7.0151">
        <ele>217</ele>
        <time>2026-06-10T06:33:32.392+00:00</time>
      </trkpt>
      <trkpt lat="43.6166" lon="7.01507">
        <ele>217</ele>
        <time>2026-06-10T06:33:37.393+00:00</time>
      </trkpt>
      <trkpt lat="43.61664" lon="7.01504">
        <ele>217</ele>
        <time>2026-06-10T06:33:42.242+00:00</time>
      </trkpt>
      <trkpt lat="43.61667" lon="7.01498">
        <ele>217</ele>
        <time>2026-06-10T06:33:46.699+00:00</time>
      </trkpt>
      <trkpt lat="43.61671" lon="7.01493">
        <ele>217</ele>
        <time>2026-06-10T06:33:51.089+00:00</time>
      </trkpt>
      <trkpt lat="43.61673" lon="7.01487">
        <ele>217</ele>
        <time>2026-06-10T06:33:55.393+00:00</time>
      </trkpt>
      <trkpt lat="43.61676" lon="7.01481">
        <ele>220</ele>
        <time>2026-06-10T06:33:59.784+00:00</time>
      </trkpt>
      <trkpt lat="43.61678" lon="7.01475">
        <ele>220</ele>
        <time>2026-06-10T06:34:03.888+00:00</time>
      </trkpt>
      <trkpt lat="43.61679" lon="7.01469">
        <ele>220</ele>
        <time>2026-06-10T06:34:07.988+00:00</time>
      </trkpt>
      <trkpt lat="43.61682" lon="7.01462">
        <ele>212</ele>
        <time>2026-06-10T06:34:12.325+00:00</time>
      </trkpt>
      <trkpt lat="43.61683" lon="7.01456">
        <ele>214</ele>
        <time>2026-06-10T06:34:17.264+00:00</time>
      </trkpt>
      <trkpt lat="43.61684" lon="7.01454">
        <ele>214</ele>
        <time>2026-06-10T06:34:21.392+00:00</time>
      </trkpt>
      <trkpt lat="43.61689" lon="7.01449">
        <ele>214</ele>
        <time>2026-06-10T06:34:25.822+00:00</time>
      </trkpt>
      <trkpt lat="43.61695" lon="7.01444">
        <ele>214</ele>
        <time>2026-06-10T06:34:30.393+00:00</time>
      </trkpt>
      <trkpt lat="43.61699" lon="7.01438">
        <ele>214</ele>
        <time>2026-06-10T06:34:34.924+00:00</time>
      </trkpt>
      <trkpt lat="43.61702" lon="7.01432">
        <ele>214</ele>
        <time>2026-06-10T06:34:39.169+00:00</time>
      </trkpt>
      <trkpt lat="43.61702" lon="7.01422">
        <ele>215</ele>
        <time>2026-06-10T06:34:44.304+00:00</time>
      </trkpt>
      <trkpt lat="43.61702" lon="7.01415">
        <ele>215</ele>
        <time>2026-06-10T06:34:48.383+00:00</time>
      </trkpt>
      <trkpt lat="43.61702" lon="7.01409">
        <ele>215</ele>
        <time>2026-06-10T06:34:52.392+00:00</time>
      </trkpt>
      <trkpt lat="43.61701" lon="7.01402">
        <ele>215</ele>
        <time>2026-06-10T06:34:56.865+00:00</time>
      </trkpt>
      <trkpt lat="43.61701" lon="7.01395">
        <ele>215</ele>
        <time>2026-06-10T06:35:01.393+00:00</time>
      </trkpt>
      <trkpt lat="43.61705" lon="7.0139">
        <ele>215</ele>
        <time>2026-06-10T06:35:05.392+00:00</time>
      </trkpt>
      <trkpt lat="43.61712" lon="7.01393">
        <ele>210</ele>
        <time>2026-06-10T06:35:10.393+00:00</time>
      </trkpt>
      <trkpt lat="43.61716" lon="7.01395">
        <ele>210</ele>
        <time>2026-06-10T06:35:14.392+00:00</time>
      </trkpt>
      <trkpt lat="43.61716" lon="7.01398">
        <ele>210</ele>
        <time>2026-06-10T06:35:19.249+00:00</time>
      </trkpt>
      <trkpt lat="43.61718" lon="7.01395">
        <ele>210</ele>
        <time>2026-06-10T06:35:23.393+00:00</time>
      </trkpt>
      <trkpt lat="43.61722" lon="7.01393">
        <ele>210</ele>
        <time>2026-06-10T06:35:27.945+00:00</time>
      </trkpt>
      <trkpt lat="43.61726" lon="7.01394">
        <ele>210</ele>
        <time>2026-06-10T06:35:32.324+00:00</time>
      </trkpt>
      <trkpt lat="43.61731" lon="7.0139">
        <ele>210</ele>
        <time>2026-06-10T06:35:37.261+00:00</time>
      </trkpt>
      <trkpt lat="43.61734" lon="7.01387">
        <ele>210</ele>
        <time>2026-06-10T06:35:41.461+00:00</time>
      </trkpt>
      <trkpt lat="43.61738" lon="7.01384">
        <ele>207</ele>
        <time>2026-06-10T06:35:46.228+00:00</time>
      </trkpt>
      <trkpt lat="43.61741" lon="7.01382">
        <ele>207</ele>
        <time>2026-06-10T06:35:50.768+00:00</time>
      </trkpt>
      <trkpt lat="43.61744" lon="7.01379">
        <ele>207</ele>
        <time>2026-06-10T06:35:55.393+00:00</time>
      </trkpt>
      <trkpt lat="43.6175" lon="7.01375">
        <ele>206</ele>
        <time>2026-06-10T06:36:00.393+00:00</time>
      </trkpt>
      <trkpt lat="43.61756" lon="7.01371">
        <ele>206</ele>
        <time>2026-06-10T06:36:05.393+00:00</time>
      </trkpt>
      <trkpt lat="43.6176" lon="7.01367">
        <ele>206</ele>
        <time>2026-06-10T06:36:09.699+00:00</time>
      </trkpt>
      <trkpt lat="43.61764" lon="7.01363">
        <ele>203</ele>
        <time>2026-06-10T06:36:13.985+00:00</time>
      </trkpt>
      <trkpt lat="43.61767" lon="7.0136">
        <ele>203</ele>
        <time>2026-06-10T06:36:18.393+00:00</time>
      </trkpt>
      <trkpt lat="43.61772" lon="7.0136">
        <ele>203</ele>
        <time>2026-06-10T06:36:22.393+00:00</time>
      </trkpt>
      <trkpt lat="43.61778" lon="7.01357">
        <ele>203</ele>
        <time>2026-06-10T06:36:26.824+00:00</time>
      </trkpt>
      <trkpt lat="43.61783" lon="7.01354">
        <ele>203</ele>
        <time>2026-06-10T06:36:31.393+00:00</time>
      </trkpt>
      <trkpt lat="43.61788" lon="7.01352">
        <ele>203</ele>
        <time>2026-06-10T06:36:36.393+00:00</time>
      </trkpt>
      <trkpt lat="43.61792" lon="7.01349">
        <ele>203</ele>
        <time>2026-06-10T06:36:40.787+00:00</time>
      </trkpt>
      <trkpt lat="43.61797" lon="7.01347">
        <ele>205</ele>
        <time>2026-06-10T06:36:45.393+00:00</time>
      </trkpt>
      <trkpt lat="43.61802" lon="7.01345">
        <ele>205</ele>
        <time>2026-06-10T06:36:50.392+00:00</time>
      </trkpt>
      <trkpt lat="43.61807" lon="7.0134">
        <ele>205</ele>
        <time>2026-06-10T06:36:55.392+00:00</time>
      </trkpt>
      <trkpt lat="43.61812" lon="7.01338">
        <ele>205</ele>
        <time>2026-06-10T06:36:59.392+00:00</time>
      </trkpt>
      <trkpt lat="43.61816" lon="7.01338">
        <ele>205</ele>
        <time>2026-06-10T06:37:03.967+00:00</time>
      </trkpt>
      <trkpt lat="43.61818" lon="7.01335">
        <ele>205</ele>
        <time>2026-06-10T06:37:08.166+00:00</time>
      </trkpt>
      <trkpt lat="43.61821" lon="7.01332">
        <ele>205</ele>
        <time>2026-06-10T06:37:12.391+00:00</time>
      </trkpt>
      <trkpt lat="43.61825" lon="7.01326">
        <ele>205</ele>
        <time>2026-06-10T06:37:17.391+00:00</time>
      </trkpt>
      <trkpt lat="43.61831" lon="7.0132">
        <ele>205</ele>
        <time>2026-06-10T06:37:22.081+00:00</time>
      </trkpt>
      <trkpt lat="43.61837" lon="7.01317">
        <ele>207</ele>
        <time>2026-06-10T06:37:26.391+00:00</time>
      </trkpt>
      <trkpt lat="43.61843" lon="7.01317">
        <ele>207</ele>
        <time>2026-06-10T06:37:30.392+00:00</time>
      </trkpt>
      <trkpt lat="43.6185" lon="7.01314">
        <ele>205</ele>
        <time>2026-06-10T06:37:35.392+00:00</time>
      </trkpt>
      <trkpt lat="43.61854" lon="7.01312">
        <ele>205</ele>
        <time>2026-06-10T06:37:40.044+00:00</time>
      </trkpt>
      <trkpt lat="43.61857" lon="7.01306">
        <ele>205</ele>
        <time>2026-06-10T06:37:44.392+00:00</time>
      </trkpt>
      <trkpt lat="43.61863" lon="7.01303">
        <ele>205</ele>
        <time>2026-06-10T06:37:48.922+00:00</time>
      </trkpt>
      <trkpt lat="43.61868" lon="7.01299">
        <ele>205</ele>
        <time>2026-06-10T06:37:53.392+00:00</time>
      </trkpt>
      <trkpt lat="43.61866" lon="7.01294">
        <ele>205</ele>
        <time>2026-06-10T06:37:58.208+00:00</time>
      </trkpt>
      <trkpt lat="43.6187" lon="7.01289">
        <ele>205</ele>
        <time>2026-06-10T06:38:02.872+00:00</time>
      </trkpt>
      <trkpt lat="43.61874" lon="7.01285">
        <ele>205</ele>
        <time>2026-06-10T06:38:07.284+00:00</time>
      </trkpt>
      <trkpt lat="43.61878" lon="7.01284">
        <ele>204</ele>
        <time>2026-06-10T06:38:11.584+00:00</time>
      </trkpt>
      <trkpt lat="43.61879" lon="7.0128">
        <ele>204</ele>
        <time>2026-06-10T06:38:15.740+00:00</time>
      </trkpt>
      <trkpt lat="43.61882" lon="7.01277">
        <ele>204</ele>
        <time>2026-06-10T06:38:19.925+00:00</time>
      </trkpt>
      <trkpt lat="43.61884" lon="7.01272">
        <ele>204</ele>
        <time>2026-06-10T06:38:24.025+00:00</time>
      </trkpt>
      <trkpt lat="43.61887" lon="7.01268">
        <ele>204</ele>
        <time>2026-06-10T06:38:28.392+00:00</time>
      </trkpt>
      <trkpt lat="43.61893" lon="7.0126">
        <ele>205</ele>
        <time>2026-06-10T06:38:33.392+00:00</time>
      </trkpt>
      <trkpt lat="43.619" lon="7.01254">
        <ele>205</ele>
        <time>2026-06-10T06:38:38.392+00:00</time>
      </trkpt>
      <trkpt lat="43.61905" lon="7.01247">
        <ele>204</ele>
        <time>2026-06-10T06:38:43.392+00:00</time>
      </trkpt>
      <trkpt lat="43.61907" lon="7.01241">
        <ele>204</ele>
        <time>2026-06-10T06:38:47.644+00:00</time>
      </trkpt>
      <trkpt lat="43.61912" lon="7.01236">
        <ele>205</ele>
        <time>2026-06-10T06:38:52.392+00:00</time>
      </trkpt>
      <trkpt lat="43.61915" lon="7.01233">
        <ele>205</ele>
        <time>2026-06-10T06:38:56.392+00:00</time>
      </trkpt>
      <trkpt lat="43.61919" lon="7.0123">
        <ele>205</ele>
        <time>2026-06-10T06:39:00.601+00:00</time>
      </trkpt>
      <trkpt lat="43.61924" lon="7.01226">
        <ele>205</ele>
        <time>2026-06-10T06:39:05.392+00:00</time>
      </trkpt>
      <trkpt lat="43.61929" lon="7.01219">
        <ele>205</ele>
        <time>2026-06-10T06:39:10.392+00:00</time>
      </trkpt>
      <trkpt lat="43.61934" lon="7.01212">
        <ele>203</ele>
        <time>2026-06-10T06:39:15.391+00:00</time>
      </trkpt>
      <trkpt lat="43.61938" lon="7.01209">
        <ele>203</ele>
        <time>2026-06-10T06:39:19.392+00:00</time>
      </trkpt>
      <trkpt lat="43.61941" lon="7.01205">
        <ele>204</ele>
        <time>2026-06-10T06:39:23.392+00:00</time>
      </trkpt>
      <trkpt lat="43.61944" lon="7.01198">
        <ele>204</ele>
        <time>2026-06-10T06:39:28.392+00:00</time>
      </trkpt>
      <trkpt lat="43.61947" lon="7.01192">
        <ele>204</ele>
        <time>2026-06-10T06:39:33.391+00:00</time>
      </trkpt>
      <trkpt lat="43.61949" lon="7.01185">
        <ele>204</ele>
        <time>2026-06-10T06:39:38.392+00:00</time>
      </trkpt>
      <trkpt lat="43.61951" lon="7.01177">
        <ele>207</ele>
        <time>2026-06-10T06:39:42.969+00:00</time>
      </trkpt>
      <trkpt lat="43.61953" lon="7.01169">
        <ele>207</ele>
        <time>2026-06-10T06:39:47.392+00:00</time>
      </trkpt>
      <trkpt lat="43.61955" lon="7.01165">
        <ele>207</ele>
        <time>2026-06-10T06:39:51.391+00:00</time>
      </trkpt>
      <trkpt lat="43.61958" lon="7.01159">
        <ele>207</ele>
        <time>2026-06-10T06:39:56.391+00:00</time>
      </trkpt>
      <trkpt lat="43.61961" lon="7.01151">
        <ele>205</ele>
        <time>2026-06-10T06:40:00.391+00:00</time>
      </trkpt>
      <trkpt lat="43.61964" lon="7.01143">
        <ele>205</ele>
        <time>2026-06-10T06:40:05.391+00:00</time>
      </trkpt>
      <trkpt lat="43.61965" lon="7.01134">
        <ele>205</ele>
        <time>2026-06-10T06:40:10.393+00:00</time>
      </trkpt>
      <trkpt lat="43.61967" lon="7.01126">
        <ele>205</ele>
        <time>2026-06-10T06:40:15.205+00:00</time>
      </trkpt>
      <trkpt lat="43.61971" lon="7.01121">
        <ele>205</ele>
        <time>2026-06-10T06:40:19.392+00:00</time>
      </trkpt>
      <trkpt lat="43.61973" lon="7.01116">
        <ele>205</ele>
        <time>2026-06-10T06:40:23.392+00:00</time>
      </trkpt>
      <trkpt lat="43.61973" lon="7.0111">
        <ele>205</ele>
        <time>2026-06-10T06:40:28.392+00:00</time>
      </trkpt>
      <trkpt lat="43.61976" lon="7.011">
        <ele>205</ele>
        <time>2026-06-10T06:40:32.583+00:00</time>
      </trkpt>
      <trkpt lat="43.61976" lon="7.01092">
        <ele>205</ele>
        <time>2026-06-10T06:40:36.881+00:00</time>
      </trkpt>
      <trkpt lat="43.6198" lon="7.01088">
        <ele>205</ele>
        <time>2026-06-10T06:40:41.105+00:00</time>
      </trkpt>
      <trkpt lat="43.61986" lon="7.01089">
        <ele>206</ele>
        <time>2026-06-10T06:40:45.160+00:00</time>
      </trkpt>
      <trkpt lat="43.61991" lon="7.01089">
        <ele>206</ele>
        <time>2026-06-10T06:40:49.343+00:00</time>
      </trkpt>
      <trkpt lat="43.61992" lon="7.01091">
        <ele>206</ele>
        <time>2026-06-10T06:40:53.391+00:00</time>
      </trkpt>
      <trkpt lat="43.61993" lon="7.01091">
        <ele>206</ele>
        <time>2026-06-10T06:40:58.022+00:00</time>
      </trkpt>
      <trkpt lat="43.61997" lon="7.01089">
        <ele>206</ele>
        <time>2026-06-10T06:41:02.392+00:00</time>
      </trkpt>
      <trkpt lat="43.6201" lon="7.0109">
        <ele>206</ele>
        <time>2026-06-10T06:41:48.907+00:00</time>
      </trkpt>
      <trkpt lat="43.62009" lon="7.01083">
        <ele>206</ele>
        <time>2026-06-10T06:41:53.329+00:00</time>
      </trkpt>
      <trkpt lat="43.62011" lon="7.01077">
        <ele>206</ele>
        <time>2026-06-10T06:41:57.368+00:00</time>
      </trkpt>
      <trkpt lat="43.62012" lon="7.0107">
        <ele>206</ele>
        <time>2026-06-10T06:42:01.391+00:00</time>
      </trkpt>
      <trkpt lat="43.62014" lon="7.01062">
        <ele>206</ele>
        <time>2026-06-10T06:42:05.391+00:00</time>
      </trkpt>
      <trkpt lat="43.62016" lon="7.01054">
        <ele>214</ele>
        <time>2026-06-10T06:42:10.028+00:00</time>
      </trkpt>
      <trkpt lat="43.6202" lon="7.01048">
        <ele>214</ele>
        <time>2026-06-10T06:42:14.391+00:00</time>
      </trkpt>
      <trkpt lat="43.62022" lon="7.01043">
        <ele>214</ele>
        <time>2026-06-10T06:42:18.390+00:00</time>
      </trkpt>
      <trkpt lat="43.62025" lon="7.01036">
        <ele>214</ele>
        <time>2026-06-10T06:42:23.391+00:00</time>
      </trkpt>
      <trkpt lat="43.62026" lon="7.0103">
        <ele>214</ele>
        <time>2026-06-10T06:42:27.391+00:00</time>
      </trkpt>
      <trkpt lat="43.62028" lon="7.01022">
        <ele>214</ele>
        <time>2026-06-10T06:42:32.391+00:00</time>
      </trkpt>
      <trkpt lat="43.6203" lon="7.01015">
        <ele>214</ele>
        <time>2026-06-10T06:42:37.190+00:00</time>
      </trkpt>
      <trkpt lat="43.62033" lon="7.01011">
        <ele>213</ele>
        <time>2026-06-10T06:42:41.391+00:00</time>
      </trkpt>
      <trkpt lat="43.62034" lon="7.01007">
        <ele>213</ele>
        <time>2026-06-10T06:42:45.391+00:00</time>
      </trkpt>
      <trkpt lat="43.62035" lon="7.01001">
        <ele>213</ele>
        <time>2026-06-10T06:42:50.049+00:00</time>
      </trkpt>
      <trkpt lat="43.62038" lon="7.00997">
        <ele>213</ele>
        <time>2026-06-10T06:42:54.391+00:00</time>
      </trkpt>
      <trkpt lat="43.62041" lon="7.00991">
        <ele>213</ele>
        <time>2026-06-10T06:42:59.105+00:00</time>
      </trkpt>
      <trkpt lat="43.62044" lon="7.00988">
        <ele>220</ele>
        <time>2026-06-10T06:43:03.391+00:00</time>
      </trkpt>
      <trkpt lat="43.62047" lon="7.00982">
        <ele>221</ele>
        <time>2026-06-10T06:43:08.391+00:00</time>
      </trkpt>
      <trkpt lat="43.62048" lon="7.00978">
        <ele>221</ele>
        <time>2026-06-10T06:43:13.390+00:00</time>
      </trkpt>
      <trkpt lat="43.62049" lon="7.00975">
        <ele>221</ele>
        <time>2026-06-10T06:43:17.777+00:00</time>
      </trkpt>
      <trkpt lat="43.62053" lon="7.00971">
        <ele>221</ele>
        <time>2026-06-10T06:43:22.391+00:00</time>
      </trkpt>
      <trkpt lat="43.62056" lon="7.00967">
        <ele>221</ele>
        <time>2026-06-10T06:43:27.391+00:00</time>
      </trkpt>
      <trkpt lat="43.62058" lon="7.00961">
        <ele>221</ele>
        <time>2026-06-10T06:43:32.391+00:00</time>
      </trkpt>
      <trkpt lat="43.6206" lon="7.00956">
        <ele>221</ele>
        <time>2026-06-10T06:43:36.391+00:00</time>
      </trkpt>
      <trkpt lat="43.62061" lon="7.0095">
        <ele>221</ele>
        <time>2026-06-10T06:43:41.391+00:00</time>
      </trkpt>
      <trkpt lat="43.62063" lon="7.00944">
        <ele>221</ele>
        <time>2026-06-10T06:43:46.391+00:00</time>
      </trkpt>
      <trkpt lat="43.62066" lon="7.00938">
        <ele>221</ele>
        <time>2026-06-10T06:43:51.406+00:00</time>
      </trkpt>
      <trkpt lat="43.6207" lon="7.00934">
        <ele>228</ele>
        <time>2026-06-10T06:43:56.391+00:00</time>
      </trkpt>
      <trkpt lat="43.62073" lon="7.00928">
        <ele>227</ele>
        <time>2026-06-10T06:44:01.391+00:00</time>
      </trkpt>
      <trkpt lat="43.62077" lon="7.00923">
        <ele>227</ele>
        <time>2026-06-10T06:44:06.391+00:00</time>
      </trkpt>
      <trkpt lat="43.6208" lon="7.00917">
        <ele>227</ele>
        <time>2026-06-10T06:44:11.102+00:00</time>
      </trkpt>
      <trkpt lat="43.62082" lon="7.00912">
        <ele>227</ele>
        <time>2026-06-10T06:44:15.391+00:00</time>
      </trkpt>
      <trkpt lat="43.62083" lon="7.00909">
        <ele>227</ele>
        <time>2026-06-10T06:44:20.391+00:00</time>
      </trkpt>
      <trkpt lat="43.62086" lon="7.00905">
        <ele>227</ele>
        <time>2026-06-10T06:44:24.390+00:00</time>
      </trkpt>
      <trkpt lat="43.62088" lon="7.00899">
        <ele>227</ele>
        <time>2026-06-10T06:44:29.390+00:00</time>
      </trkpt>
      <trkpt lat="43.62092" lon="7.00898">
        <ele>227</ele>
        <time>2026-06-10T06:44:34.390+00:00</time>
      </trkpt>
      <trkpt lat="43.62095" lon="7.00894">
        <ele>227</ele>
        <time>2026-06-10T06:44:39.391+00:00</time>
      </trkpt>
      <trkpt lat="43.62098" lon="7.0089">
        <ele>235</ele>
        <time>2026-06-10T06:44:44.244+00:00</time>
      </trkpt>
      <trkpt lat="43.62101" lon="7.00888">
        <ele>235</ele>
        <time>2026-06-10T06:44:48.390+00:00</time>
      </trkpt>
      <trkpt lat="43.62104" lon="7.00885">
        <ele>235</ele>
        <time>2026-06-10T06:44:52.391+00:00</time>
      </trkpt>
      <trkpt lat="43.62107" lon="7.0088">
        <ele>235</ele>
        <time>2026-06-10T06:44:57.004+00:00</time>
      </trkpt>
      <trkpt lat="43.6211" lon="7.00877">
        <ele>235</ele>
        <time>2026-06-10T06:45:01.391+00:00</time>
      </trkpt>
      <trkpt lat="43.62115" lon="7.00873">
        <ele>237</ele>
        <time>2026-06-10T06:45:06.251+00:00</time>
      </trkpt>
      <trkpt lat="43.62118" lon="7.0087">
        <ele>237</ele>
        <time>2026-06-10T06:45:10.728+00:00</time>
      </trkpt>
      <trkpt lat="43.62121" lon="7.00867">
        <ele>237</ele>
        <time>2026-06-10T06:45:15.391+00:00</time>
      </trkpt>
      <trkpt lat="43.62126" lon="7.00863">
        <ele>239</ele>
        <time>2026-06-10T06:45:20.390+00:00</time>
      </trkpt>
      <trkpt lat="43.62131" lon="7.00861">
        <ele>239</ele>
        <time>2026-06-10T06:45:24.922+00:00</time>
      </trkpt>
      <trkpt lat="43.62138" lon="7.00862">
        <ele>239</ele>
        <time>2026-06-10T06:45:29.391+00:00</time>
      </trkpt>
      <trkpt lat="43.62144" lon="7.00859">
        <ele>239</ele>
        <time>2026-06-10T06:48:37.042+00:00</time>
      </trkpt>
      <trkpt lat="43.62145" lon="7.0086">
        <ele>239</ele>
        <time>2026-06-10T06:48:41.390+00:00</time>
      </trkpt>
      <trkpt lat="43.62145" lon="7.0086">
        <ele>239</ele>
        <time>2026-06-10T06:48:46.356+00:00</time>
      </trkpt>
      <trkpt lat="43.62148" lon="7.00859">
        <ele>239</ele>
        <time>2026-06-10T06:48:50.390+00:00</time>
      </trkpt>
      <trkpt lat="43.62154" lon="7.00855">
        <ele>235</ele>
        <time>2026-06-10T06:48:54.727+00:00</time>
      </trkpt>
      <trkpt lat="43.6216" lon="7.00851">
        <ele>235</ele>
        <time>2026-06-10T06:48:58.888+00:00</time>
      </trkpt>
      <trkpt lat="43.62165" lon="7.00848">
        <ele>235</ele>
        <time>2026-06-10T06:49:03.028+00:00</time>
      </trkpt>
      <trkpt lat="43.6217" lon="7.00844">
        <ele>238</ele>
        <time>2026-06-10T06:49:07.390+00:00</time>
      </trkpt>
      <trkpt lat="43.62174" lon="7.00841">
        <ele>238</ele>
        <time>2026-06-10T06:49:11.888+00:00</time>
      </trkpt>
      <trkpt lat="43.62179" lon="7.00838">
        <ele>238</ele>
        <time>2026-06-10T06:49:16.389+00:00</time>
      </trkpt>
      <trkpt lat="43.62185" lon="7.00836">
        <ele>232</ele>
        <time>2026-06-10T06:49:20.887+00:00</time>
      </trkpt>
      <trkpt lat="43.6219" lon="7.00832">
        <ele>232</ele>
        <time>2026-06-10T06:49:24.984+00:00</time>
      </trkpt>
      <trkpt lat="43.62194" lon="7.00829">
        <ele>232</ele>
        <time>2026-06-10T06:49:29.247+00:00</time>
      </trkpt>
      <trkpt lat="43.62198" lon="7.00826">
        <ele>232</ele>
        <time>2026-06-10T06:49:33.345+00:00</time>
      </trkpt>
      <trkpt lat="43.62202" lon="7.00824">
        <ele>232</ele>
        <time>2026-06-10T06:49:37.545+00:00</time>
      </trkpt>
      <trkpt lat="43.62206" lon="7.00822">
        <ele>232</ele>
        <time>2026-06-10T06:49:41.806+00:00</time>
      </trkpt>
      <trkpt lat="43.62209" lon="7.0082">
        <ele>229</ele>
        <time>2026-06-10T06:49:46.064+00:00</time>
      </trkpt>
      <trkpt lat="43.62213" lon="7.00818">
        <ele>229</ele>
        <time>2026-06-10T06:49:50.305+00:00</time>
      </trkpt>
      <trkpt lat="43.62217" lon="7.00816">
        <ele>229</ele>
        <time>2026-06-10T06:49:54.390+00:00</time>
      </trkpt>
      <trkpt lat="43.62223" lon="7.00813">
        <ele>229</ele>
        <time>2026-06-10T06:49:59.104+00:00</time>
      </trkpt>
      <trkpt lat="43.6223" lon="7.00813">
        <ele>229</ele>
        <time>2026-06-10T06:50:03.389+00:00</time>
      </trkpt>
      <trkpt lat="43.62237" lon="7.00811">
        <ele>227</ele>
        <time>2026-06-10T06:50:08.056+00:00</time>
      </trkpt>
      <trkpt lat="43.62237" lon="7.00809">
        <ele>227</ele>
        <time>2026-06-10T06:50:12.389+00:00</time>
      </trkpt>
      <trkpt lat="43.62241" lon="7.0081">
        <ele>227</ele>
        <time>2026-06-10T06:50:16.403+00:00</time>
      </trkpt>
      <trkpt lat="43.62246" lon="7.0081">
        <ele>227</ele>
        <time>2026-06-10T06:50:20.641+00:00</time>
      </trkpt>
      <trkpt lat="43.6225" lon="7.00807">
        <ele>227</ele>
        <time>2026-06-10T06:50:24.801+00:00</time>
      </trkpt>
      <trkpt lat="43.62254" lon="7.00801">
        <ele>227</ele>
        <time>2026-06-10T06:50:29.360+00:00</time>
      </trkpt>
      <trkpt lat="43.62259" lon="7.00798">
        <ele>227</ele>
        <time>2026-06-10T06:50:34.107+00:00</time>
      </trkpt>
      <trkpt lat="43.62265" lon="7.00797">
        <ele>227</ele>
        <time>2026-06-10T06:50:38.390+00:00</time>
      </trkpt>
      <trkpt lat="43.62271" lon="7.00796">
        <ele>227</ele>
        <time>2026-06-10T06:50:43.389+00:00</time>
      </trkpt>
      <trkpt lat="43.62277" lon="7.00794">
        <ele>227</ele>
        <time>2026-06-10T06:50:48.221+00:00</time>
      </trkpt>
      <trkpt lat="43.62282" lon="7.00794">
        <ele>227</ele>
        <time>2026-06-10T06:50:52.390+00:00</time>
      </trkpt>
      <trkpt lat="43.62287" lon="7.00793">
        <ele>227</ele>
        <time>2026-06-10T06:50:56.801+00:00</time>
      </trkpt>
      <trkpt lat="43.62292" lon="7.0079">
        <ele>230</ele>
        <time>2026-06-10T06:51:01.390+00:00</time>
      </trkpt>
      <trkpt lat="43.62292" lon="7.00788">
        <ele>230</ele>
        <time>2026-06-10T06:51:06.389+00:00</time>
      </trkpt>
      <trkpt lat="43.62294" lon="7.00788">
        <ele>230</ele>
        <time>2026-06-10T06:51:10.685+00:00</time>
      </trkpt>
      <trkpt lat="43.623" lon="7.00788">
        <ele>230</ele>
        <time>2026-06-10T06:51:15.224+00:00</time>
      </trkpt>
      <trkpt lat="43.62305" lon="7.00786">
        <ele>230</ele>
        <time>2026-06-10T06:51:19.742+00:00</time>
      </trkpt>
      <trkpt lat="43.6231" lon="7.00784">
        <ele>230</ele>
        <time>2026-06-10T06:51:23.883+00:00</time>
      </trkpt>
      <trkpt lat="43.62314" lon="7.00781">
        <ele>230</ele>
        <time>2026-06-10T06:51:27.923+00:00</time>
      </trkpt>
      <trkpt lat="43.6232" lon="7.00775">
        <ele>228</ele>
        <time>2026-06-10T06:51:32.389+00:00</time>
      </trkpt>
      <trkpt lat="43.62324" lon="7.0077">
        <ele>228</ele>
        <time>2026-06-10T06:51:37.269+00:00</time>
      </trkpt>
      <trkpt lat="43.62329" lon="7.00768">
        <ele>228</ele>
        <time>2026-06-10T06:51:41.389+00:00</time>
      </trkpt>
      <trkpt lat="43.62336" lon="7.00765">
        <ele>228</ele>
        <time>2026-06-10T06:51:46.389+00:00</time>
      </trkpt>
      <trkpt lat="43.6234" lon="7.00762">
        <ele>232</ele>
        <time>2026-06-10T06:51:50.906+00:00</time>
      </trkpt>
      <trkpt lat="43.62345" lon="7.00761">
        <ele>232</ele>
        <time>2026-06-10T06:51:55.145+00:00</time>
      </trkpt>
      <trkpt lat="43.62348" lon="7.00763">
        <ele>227</ele>
        <time>2026-06-10T06:51:59.132+00:00</time>
      </trkpt>
      <trkpt lat="43.6235" lon="7.00768">
        <ele>226</ele>
        <time>2026-06-10T06:52:03.367+00:00</time>
      </trkpt>
      <trkpt lat="43.62349" lon="7.00777">
        <ele>226</ele>
        <time>2026-06-10T06:52:08.047+00:00</time>
      </trkpt>
      <trkpt lat="43.62348" lon="7.00784">
        <ele>226</ele>
        <time>2026-06-10T06:52:12.389+00:00</time>
      </trkpt>
      <trkpt lat="43.62349" lon="7.00792">
        <ele>226</ele>
        <time>2026-06-10T06:52:17.388+00:00</time>
      </trkpt>
      <trkpt lat="43.62351" lon="7.00797">
        <ele>224</ele>
        <time>2026-06-10T06:52:22.267+00:00</time>
      </trkpt>
      <trkpt lat="43.62356" lon="7.00795">
        <ele>224</ele>
        <time>2026-06-10T06:52:26.389+00:00</time>
      </trkpt>
      <trkpt lat="43.62357" lon="7.00796">
        <ele>224</ele>
        <time>2026-06-10T06:52:32.389+00:00</time>
      </trkpt>
      <trkpt lat="43.62363" lon="7.00799">
        <ele>224</ele>
        <time>2026-06-10T06:52:37.049+00:00</time>
      </trkpt>
      <trkpt lat="43.62367" lon="7.00796">
        <ele>224</ele>
        <time>2026-06-10T06:52:41.388+00:00</time>
      </trkpt>
      <trkpt lat="43.6237" lon="7.00788">
        <ele>226</ele>
        <time>2026-06-10T06:52:46.244+00:00</time>
      </trkpt>
      <trkpt lat="43.62371" lon="7.00783">
        <ele>226</ele>
        <time>2026-06-10T06:52:50.645+00:00</time>
      </trkpt>
      <trkpt lat="43.6237" lon="7.00777">
        <ele>226</ele>
        <time>2026-06-10T06:52:55.222+00:00</time>
      </trkpt>
      <trkpt lat="43.62372" lon="7.00774">
        <ele>226</ele>
        <time>2026-06-10T06:52:59.263+00:00</time>
      </trkpt>
      <trkpt lat="43.62371" lon="7.00768">
        <ele>226</ele>
        <time>2026-06-10T06:53:03.389+00:00</time>
      </trkpt>
      <trkpt lat="43.62371" lon="7.00762">
        <ele>227</ele>
        <time>2026-06-10T06:53:07.389+00:00</time>
      </trkpt>
      <trkpt lat="43.62371" lon="7.00754">
        <ele>227</ele>
        <time>2026-06-10T06:53:12.388+00:00</time>
      </trkpt>
      <trkpt lat="43.62374" lon="7.00746">
        <ele>227</ele>
        <time>2026-06-10T06:53:17.029+00:00</time>
      </trkpt>
      <trkpt lat="43.62375" lon="7.0074">
        <ele>225</ele>
        <time>2026-06-10T06:53:21.268+00:00</time>
      </trkpt>
      <trkpt lat="43.62376" lon="7.00734">
        <ele>225</ele>
        <time>2026-06-10T06:53:25.388+00:00</time>
      </trkpt>
      <trkpt lat="43.62378" lon="7.00729">
        <ele>225</ele>
        <time>2026-06-10T06:53:29.388+00:00</time>
      </trkpt>
      <trkpt lat="43.6238" lon="7.00721">
        <ele>225</ele>
        <time>2026-06-10T06:53:34.389+00:00</time>
      </trkpt>
      <trkpt lat="43.62384" lon="7.00716">
        <ele>225</ele>
        <time>2026-06-10T06:53:39.389+00:00</time>
      </trkpt>
      <trkpt lat="43.62388" lon="7.00713">
        <ele>225</ele>
        <time>2026-06-10T06:53:43.389+00:00</time>
      </trkpt>
      <trkpt lat="43.62393" lon="7.00711">
        <ele>225</ele>
        <time>2026-06-10T06:53:47.902+00:00</time>
      </trkpt>
      <trkpt lat="43.62397" lon="7.00709">
        <ele>225</ele>
        <time>2026-06-10T06:53:51.965+00:00</time>
      </trkpt>
      <trkpt lat="43.62402" lon="7.00706">
        <ele>226</ele>
        <time>2026-06-10T06:53:56.105+00:00</time>
      </trkpt>
      <trkpt lat="43.62405" lon="7.00702">
        <ele>225</ele>
        <time>2026-06-10T06:54:00.225+00:00</time>
      </trkpt>
      <trkpt lat="43.62409" lon="7.00697">
        <ele>225</ele>
        <time>2026-06-10T06:54:04.388+00:00</time>
      </trkpt>
      <trkpt lat="43.62413" lon="7.00693">
        <ele>225</ele>
        <time>2026-06-10T06:54:09.124+00:00</time>
      </trkpt>
      <trkpt lat="43.62418" lon="7.00692">
        <ele>225</ele>
        <time>2026-06-10T06:54:13.389+00:00</time>
      </trkpt>
      <trkpt lat="43.62423" lon="7.00692">
        <ele>225</ele>
        <time>2026-06-10T06:54:17.666+00:00</time>
      </trkpt>
      <trkpt lat="43.62428" lon="7.00693">
        <ele>225</ele>
        <time>2026-06-10T06:54:22.389+00:00</time>
      </trkpt>
      <trkpt lat="43.62435" lon="7.00689">
        <ele>224</ele>
        <time>2026-06-10T06:54:27.349+00:00</time>
      </trkpt>
      <trkpt lat="43.62439" lon="7.00685">
        <ele>224</ele>
        <time>2026-06-10T06:54:31.389+00:00</time>
      </trkpt>
      <trkpt lat="43.62444" lon="7.00682">
        <ele>224</ele>
        <time>2026-06-10T06:54:36.347+00:00</time>
      </trkpt>
      <trkpt lat="43.62448" lon="7.00676">
        <ele>225</ele>
        <time>2026-06-10T06:54:40.388+00:00</time>
      </trkpt>
      <trkpt lat="43.62453" lon="7.0067">
        <ele>225</ele>
        <time>2026-06-10T06:54:45.247+00:00</time>
      </trkpt>
      <trkpt lat="43.62459" lon="7.00666">
        <ele>227</ele>
        <time>2026-06-10T06:54:49.388+00:00</time>
      </trkpt>
      <trkpt lat="43.62463" lon="7.0066">
        <ele>227</ele>
        <time>2026-06-10T06:54:54.121+00:00</time>
      </trkpt>
      <trkpt lat="43.62467" lon="7.00658">
        <ele>227</ele>
        <time>2026-06-10T06:54:58.389+00:00</time>
      </trkpt>
      <trkpt lat="43.62473" lon="7.00654">
        <ele>227</ele>
        <time>2026-06-10T06:55:03.389+00:00</time>
      </trkpt>
      <trkpt lat="43.6248" lon="7.00649">
        <ele>228</ele>
        <time>2026-06-10T06:55:08.305+00:00</time>
      </trkpt>
      <trkpt lat="43.62485" lon="7.00646">
        <ele>228</ele>
        <time>2026-06-10T06:55:12.389+00:00</time>
      </trkpt>
      <trkpt lat="43.6249" lon="7.00644">
        <ele>231</ele>
        <time>2026-06-10T06:55:16.587+00:00</time>
      </trkpt>
      <trkpt lat="43.62496" lon="7.0064">
        <ele>231</ele>
        <time>2026-06-10T06:55:21.389+00:00</time>
      </trkpt>
      <trkpt lat="43.62501" lon="7.00636">
        <ele>231</ele>
        <time>2026-06-10T06:55:25.885+00:00</time>
      </trkpt>
      <trkpt lat="43.62503" lon="7.00631">
        <ele>231</ele>
        <time>2026-06-10T06:55:30.389+00:00</time>
      </trkpt>
      <trkpt lat="43.62505" lon="7.00629">
        <ele>231</ele>
        <time>2026-06-10T06:55:34.389+00:00</time>
      </trkpt>
      <trkpt lat="43.62508" lon="7.00627">
        <ele>231</ele>
        <time>2026-06-10T06:55:38.542+00:00</time>
      </trkpt>
      <trkpt lat="43.62511" lon="7.00623">
        <ele>231</ele>
        <time>2026-06-10T06:55:43.388+00:00</time>
      </trkpt>
      <trkpt lat="43.62515" lon="7.0062">
        <ele>232</ele>
        <time>2026-06-10T06:55:48.247+00:00</time>
      </trkpt>
      <trkpt lat="43.62519" lon="7.00617">
        <ele>232</ele>
        <time>2026-06-10T06:55:52.387+00:00</time>
      </trkpt>
      <trkpt lat="43.62525" lon="7.00615">
        <ele>232</ele>
        <time>2026-06-10T06:55:57.387+00:00</time>
      </trkpt>
      <trkpt lat="43.62529" lon="7.00611">
        <ele>232</ele>
        <time>2026-06-10T06:56:02.388+00:00</time>
      </trkpt>
      <trkpt lat="43.62533" lon="7.00606">
        <ele>232</ele>
        <time>2026-06-10T06:56:06.388+00:00</time>
      </trkpt>
      <trkpt lat="43.62538" lon="7.00603">
        <ele>232</ele>
        <time>2026-06-10T06:56:10.580+00:00</time>
      </trkpt>
      <trkpt lat="43.62543" lon="7.00599">
        <ele>236</ele>
        <time>2026-06-10T06:56:15.387+00:00</time>
      </trkpt>
      <trkpt lat="43.62548" lon="7.00595">
        <ele>234</ele>
        <time>2026-06-10T06:56:20.388+00:00</time>
      </trkpt>
      <trkpt lat="43.62553" lon="7.00591">
        <ele>234</ele>
        <time>2026-06-10T06:56:25.381+00:00</time>
      </trkpt>
      <trkpt lat="43.62557" lon="7.00586">
        <ele>234</ele>
        <time>2026-06-10T06:56:30.028+00:00</time>
      </trkpt>
      <trkpt lat="43.62561" lon="7.00582">
        <ele>234</ele>
        <time>2026-06-10T06:56:34.388+00:00</time>
      </trkpt>
      <trkpt lat="43.62565" lon="7.00579">
        <ele>234</ele>
        <time>2026-06-10T06:56:39.027+00:00</time>
      </trkpt>
      <trkpt lat="43.62569" lon="7.00576">
        <ele>234</ele>
        <time>2026-06-10T06:56:43.388+00:00</time>
      </trkpt>
      <trkpt lat="43.62574" lon="7.00574">
        <ele>239</ele>
        <time>2026-06-10T06:56:47.387+00:00</time>
      </trkpt>
      <trkpt lat="43.62578" lon="7.00571">
        <ele>239</ele>
        <time>2026-06-10T06:56:51.907+00:00</time>
      </trkpt>
      <trkpt lat="43.62583" lon="7.00567">
        <ele>237</ele>
        <time>2026-06-10T06:56:56.388+00:00</time>
      </trkpt>
      <trkpt lat="43.62586" lon="7.00564">
        <ele>237</ele>
        <time>2026-06-10T06:57:00.388+00:00</time>
      </trkpt>
      <trkpt lat="43.6259" lon="7.00561">
        <ele>237</ele>
        <time>2026-06-10T06:57:05.166+00:00</time>
      </trkpt>
      <trkpt lat="43.62593" lon="7.00558">
        <ele>237</ele>
        <time>2026-06-10T06:57:09.403+00:00</time>
      </trkpt>
      <trkpt lat="43.62598" lon="7.00556">
        <ele>239</ele>
        <time>2026-06-10T06:57:14.205+00:00</time>
      </trkpt>
      <trkpt lat="43.62604" lon="7.00556">
        <ele>239</ele>
        <time>2026-06-10T06:57:19.015+00:00</time>
      </trkpt>
      <trkpt lat="43.62609" lon="7.00556">
        <ele>239</ele>
        <time>2026-06-10T06:57:24.203+00:00</time>
      </trkpt>
      <trkpt lat="43.62615" lon="7.00555">
        <ele>239</ele>
        <time>2026-06-10T06:57:28.388+00:00</time>
      </trkpt>
      <trkpt lat="43.62622" lon="7.00555">
        <ele>239</ele>
        <time>2026-06-10T06:57:33.388+00:00</time>
      </trkpt>
      <trkpt lat="43.62627" lon="7.00554">
        <ele>240</ele>
        <time>2026-06-10T06:57:37.388+00:00</time>
      </trkpt>
      <trkpt lat="43.62632" lon="7.00556">
        <ele>240</ele>
        <time>2026-06-10T06:57:42.012+00:00</time>
      </trkpt>
      <trkpt lat="43.62638" lon="7.00555">
        <ele>240</ele>
        <time>2026-06-10T06:57:46.388+00:00</time>
      </trkpt>
      <trkpt lat="43.62642" lon="7.00555">
        <ele>240</ele>
        <time>2026-06-10T06:57:51.388+00:00</time>
      </trkpt>
      <trkpt lat="43.62648" lon="7.00555">
        <ele>240</ele>
        <time>2026-06-10T06:57:56.145+00:00</time>
      </trkpt>
      <trkpt lat="43.62654" lon="7.00553">
        <ele>241</ele>
        <time>2026-06-10T06:58:00.387+00:00</time>
      </trkpt>
      <trkpt lat="43.62659" lon="7.00551">
        <ele>241</ele>
        <time>2026-06-10T06:58:05.388+00:00</time>
      </trkpt>
      <trkpt lat="43.62665" lon="7.00549">
        <ele>241</ele>
        <time>2026-06-10T06:58:09.985+00:00</time>
      </trkpt>
      <trkpt lat="43.6267" lon="7.00549">
        <ele>241</ele>
        <time>2026-06-10T06:58:14.066+00:00</time>
      </trkpt>
      <trkpt lat="43.62676" lon="7.00551">
        <ele>241</ele>
        <time>2026-06-10T06:58:18.388+00:00</time>
      </trkpt>
      <trkpt lat="43.62682" lon="7.00553">
        <ele>243</ele>
        <time>2026-06-10T06:58:23.388+00:00</time>
      </trkpt>
      <trkpt lat="43.62687" lon="7.00554">
        <ele>243</ele>
        <time>2026-06-10T06:58:28.002+00:00</time>
      </trkpt>
      <trkpt lat="43.62692" lon="7.00555">
        <ele>243</ele>
        <time>2026-06-10T06:58:32.105+00:00</time>
      </trkpt>
      <trkpt lat="43.62697" lon="7.00557">
        <ele>243</ele>
        <time>2026-06-10T06:58:36.388+00:00</time>
      </trkpt>
      <trkpt lat="43.62702" lon="7.00557">
        <ele>243</ele>
        <time>2026-06-10T06:58:41.387+00:00</time>
      </trkpt>
      <trkpt lat="43.62707" lon="7.00558">
        <ele>243</ele>
        <time>2026-06-10T06:58:45.387+00:00</time>
      </trkpt>
      <trkpt lat="43.62713" lon="7.0056">
        <ele>244</ele>
        <time>2026-06-10T06:58:50.388+00:00</time>
      </trkpt>
      <trkpt lat="43.62718" lon="7.00562">
        <ele>244</ele>
        <time>2026-06-10T06:58:55.388+00:00</time>
      </trkpt>
      <trkpt lat="43.62723" lon="7.00563">
        <ele>244</ele>
        <time>2026-06-10T06:59:00.388+00:00</time>
      </trkpt>
      <trkpt lat="43.62728" lon="7.00567">
        <ele>244</ele>
        <time>2026-06-10T06:59:05.388+00:00</time>
      </trkpt>
      <trkpt lat="43.62734" lon="7.0057">
        <ele>242</ele>
        <time>2026-06-10T06:59:10.322+00:00</time>
      </trkpt>
      <trkpt lat="43.62739" lon="7.00572">
        <ele>244</ele>
        <time>2026-06-10T06:59:15.249+00:00</time>
      </trkpt>
      <trkpt lat="43.62744" lon="7.00576">
        <ele>244</ele>
        <time>2026-06-10T06:59:19.388+00:00</time>
      </trkpt>
      <trkpt lat="43.62749" lon="7.00578">
        <ele>244</ele>
        <time>2026-06-10T06:59:23.388+00:00</time>
      </trkpt>
      <trkpt lat="43.62755" lon="7.00581">
        <ele>244</ele>
        <time>2026-06-10T06:59:28.388+00:00</time>
      </trkpt>
      <trkpt lat="43.62761" lon="7.00584">
        <ele>244</ele>
        <time>2026-06-10T06:59:33.388+00:00</time>
      </trkpt>
      <trkpt lat="43.62767" lon="7.00587">
        <ele>247</ele>
        <time>2026-06-10T06:59:38.042+00:00</time>
      </trkpt>
      <trkpt lat="43.62772" lon="7.00589">
        <ele>247</ele>
        <time>2026-06-10T06:59:43.228+00:00</time>
      </trkpt>
      <trkpt lat="43.62777" lon="7.00591">
        <ele>247</ele>
        <time>2026-06-10T06:59:47.388+00:00</time>
      </trkpt>
      <trkpt lat="43.62782" lon="7.00594">
        <ele>247</ele>
        <time>2026-06-10T06:59:51.388+00:00</time>
      </trkpt>
      <trkpt lat="43.62788" lon="7.00597">
        <ele>247</ele>
        <time>2026-06-10T06:59:56.226+00:00</time>
      </trkpt>
      <trkpt lat="43.62792" lon="7.00599">
        <ele>246</ele>
        <time>2026-06-10T07:00:00.266+00:00</time>
      </trkpt>
      <trkpt lat="43.62797" lon="7.00602">
        <ele>246</ele>
        <time>2026-06-10T07:00:04.388+00:00</time>
      </trkpt>
      <trkpt lat="43.62803" lon="7.00605">
        <ele>246</ele>
        <time>2026-06-10T07:00:09.387+00:00</time>
      </trkpt>
      <trkpt lat="43.62808" lon="7.00607">
        <ele>246</ele>
        <time>2026-06-10T07:00:14.387+00:00</time>
      </trkpt>
      <trkpt lat="43.62813" lon="7.00608">
        <ele>246</ele>
        <time>2026-06-10T07:00:19.387+00:00</time>
      </trkpt>
      <trkpt lat="43.62819" lon="7.0061">
        <ele>246</ele>
        <time>2026-06-10T07:00:24.288+00:00</time>
      </trkpt>
      <trkpt lat="43.62825" lon="7.0061">
        <ele>248</ele>
        <time>2026-06-10T07:00:28.387+00:00</time>
      </trkpt>
      <trkpt lat="43.6283" lon="7.00609">
        <ele>248</ele>
        <time>2026-06-10T07:00:32.645+00:00</time>
      </trkpt>
      <trkpt lat="43.62836" lon="7.00609">
        <ele>248</ele>
        <time>2026-06-10T07:00:37.383+00:00</time>
      </trkpt>
      <trkpt lat="43.6284" lon="7.00611">
        <ele>248</ele>
        <time>2026-06-10T07:00:42.369+00:00</time>
      </trkpt>
      <trkpt lat="43.62841" lon="7.00619">
        <ele>248</ele>
        <time>2026-06-10T07:00:47.326+00:00</time>
      </trkpt>
      <trkpt lat="43.62838" lon="7.00625">
        <ele>248</ele>
        <time>2026-06-10T07:00:51.387+00:00</time>
      </trkpt>
      <trkpt lat="43.62834" lon="7.00631">
        <ele>247</ele>
        <time>2026-06-10T07:00:56.387+00:00</time>
      </trkpt>
      <trkpt lat="43.62832" lon="7.00637">
        <ele>247</ele>
        <time>2026-06-10T07:01:00.387+00:00</time>
      </trkpt>
      <trkpt lat="43.62828" lon="7.00643">
        <ele>247</ele>
        <time>2026-06-10T07:01:05.063+00:00</time>
      </trkpt>
      <trkpt lat="43.62823" lon="7.00647">
        <ele>247</ele>
        <time>2026-06-10T07:01:09.386+00:00</time>
      </trkpt>
      <trkpt lat="43.6282" lon="7.0065">
        <ele>247</ele>
        <time>2026-06-10T07:01:13.828+00:00</time>
      </trkpt>
      <trkpt lat="43.62817" lon="7.00656">
        <ele>245</ele>
        <time>2026-06-10T07:01:17.982+00:00</time>
      </trkpt>
      <trkpt lat="43.62815" lon="7.00662">
        <ele>245</ele>
        <time>2026-06-10T07:01:22.386+00:00</time>
      </trkpt>
      <trkpt lat="43.62813" lon="7.00669">
        <ele>245</ele>
        <time>2026-06-10T07:01:27.031+00:00</time>
      </trkpt>
      <trkpt lat="43.6281" lon="7.00674">
        <ele>245</ele>
        <time>2026-06-10T07:01:31.387+00:00</time>
      </trkpt>
      <trkpt lat="43.62807" lon="7.00679">
        <ele>245</ele>
        <time>2026-06-10T07:01:35.628+00:00</time>
      </trkpt>
      <trkpt lat="43.62805" lon="7.00685">
        <ele>244</ele>
        <time>2026-06-10T07:01:39.741+00:00</time>
      </trkpt>
      <trkpt lat="43.62801" lon="7.00691">
        <ele>244</ele>
        <time>2026-06-10T07:01:44.387+00:00</time>
      </trkpt>
      <trkpt lat="43.62797" lon="7.00696">
        <ele>244</ele>
        <time>2026-06-10T07:01:48.846+00:00</time>
      </trkpt>
      <trkpt lat="43.62793" lon="7.00701">
        <ele>244</ele>
        <time>2026-06-10T07:01:53.374+00:00</time>
      </trkpt>
      <trkpt lat="43.62791" lon="7.00707">
        <ele>238</ele>
        <time>2026-06-10T07:01:57.924+00:00</time>
      </trkpt>
      <trkpt lat="43.62787" lon="7.0071">
        <ele>237</ele>
        <time>2026-06-10T07:02:02.386+00:00</time>
      </trkpt>
      <trkpt lat="43.62785" lon="7.00716">
        <ele>237</ele>
        <time>2026-06-10T07:02:06.387+00:00</time>
      </trkpt>
      <trkpt lat="43.62781" lon="7.00722">
        <ele>237</ele>
        <time>2026-06-10T07:02:10.926+00:00</time>
      </trkpt>
      <trkpt lat="43.62779" lon="7.00726">
        <ele>237</ele>
        <time>2026-06-10T07:02:15.387+00:00</time>
      </trkpt>
      <trkpt lat="43.62776" lon="7.00732">
        <ele>237</ele>
        <time>2026-06-10T07:02:20.220+00:00</time>
      </trkpt>
      <trkpt lat="43.62774" lon="7.00736">
        <ele>237</ele>
        <time>2026-06-10T07:02:24.387+00:00</time>
      </trkpt>
      <trkpt lat="43.62771" lon="7.00741">
        <ele>237</ele>
        <time>2026-06-10T07:02:29.367+00:00</time>
      </trkpt>
      <trkpt lat="43.6277" lon="7.00747">
        <ele>237</ele>
        <time>2026-06-10T07:02:33.386+00:00</time>
      </trkpt>
      <trkpt lat="43.62768" lon="7.00754">
        <ele>237</ele>
        <time>2026-06-10T07:02:38.387+00:00</time>
      </trkpt>
      <trkpt lat="43.62765" lon="7.0076">
        <ele>237</ele>
        <time>2026-06-10T07:02:43.244+00:00</time>
      </trkpt>
      <trkpt lat="43.62762" lon="7.00765">
        <ele>234</ele>
        <time>2026-06-10T07:02:47.387+00:00</time>
      </trkpt>
      <trkpt lat="43.6276" lon="7.00771">
        <ele>234</ele>
        <time>2026-06-10T07:02:51.587+00:00</time>
      </trkpt>
      <trkpt lat="43.62758" lon="7.00777">
        <ele>234</ele>
        <time>2026-06-10T07:02:55.863+00:00</time>
      </trkpt>
      <trkpt lat="43.62756" lon="7.00783">
        <ele>234</ele>
        <time>2026-06-10T07:03:00.387+00:00</time>
      </trkpt>
      <trkpt lat="43.62753" lon="7.00788">
        <ele>234</ele>
        <time>2026-06-10T07:03:04.843+00:00</time>
      </trkpt>
      <trkpt lat="43.6275" lon="7.00794">
        <ele>231</ele>
        <time>2026-06-10T07:03:09.082+00:00</time>
      </trkpt>
      <trkpt lat="43.62747" lon="7.008">
        <ele>231</ele>
        <time>2026-06-10T07:03:14.128+00:00</time>
      </trkpt>
      <trkpt lat="43.62744" lon="7.00805">
        <ele>231</ele>
        <time>2026-06-10T07:03:18.387+00:00</time>
      </trkpt>
      <trkpt lat="43.6274" lon="7.0081">
        <ele>231</ele>
        <time>2026-06-10T07:03:22.754+00:00</time>
      </trkpt>
      <trkpt lat="43.62737" lon="7.00814">
        <ele>231</ele>
        <time>2026-06-10T07:03:26.968+00:00</time>
      </trkpt>
      <trkpt lat="43.62734" lon="7.0082">
        <ele>226</ele>
        <time>2026-06-10T07:03:31.309+00:00</time>
      </trkpt>
      <trkpt lat="43.62731" lon="7.00825">
        <ele>226</ele>
        <time>2026-06-10T07:03:35.985+00:00</time>
      </trkpt>
      <trkpt lat="43.62729" lon="7.00831">
        <ele>226</ele>
        <time>2026-06-10T07:03:40.387+00:00</time>
      </trkpt>
      <trkpt lat="43.62726" lon="7.00835">
        <ele>226</ele>
        <time>2026-06-10T07:03:44.738+00:00</time>
      </trkpt>
      <trkpt lat="43.62723" lon="7.00839">
        <ele>226</ele>
        <time>2026-06-10T07:03:49.244+00:00</time>
      </trkpt>
      <trkpt lat="43.6272" lon="7.00843">
        <ele>226</ele>
        <time>2026-06-10T07:03:53.862+00:00</time>
      </trkpt>
      <trkpt lat="43.62717" lon="7.00847">
        <ele>226</ele>
        <time>2026-06-10T07:03:58.083+00:00</time>
      </trkpt>
      <trkpt lat="43.62714" lon="7.0085">
        <ele>224</ele>
        <time>2026-06-10T07:04:02.387+00:00</time>
      </trkpt>
      <trkpt lat="43.62711" lon="7.00856">
        <ele>224</ele>
        <time>2026-06-10T07:04:07.248+00:00</time>
      </trkpt>
      <trkpt lat="43.62708" lon="7.00861">
        <ele>224</ele>
        <time>2026-06-10T07:04:11.280+00:00</time>
      </trkpt>
      <trkpt lat="43.62705" lon="7.00866">
        <ele>224</ele>
        <time>2026-06-10T07:04:15.829+00:00</time>
      </trkpt>
      <trkpt lat="43.62704" lon="7.00872">
        <ele>224</ele>
        <time>2026-06-10T07:04:20.309+00:00</time>
      </trkpt>
      <trkpt lat="43.62702" lon="7.00878">
        <ele>223</ele>
        <time>2026-06-10T07:04:24.386+00:00</time>
      </trkpt>
      <trkpt lat="43.62701" lon="7.00885">
        <ele>223</ele>
        <time>2026-06-10T07:04:28.932+00:00</time>
      </trkpt>
      <trkpt lat="43.62698" lon="7.00892">
        <ele>223</ele>
        <time>2026-06-10T07:04:33.386+00:00</time>
      </trkpt>
      <trkpt lat="43.62699" lon="7.00895">
        <ele>223</ele>
        <time>2026-06-10T07:04:37.386+00:00</time>
      </trkpt>
      <trkpt lat="43.62701" lon="7.00895">
        <ele>223</ele>
        <time>2026-06-10T07:04:41.866+00:00</time>
      </trkpt>
      <trkpt lat="43.62699" lon="7.00901">
        <ele>223</ele>
        <time>2026-06-10T07:04:46.386+00:00</time>
      </trkpt>
      <trkpt lat="43.62694" lon="7.00908">
        <ele>223</ele>
        <time>2026-06-10T07:04:51.059+00:00</time>
      </trkpt>
      <trkpt lat="43.62692" lon="7.00913">
        <ele>223</ele>
        <time>2026-06-10T07:04:55.185+00:00</time>
      </trkpt>
      <trkpt lat="43.62689" lon="7.00919">
        <ele>223</ele>
        <time>2026-06-10T07:04:59.762+00:00</time>
      </trkpt>
      <trkpt lat="43.62687" lon="7.00924">
        <ele>223</ele>
        <time>2026-06-10T07:05:04.141+00:00</time>
      </trkpt>
      <trkpt lat="43.62686" lon="7.0093">
        <ele>223</ele>
        <time>2026-06-10T07:05:08.385+00:00</time>
      </trkpt>
      <trkpt lat="43.62685" lon="7.00937">
        <ele>223</ele>
        <time>2026-06-10T07:05:12.386+00:00</time>
      </trkpt>
      <trkpt lat="43.62684" lon="7.00942">
        <ele>223</ele>
        <time>2026-06-10T07:05:16.863+00:00</time>
      </trkpt>
      <trkpt lat="43.62682" lon="7.00947">
        <ele>223</ele>
        <time>2026-06-10T07:05:20.883+00:00</time>
      </trkpt>
      <trkpt lat="43.6268" lon="7.00951">
        <ele>226</ele>
        <time>2026-06-10T07:05:25.093+00:00</time>
      </trkpt>
      <trkpt lat="43.62675" lon="7.00956">
        <ele>226</ele>
        <time>2026-06-10T07:05:30.230+00:00</time>
      </trkpt>
      <trkpt lat="43.62674" lon="7.00961">
        <ele>224</ele>
        <time>2026-06-10T07:05:34.340+00:00</time>
      </trkpt>
      <trkpt lat="43.62671" lon="7.00965">
        <ele>224</ele>
        <time>2026-06-10T07:05:38.785+00:00</time>
      </trkpt>
      <trkpt lat="43.62669" lon="7.00973">
        <ele>224</ele>
        <time>2026-06-10T07:05:43.385+00:00</time>
      </trkpt>
      <trkpt lat="43.62666" lon="7.00981">
        <ele>224</ele>
        <time>2026-06-10T07:05:48.068+00:00</time>
      </trkpt>
      <trkpt lat="43.62665" lon="7.00986">
        <ele>224</ele>
        <time>2026-06-10T07:05:52.484+00:00</time>
      </trkpt>
      <trkpt lat="43.62664" lon="7.00991">
        <ele>223</ele>
        <time>2026-06-10T07:05:57.386+00:00</time>
      </trkpt>
      <trkpt lat="43.62663" lon="7.00996">
        <ele>223</ele>
        <time>2026-06-10T07:06:02.111+00:00</time>
      </trkpt>
      <trkpt lat="43.62661" lon="7.01002">
        <ele>223</ele>
        <time>2026-06-10T07:06:06.321+00:00</time>
      </trkpt>
      <trkpt lat="43.62659" lon="7.01008">
        <ele>223</ele>
        <time>2026-06-10T07:06:10.709+00:00</time>
      </trkpt>
      <trkpt lat="43.62658" lon="7.01014">
        <ele>222</ele>
        <time>2026-06-10T07:06:15.386+00:00</time>
      </trkpt>
      <trkpt lat="43.62656" lon="7.0102">
        <ele>222</ele>
        <time>2026-06-10T07:06:19.708+00:00</time>
      </trkpt>
      <trkpt lat="43.62652" lon="7.01026">
        <ele>226</ele>
        <time>2026-06-10T07:06:24.266+00:00</time>
      </trkpt>
      <trkpt lat="43.62653" lon="7.01032">
        <ele>226</ele>
        <time>2026-06-10T07:06:29.386+00:00</time>
      </trkpt>
      <trkpt lat="43.62655" lon="7.01036">
        <ele>222</ele>
        <time>2026-06-10T07:06:34.308+00:00</time>
      </trkpt>
      <trkpt lat="43.62656" lon="7.01043">
        <ele>221</ele>
        <time>2026-06-10T07:06:39.025+00:00</time>
      </trkpt>
      <trkpt lat="43.62656" lon="7.01049">
        <ele>221</ele>
        <time>2026-06-10T07:06:43.386+00:00</time>
      </trkpt>
      <trkpt lat="43.62655" lon="7.01056">
        <ele>221</ele>
        <time>2026-06-10T07:06:47.846+00:00</time>
      </trkpt>
      <trkpt lat="43.62655" lon="7.01063">
        <ele>221</ele>
        <time>2026-06-10T07:06:52.046+00:00</time>
      </trkpt>
      <trkpt lat="43.62657" lon="7.01068">
        <ele>221</ele>
        <time>2026-06-10T07:06:56.841+00:00</time>
      </trkpt>
      <trkpt lat="43.62655" lon="7.01069">
        <ele>221</ele>
        <time>2026-06-10T07:07:43.186+00:00</time>
      </trkpt>
      <trkpt lat="43.62651" lon="7.01076">
        <ele>221</ele>
        <time>2026-06-10T07:07:47.403+00:00</time>
      </trkpt>
      <trkpt lat="43.62646" lon="7.01084">
        <ele>221</ele>
        <time>2026-06-10T07:07:52.283+00:00</time>
      </trkpt>
      <trkpt lat="43.62644" lon="7.01088">
        <ele>221</ele>
        <time>2026-06-10T07:07:56.386+00:00</time>
      </trkpt>
      <trkpt lat="43.62643" lon="7.01092">
        <ele>221</ele>
        <time>2026-06-10T07:08:00.944+00:00</time>
      </trkpt>
      <trkpt lat="43.62642" lon="7.01096">
        <ele>221</ele>
        <time>2026-06-10T07:08:05.385+00:00</time>
      </trkpt>
      <trkpt lat="43.62641" lon="7.01105">
        <ele>222</ele>
        <time>2026-06-10T07:08:10.386+00:00</time>
      </trkpt>
      <trkpt lat="43.62641" lon="7.01114">
        <ele>222</ele>
        <time>2026-06-10T07:08:15.269+00:00</time>
      </trkpt>
      <trkpt lat="43.62642" lon="7.01123">
        <ele>222</ele>
        <time>2026-06-10T07:08:19.385+00:00</time>
      </trkpt>
      <trkpt lat="43.62643" lon="7.0113">
        <ele>223</ele>
        <time>2026-06-10T07:08:23.385+00:00</time>
      </trkpt>
      <trkpt lat="43.62641" lon="7.01137">
        <ele>223</ele>
        <time>2026-06-10T07:08:27.384+00:00</time>
      </trkpt>
      <trkpt lat="43.62641" lon="7.01143">
        <ele>223</ele>
        <time>2026-06-10T07:08:31.946+00:00</time>
      </trkpt>
      <trkpt lat="43.62641" lon="7.01151">
        <ele>223</ele>
        <time>2026-06-10T07:08:36.344+00:00</time>
      </trkpt>
      <trkpt lat="43.62641" lon="7.01159">
        <ele>222</ele>
        <time>2026-06-10T07:08:40.646+00:00</time>
      </trkpt>
      <trkpt lat="43.62643" lon="7.01168">
        <ele>222</ele>
        <time>2026-06-10T07:08:44.885+00:00</time>
      </trkpt>
      <trkpt lat="43.62643" lon="7.01177">
        <ele>222</ele>
        <time>2026-06-10T07:08:49.385+00:00</time>
      </trkpt>
      <trkpt lat="43.62641" lon="7.01186">
        <ele>219</ele>
        <time>2026-06-10T07:08:54.025+00:00</time>
      </trkpt>
      <trkpt lat="43.62639" lon="7.01194">
        <ele>219</ele>
        <time>2026-06-10T07:08:58.385+00:00</time>
      </trkpt>
      <trkpt lat="43.62639" lon="7.01203">
        <ele>219</ele>
        <time>2026-06-10T07:09:02.385+00:00</time>
      </trkpt>
      <trkpt lat="43.62637" lon="7.01212">
        <ele>216</ele>
        <time>2026-06-10T07:09:07.048+00:00</time>
      </trkpt>
      <trkpt lat="43.62636" lon="7.01221">
        <ele>216</ele>
        <time>2026-06-10T07:09:11.385+00:00</time>
      </trkpt>
      <trkpt lat="43.62637" lon="7.0123">
        <ele>216</ele>
        <time>2026-06-10T07:09:15.784+00:00</time>
      </trkpt>
      <trkpt lat="43.62637" lon="7.01239">
        <ele>213</ele>
        <time>2026-06-10T07:09:20.373+00:00</time>
      </trkpt>
      <trkpt lat="43.62637" lon="7.01247">
        <ele>213</ele>
        <time>2026-06-10T07:09:24.385+00:00</time>
      </trkpt>
      <trkpt lat="43.62636" lon="7.01256">
        <ele>213</ele>
        <time>2026-06-10T07:09:29.185+00:00</time>
      </trkpt>
      <trkpt lat="43.62635" lon="7.01264">
        <ele>213</ele>
        <time>2026-06-10T07:09:33.385+00:00</time>
      </trkpt>
      <trkpt lat="43.62633" lon="7.01272">
        <ele>211</ele>
        <time>2026-06-10T07:09:38.225+00:00</time>
      </trkpt>
      <trkpt lat="43.62631" lon="7.01279">
        <ele>211</ele>
        <time>2026-06-10T07:09:42.385+00:00</time>
      </trkpt>
      <trkpt lat="43.6263" lon="7.01286">
        <ele>211</ele>
        <time>2026-06-10T07:09:46.962+00:00</time>
      </trkpt>
      <trkpt lat="43.62627" lon="7.01292">
        <ele>209</ele>
        <time>2026-06-10T07:09:51.385+00:00</time>
      </trkpt>
      <trkpt lat="43.62624" lon="7.01298">
        <ele>213</ele>
        <time>2026-06-10T07:09:55.771+00:00</time>
      </trkpt>
      <trkpt lat="43.62623" lon="7.01305">
        <ele>213</ele>
        <time>2026-06-10T07:10:00.384+00:00</time>
      </trkpt>
      <trkpt lat="43.62622" lon="7.0131">
        <ele>213</ele>
        <time>2026-06-10T07:10:04.385+00:00</time>
      </trkpt>
      <trkpt lat="43.62622" lon="7.01315">
        <ele>213</ele>
        <time>2026-06-10T07:10:08.949+00:00</time>
      </trkpt>
      <trkpt lat="43.6262" lon="7.0132">
        <ele>212</ele>
        <time>2026-06-10T07:10:13.168+00:00</time>
      </trkpt>
      <trkpt lat="43.6262" lon="7.01325">
        <ele>212</ele>
        <time>2026-06-10T07:10:18.384+00:00</time>
      </trkpt>
      <trkpt lat="43.62622" lon="7.01326">
        <ele>212</ele>
        <time>2026-06-10T07:10:22.825+00:00</time>
      </trkpt>
      <trkpt lat="43.62618" lon="7.01328">
        <ele>212</ele>
        <time>2026-06-10T07:10:27.203+00:00</time>
      </trkpt>
      <trkpt lat="43.62615" lon="7.01334">
        <ele>212</ele>
        <time>2026-06-10T07:10:31.385+00:00</time>
      </trkpt>
      <trkpt lat="43.62611" lon="7.0134">
        <ele>212</ele>
        <time>2026-06-10T07:10:36.021+00:00</time>
      </trkpt>
      <trkpt lat="43.62609" lon="7.01347">
        <ele>212</ele>
        <time>2026-06-10T07:10:40.385+00:00</time>
      </trkpt>
      <trkpt lat="43.62607" lon="7.01353">
        <ele>209</ele>
        <time>2026-06-10T07:10:44.385+00:00</time>
      </trkpt>
      <trkpt lat="43.62605" lon="7.01359">
        <ele>209</ele>
        <time>2026-06-10T07:10:48.821+00:00</time>
      </trkpt>
      <trkpt lat="43.62601" lon="7.01365">
        <ele>209</ele>
        <time>2026-06-10T07:10:53.041+00:00</time>
      </trkpt>
      <trkpt lat="43.62598" lon="7.01372">
        <ele>209</ele>
        <time>2026-06-10T07:10:57.810+00:00</time>
      </trkpt>
      <trkpt lat="43.62597" lon="7.01379">
        <ele>206</ele>
        <time>2026-06-10T07:11:02.008+00:00</time>
      </trkpt>
      <trkpt lat="43.62596" lon="7.01386">
        <ele>206</ele>
        <time>2026-06-10T07:11:06.385+00:00</time>
      </trkpt>
      <trkpt lat="43.62595" lon="7.01397">
        <ele>206</ele>
        <time>2026-06-10T07:11:11.384+00:00</time>
      </trkpt>
      <trkpt lat="43.62593" lon="7.01404">
        <ele>204</ele>
        <time>2026-06-10T07:11:15.785+00:00</time>
      </trkpt>
      <trkpt lat="43.62591" lon="7.0141">
        <ele>204</ele>
        <time>2026-06-10T07:11:20.108+00:00</time>
      </trkpt>
      <trkpt lat="43.62591" lon="7.01409">
        <ele>204</ele>
        <time>2026-06-10T07:11:24.385+00:00</time>
      </trkpt>
      <trkpt lat="43.6259" lon="7.01415">
        <ele>204</ele>
        <time>2026-06-10T07:11:28.384+00:00</time>
      </trkpt>
      <trkpt lat="43.62589" lon="7.01423">
        <ele>204</ele>
        <time>2026-06-10T07:11:33.244+00:00</time>
      </trkpt>
      <trkpt lat="43.62587" lon="7.01428">
        <ele>204</ele>
        <time>2026-06-10T07:11:37.801+00:00</time>
      </trkpt>
      <trkpt lat="43.62583" lon="7.01435">
        <ele>203</ele>
        <time>2026-06-10T07:11:42.349+00:00</time>
      </trkpt>
      <trkpt lat="43.6258" lon="7.01442">
        <ele>203</ele>
        <time>2026-06-10T07:11:46.385+00:00</time>
      </trkpt>
      <trkpt lat="43.62576" lon="7.01451">
        <ele>203</ele>
        <time>2026-06-10T07:11:51.385+00:00</time>
      </trkpt>
      <trkpt lat="43.62573" lon="7.01458">
        <ele>203</ele>
        <time>2026-06-10T07:11:56.185+00:00</time>
      </trkpt>
      <trkpt lat="43.62572" lon="7.01464">
        <ele>202</ele>
        <time>2026-06-10T07:12:00.384+00:00</time>
      </trkpt>
      <trkpt lat="43.62571" lon="7.01472">
        <ele>202</ele>
        <time>2026-06-10T07:12:04.644+00:00</time>
      </trkpt>
      <trkpt lat="43.62571" lon="7.0148">
        <ele>202</ele>
        <time>2026-06-10T07:12:08.806+00:00</time>
      </trkpt>
      <trkpt lat="43.6257" lon="7.01488">
        <ele>203</ele>
        <time>2026-06-10T07:12:13.404+00:00</time>
      </trkpt>
      <trkpt lat="43.62571" lon="7.01496">
        <ele>203</ele>
        <time>2026-06-10T07:12:18.385+00:00</time>
      </trkpt>
      <trkpt lat="43.62575" lon="7.01502">
        <ele>203</ele>
        <time>2026-06-10T07:12:23.385+00:00</time>
      </trkpt>
      <trkpt lat="43.62582" lon="7.01505">
        <ele>203</ele>
        <time>2026-06-10T07:12:28.384+00:00</time>
      </trkpt>
      <trkpt lat="43.62588" lon="7.01505">
        <ele>203</ele>
        <time>2026-06-10T07:12:32.384+00:00</time>
      </trkpt>
      <trkpt lat="43.62593" lon="7.01499">
        <ele>203</ele>
        <time>2026-06-10T07:12:37.380+00:00</time>
      </trkpt>
      <trkpt lat="43.62597" lon="7.01496">
        <ele>203</ele>
        <time>2026-06-10T07:12:41.383+00:00</time>
      </trkpt>
      <trkpt lat="43.62603" lon="7.01493">
        <ele>203</ele>
        <time>2026-06-10T07:12:46.384+00:00</time>
      </trkpt>
      <trkpt lat="43.6261" lon="7.01491">
        <ele>203</ele>
        <time>2026-06-10T07:12:51.384+00:00</time>
      </trkpt>
      <trkpt lat="43.62615" lon="7.01489">
        <ele>203</ele>
        <time>2026-06-10T07:12:55.383+00:00</time>
      </trkpt>
      <trkpt lat="43.62622" lon="7.01486">
        <ele>203</ele>
        <time>2026-06-10T07:13:00.384+00:00</time>
      </trkpt>
      <trkpt lat="43.62628" lon="7.01484">
        <ele>204</ele>
        <time>2026-06-10T07:13:04.384+00:00</time>
      </trkpt>
      <trkpt lat="43.62633" lon="7.01488">
        <ele>205</ele>
        <time>2026-06-10T07:13:09.384+00:00</time>
      </trkpt>
      <trkpt lat="43.62637" lon="7.01492">
        <ele>205</ele>
        <time>2026-06-10T07:13:14.168+00:00</time>
      </trkpt>
      <trkpt lat="43.62643" lon="7.01491">
        <ele>205</ele>
        <time>2026-06-10T07:13:18.383+00:00</time>
      </trkpt>
      <trkpt lat="43.62648" lon="7.0149">
        <ele>205</ele>
        <time>2026-06-10T07:13:23.384+00:00</time>
      </trkpt>
      <trkpt lat="43.6265" lon="7.01489">
        <ele>205</ele>
        <time>2026-06-10T07:13:27.384+00:00</time>
      </trkpt>
      <trkpt lat="43.62657" lon="7.0149">
        <ele>208</ele>
        <time>2026-06-10T07:13:32.383+00:00</time>
      </trkpt>
      <trkpt lat="43.62663" lon="7.01491">
        <ele>208</ele>
        <time>2026-06-10T07:13:37.383+00:00</time>
      </trkpt>
      <trkpt lat="43.62669" lon="7.01491">
        <ele>208</ele>
        <time>2026-06-10T07:13:42.384+00:00</time>
      </trkpt>
      <trkpt lat="43.6267" lon="7.01491">
        <ele>208</ele>
        <time>2026-06-10T07:13:47.384+00:00</time>
      </trkpt>
      <trkpt lat="43.62674" lon="7.01489">
        <ele>208</ele>
        <time>2026-06-10T07:13:51.383+00:00</time>
      </trkpt>
      <trkpt lat="43.62678" lon="7.0149">
        <ele>208</ele>
        <time>2026-06-10T07:13:56.384+00:00</time>
      </trkpt>
      <trkpt lat="43.62683" lon="7.01492">
        <ele>209</ele>
        <time>2026-06-10T07:14:01.383+00:00</time>
      </trkpt>
      <trkpt lat="43.62689" lon="7.01492">
        <ele>209</ele>
        <time>2026-06-10T07:14:06.384+00:00</time>
      </trkpt>
      <trkpt lat="43.62694" lon="7.01491">
        <ele>209</ele>
        <time>2026-06-10T07:14:11.383+00:00</time>
      </trkpt>
      <trkpt lat="43.62699" lon="7.0149">
        <ele>209</ele>
        <time>2026-06-10T07:14:15.548+00:00</time>
      </trkpt>
      <trkpt lat="43.62704" lon="7.0149">
        <ele>209</ele>
        <time>2026-06-10T07:14:20.267+00:00</time>
      </trkpt>
      <trkpt lat="43.62709" lon="7.0149">
        <ele>211</ele>
        <time>2026-06-10T07:14:24.767+00:00</time>
      </trkpt>
      <trkpt lat="43.62713" lon="7.01494">
        <ele>211</ele>
        <time>2026-06-10T07:14:29.304+00:00</time>
      </trkpt>
      <trkpt lat="43.62718" lon="7.01496">
        <ele>211</ele>
        <time>2026-06-10T07:14:33.647+00:00</time>
      </trkpt>
      <trkpt lat="43.62723" lon="7.01498">
        <ele>211</ele>
        <time>2026-06-10T07:14:38.282+00:00</time>
      </trkpt>
      <trkpt lat="43.62727" lon="7.01499">
        <ele>211</ele>
        <time>2026-06-10T07:14:42.622+00:00</time>
      </trkpt>
      <trkpt lat="43.62732" lon="7.01499">
        <ele>211</ele>
        <time>2026-06-10T07:14:47.219+00:00</time>
      </trkpt>
      <trkpt lat="43.62737" lon="7.01498">
        <ele>216</ele>
        <time>2026-06-10T07:14:52.384+00:00</time>
      </trkpt>
      <trkpt lat="43.62743" lon="7.01498">
        <ele>216</ele>
        <time>2026-06-10T07:14:57.383+00:00</time>
      </trkpt>
      <trkpt lat="43.62747" lon="7.01499">
        <ele>216</ele>
        <time>2026-06-10T07:15:01.882+00:00</time>
      </trkpt>
      <trkpt lat="43.62752" lon="7.01501">
        <ele>216</ele>
        <time>2026-06-10T07:15:06.384+00:00</time>
      </trkpt>
      <trkpt lat="43.62758" lon="7.01503">
        <ele>216</ele>
        <time>2026-06-10T07:15:10.939+00:00</time>
      </trkpt>
      <trkpt lat="43.62764" lon="7.01504">
        <ele>222</ele>
        <time>2026-06-10T07:15:15.384+00:00</time>
      </trkpt>
      <trkpt lat="43.62771" lon="7.01505">
        <ele>222</ele>
        <time>2026-06-10T07:15:19.885+00:00</time>
      </trkpt>
      <trkpt lat="43.62775" lon="7.01502">
        <ele>222</ele>
        <time>2026-06-10T07:15:24.383+00:00</time>
      </trkpt>
      <trkpt lat="43.62779" lon="7.01503">
        <ele>222</ele>
        <time>2026-06-10T07:15:29.383+00:00</time>
      </trkpt>
      <trkpt lat="43.62784" lon="7.01507">
        <ele>222</ele>
        <time>2026-06-10T07:15:34.383+00:00</time>
      </trkpt>
      <trkpt lat="43.62789" lon="7.01507">
        <ele>222</ele>
        <time>2026-06-10T07:15:39.325+00:00</time>
      </trkpt>
      <trkpt lat="43.62794" lon="7.01507">
        <ele>226</ele>
        <time>2026-06-10T07:15:43.384+00:00</time>
      </trkpt>
      <trkpt lat="43.628" lon="7.01506">
        <ele>226</ele>
        <time>2026-06-10T07:15:48.088+00:00</time>
      </trkpt>
      <trkpt lat="43.62805" lon="7.01507">
        <ele>226</ele>
        <time>2026-06-10T07:15:52.348+00:00</time>
      </trkpt>
      <trkpt lat="43.6281" lon="7.01506">
        <ele>226</ele>
        <time>2026-06-10T07:15:56.384+00:00</time>
      </trkpt>
      <trkpt lat="43.62815" lon="7.01505">
        <ele>226</ele>
        <time>2026-06-10T07:16:00.885+00:00</time>
      </trkpt>
      <trkpt lat="43.6282" lon="7.01505">
        <ele>231</ele>
        <time>2026-06-10T07:16:05.370+00:00</time>
      </trkpt>
      <trkpt lat="43.62825" lon="7.01505">
        <ele>231</ele>
        <time>2026-06-10T07:16:09.383+00:00</time>
      </trkpt>
      <trkpt lat="43.6283" lon="7.01505">
        <ele>231</ele>
        <time>2026-06-10T07:16:14.362+00:00</time>
      </trkpt>
      <trkpt lat="43.62834" lon="7.01507">
        <ele>231</ele>
        <time>2026-06-10T07:16:18.383+00:00</time>
      </trkpt>
      <trkpt lat="43.62839" lon="7.01508">
        <ele>231</ele>
        <time>2026-06-10T07:16:23.384+00:00</time>
      </trkpt>
      <trkpt lat="43.62844" lon="7.01509">
        <ele>231</ele>
        <time>2026-06-10T07:16:28.384+00:00</time>
      </trkpt>
      <trkpt lat="43.62849" lon="7.01511">
        <ele>237</ele>
        <time>2026-06-10T07:16:33.384+00:00</time>
      </trkpt>
      <trkpt lat="43.62854" lon="7.01511">
        <ele>237</ele>
        <time>2026-06-10T07:16:38.383+00:00</time>
      </trkpt>
      <trkpt lat="43.62861" lon="7.01512">
        <ele>237</ele>
        <time>2026-06-10T07:16:43.265+00:00</time>
      </trkpt>
      <trkpt lat="43.62866" lon="7.01514">
        <ele>237</ele>
        <time>2026-06-10T07:16:47.382+00:00</time>
      </trkpt>
      <trkpt lat="43.62871" lon="7.01515">
        <ele>236</ele>
        <time>2026-06-10T07:16:52.383+00:00</time>
      </trkpt>
      <trkpt lat="43.62877" lon="7.01512">
        <ele>241</ele>
        <time>2026-06-10T07:16:57.291+00:00</time>
      </trkpt>
      <trkpt lat="43.62882" lon="7.01512">
        <ele>241</ele>
        <time>2026-06-10T07:17:01.383+00:00</time>
      </trkpt>
      <trkpt lat="43.62889" lon="7.01512">
        <ele>241</ele>
        <time>2026-06-10T07:17:06.327+00:00</time>
      </trkpt>
      <trkpt lat="43.62895" lon="7.01512">
        <ele>241</ele>
        <time>2026-06-10T07:17:11.184+00:00</time>
      </trkpt>
      <trkpt lat="43.62901" lon="7.01513">
        <ele>241</ele>
        <time>2026-06-10T07:17:15.383+00:00</time>
      </trkpt>
      <trkpt lat="43.62905" lon="7.01513">
        <ele>242</ele>
        <time>2026-06-10T07:17:19.783+00:00</time>
      </trkpt>
      <trkpt lat="43.62909" lon="7.01513">
        <ele>242</ele>
        <time>2026-06-10T07:17:24.383+00:00</time>
      </trkpt>
      <trkpt lat="43.62914" lon="7.01513">
        <ele>242</ele>
        <time>2026-06-10T07:17:29.080+00:00</time>
      </trkpt>
      <trkpt lat="43.62919" lon="7.01513">
        <ele>242</ele>
        <time>2026-06-10T07:17:34.087+00:00</time>
      </trkpt>
      <trkpt lat="43.62924" lon="7.01512">
        <ele>242</ele>
        <time>2026-06-10T07:17:38.383+00:00</time>
      </trkpt>
      <trkpt lat="43.6293" lon="7.0151">
        <ele>242</ele>
        <time>2026-06-10T07:17:43.383+00:00</time>
      </trkpt>
      <trkpt lat="43.62936" lon="7.01508">
        <ele>241</ele>
        <time>2026-06-10T07:17:48.182+00:00</time>
      </trkpt>
      <trkpt lat="43.62942" lon="7.01508">
        <ele>241</ele>
        <time>2026-06-10T07:17:52.949+00:00</time>
      </trkpt>
      <trkpt lat="43.62946" lon="7.01506">
        <ele>241</ele>
        <time>2026-06-10T07:17:57.382+00:00</time>
      </trkpt>
      <trkpt lat="43.62952" lon="7.01505">
        <ele>241</ele>
        <time>2026-06-10T07:18:02.304+00:00</time>
      </trkpt>
      <trkpt lat="43.62957" lon="7.01506">
        <ele>241</ele>
        <time>2026-06-10T07:18:06.383+00:00</time>
      </trkpt>
      <trkpt lat="43.62963" lon="7.01507">
        <ele>241</ele>
        <time>2026-06-10T07:18:11.382+00:00</time>
      </trkpt>
      <trkpt lat="43.62969" lon="7.01503">
        <ele>241</ele>
        <time>2026-06-10T07:18:16.383+00:00</time>
      </trkpt>
      <trkpt lat="43.62974" lon="7.01502">
        <ele>241</ele>
        <time>2026-06-10T07:18:21.026+00:00</time>
      </trkpt>
      <trkpt lat="43.62981" lon="7.01501">
        <ele>241</ele>
        <time>2026-06-10T07:18:25.367+00:00</time>
      </trkpt>
      <trkpt lat="43.62987" lon="7.015">
        <ele>241</ele>
        <time>2026-06-10T07:18:29.382+00:00</time>
      </trkpt>
      <trkpt lat="43.62993" lon="7.015">
        <ele>241</ele>
        <time>2026-06-10T07:18:33.925+00:00</time>
      </trkpt>
      <trkpt lat="43.62998" lon="7.015">
        <ele>241</ele>
        <time>2026-06-10T07:18:38.382+00:00</time>
      </trkpt>
      <trkpt lat="43.63003" lon="7.01499">
        <ele>241</ele>
        <time>2026-06-10T07:18:43.163+00:00</time>
      </trkpt>
      <trkpt lat="43.63007" lon="7.01499">
        <ele>241</ele>
        <time>2026-06-10T07:18:47.383+00:00</time>
      </trkpt>
      <trkpt lat="43.63013" lon="7.01499">
        <ele>241</ele>
        <time>2026-06-10T07:18:52.370+00:00</time>
      </trkpt>
      <trkpt lat="43.63018" lon="7.01499">
        <ele>240</ele>
        <time>2026-06-10T07:18:56.382+00:00</time>
      </trkpt>
      <trkpt lat="43.63023" lon="7.01502">
        <ele>240</ele>
        <time>2026-06-10T07:19:00.848+00:00</time>
      </trkpt>
      <trkpt lat="43.63026" lon="7.01509">
        <ele>240</ele>
        <time>2026-06-10T07:19:05.383+00:00</time>
      </trkpt>
      <trkpt lat="43.63026" lon="7.01514">
        <ele>241</ele>
        <time>2026-06-10T07:19:10.326+00:00</time>
      </trkpt>
      <trkpt lat="43.63025" lon="7.01519">
        <ele>241</ele>
        <time>2026-06-10T07:19:14.963+00:00</time>
      </trkpt>
      <trkpt lat="43.63026" lon="7.01525">
        <ele>241</ele>
        <time>2026-06-10T07:19:19.024+00:00</time>
      </trkpt>
      <trkpt lat="43.63026" lon="7.01533">
        <ele>241</ele>
        <time>2026-06-10T07:19:23.921+00:00</time>
      </trkpt>
      <trkpt lat="43.63027" lon="7.01539">
        <ele>241</ele>
        <time>2026-06-10T07:19:27.961+00:00</time>
      </trkpt>
      <trkpt lat="43.63029" lon="7.01545">
        <ele>242</ele>
        <time>2026-06-10T07:19:32.241+00:00</time>
      </trkpt>
      <trkpt lat="43.63031" lon="7.01551">
        <ele>242</ele>
        <time>2026-06-10T07:19:36.373+00:00</time>
      </trkpt>
      <trkpt lat="43.63031" lon="7.01558">
        <ele>242</ele>
        <time>2026-06-10T07:19:40.383+00:00</time>
      </trkpt>
      <trkpt lat="43.63036" lon="7.01564">
        <ele>242</ele>
        <time>2026-06-10T07:19:45.383+00:00</time>
      </trkpt>
      <trkpt lat="43.63041" lon="7.01567">
        <ele>242</ele>
        <time>2026-06-10T07:19:50.383+00:00</time>
      </trkpt>
      <trkpt lat="43.63047" lon="7.01569">
        <ele>239</ele>
        <time>2026-06-10T07:19:55.383+00:00</time>
      </trkpt>
      <trkpt lat="43.63051" lon="7.01571">
        <ele>240</ele>
        <time>2026-06-10T07:19:59.388+00:00</time>
      </trkpt>
      <trkpt lat="43.63056" lon="7.01575">
        <ele>240</ele>
        <time>2026-06-10T07:20:04.063+00:00</time>
      </trkpt>
      <trkpt lat="43.63059" lon="7.01579">
        <ele>240</ele>
        <time>2026-06-10T07:20:08.301+00:00</time>
      </trkpt>
      <trkpt lat="43.63062" lon="7.01587">
        <ele>240</ele>
        <time>2026-06-10T07:20:12.889+00:00</time>
      </trkpt>
      <trkpt lat="43.63065" lon="7.01592">
        <ele>240</ele>
        <time>2026-06-10T07:20:17.043+00:00</time>
      </trkpt>
      <trkpt lat="43.63068" lon="7.01598">
        <ele>241</ele>
        <time>2026-06-10T07:20:21.382+00:00</time>
      </trkpt>
      <trkpt lat="43.63072" lon="7.01603">
        <ele>237</ele>
        <time>2026-06-10T07:20:26.023+00:00</time>
      </trkpt>
      <trkpt lat="43.63077" lon="7.01606">
        <ele>237</ele>
        <time>2026-06-10T07:20:30.383+00:00</time>
      </trkpt>
      <trkpt lat="43.63081" lon="7.01612">
        <ele>237</ele>
        <time>2026-06-10T07:20:35.125+00:00</time>
      </trkpt>
      <trkpt lat="43.63082" lon="7.01618">
        <ele>237</ele>
        <time>2026-06-10T07:20:39.383+00:00</time>
      </trkpt>
      <trkpt lat="43.63082" lon="7.01626">
        <ele>237</ele>
        <time>2026-06-10T07:20:44.383+00:00</time>
      </trkpt>
      <trkpt lat="43.63081" lon="7.01633">
        <ele>237</ele>
        <time>2026-06-10T07:20:48.641+00:00</time>
      </trkpt>
      <trkpt lat="43.63081" lon="7.0164">
        <ele>237</ele>
        <time>2026-06-10T07:20:52.962+00:00</time>
      </trkpt>
      <trkpt lat="43.6308" lon="7.01648">
        <ele>237</ele>
        <time>2026-06-10T07:20:57.381+00:00</time>
      </trkpt>
      <trkpt lat="43.63081" lon="7.01656">
        <ele>239</ele>
        <time>2026-06-10T07:21:01.911+00:00</time>
      </trkpt>
      <trkpt lat="43.63083" lon="7.01664">
        <ele>239</ele>
        <time>2026-06-10T07:21:06.274+00:00</time>
      </trkpt>
      <trkpt lat="43.63084" lon="7.01672">
        <ele>239</ele>
        <time>2026-06-10T07:21:11.007+00:00</time>
      </trkpt>
      <trkpt lat="43.63085" lon="7.01678">
        <ele>239</ele>
        <time>2026-06-10T07:21:15.028+00:00</time>
      </trkpt>
      <trkpt lat="43.63087" lon="7.01685">
        <ele>240</ele>
        <time>2026-06-10T07:21:19.382+00:00</time>
      </trkpt>
      <trkpt lat="43.63086" lon="7.01693">
        <ele>240</ele>
        <time>2026-06-10T07:21:23.488+00:00</time>
      </trkpt>
      <trkpt lat="43.63086" lon="7.01701">
        <ele>240</ele>
        <time>2026-06-10T07:21:27.968+00:00</time>
      </trkpt>
      <trkpt lat="43.63086" lon="7.01708">
        <ele>240</ele>
        <time>2026-06-10T07:21:32.405+00:00</time>
      </trkpt>
      <trkpt lat="43.63087" lon="7.01717">
        <ele>241</ele>
        <time>2026-06-10T07:21:37.381+00:00</time>
      </trkpt>
      <trkpt lat="43.63085" lon="7.01725">
        <ele>241</ele>
        <time>2026-06-10T07:21:42.381+00:00</time>
      </trkpt>
      <trkpt lat="43.63083" lon="7.01733">
        <ele>241</ele>
        <time>2026-06-10T07:21:47.381+00:00</time>
      </trkpt>
      <trkpt lat="43.63081" lon="7.01739">
        <ele>240</ele>
        <time>2026-06-10T07:21:51.382+00:00</time>
      </trkpt>
      <trkpt lat="43.6308" lon="7.01746">
        <ele>240</ele>
        <time>2026-06-10T07:21:55.546+00:00</time>
      </trkpt>
      <trkpt lat="43.63078" lon="7.01752">
        <ele>240</ele>
        <time>2026-06-10T07:21:59.925+00:00</time>
      </trkpt>
      <trkpt lat="43.63076" lon="7.01759">
        <ele>240</ele>
        <time>2026-06-10T07:22:04.108+00:00</time>
      </trkpt>
      <trkpt lat="43.63074" lon="7.01766">
        <ele>240</ele>
        <time>2026-06-10T07:22:08.382+00:00</time>
      </trkpt>
      <trkpt lat="43.63073" lon="7.01772">
        <ele>240</ele>
        <time>2026-06-10T07:22:12.381+00:00</time>
      </trkpt>
      <trkpt lat="43.63074" lon="7.0178">
        <ele>240</ele>
        <time>2026-06-10T07:22:17.245+00:00</time>
      </trkpt>
      <trkpt lat="43.63074" lon="7.01787">
        <ele>240</ele>
        <time>2026-06-10T07:22:21.382+00:00</time>
      </trkpt>
      <trkpt lat="43.63075" lon="7.01794">
        <ele>239</ele>
        <time>2026-06-10T07:22:25.943+00:00</time>
      </trkpt>
      <trkpt lat="43.63075" lon="7.01801">
        <ele>239</ele>
        <time>2026-06-10T07:22:30.381+00:00</time>
      </trkpt>
      <trkpt lat="43.63076" lon="7.01808">
        <ele>239</ele>
        <time>2026-06-10T07:22:34.657+00:00</time>
      </trkpt>
      <trkpt lat="43.63078" lon="7.01816">
        <ele>239</ele>
        <time>2026-06-10T07:22:39.224+00:00</time>
      </trkpt>
      <trkpt lat="43.63078" lon="7.01823">
        <ele>237</ele>
        <time>2026-06-10T07:22:43.381+00:00</time>
      </trkpt>
      <trkpt lat="43.63077" lon="7.01831">
        <ele>237</ele>
        <time>2026-06-10T07:22:48.381+00:00</time>
      </trkpt>
      <trkpt lat="43.63077" lon="7.01838">
        <ele>237</ele>
        <time>2026-06-10T07:22:52.632+00:00</time>
      </trkpt>
      <trkpt lat="43.63076" lon="7.01845">
        <ele>237</ele>
        <time>2026-06-10T07:22:56.867+00:00</time>
      </trkpt>
      <trkpt lat="43.63077" lon="7.01852">
        <ele>236</ele>
        <time>2026-06-10T07:23:00.969+00:00</time>
      </trkpt>
      <trkpt lat="43.63078" lon="7.01859">
        <ele>236</ele>
        <time>2026-06-10T07:23:05.382+00:00</time>
      </trkpt>
      <trkpt lat="43.63079" lon="7.01867">
        <ele>236</ele>
        <time>2026-06-10T07:23:10.382+00:00</time>
      </trkpt>
      <trkpt lat="43.6308" lon="7.01874">
        <ele>236</ele>
        <time>2026-06-10T07:23:14.788+00:00</time>
      </trkpt>
      <trkpt lat="43.63081" lon="7.01881">
        <ele>235</ele>
        <time>2026-06-10T07:23:19.064+00:00</time>
      </trkpt>
      <trkpt lat="43.63082" lon="7.01888">
        <ele>235</ele>
        <time>2026-06-10T07:23:23.382+00:00</time>
      </trkpt>
      <trkpt lat="43.63084" lon="7.01894">
        <ele>235</ele>
        <time>2026-06-10T07:23:27.382+00:00</time>
      </trkpt>
      <trkpt lat="43.63084" lon="7.019">
        <ele>235</ele>
        <time>2026-06-10T07:23:32.004+00:00</time>
      </trkpt>
      <trkpt lat="43.63083" lon="7.01907">
        <ele>234</ele>
        <time>2026-06-10T07:23:36.221+00:00</time>
      </trkpt>
      <trkpt lat="43.63082" lon="7.01914">
        <ele>234</ele>
        <time>2026-06-10T07:23:40.382+00:00</time>
      </trkpt>
      <trkpt lat="43.63081" lon="7.01921">
        <ele>234</ele>
        <time>2026-06-10T07:23:44.622+00:00</time>
      </trkpt>
      <trkpt lat="43.63079" lon="7.01928">
        <ele>234</ele>
        <time>2026-06-10T07:23:49.394+00:00</time>
      </trkpt>
      <trkpt lat="43.63077" lon="7.01938">
        <ele>233</ele>
        <time>2026-06-10T07:23:54.207+00:00</time>
      </trkpt>
      <trkpt lat="43.63074" lon="7.01946">
        <ele>233</ele>
        <time>2026-06-10T07:23:58.382+00:00</time>
      </trkpt>
      <trkpt lat="43.63074" lon="7.01953">
        <ele>233</ele>
        <time>2026-06-10T07:24:02.382+00:00</time>
      </trkpt>
      <trkpt lat="43.63071" lon="7.01958">
        <ele>230</ele>
        <time>2026-06-10T07:24:06.968+00:00</time>
      </trkpt>
      <trkpt lat="43.63066" lon="7.01963">
        <ele>233</ele>
        <time>2026-06-10T07:24:11.684+00:00</time>
      </trkpt>
      <trkpt lat="43.63061" lon="7.01966">
        <ele>233</ele>
        <time>2026-06-10T07:24:16.382+00:00</time>
      </trkpt>
      <trkpt lat="43.63056" lon="7.01969">
        <ele>233</ele>
        <time>2026-06-10T07:24:21.091+00:00</time>
      </trkpt>
      <trkpt lat="43.63051" lon="7.01974">
        <ele>233</ele>
        <time>2026-06-10T07:24:26.382+00:00</time>
      </trkpt>
      <trkpt lat="43.63046" lon="7.01979">
        <ele>233</ele>
        <time>2026-06-10T07:24:31.307+00:00</time>
      </trkpt>
      <trkpt lat="43.63043" lon="7.01984">
        <ele>233</ele>
        <time>2026-06-10T07:24:35.622+00:00</time>
      </trkpt>
      <trkpt lat="43.63039" lon="7.0199">
        <ele>230</ele>
        <time>2026-06-10T07:24:40.381+00:00</time>
      </trkpt>
      <trkpt lat="43.63036" lon="7.01998">
        <ele>230</ele>
        <time>2026-06-10T07:24:45.385+00:00</time>
      </trkpt>
      <trkpt lat="43.63035" lon="7.02004">
        <ele>230</ele>
        <time>2026-06-10T07:24:49.382+00:00</time>
      </trkpt>
      <trkpt lat="43.63033" lon="7.02012">
        <ele>230</ele>
        <time>2026-06-10T07:24:54.381+00:00</time>
      </trkpt>
      <trkpt lat="43.63032" lon="7.0202">
        <ele>227</ele>
        <time>2026-06-10T07:24:59.311+00:00</time>
      </trkpt>
      <trkpt lat="43.63032" lon="7.02027">
        <ele>227</ele>
        <time>2026-06-10T07:25:03.382+00:00</time>
      </trkpt>
      <trkpt lat="43.63031" lon="7.02035">
        <ele>227</ele>
        <time>2026-06-10T07:25:08.368+00:00</time>
      </trkpt>
      <trkpt lat="43.6303" lon="7.02043">
        <ele>225</ele>
        <time>2026-06-10T07:25:13.125+00:00</time>
      </trkpt>
      <trkpt lat="43.63029" lon="7.02049">
        <ele>225</ele>
        <time>2026-06-10T07:25:17.148+00:00</time>
      </trkpt>
      <trkpt lat="43.63028" lon="7.02056">
        <ele>225</ele>
        <time>2026-06-10T07:25:21.381+00:00</time>
      </trkpt>
      <trkpt lat="43.63028" lon="7.02064">
        <ele>225</ele>
        <time>2026-06-10T07:25:26.381+00:00</time>
      </trkpt>
      <trkpt lat="43.63026" lon="7.02071">
        <ele>223</ele>
        <time>2026-06-10T07:25:31.189+00:00</time>
      </trkpt>
      <trkpt lat="43.63025" lon="7.02079">
        <ele>223</ele>
        <time>2026-06-10T07:25:35.810+00:00</time>
      </trkpt>
      <trkpt lat="43.63023" lon="7.02085">
        <ele>223</ele>
        <time>2026-06-10T07:25:39.909+00:00</time>
      </trkpt>
      <trkpt lat="43.63021" lon="7.02093">
        <ele>223</ele>
        <time>2026-06-10T07:25:44.381+00:00</time>
      </trkpt>
      <trkpt lat="43.6302" lon="7.021">
        <ele>222</ele>
        <time>2026-06-10T07:25:48.885+00:00</time>
      </trkpt>
      <trkpt lat="43.63018" lon="7.02106">
        <ele>222</ele>
        <time>2026-06-10T07:25:53.175+00:00</time>
      </trkpt>
      <trkpt lat="43.63016" lon="7.02113">
        <ele>222</ele>
        <time>2026-06-10T07:25:57.380+00:00</time>
      </trkpt>
      <trkpt lat="43.63015" lon="7.02119">
        <ele>222</ele>
        <time>2026-06-10T07:26:01.888+00:00</time>
      </trkpt>
      <trkpt lat="43.63014" lon="7.02126">
        <ele>221</ele>
        <time>2026-06-10T07:26:06.380+00:00</time>
      </trkpt>
      <trkpt lat="43.63014" lon="7.02133">
        <ele>221</ele>
        <time>2026-06-10T07:26:10.381+00:00</time>
      </trkpt>
      <trkpt lat="43.63015" lon="7.0214">
        <ele>221</ele>
        <time>2026-06-10T07:26:14.783+00:00</time>
      </trkpt>
      <trkpt lat="43.63014" lon="7.02147">
        <ele>222</ele>
        <time>2026-06-10T07:26:18.905+00:00</time>
      </trkpt>
      <trkpt lat="43.63013" lon="7.02154">
        <ele>221</ele>
        <time>2026-06-10T07:26:23.380+00:00</time>
      </trkpt>
      <trkpt lat="43.63011" lon="7.02162">
        <ele>221</ele>
        <time>2026-06-10T07:26:27.964+00:00</time>
      </trkpt>
      <trkpt lat="43.63009" lon="7.02169">
        <ele>221</ele>
        <time>2026-06-10T07:26:32.381+00:00</time>
      </trkpt>
      <trkpt lat="43.63005" lon="7.02174">
        <ele>221</ele>
        <time>2026-06-10T07:26:36.900+00:00</time>
      </trkpt>
      <trkpt lat="43.63003" lon="7.0218">
        <ele>221</ele>
        <time>2026-06-10T07:26:41.381+00:00</time>
      </trkpt>
      <trkpt lat="43.63" lon="7.02187">
        <ele>222</ele>
        <time>2026-06-10T07:26:46.267+00:00</time>
      </trkpt>
      <trkpt lat="43.62998" lon="7.02193">
        <ele>222</ele>
        <time>2026-06-10T07:26:50.380+00:00</time>
      </trkpt>
      <trkpt lat="43.62996" lon="7.022">
        <ele>222</ele>
        <time>2026-06-10T07:26:55.286+00:00</time>
      </trkpt>
      <trkpt lat="43.62996" lon="7.02207">
        <ele>222</ele>
        <time>2026-06-10T07:26:59.888+00:00</time>
      </trkpt>
      <trkpt lat="43.62997" lon="7.02213">
        <ele>222</ele>
        <time>2026-06-10T07:27:04.163+00:00</time>
      </trkpt>
      <trkpt lat="43.62998" lon="7.02219">
        <ele>222</ele>
        <time>2026-06-10T07:27:08.381+00:00</time>
      </trkpt>
      <trkpt lat="43.62998" lon="7.02227">
        <ele>222</ele>
        <time>2026-06-10T07:27:12.802+00:00</time>
      </trkpt>
      <trkpt lat="43.62997" lon="7.02232">
        <ele>222</ele>
        <time>2026-06-10T07:27:17.380+00:00</time>
      </trkpt>
      <trkpt lat="43.62992" lon="7.02236">
        <ele>222</ele>
        <time>2026-06-10T07:27:22.228+00:00</time>
      </trkpt>
      <trkpt lat="43.62987" lon="7.02239">
        <ele>225</ele>
        <time>2026-06-10T07:27:26.488+00:00</time>
      </trkpt>
      <trkpt lat="43.62981" lon="7.02242">
        <ele>226</ele>
        <time>2026-06-10T07:27:31.148+00:00</time>
      </trkpt>
      <trkpt lat="43.62975" lon="7.02243">
        <ele>226</ele>
        <time>2026-06-10T07:27:35.563+00:00</time>
      </trkpt>
      <trkpt lat="43.6297" lon="7.02245">
        <ele>226</ele>
        <time>2026-06-10T07:27:40.261+00:00</time>
      </trkpt>
      <trkpt lat="43.62965" lon="7.02248">
        <ele>226</ele>
        <time>2026-06-10T07:27:44.387+00:00</time>
      </trkpt>
      <trkpt lat="43.6296" lon="7.02249">
        <ele>226</ele>
        <time>2026-06-10T07:27:48.380+00:00</time>
      </trkpt>
      <trkpt lat="43.62953" lon="7.02251">
        <ele>223</ele>
        <time>2026-06-10T07:27:53.381+00:00</time>
      </trkpt>
      <trkpt lat="43.62947" lon="7.02253">
        <ele>223</ele>
        <time>2026-06-10T07:27:58.088+00:00</time>
      </trkpt>
      <trkpt lat="43.62942" lon="7.02257">
        <ele>223</ele>
        <time>2026-06-10T07:28:02.229+00:00</time>
      </trkpt>
      <trkpt lat="43.62937" lon="7.02258">
        <ele>223</ele>
        <time>2026-06-10T07:28:06.381+00:00</time>
      </trkpt>
      <trkpt lat="43.62931" lon="7.02261">
        <ele>223</ele>
        <time>2026-06-10T07:28:11.381+00:00</time>
      </trkpt>
      <trkpt lat="43.62926" lon="7.02263">
        <ele>219</ele>
        <time>2026-06-10T07:28:16.023+00:00</time>
      </trkpt>
      <trkpt lat="43.6292" lon="7.02265">
        <ele>223</ele>
        <time>2026-06-10T07:28:20.380+00:00</time>
      </trkpt>
      <trkpt lat="43.62916" lon="7.02268">
        <ele>223</ele>
        <time>2026-06-10T07:28:24.488+00:00</time>
      </trkpt>
      <trkpt lat="43.62911" lon="7.02272">
        <ele>223</ele>
        <time>2026-06-10T07:28:29.102+00:00</time>
      </trkpt>
      <trkpt lat="43.62907" lon="7.02276">
        <ele>223</ele>
        <time>2026-06-10T07:28:34.089+00:00</time>
      </trkpt>
      <trkpt lat="43.62902" lon="7.02279">
        <ele>217</ele>
        <time>2026-06-10T07:28:38.373+00:00</time>
      </trkpt>
      <trkpt lat="43.62896" lon="7.02282">
        <ele>217</ele>
        <time>2026-06-10T07:28:43.304+00:00</time>
      </trkpt>
      <trkpt lat="43.62891" lon="7.02286">
        <ele>217</ele>
        <time>2026-06-10T07:28:48.161+00:00</time>
      </trkpt>
      <trkpt lat="43.62888" lon="7.0229">
        <ele>217</ele>
        <time>2026-06-10T07:28:52.380+00:00</time>
      </trkpt>
      <trkpt lat="43.62884" lon="7.02295">
        <ele>221</ele>
        <time>2026-06-10T07:28:56.989+00:00</time>
      </trkpt>
      <trkpt lat="43.6288" lon="7.02299">
        <ele>221</ele>
        <time>2026-06-10T07:29:01.021+00:00</time>
      </trkpt>
      <trkpt lat="43.62878" lon="7.02304">
        <ele>221</ele>
        <time>2026-06-10T07:29:05.221+00:00</time>
      </trkpt>
      <trkpt lat="43.62875" lon="7.0231">
        <ele>221</ele>
        <time>2026-06-10T07:29:09.381+00:00</time>
      </trkpt>
      <trkpt lat="43.62871" lon="7.02314">
        <ele>214</ele>
        <time>2026-06-10T07:29:13.802+00:00</time>
      </trkpt>
      <trkpt lat="43.62867" lon="7.02318">
        <ele>214</ele>
        <time>2026-06-10T07:29:17.921+00:00</time>
      </trkpt>
      <trkpt lat="43.62864" lon="7.02322">
        <ele>214</ele>
        <time>2026-06-10T07:29:22.380+00:00</time>
      </trkpt>
      <trkpt lat="43.62862" lon="7.02328">
        <ele>214</ele>
        <time>2026-06-10T07:29:26.869+00:00</time>
      </trkpt>
      <trkpt lat="43.62862" lon="7.02334">
        <ele>214</ele>
        <time>2026-06-10T07:29:31.051+00:00</time>
      </trkpt>
      <trkpt lat="43.6286" lon="7.0234">
        <ele>214</ele>
        <time>2026-06-10T07:29:35.379+00:00</time>
      </trkpt>
      <trkpt lat="43.62859" lon="7.02347">
        <ele>214</ele>
        <time>2026-06-10T07:29:39.907+00:00</time>
      </trkpt>
      <trkpt lat="43.62858" lon="7.02353">
        <ele>213</ele>
        <time>2026-06-10T07:29:43.950+00:00</time>
      </trkpt>
      <trkpt lat="43.62858" lon="7.0236">
        <ele>213</ele>
        <time>2026-06-10T07:29:48.289+00:00</time>
      </trkpt>
      <trkpt lat="43.62857" lon="7.02366">
        <ele>213</ele>
        <time>2026-06-10T07:29:52.308+00:00</time>
      </trkpt>
      <trkpt lat="43.62855" lon="7.02373">
        <ele>213</ele>
        <time>2026-06-10T07:29:57.107+00:00</time>
      </trkpt>
      <trkpt lat="43.62856" lon="7.0238">
        <ele>210</ele>
        <time>2026-06-10T07:30:01.380+00:00</time>
      </trkpt>
      <trkpt lat="43.62857" lon="7.02388">
        <ele>210</ele>
        <time>2026-06-10T07:30:06.380+00:00</time>
      </trkpt>
      <trkpt lat="43.62858" lon="7.02396">
        <ele>210</ele>
        <time>2026-06-10T07:30:10.844+00:00</time>
      </trkpt>
      <trkpt lat="43.62858" lon="7.02403">
        <ele>208</ele>
        <time>2026-06-10T07:30:15.379+00:00</time>
      </trkpt>
      <trkpt lat="43.62858" lon="7.0241">
        <ele>208</ele>
        <time>2026-06-10T07:30:19.386+00:00</time>
      </trkpt>
      <trkpt lat="43.62859" lon="7.02418">
        <ele>208</ele>
        <time>2026-06-10T07:30:24.151+00:00</time>
      </trkpt>
      <trkpt lat="43.62861" lon="7.02424">
        <ele>208</ele>
        <time>2026-06-10T07:30:28.380+00:00</time>
      </trkpt>
      <trkpt lat="43.62861" lon="7.0243">
        <ele>208</ele>
        <time>2026-06-10T07:30:32.449+00:00</time>
      </trkpt>
      <trkpt lat="43.62862" lon="7.02438">
        <ele>204</ele>
        <time>2026-06-10T07:30:37.228+00:00</time>
      </trkpt>
      <trkpt lat="43.62865" lon="7.02444">
        <ele>204</ele>
        <time>2026-06-10T07:30:41.380+00:00</time>
      </trkpt>
      <trkpt lat="43.62865" lon="7.02452">
        <ele>204</ele>
        <time>2026-06-10T07:30:46.380+00:00</time>
      </trkpt>
      <trkpt lat="43.62867" lon="7.02458">
        <ele>204</ele>
        <time>2026-06-10T07:30:50.903+00:00</time>
      </trkpt>
      <trkpt lat="43.6287" lon="7.02464">
        <ele>197</ele>
        <time>2026-06-10T07:30:55.004+00:00</time>
      </trkpt>
      <trkpt lat="43.62873" lon="7.02469">
        <ele>197</ele>
        <time>2026-06-10T07:30:59.245+00:00</time>
      </trkpt>
      <trkpt lat="43.62875" lon="7.02475">
        <ele>197</ele>
        <time>2026-06-10T07:31:03.308+00:00</time>
      </trkpt>
      <trkpt lat="43.62878" lon="7.02481">
        <ele>206</ele>
        <time>2026-06-10T07:31:07.380+00:00</time>
      </trkpt>
      <trkpt lat="43.62882" lon="7.02488">
        <ele>196</ele>
        <time>2026-06-10T07:31:12.380+00:00</time>
      </trkpt>
      <trkpt lat="43.62885" lon="7.02492">
        <ele>196</ele>
        <time>2026-06-10T07:31:16.379+00:00</time>
      </trkpt>
      <trkpt lat="43.62887" lon="7.02498">
        <ele>196</ele>
        <time>2026-06-10T07:31:20.787+00:00</time>
      </trkpt>
      <trkpt lat="43.62891" lon="7.02503">
        <ele>196</ele>
        <time>2026-06-10T07:31:24.866+00:00</time>
      </trkpt>
      <trkpt lat="43.62895" lon="7.02507">
        <ele>196</ele>
        <time>2026-06-10T07:31:29.380+00:00</time>
      </trkpt>
      <trkpt lat="43.62899" lon="7.02512">
        <ele>196</ele>
        <time>2026-06-10T07:31:34.330+00:00</time>
      </trkpt>
      <trkpt lat="43.62902" lon="7.02516">
        <ele>189</ele>
        <time>2026-06-10T07:31:38.380+00:00</time>
      </trkpt>
      <trkpt lat="43.62907" lon="7.02521">
        <ele>197</ele>
        <time>2026-06-10T07:31:43.380+00:00</time>
      </trkpt>
      <trkpt lat="43.62911" lon="7.02525">
        <ele>197</ele>
        <time>2026-06-10T07:31:47.774+00:00</time>
      </trkpt>
      <trkpt lat="43.62916" lon="7.02528">
        <ele>197</ele>
        <time>2026-06-10T07:31:52.404+00:00</time>
      </trkpt>
      <trkpt lat="43.62921" lon="7.02532">
        <ele>197</ele>
        <time>2026-06-10T07:31:56.484+00:00</time>
      </trkpt>
      <trkpt lat="43.62924" lon="7.02538">
        <ele>197</ele>
        <time>2026-06-10T07:32:01.196+00:00</time>
      </trkpt>
      <trkpt lat="43.62928" lon="7.02544">
        <ele>192</ele>
        <time>2026-06-10T07:32:05.380+00:00</time>
      </trkpt>
      <trkpt lat="43.62932" lon="7.02547">
        <ele>194</ele>
        <time>2026-06-10T07:32:09.379+00:00</time>
      </trkpt>
      <trkpt lat="43.62936" lon="7.02552">
        <ele>194</ele>
        <time>2026-06-10T07:32:13.922+00:00</time>
      </trkpt>
      <trkpt lat="43.6294" lon="7.02556">
        <ele>194</ele>
        <time>2026-06-10T07:32:18.380+00:00</time>
      </trkpt>
      <trkpt lat="43.62943" lon="7.0256">
        <ele>194</ele>
        <time>2026-06-10T07:32:22.380+00:00</time>
      </trkpt>
      <trkpt lat="43.62947" lon="7.02565">
        <ele>194</ele>
        <time>2026-06-10T07:32:26.951+00:00</time>
      </trkpt>
      <trkpt lat="43.62949" lon="7.0257">
        <ele>189</ele>
        <time>2026-06-10T07:32:31.041+00:00</time>
      </trkpt>
      <trkpt lat="43.62953" lon="7.02574">
        <ele>189</ele>
        <time>2026-06-10T07:32:35.380+00:00</time>
      </trkpt>
      <trkpt lat="43.62957" lon="7.02578">
        <ele>189</ele>
        <time>2026-06-10T07:32:39.380+00:00</time>
      </trkpt>
      <trkpt lat="43.62962" lon="7.02579">
        <ele>189</ele>
        <time>2026-06-10T07:32:44.091+00:00</time>
      </trkpt>
      <trkpt lat="43.62967" lon="7.02582">
        <ele>189</ele>
        <time>2026-06-10T07:32:48.379+00:00</time>
      </trkpt>
      <trkpt lat="43.62971" lon="7.02585">
        <ele>189</ele>
        <time>2026-06-10T07:32:52.743+00:00</time>
      </trkpt>
      <trkpt lat="43.62976" lon="7.02588">
        <ele>189</ele>
        <time>2026-06-10T07:32:57.380+00:00</time>
      </trkpt>
      <trkpt lat="43.62982" lon="7.02591">
        <ele>189</ele>
        <time>2026-06-10T07:33:02.380+00:00</time>
      </trkpt>
      <trkpt lat="43.62987" lon="7.02594">
        <ele>191</ele>
        <time>2026-06-10T07:33:07.380+00:00</time>
      </trkpt>
      <trkpt lat="43.62991" lon="7.02596">
        <ele>191</ele>
        <time>2026-06-10T07:33:11.909+00:00</time>
      </trkpt>
      <trkpt lat="43.62995" lon="7.02596">
        <ele>191</ele>
        <time>2026-06-10T07:33:15.968+00:00</time>
      </trkpt>
      <trkpt lat="43.63" lon="7.02598">
        <ele>186</ele>
        <time>2026-06-10T07:33:20.289+00:00</time>
      </trkpt>
      <trkpt lat="43.63004" lon="7.02599">
        <ele>186</ele>
        <time>2026-06-10T07:33:24.379+00:00</time>
      </trkpt>
      <trkpt lat="43.63009" lon="7.026">
        <ele>186</ele>
        <time>2026-06-10T07:33:29.187+00:00</time>
      </trkpt>
      <trkpt lat="43.63015" lon="7.02599">
        <ele>181</ele>
        <time>2026-06-10T07:33:33.845+00:00</time>
      </trkpt>
      <trkpt lat="43.6302" lon="7.026">
        <ele>181</ele>
        <time>2026-06-10T07:33:38.145+00:00</time>
      </trkpt>
      <trkpt lat="43.63025" lon="7.02599">
        <ele>181</ele>
        <time>2026-06-10T07:33:42.245+00:00</time>
      </trkpt>
      <trkpt lat="43.6303" lon="7.02597">
        <ele>187</ele>
        <time>2026-06-10T07:33:46.378+00:00</time>
      </trkpt>
      <trkpt lat="43.63035" lon="7.02594">
        <ele>187</ele>
        <time>2026-06-10T07:33:51.379+00:00</time>
      </trkpt>
      <trkpt lat="43.63042" lon="7.02598">
        <ele>181</ele>
        <time>2026-06-10T07:34:16.379+00:00</time>
      </trkpt>
      <trkpt lat="43.63043" lon="7.02598">
        <ele>174</ele>
        <time>2026-06-10T07:34:21.246+00:00</time>
      </trkpt>
      <trkpt lat="43.63044" lon="7.02598">
        <ele>174</ele>
        <time>2026-06-10T07:34:25.379+00:00</time>
      </trkpt>
      <trkpt lat="43.63053" lon="7.02592">
        <ele>179</ele>
        <time>2026-06-10T07:34:29.904+00:00</time>
      </trkpt>
      <trkpt lat="43.63059" lon="7.02586">
        <ele>179</ele>
        <time>2026-06-10T07:34:34.350+00:00</time>
      </trkpt>
      <trkpt lat="43.6306" lon="7.02585">
        <ele>179</ele>
        <time>2026-06-10T07:34:38.379+00:00</time>
      </trkpt>
      <trkpt lat="43.63064" lon="7.02581">
        <ele>179</ele>
        <time>2026-06-10T07:34:43.379+00:00</time>
      </trkpt>
      <trkpt lat="43.63068" lon="7.02575">
        <ele>179</ele>
        <time>2026-06-10T07:34:48.226+00:00</time>
      </trkpt>
      <trkpt lat="43.63072" lon="7.02569">
        <ele>178</ele>
        <time>2026-06-10T07:34:52.267+00:00</time>
      </trkpt>
      <trkpt lat="43.63076" lon="7.02563">
        <ele>178</ele>
        <time>2026-06-10T07:34:56.904+00:00</time>
      </trkpt>
      <trkpt lat="43.63079" lon="7.02556">
        <ele>178</ele>
        <time>2026-06-10T07:35:01.379+00:00</time>
      </trkpt>
      <trkpt lat="43.63082" lon="7.02551">
        <ele>178</ele>
        <time>2026-06-10T07:35:05.601+00:00</time>
      </trkpt>
      <trkpt lat="43.63087" lon="7.02546">
        <ele>178</ele>
        <time>2026-06-10T07:35:10.220+00:00</time>
      </trkpt>
      <trkpt lat="43.63092" lon="7.02541">
        <ele>182</ele>
        <time>2026-06-10T07:35:15.009+00:00</time>
      </trkpt>
      <trkpt lat="43.63097" lon="7.02541">
        <ele>182</ele>
        <time>2026-06-10T07:35:19.190+00:00</time>
      </trkpt>
      <trkpt lat="43.63103" lon="7.02541">
        <ele>175</ele>
        <time>2026-06-10T07:35:23.379+00:00</time>
      </trkpt>
      <trkpt lat="43.63109" lon="7.02542">
        <ele>172</ele>
        <time>2026-06-10T07:35:28.379+00:00</time>
      </trkpt>
      <trkpt lat="43.63116" lon="7.02544">
        <ele>172</ele>
        <time>2026-06-10T07:35:33.379+00:00</time>
      </trkpt>
      <trkpt lat="43.63121" lon="7.02545">
        <ele>172</ele>
        <time>2026-06-10T07:35:37.388+00:00</time>
      </trkpt>
      <trkpt lat="43.63127" lon="7.02546">
        <ele>174</ele>
        <time>2026-06-10T07:35:42.379+00:00</time>
      </trkpt>
      <trkpt lat="43.63131" lon="7.02547">
        <ele>174</ele>
        <time>2026-06-10T07:35:46.987+00:00</time>
      </trkpt>
      <trkpt lat="43.63135" lon="7.02547">
        <ele>174</ele>
        <time>2026-06-10T07:35:51.379+00:00</time>
      </trkpt>
      <trkpt lat="43.63139" lon="7.02543">
        <ele>174</ele>
        <time>2026-06-10T07:35:56.379+00:00</time>
      </trkpt>
      <trkpt lat="43.63143" lon="7.02547">
        <ele>174</ele>
        <time>2026-06-10T07:36:00.378+00:00</time>
      </trkpt>
      <trkpt lat="43.63143" lon="7.02553">
        <ele>174</ele>
        <time>2026-06-10T07:36:05.379+00:00</time>
      </trkpt>
      <trkpt lat="43.63142" lon="7.02552">
        <ele>174</ele>
        <time>2026-06-10T07:36:36.379+00:00</time>
      </trkpt>
      <trkpt lat="43.63142" lon="7.02552">
        <ele>174</ele>
        <time>2026-06-10T07:36:44.379+00:00</time>
      </trkpt>
      <trkpt lat="43.63145" lon="7.02549">
        <ele>174</ele>
        <time>2026-06-10T07:36:48.379+00:00</time>
      </trkpt>
      <trkpt lat="43.63149" lon="7.0255">
        <ele>174</ele>
        <time>2026-06-10T07:36:53.008+00:00</time>
      </trkpt>
      <trkpt lat="43.63152" lon="7.02555">
        <ele>174</ele>
        <time>2026-06-10T07:36:57.379+00:00</time>
      </trkpt>
      <trkpt lat="43.6316" lon="7.02567">
        <ele>178</ele>
        <time>2026-06-10T07:37:19.378+00:00</time>
      </trkpt>
      <trkpt lat="43.63161" lon="7.02568">
        <ele>178</ele>
        <time>2026-06-10T07:37:24.379+00:00</time>
      </trkpt>
      <trkpt lat="43.63161" lon="7.02568">
        <ele>178</ele>
        <time>2026-06-10T07:37:32.379+00:00</time>
      </trkpt>
      <trkpt lat="43.63161" lon="7.02568">
        <ele>178</ele>
        <time>2026-06-10T07:37:39.378+00:00</time>
      </trkpt>
      <trkpt lat="43.63163" lon="7.02566">
        <ele>178</ele>
        <time>2026-06-10T07:37:44.378+00:00</time>
      </trkpt>
      <trkpt lat="43.63165" lon="7.02568">
        <ele>178</ele>
        <time>2026-06-10T07:37:49.378+00:00</time>
      </trkpt>
      <trkpt lat="43.63164" lon="7.02573">
        <ele>177</ele>
        <time>2026-06-10T07:37:54.378+00:00</time>
      </trkpt>
      <trkpt lat="43.63162" lon="7.02585">
        <ele>177</ele>
        <time>2026-06-10T07:37:59.378+00:00</time>
      </trkpt>
      <trkpt lat="43.63164" lon="7.02595">
        <ele>177</ele>
        <time>2026-06-10T07:38:04.378+00:00</time>
      </trkpt>
      <trkpt lat="43.63163" lon="7.02604">
        <ele>177</ele>
        <time>2026-06-10T07:38:09.377+00:00</time>
      </trkpt>
      <trkpt lat="43.6316" lon="7.02611">
        <ele>177</ele>
        <time>2026-06-10T07:38:14.378+00:00</time>
      </trkpt>
      <trkpt lat="43.63157" lon="7.02611">
        <ele>177</ele>
        <time>2026-06-10T07:38:19.265+00:00</time>
      </trkpt>
      <trkpt lat="43.63155" lon="7.02616">
        <ele>177</ele>
        <time>2026-06-10T07:38:23.378+00:00</time>
      </trkpt>
      <trkpt lat="43.63153" lon="7.02624">
        <ele>174</ele>
        <time>2026-06-10T07:38:28.001+00:00</time>
      </trkpt>
      <trkpt lat="43.63149" lon="7.02631">
        <ele>177</ele>
        <time>2026-06-10T07:38:32.262+00:00</time>
      </trkpt>
      <trkpt lat="43.63147" lon="7.02637">
        <ele>177</ele>
        <time>2026-06-10T07:38:36.378+00:00</time>
      </trkpt>
      <trkpt lat="43.63144" lon="7.02642">
        <ele>177</ele>
        <time>2026-06-10T07:38:40.377+00:00</time>
      </trkpt>
      <trkpt lat="43.6314" lon="7.02648">
        <ele>177</ele>
        <time>2026-06-10T07:38:45.378+00:00</time>
      </trkpt>
      <trkpt lat="43.63139" lon="7.02655">
        <ele>181</ele>
        <time>2026-06-10T07:38:49.378+00:00</time>
      </trkpt>
      <trkpt lat="43.63137" lon="7.02663">
        <ele>181</ele>
        <time>2026-06-10T07:38:54.377+00:00</time>
      </trkpt>
      <trkpt lat="43.63135" lon="7.02671">
        <ele>181</ele>
        <time>2026-06-10T07:38:58.908+00:00</time>
      </trkpt>
      <trkpt lat="43.63134" lon="7.02677">
        <ele>181</ele>
        <time>2026-06-10T07:39:03.378+00:00</time>
      </trkpt>
      <trkpt lat="43.63134" lon="7.02682">
        <ele>185</ele>
        <time>2026-06-10T07:39:07.377+00:00</time>
      </trkpt>
      <trkpt lat="43.6314" lon="7.02683">
        <ele>185</ele>
        <time>2026-06-10T07:39:12.378+00:00</time>
      </trkpt>
      <trkpt lat="43.63147" lon="7.02681">
        <ele>185</ele>
        <time>2026-06-10T07:39:17.321+00:00</time>
      </trkpt>
      <trkpt lat="43.63151" lon="7.02681">
        <ele>185</ele>
        <time>2026-06-10T07:39:21.378+00:00</time>
      </trkpt>
      <trkpt lat="43.63155" lon="7.0268">
        <ele>188</ele>
        <time>2026-06-10T07:39:26.378+00:00</time>
      </trkpt>
      <trkpt lat="43.63155" lon="7.02679">
        <ele>188</ele>
        <time>2026-06-10T07:39:31.378+00:00</time>
      </trkpt>
      <trkpt lat="43.63158" lon="7.02676">
        <ele>188</ele>
        <time>2026-06-10T07:39:36.377+00:00</time>
      </trkpt>
      <trkpt lat="43.63163" lon="7.02674">
        <ele>188</ele>
        <time>2026-06-10T07:39:40.378+00:00</time>
      </trkpt>
      <trkpt lat="43.63167" lon="7.02674">
        <ele>188</ele>
        <time>2026-06-10T07:39:45.378+00:00</time>
      </trkpt>
      <trkpt lat="43.63171" lon="7.02673">
        <ele>188</ele>
        <time>2026-06-10T07:39:50.378+00:00</time>
      </trkpt>
      <trkpt lat="43.63173" lon="7.02672">
        <ele>188</ele>
        <time>2026-06-10T07:39:54.378+00:00</time>
      </trkpt>
      <trkpt lat="43.63175" lon="7.0267">
        <ele>188</ele>
        <time>2026-06-10T07:40:00+00:00</time>
      </trkpt>
      <trkpt lat="43.63179" lon="7.0267">
        <ele>188</ele>
        <time>2026-06-10T07:40:04.378+00:00</time>
      </trkpt>
      <trkpt lat="43.63182" lon="7.02669">
        <ele>195</ele>
        <time>2026-06-10T07:40:08.378+00:00</time>
      </trkpt>
      <trkpt lat="43.63184" lon="7.02667">
        <ele>195</ele>
        <time>2026-06-10T07:40:12.378+00:00</time>
      </trkpt>
      <trkpt lat="43.63189" lon="7.02666">
        <ele>195</ele>
        <time>2026-06-10T07:40:17.349+00:00</time>
      </trkpt>
      <trkpt lat="43.63191" lon="7.02667">
        <ele>195</ele>
        <time>2026-06-10T07:40:22.148+00:00</time>
      </trkpt>
      <trkpt lat="43.63194" lon="7.02666">
        <ele>195</ele>
        <time>2026-06-10T07:40:26.378+00:00</time>
      </trkpt>
      <trkpt lat="43.63196" lon="7.02667">
        <ele>195</ele>
        <time>2026-06-10T07:40:30.378+00:00</time>
      </trkpt>
      <trkpt lat="43.63197" lon="7.02669">
        <ele>195</ele>
        <time>2026-06-10T07:40:35.377+00:00</time>
      </trkpt>
      <trkpt lat="43.63199" lon="7.0267">
        <ele>195</ele>
        <time>2026-06-10T07:40:39.378+00:00</time>
      </trkpt>
      <trkpt lat="43.63203" lon="7.0267">
        <ele>195</ele>
        <time>2026-06-10T07:40:44.378+00:00</time>
      </trkpt>
      <trkpt lat="43.63206" lon="7.02669">
        <ele>195</ele>
        <time>2026-06-10T07:40:48.828+00:00</time>
      </trkpt>
      <trkpt lat="43.63209" lon="7.02667">
        <ele>202</ele>
        <time>2026-06-10T07:40:53.378+00:00</time>
      </trkpt>
      <trkpt lat="43.63215" lon="7.02664">
        <ele>202</ele>
        <time>2026-06-10T07:40:57.378+00:00</time>
      </trkpt>
      <trkpt lat="43.63218" lon="7.02665">
        <ele>202</ele>
        <time>2026-06-10T07:41:02.373+00:00</time>
      </trkpt>
      <trkpt lat="43.63217" lon="7.02667">
        <ele>202</ele>
        <time>2026-06-10T07:41:07.107+00:00</time>
      </trkpt>
      <trkpt lat="43.6322" lon="7.02666">
        <ele>202</ele>
        <time>2026-06-10T07:41:11.148+00:00</time>
      </trkpt>
      <trkpt lat="43.63225" lon="7.02666">
        <ele>202</ele>
        <time>2026-06-10T07:41:15.786+00:00</time>
      </trkpt>
      <trkpt lat="43.63228" lon="7.02667">
        <ele>202</ele>
        <time>2026-06-10T07:41:19.968+00:00</time>
      </trkpt>
      <trkpt lat="43.63232" lon="7.0267">
        <ele>202</ele>
        <time>2026-06-10T07:41:24.378+00:00</time>
      </trkpt>
      <trkpt lat="43.63236" lon="7.0267">
        <ele>202</ele>
        <time>2026-06-10T07:41:29.383+00:00</time>
      </trkpt>
      <trkpt lat="43.63239" lon="7.02671">
        <ele>204</ele>
        <time>2026-06-10T07:41:34.200+00:00</time>
      </trkpt>
      <trkpt lat="43.63243" lon="7.02673">
        <ele>204</ele>
        <time>2026-06-10T07:41:38.324+00:00</time>
      </trkpt>
      <trkpt lat="43.63248" lon="7.02674">
        <ele>204</ele>
        <time>2026-06-10T07:41:42.991+00:00</time>
      </trkpt>
      <trkpt lat="43.63252" lon="7.02677">
        <ele>204</ele>
        <time>2026-06-10T07:41:47.080+00:00</time>
      </trkpt>
      <trkpt lat="43.63255" lon="7.0268">
        <ele>204</ele>
        <time>2026-06-10T07:41:51.888+00:00</time>
      </trkpt>
      <trkpt lat="43.63259" lon="7.02681">
        <ele>211</ele>
        <time>2026-06-10T07:41:56.377+00:00</time>
      </trkpt>
      <trkpt lat="43.63262" lon="7.02683">
        <ele>211</ele>
        <time>2026-06-10T07:42:00.528+00:00</time>
      </trkpt>
      <trkpt lat="43.63267" lon="7.02686">
        <ele>211</ele>
        <time>2026-06-10T07:42:05.265+00:00</time>
      </trkpt>
      <trkpt lat="43.6327" lon="7.02688">
        <ele>211</ele>
        <time>2026-06-10T07:42:09.388+00:00</time>
      </trkpt>
      <trkpt lat="43.63273" lon="7.02691">
        <ele>211</ele>
        <time>2026-06-10T07:42:14.145+00:00</time>
      </trkpt>
      <trkpt lat="43.63275" lon="7.02693">
        <ele>211</ele>
        <time>2026-06-10T07:42:18.377+00:00</time>
      </trkpt>
      <trkpt lat="43.63279" lon="7.02696">
        <ele>211</ele>
        <time>2026-06-10T07:42:23.162+00:00</time>
      </trkpt>
      <trkpt lat="43.63282" lon="7.02697">
        <ele>211</ele>
        <time>2026-06-10T07:42:27.377+00:00</time>
      </trkpt>
      <trkpt lat="43.63286" lon="7.02696">
        <ele>211</ele>
        <time>2026-06-10T07:42:32.390+00:00</time>
      </trkpt>
      <trkpt lat="43.63291" lon="7.02696">
        <ele>211</ele>
        <time>2026-06-10T07:42:37.046+00:00</time>
      </trkpt>
      <trkpt lat="43.63294" lon="7.02694">
        <ele>209</ele>
        <time>2026-06-10T07:42:41.377+00:00</time>
      </trkpt>
      <trkpt lat="43.63298" lon="7.02694">
        <ele>209</ele>
        <time>2026-06-10T07:42:46.377+00:00</time>
      </trkpt>
      <trkpt lat="43.63304" lon="7.02695">
        <ele>209</ele>
        <time>2026-06-10T07:42:51.377+00:00</time>
      </trkpt>
      <trkpt lat="43.63309" lon="7.02695">
        <ele>209</ele>
        <time>2026-06-10T07:42:55.852+00:00</time>
      </trkpt>
      <trkpt lat="43.63314" lon="7.02694">
        <ele>209</ele>
        <time>2026-06-10T07:42:59.928+00:00</time>
      </trkpt>
      <trkpt lat="43.63317" lon="7.02693">
        <ele>209</ele>
        <time>2026-06-10T07:43:04.377+00:00</time>
      </trkpt>
      <trkpt lat="43.63322" lon="7.02694">
        <ele>211</ele>
        <time>2026-06-10T07:43:09.377+00:00</time>
      </trkpt>
      <trkpt lat="43.63326" lon="7.02694">
        <ele>211</ele>
        <time>2026-06-10T07:43:14.377+00:00</time>
      </trkpt>
      <trkpt lat="43.63331" lon="7.02692">
        <ele>211</ele>
        <time>2026-06-10T07:43:19.042+00:00</time>
      </trkpt>
      <trkpt lat="43.63336" lon="7.02689">
        <ele>211</ele>
        <time>2026-06-10T07:43:23.161+00:00</time>
      </trkpt>
      <trkpt lat="43.6334" lon="7.02687">
        <ele>211</ele>
        <time>2026-06-10T07:43:27.202+00:00</time>
      </trkpt>
      <trkpt lat="43.63344" lon="7.02686">
        <ele>211</ele>
        <time>2026-06-10T07:43:31.387+00:00</time>
      </trkpt>
      <trkpt lat="43.63348" lon="7.02687">
        <ele>214</ele>
        <time>2026-06-10T07:43:36.376+00:00</time>
      </trkpt>
      <trkpt lat="43.63352" lon="7.02687">
        <ele>214</ele>
        <time>2026-06-10T07:43:40.849+00:00</time>
      </trkpt>
      <trkpt lat="43.63357" lon="7.02686">
        <ele>214</ele>
        <time>2026-06-10T07:43:45.376+00:00</time>
      </trkpt>
      <trkpt lat="43.63361" lon="7.02686">
        <ele>214</ele>
        <time>2026-06-10T07:44:25.377+00:00</time>
      </trkpt>
      <trkpt lat="43.63363" lon="7.02687">
        <ele>214</ele>
        <time>2026-06-10T07:44:29.376+00:00</time>
      </trkpt>
      <trkpt lat="43.63366" lon="7.02687">
        <ele>214</ele>
        <time>2026-06-10T07:44:33.929+00:00</time>
      </trkpt>
      <trkpt lat="43.63372" lon="7.02685">
        <ele>214</ele>
        <time>2026-06-10T07:44:38.035+00:00</time>
      </trkpt>
      <trkpt lat="43.63376" lon="7.02683">
        <ele>218</ele>
        <time>2026-06-10T07:44:42.689+00:00</time>
      </trkpt>
      <trkpt lat="43.6338" lon="7.02681">
        <ele>218</ele>
        <time>2026-06-10T07:44:46.949+00:00</time>
      </trkpt>
      <trkpt lat="43.63383" lon="7.02676">
        <ele>217</ele>
        <time>2026-06-10T07:44:51.152+00:00</time>
      </trkpt>
      <trkpt lat="43.63387" lon="7.02675">
        <ele>217</ele>
        <time>2026-06-10T07:44:55.377+00:00</time>
      </trkpt>
      <trkpt lat="43.63392" lon="7.02674">
        <ele>217</ele>
        <time>2026-06-10T07:44:59.808+00:00</time>
      </trkpt>
      <trkpt lat="43.63396" lon="7.02675">
        <ele>217</ele>
        <time>2026-06-10T07:45:03.989+00:00</time>
      </trkpt>
      <trkpt lat="43.634" lon="7.02675">
        <ele>217</ele>
        <time>2026-06-10T07:45:08.049+00:00</time>
      </trkpt>
      <trkpt lat="43.63404" lon="7.02672">
        <ele>219</ele>
        <time>2026-06-10T07:45:12.372+00:00</time>
      </trkpt>
      <trkpt lat="43.63409" lon="7.0267">
        <ele>219</ele>
        <time>2026-06-10T07:45:17.148+00:00</time>
      </trkpt>
      <trkpt lat="43.63414" lon="7.02669">
        <ele>219</ele>
        <time>2026-06-10T07:45:21.377+00:00</time>
      </trkpt>
      <trkpt lat="43.63418" lon="7.02672">
        <ele>219</ele>
        <time>2026-06-10T07:45:25.847+00:00</time>
      </trkpt>
      <trkpt lat="43.63424" lon="7.02671">
        <ele>219</ele>
        <time>2026-06-10T07:45:30.376+00:00</time>
      </trkpt>
      <trkpt lat="43.63428" lon="7.0267">
        <ele>219</ele>
        <time>2026-06-10T07:45:34.377+00:00</time>
      </trkpt>
      <trkpt lat="43.63432" lon="7.02666">
        <ele>218</ele>
        <time>2026-06-10T07:45:52.376+00:00</time>
      </trkpt>
      <trkpt lat="43.63432" lon="7.02663">
        <ele>218</ele>
        <time>2026-06-10T07:45:57.376+00:00</time>
      </trkpt>
      <trkpt lat="43.63432" lon="7.02663">
        <ele>218</ele>
        <time>2026-06-10T07:46:01.375+00:00</time>
      </trkpt>
      <trkpt lat="43.63432" lon="7.02661">
        <ele>218</ele>
        <time>2026-06-10T07:46:06.186+00:00</time>
      </trkpt>
      <trkpt lat="43.63433" lon="7.02656">
        <ele>218</ele>
        <time>2026-06-10T07:46:10.376+00:00</time>
      </trkpt>
      <trkpt lat="43.63437" lon="7.02645">
        <ele>218</ele>
        <time>2026-06-10T07:46:15.376+00:00</time>
      </trkpt>
      <trkpt lat="43.63437" lon="7.02636">
        <ele>218</ele>
        <time>2026-06-10T07:46:20.162+00:00</time>
      </trkpt>
      <trkpt lat="43.63437" lon="7.0263">
        <ele>218</ele>
        <time>2026-06-10T07:46:24.375+00:00</time>
      </trkpt>
      <trkpt lat="43.63437" lon="7.02624">
        <ele>218</ele>
        <time>2026-06-10T07:46:29.082+00:00</time>
      </trkpt>
      <trkpt lat="43.63436" lon="7.02618">
        <ele>218</ele>
        <time>2026-06-10T07:46:33.376+00:00</time>
      </trkpt>
      <trkpt lat="43.63435" lon="7.0261">
        <ele>218</ele>
        <time>2026-06-10T07:46:38.376+00:00</time>
      </trkpt>
      <trkpt lat="43.63434" lon="7.02601">
        <ele>218</ele>
        <time>2026-06-10T07:46:43.405+00:00</time>
      </trkpt>
      <trkpt lat="43.63433" lon="7.02593">
        <ele>217</ele>
        <time>2026-06-10T07:46:48.202+00:00</time>
      </trkpt>
      <trkpt lat="43.63432" lon="7.02585">
        <ele>217</ele>
        <time>2026-06-10T07:46:53.187+00:00</time>
      </trkpt>
      <trkpt lat="43.6343" lon="7.02578">
        <ele>217</ele>
        <time>2026-06-10T07:46:57.376+00:00</time>
      </trkpt>
      <trkpt lat="43.6343" lon="7.02571">
        <ele>217</ele>
        <time>2026-06-10T07:47:02.376+00:00</time>
      </trkpt>
      <trkpt lat="43.63428" lon="7.02564">
        <ele>217</ele>
        <time>2026-06-10T07:47:06.984+00:00</time>
      </trkpt>
      <trkpt lat="43.63424" lon="7.0256">
        <ele>217</ele>
        <time>2026-06-10T07:47:11.376+00:00</time>
      </trkpt>
      <trkpt lat="43.63421" lon="7.02554">
        <ele>217</ele>
        <time>2026-06-10T07:47:15.592+00:00</time>
      </trkpt>
      <trkpt lat="43.63418" lon="7.02548">
        <ele>217</ele>
        <time>2026-06-10T07:47:20.376+00:00</time>
      </trkpt>
      <trkpt lat="43.63414" lon="7.02542">
        <ele>217</ele>
        <time>2026-06-10T07:47:25.376+00:00</time>
      </trkpt>
      <trkpt lat="43.63413" lon="7.02532">
        <ele>217</ele>
        <time>2026-06-10T07:47:30.376+00:00</time>
      </trkpt>
      <trkpt lat="43.63413" lon="7.02525">
        <ele>217</ele>
        <time>2026-06-10T07:47:34.781+00:00</time>
      </trkpt>
      <trkpt lat="43.63414" lon="7.02517">
        <ele>217</ele>
        <time>2026-06-10T07:47:39.009+00:00</time>
      </trkpt>
      <trkpt lat="43.63413" lon="7.02514">
        <ele>217</ele>
        <time>2026-06-10T07:47:43.376+00:00</time>
      </trkpt>
      <trkpt lat="43.63414" lon="7.02515">
        <ele>217</ele>
        <time>2026-06-10T07:47:47.376+00:00</time>
      </trkpt>
      <trkpt lat="43.63416" lon="7.02513">
        <ele>217</ele>
        <time>2026-06-10T07:47:52.262+00:00</time>
      </trkpt>
      <trkpt lat="43.63417" lon="7.02508">
        <ele>217</ele>
        <time>2026-06-10T07:47:56.521+00:00</time>
      </trkpt>
      <trkpt lat="43.6342" lon="7.02502">
        <ele>217</ele>
        <time>2026-06-10T07:48:01.376+00:00</time>
      </trkpt>
      <trkpt lat="43.63423" lon="7.02496">
        <ele>217</ele>
        <time>2026-06-10T07:48:06.376+00:00</time>
      </trkpt>
      <trkpt lat="43.63427" lon="7.02492">
        <ele>217</ele>
        <time>2026-06-10T07:48:10.848+00:00</time>
      </trkpt>
      <trkpt lat="43.63429" lon="7.02486">
        <ele>217</ele>
        <time>2026-06-10T07:48:15.376+00:00</time>
      </trkpt>
      <trkpt lat="43.63431" lon="7.02481">
        <ele>218</ele>
        <time>2026-06-10T07:48:20.375+00:00</time>
      </trkpt>
      <trkpt lat="43.63434" lon="7.02476">
        <ele>218</ele>
        <time>2026-06-10T07:48:25.001+00:00</time>
      </trkpt>
      <trkpt lat="43.63435" lon="7.0247">
        <ele>218</ele>
        <time>2026-06-10T07:48:29.376+00:00</time>
      </trkpt>
      <trkpt lat="43.63435" lon="7.02463">
        <ele>218</ele>
        <time>2026-06-10T07:48:34.188+00:00</time>
      </trkpt>
      <trkpt lat="43.63434" lon="7.02457">
        <ele>219</ele>
        <time>2026-06-10T07:48:38.228+00:00</time>
      </trkpt>
      <trkpt lat="43.63435" lon="7.02442">
        <ele>219</ele>
        <time>2026-06-10T07:49:14.376+00:00</time>
      </trkpt>
      <trkpt lat="43.63436" lon="7.02441">
        <ele>219</ele>
        <time>2026-06-10T07:49:19.376+00:00</time>
      </trkpt>
      <trkpt lat="43.63437" lon="7.02441">
        <ele>219</ele>
        <time>2026-06-10T07:49:23.376+00:00</time>
      </trkpt>
      <trkpt lat="43.63442" lon="7.02439">
        <ele>219</ele>
        <time>2026-06-10T07:49:27.728+00:00</time>
      </trkpt>
      <trkpt lat="43.63447" lon="7.0244">
        <ele>219</ele>
        <time>2026-06-10T07:49:32.397+00:00</time>
      </trkpt>
      <trkpt lat="43.63448" lon="7.0244">
        <ele>219</ele>
        <time>2026-06-10T07:50:07.375+00:00</time>
      </trkpt>
      <trkpt lat="43.63446" lon="7.02436">
        <ele>219</ele>
        <time>2026-06-10T07:50:12.244+00:00</time>
      </trkpt>
      <trkpt lat="43.63442" lon="7.02434">
        <ele>219</ele>
        <time>2026-06-10T07:50:16.929+00:00</time>
      </trkpt>
      <trkpt lat="43.63437" lon="7.02437">
        <ele>219</ele>
        <time>2026-06-10T07:50:21.375+00:00</time>
      </trkpt>
      <trkpt lat="43.63432" lon="7.02439">
        <ele>219</ele>
        <time>2026-06-10T07:50:25.788+00:00</time>
      </trkpt>
      <trkpt lat="43.63437" lon="7.02442">
        <ele>219</ele>
        <time>2026-06-10T07:51:16.375+00:00</time>
      </trkpt>
      <trkpt lat="43.63438" lon="7.02442">
        <ele>219</ele>
        <time>2026-06-10T07:51:21.374+00:00</time>
      </trkpt>
      <trkpt lat="43.63441" lon="7.02442">
        <ele>219</ele>
        <time>2026-06-10T07:51:25.375+00:00</time>
      </trkpt>
      <trkpt lat="43.63445" lon="7.02443">
        <ele>219</ele>
        <time>2026-06-10T07:51:29.869+00:00</time>
      </trkpt>
      <trkpt lat="43.63448" lon="7.02446">
        <ele>219</ele>
        <time>2026-06-10T07:51:34.109+00:00</time>
      </trkpt>
      <trkpt lat="43.63446" lon="7.02451">
        <ele>219</ele>
        <time>2026-06-10T07:51:38.374+00:00</time>
      </trkpt>
      <trkpt lat="43.63451" lon="7.02452">
        <ele>219</ele>
        <time>2026-06-10T07:51:43.375+00:00</time>
      </trkpt>
      <trkpt lat="43.63454" lon="7.02445">
        <ele>219</ele>
        <time>2026-06-10T07:51:48.045+00:00</time>
      </trkpt>
      <trkpt lat="43.63457" lon="7.02439">
        <ele>219</ele>
        <time>2026-06-10T07:51:53.121+00:00</time>
      </trkpt>
      <trkpt lat="43.63462" lon="7.02435">
        <ele>218</ele>
        <time>2026-06-10T07:51:57.384+00:00</time>
      </trkpt>
      <trkpt lat="43.63467" lon="7.02433">
        <ele>218</ele>
        <time>2026-06-10T07:52:02.129+00:00</time>
      </trkpt>
      <trkpt lat="43.63473" lon="7.02432">
        <ele>218</ele>
        <time>2026-06-10T07:52:07.366+00:00</time>
      </trkpt>
      <trkpt lat="43.63479" lon="7.02433">
        <ele>218</ele>
        <time>2026-06-10T07:52:12.203+00:00</time>
      </trkpt>
      <trkpt lat="43.63486" lon="7.02431">
        <ele>218</ele>
        <time>2026-06-10T07:52:16.324+00:00</time>
      </trkpt>
      <trkpt lat="43.63489" lon="7.02429">
        <ele>220</ele>
        <time>2026-06-10T07:52:20.374+00:00</time>
      </trkpt>
      <trkpt lat="43.63492" lon="7.02424">
        <ele>220</ele>
        <time>2026-06-10T07:52:24.904+00:00</time>
      </trkpt>
      <trkpt lat="43.63495" lon="7.02419">
        <ele>220</ele>
        <time>2026-06-10T07:52:28.926+00:00</time>
      </trkpt>
      <trkpt lat="43.63499" lon="7.02413">
        <ele>220</ele>
        <time>2026-06-10T07:52:33.375+00:00</time>
      </trkpt>
      <trkpt lat="43.63502" lon="7.02407">
        <ele>220</ele>
        <time>2026-06-10T07:52:37.375+00:00</time>
      </trkpt>
      <trkpt lat="43.63505" lon="7.02399">
        <ele>224</ele>
        <time>2026-06-10T07:52:42.323+00:00</time>
      </trkpt>
      <trkpt lat="43.63507" lon="7.02393">
        <ele>224</ele>
        <time>2026-06-10T07:52:46.374+00:00</time>
      </trkpt>
      <trkpt lat="43.63511" lon="7.02389">
        <ele>224</ele>
        <time>2026-06-10T07:52:50.664+00:00</time>
      </trkpt>
      <trkpt lat="43.63516" lon="7.02388">
        <ele>219</ele>
        <time>2026-06-10T07:52:55.125+00:00</time>
      </trkpt>
      <trkpt lat="43.63519" lon="7.02386">
        <ele>219</ele>
        <time>2026-06-10T07:52:59.504+00:00</time>
      </trkpt>
      <trkpt lat="43.63523" lon="7.02388">
        <ele>219</ele>
        <time>2026-06-10T07:53:03.774+00:00</time>
      </trkpt>
      <trkpt lat="43.63527" lon="7.02392">
        <ele>219</ele>
        <time>2026-06-10T07:53:08.022+00:00</time>
      </trkpt>
      <trkpt lat="43.63531" lon="7.02394">
        <ele>219</ele>
        <time>2026-06-10T07:53:12.084+00:00</time>
      </trkpt>
      <trkpt lat="43.63536" lon="7.02393">
        <ele>219</ele>
        <time>2026-06-10T07:53:16.374+00:00</time>
      </trkpt>
      <trkpt lat="43.6354" lon="7.0239">
        <ele>219</ele>
        <time>2026-06-10T07:53:20.374+00:00</time>
      </trkpt>
      <trkpt lat="43.63544" lon="7.02389">
        <ele>217</ele>
        <time>2026-06-10T07:53:24.699+00:00</time>
      </trkpt>
      <trkpt lat="43.63548" lon="7.02384">
        <ele>217</ele>
        <time>2026-06-10T07:53:29.386+00:00</time>
      </trkpt>
      <trkpt lat="43.63551" lon="7.02379">
        <ele>217</ele>
        <time>2026-06-10T07:53:33.923+00:00</time>
      </trkpt>
      <trkpt lat="43.63555" lon="7.02385">
        <ele>217</ele>
        <time>2026-06-10T07:53:38.262+00:00</time>
      </trkpt>
      <trkpt lat="43.63554" lon="7.02393">
        <ele>217</ele>
        <time>2026-06-10T07:53:42.373+00:00</time>
      </trkpt>
      <trkpt lat="43.63551" lon="7.02398">
        <ele>217</ele>
        <time>2026-06-10T07:53:46.423+00:00</time>
      </trkpt>
      <trkpt lat="43.6355" lon="7.02405">
        <ele>214</ele>
        <time>2026-06-10T07:53:51.398+00:00</time>
      </trkpt>
      <trkpt lat="43.6355" lon="7.0241">
        <ele>214</ele>
        <time>2026-06-10T07:53:55.849+00:00</time>
      </trkpt>
      <trkpt lat="43.63551" lon="7.02416">
        <ele>214</ele>
        <time>2026-06-10T07:54:00.374+00:00</time>
      </trkpt>
      <trkpt lat="43.63551" lon="7.02421">
        <ele>214</ele>
        <time>2026-06-10T07:54:04.628+00:00</time>
      </trkpt>
      <trkpt lat="43.63549" lon="7.02427">
        <ele>214</ele>
        <time>2026-06-10T07:54:09.374+00:00</time>
      </trkpt>
      <trkpt lat="43.63546" lon="7.0243">
        <ele>214</ele>
        <time>2026-06-10T07:54:14.305+00:00</time>
      </trkpt>
      <trkpt lat="43.63544" lon="7.02434">
        <ele>211</ele>
        <time>2026-06-10T07:54:18.374+00:00</time>
      </trkpt>
      <trkpt lat="43.63543" lon="7.02439">
        <ele>211</ele>
        <time>2026-06-10T07:54:22.884+00:00</time>
      </trkpt>
      <trkpt lat="43.63543" lon="7.02445">
        <ele>211</ele>
        <time>2026-06-10T07:54:27.244+00:00</time>
      </trkpt>
      <trkpt lat="43.63544" lon="7.0245">
        <ele>211</ele>
        <time>2026-06-10T07:54:32.025+00:00</time>
      </trkpt>
      <trkpt lat="43.63547" lon="7.02456">
        <ele>211</ele>
        <time>2026-06-10T07:54:36.374+00:00</time>
      </trkpt>
      <trkpt lat="43.63551" lon="7.02461">
        <ele>208</ele>
        <time>2026-06-10T07:54:41.350+00:00</time>
      </trkpt>
      <trkpt lat="43.63552" lon="7.02468">
        <ele>208</ele>
        <time>2026-06-10T07:54:46.186+00:00</time>
      </trkpt>
      <trkpt lat="43.63557" lon="7.02468">
        <ele>208</ele>
        <time>2026-06-10T07:54:50.374+00:00</time>
      </trkpt>
      <trkpt lat="43.63562" lon="7.02466">
        <ele>208</ele>
        <time>2026-06-10T07:54:55.024+00:00</time>
      </trkpt>
      <trkpt lat="43.63565" lon="7.02465">
        <ele>208</ele>
        <time>2026-06-10T07:54:59.373+00:00</time>
      </trkpt>
      <trkpt lat="43.63569" lon="7.02464">
        <ele>208</ele>
        <time>2026-06-10T07:55:03.373+00:00</time>
      </trkpt>
      <trkpt lat="43.63573" lon="7.02462">
        <ele>207</ele>
        <time>2026-06-10T07:55:07.669+00:00</time>
      </trkpt>
      <trkpt lat="43.63577" lon="7.02466">
        <ele>207</ele>
        <time>2026-06-10T07:55:12.163+00:00</time>
      </trkpt>
      <trkpt lat="43.63581" lon="7.02472">
        <ele>207</ele>
        <time>2026-06-10T07:55:16.228+00:00</time>
      </trkpt>
      <trkpt lat="43.63587" lon="7.02478">
        <ele>207</ele>
        <time>2026-06-10T07:55:20.374+00:00</time>
      </trkpt>
      <trkpt lat="43.63592" lon="7.02477">
        <ele>207</ele>
        <time>2026-06-10T07:55:25.142+00:00</time>
      </trkpt>
      <trkpt lat="43.63596" lon="7.02477">
        <ele>207</ele>
        <time>2026-06-10T07:55:29.841+00:00</time>
      </trkpt>
      <trkpt lat="43.63597" lon="7.02482">
        <ele>207</ele>
        <time>2026-06-10T07:55:34.223+00:00</time>
      </trkpt>
      <trkpt lat="43.63598" lon="7.02488">
        <ele>205</ele>
        <time>2026-06-10T07:55:38.421+00:00</time>
      </trkpt>
      <trkpt lat="43.63601" lon="7.02494">
        <ele>205</ele>
        <time>2026-06-10T07:55:43.374+00:00</time>
      </trkpt>
      <trkpt lat="43.63605" lon="7.02494">
        <ele>205</ele>
        <time>2026-06-10T07:55:47.906+00:00</time>
      </trkpt>
      <trkpt lat="43.63607" lon="7.02492">
        <ele>205</ele>
        <time>2026-06-10T07:55:52.128+00:00</time>
      </trkpt>
      <trkpt lat="43.63611" lon="7.02492">
        <ele>205</ele>
        <time>2026-06-10T07:55:57.374+00:00</time>
      </trkpt>
      <trkpt lat="43.63616" lon="7.02494">
        <ele>205</ele>
        <time>2026-06-10T07:56:02.373+00:00</time>
      </trkpt>
      <trkpt lat="43.63618" lon="7.02496">
        <ele>205</ele>
        <time>2026-06-10T07:56:06.989+00:00</time>
      </trkpt>
      <trkpt lat="43.6362" lon="7.02502">
        <ele>205</ele>
        <time>2026-06-10T07:56:11.526+00:00</time>
      </trkpt>
      <trkpt lat="43.63622" lon="7.02507">
        <ele>205</ele>
        <time>2026-06-10T07:56:16.373+00:00</time>
      </trkpt>
      <trkpt lat="43.63625" lon="7.0251">
        <ele>206</ele>
        <time>2026-06-10T07:56:21.374+00:00</time>
      </trkpt>
      <trkpt lat="43.63629" lon="7.02515">
        <ele>202</ele>
        <time>2026-06-10T07:56:25.848+00:00</time>
      </trkpt>
      <trkpt lat="43.63633" lon="7.02516">
        <ele>202</ele>
        <time>2026-06-10T07:56:29.982+00:00</time>
      </trkpt>
      <trkpt lat="43.63637" lon="7.02517">
        <ele>202</ele>
        <time>2026-06-10T07:56:34.373+00:00</time>
      </trkpt>
      <trkpt lat="43.63642" lon="7.02517">
        <ele>202</ele>
        <time>2026-06-10T07:56:38.786+00:00</time>
      </trkpt>
      <trkpt lat="43.63645" lon="7.02519">
        <ele>202</ele>
        <time>2026-06-10T07:56:42.880+00:00</time>
      </trkpt>
      <trkpt lat="43.63649" lon="7.02521">
        <ele>202</ele>
        <time>2026-06-10T07:56:47.042+00:00</time>
      </trkpt>
      <trkpt lat="43.63654" lon="7.02525">
        <ele>202</ele>
        <time>2026-06-10T07:56:52.374+00:00</time>
      </trkpt>
      <trkpt lat="43.63658" lon="7.02527">
        <ele>202</ele>
        <time>2026-06-10T07:56:57.373+00:00</time>
      </trkpt>
      <trkpt lat="43.63663" lon="7.02531">
        <ele>202</ele>
        <time>2026-06-10T07:57:02.373+00:00</time>
      </trkpt>
      <trkpt lat="43.63667" lon="7.02536">
        <ele>202</ele>
        <time>2026-06-10T07:57:07.373+00:00</time>
      </trkpt>
      <trkpt lat="43.6367" lon="7.02543">
        <ele>198</ele>
        <time>2026-06-10T07:57:11.646+00:00</time>
      </trkpt>
      <trkpt lat="43.63674" lon="7.02547">
        <ele>198</ele>
        <time>2026-06-10T07:57:16.314+00:00</time>
      </trkpt>
      <trkpt lat="43.63677" lon="7.02551">
        <ele>198</ele>
        <time>2026-06-10T07:57:20.373+00:00</time>
      </trkpt>
      <trkpt lat="43.6368" lon="7.02552">
        <ele>198</ele>
        <time>2026-06-10T07:57:25.373+00:00</time>
      </trkpt>
      <trkpt lat="43.63681" lon="7.02553">
        <ele>199</ele>
        <time>2026-06-10T07:57:29.700+00:00</time>
      </trkpt>
      <trkpt lat="43.63685" lon="7.02558">
        <ele>199</ele>
        <time>2026-06-10T07:57:33.937+00:00</time>
      </trkpt>
      <trkpt lat="43.63687" lon="7.02568">
        <ele>199</ele>
        <time>2026-06-10T07:57:38.373+00:00</time>
      </trkpt>
      <trkpt lat="43.63688" lon="7.02576">
        <ele>196</ele>
        <time>2026-06-10T07:57:42.949+00:00</time>
      </trkpt>
      <trkpt lat="43.63688" lon="7.02582">
        <ele>196</ele>
        <time>2026-06-10T07:57:47.311+00:00</time>
      </trkpt>
      <trkpt lat="43.63689" lon="7.02588">
        <ele>196</ele>
        <time>2026-06-10T07:57:51.375+00:00</time>
      </trkpt>
      <trkpt lat="43.63692" lon="7.02593">
        <ele>196</ele>
        <time>2026-06-10T07:57:56.037+00:00</time>
      </trkpt>
      <trkpt lat="43.63694" lon="7.02598">
        <ele>192</ele>
        <time>2026-06-10T07:58:00.310+00:00</time>
      </trkpt>
      <trkpt lat="43.63697" lon="7.026">
        <ele>192</ele>
        <time>2026-06-10T07:58:04.373+00:00</time>
      </trkpt>
      <trkpt lat="43.637" lon="7.02604">
        <ele>192</ele>
        <time>2026-06-10T07:58:08.373+00:00</time>
      </trkpt>
      <trkpt lat="43.63704" lon="7.02607">
        <ele>192</ele>
        <time>2026-06-10T07:58:13.129+00:00</time>
      </trkpt>
      <trkpt lat="43.63707" lon="7.02612">
        <ele>192</ele>
        <time>2026-06-10T07:58:17.388+00:00</time>
      </trkpt>
      <trkpt lat="43.6371" lon="7.02616">
        <ele>190</ele>
        <time>2026-06-10T07:58:21.373+00:00</time>
      </trkpt>
      <trkpt lat="43.63714" lon="7.02618">
        <ele>190</ele>
        <time>2026-06-10T07:58:25.502+00:00</time>
      </trkpt>
      <trkpt lat="43.63717" lon="7.02621">
        <ele>190</ele>
        <time>2026-06-10T07:58:29.930+00:00</time>
      </trkpt>
      <trkpt lat="43.6372" lon="7.02623">
        <ele>190</ele>
        <time>2026-06-10T07:58:34.330+00:00</time>
      </trkpt>
      <trkpt lat="43.63724" lon="7.02625">
        <ele>185</ele>
        <time>2026-06-10T07:58:39.008+00:00</time>
      </trkpt>
      <trkpt lat="43.63727" lon="7.02629">
        <ele>185</ele>
        <time>2026-06-10T07:58:43.373+00:00</time>
      </trkpt>
      <trkpt lat="43.63733" lon="7.02626">
        <ele>185</ele>
        <time>2026-06-10T07:58:48.365+00:00</time>
      </trkpt>
      <trkpt lat="43.63736" lon="7.02628">
        <ele>180</ele>
        <time>2026-06-10T07:58:52.373+00:00</time>
      </trkpt>
      <trkpt lat="43.6374" lon="7.02635">
        <ele>180</ele>
        <time>2026-06-10T07:58:57.373+00:00</time>
      </trkpt>
      <trkpt lat="43.63746" lon="7.02635">
        <ele>180</ele>
        <time>2026-06-10T07:59:01.622+00:00</time>
      </trkpt>
      <trkpt lat="43.6375" lon="7.02632">
        <ele>180</ele>
        <time>2026-06-10T07:59:06.068+00:00</time>
      </trkpt>
      <trkpt lat="43.63753" lon="7.02629">
        <ele>180</ele>
        <time>2026-06-10T07:59:10.373+00:00</time>
      </trkpt>
      <trkpt lat="43.63757" lon="7.02625">
        <ele>180</ele>
        <time>2026-06-10T07:59:15.228+00:00</time>
      </trkpt>
      <trkpt lat="43.63761" lon="7.02625">
        <ele>180</ele>
        <time>2026-06-10T07:59:19.699+00:00</time>
      </trkpt>
      <trkpt lat="43.63765" lon="7.02628">
        <ele>176</ele>
        <time>2026-06-10T07:59:24.373+00:00</time>
      </trkpt>
      <trkpt lat="43.63769" lon="7.02624">
        <ele>182</ele>
        <time>2026-06-10T07:59:28.372+00:00</time>
      </trkpt>
      <trkpt lat="43.63773" lon="7.02622">
        <ele>182</ele>
        <time>2026-06-10T07:59:32.608+00:00</time>
      </trkpt>
      <trkpt lat="43.63777" lon="7.02619">
        <ele>182</ele>
        <time>2026-06-10T07:59:37.372+00:00</time>
      </trkpt>
      <trkpt lat="43.63782" lon="7.02614">
        <ele>182</ele>
        <time>2026-06-10T07:59:42.362+00:00</time>
      </trkpt>
      <trkpt lat="43.63786" lon="7.02613">
        <ele>182</ele>
        <time>2026-06-10T07:59:46.373+00:00</time>
      </trkpt>
      <trkpt lat="43.63792" lon="7.02609">
        <ele>174</ele>
        <time>2026-06-10T07:59:50.959+00:00</time>
      </trkpt>
      <trkpt lat="43.63798" lon="7.02606">
        <ele>174</ele>
        <time>2026-06-10T07:59:55.373+00:00</time>
      </trkpt>
      <trkpt lat="43.63804" lon="7.02606">
        <ele>174</ele>
        <time>2026-06-10T07:59:59.373+00:00</time>
      </trkpt>
      <trkpt lat="43.63809" lon="7.02605">
        <ele>174</ele>
        <time>2026-06-10T08:00:04.373+00:00</time>
      </trkpt>
      <trkpt lat="43.63812" lon="7.02602">
        <ele>174</ele>
        <time>2026-06-10T08:00:08.787+00:00</time>
      </trkpt>
      <trkpt lat="43.63816" lon="7.026">
        <ele>174</ele>
        <time>2026-06-10T08:00:12.930+00:00</time>
      </trkpt>
      <trkpt lat="43.63819" lon="7.02603">
        <ele>174</ele>
        <time>2026-06-10T08:00:17.013+00:00</time>
      </trkpt>
      <trkpt lat="43.6382" lon="7.02609">
        <ele>165</ele>
        <time>2026-06-10T08:00:21.373+00:00</time>
      </trkpt>
      <trkpt lat="43.6382" lon="7.02616">
        <ele>165</ele>
        <time>2026-06-10T08:00:25.987+00:00</time>
      </trkpt>
      <trkpt lat="43.6382" lon="7.02622">
        <ele>165</ele>
        <time>2026-06-10T08:00:30.347+00:00</time>
      </trkpt>
      <trkpt lat="43.63817" lon="7.02631">
        <ele>170</ele>
        <time>2026-06-10T08:03:26.246+00:00</time>
      </trkpt>
      <trkpt lat="43.63818" lon="7.02638">
        <ele>170</ele>
        <time>2026-06-10T08:03:30.764+00:00</time>
      </trkpt>
      <trkpt lat="43.63818" lon="7.02644">
        <ele>170</ele>
        <time>2026-06-10T08:03:35.282+00:00</time>
      </trkpt>
      <trkpt lat="43.63815" lon="7.02648">
        <ele>170</ele>
        <time>2026-06-10T08:03:39.861+00:00</time>
      </trkpt>
      <trkpt lat="43.63813" lon="7.02652">
        <ele>170</ele>
        <time>2026-06-10T08:03:44.280+00:00</time>
      </trkpt>
      <trkpt lat="43.63812" lon="7.02658">
        <ele>167</ele>
        <time>2026-06-10T08:03:52.502+00:00</time>
      </trkpt>
      <trkpt lat="43.63811" lon="7.02662">
        <ele>167</ele>
        <time>2026-06-10T08:03:57.372+00:00</time>
      </trkpt>
      <trkpt lat="43.63813" lon="7.02663">
        <ele>167</ele>
        <time>2026-06-10T08:04:01.372+00:00</time>
      </trkpt>
      <trkpt lat="43.63812" lon="7.02665">
        <ele>167</ele>
        <time>2026-06-10T08:04:06.383+00:00</time>
      </trkpt>
      <trkpt lat="43.63809" lon="7.02667">
        <ele>167</ele>
        <time>2026-06-10T08:04:11.264+00:00</time>
      </trkpt>
      <trkpt lat="43.63805" lon="7.0267">
        <ele>167</ele>
        <time>2026-06-10T08:04:15.372+00:00</time>
      </trkpt>
      <trkpt lat="43.63801" lon="7.02674">
        <ele>167</ele>
        <time>2026-06-10T08:04:20.105+00:00</time>
      </trkpt>
      <trkpt lat="43.63799" lon="7.02682">
        <ele>163</ele>
        <time>2026-06-10T08:04:24.247+00:00</time>
      </trkpt>
      <trkpt lat="43.63797" lon="7.0269">
        <ele>163</ele>
        <time>2026-06-10T08:04:28.803+00:00</time>
      </trkpt>
      <trkpt lat="43.63795" lon="7.02696">
        <ele>163</ele>
        <time>2026-06-10T08:04:32.865+00:00</time>
      </trkpt>
      <trkpt lat="43.63794" lon="7.02703">
        <ele>163</ele>
        <time>2026-06-10T08:04:37.148+00:00</time>
      </trkpt>
      <trkpt lat="43.63794" lon="7.0271">
        <ele>159</ele>
        <time>2026-06-10T08:04:42.372+00:00</time>
      </trkpt>
      <trkpt lat="43.63794" lon="7.02714">
        <ele>159</ele>
        <time>2026-06-10T08:04:46.787+00:00</time>
      </trkpt>
      <trkpt lat="43.63795" lon="7.02719">
        <ele>159</ele>
        <time>2026-06-10T08:04:51.053+00:00</time>
      </trkpt>
      <trkpt lat="43.63798" lon="7.02723">
        <ele>159</ele>
        <time>2026-06-10T08:04:55.608+00:00</time>
      </trkpt>
      <trkpt lat="43.63802" lon="7.02725">
        <ele>159</ele>
        <time>2026-06-10T08:04:59.989+00:00</time>
      </trkpt>
      <trkpt lat="43.63806" lon="7.02726">
        <ele>159</ele>
        <time>2026-06-10T08:05:04.370+00:00</time>
      </trkpt>
      <trkpt lat="43.6381" lon="7.02725">
        <ele>159</ele>
        <time>2026-06-10T08:05:08.906+00:00</time>
      </trkpt>
      <trkpt lat="43.63813" lon="7.02721">
        <ele>159</ele>
        <time>2026-06-10T08:05:13.267+00:00</time>
      </trkpt>
      <trkpt lat="43.63814" lon="7.02714">
        <ele>159</ele>
        <time>2026-06-10T08:05:17.686+00:00</time>
      </trkpt>
      <trkpt lat="43.63815" lon="7.02708">
        <ele>163</ele>
        <time>2026-06-10T08:05:22.371+00:00</time>
      </trkpt>
      <trkpt lat="43.63815" lon="7.02702">
        <ele>163</ele>
        <time>2026-06-10T08:05:26.982+00:00</time>
      </trkpt>
      <trkpt lat="43.63817" lon="7.02695">
        <ele>163</ele>
        <time>2026-06-10T08:05:31.340+00:00</time>
      </trkpt>
      <trkpt lat="43.63818" lon="7.0269">
        <ele>163</ele>
        <time>2026-06-10T08:05:35.370+00:00</time>
      </trkpt>
      <trkpt lat="43.63821" lon="7.02683">
        <ele>158</ele>
        <time>2026-06-10T08:05:40.371+00:00</time>
      </trkpt>
      <trkpt lat="43.63825" lon="7.02677">
        <ele>159</ele>
        <time>2026-06-10T08:05:45.371+00:00</time>
      </trkpt>
      <trkpt lat="43.63827" lon="7.02671">
        <ele>159</ele>
        <time>2026-06-10T08:05:49.669+00:00</time>
      </trkpt>
      <trkpt lat="43.6383" lon="7.02665">
        <ele>159</ele>
        <time>2026-06-10T08:05:53.807+00:00</time>
      </trkpt>
      <trkpt lat="43.63834" lon="7.0266">
        <ele>159</ele>
        <time>2026-06-10T08:05:58.371+00:00</time>
      </trkpt>
      <trkpt lat="43.6384" lon="7.02656">
        <ele>159</ele>
        <time>2026-06-10T08:06:03.371+00:00</time>
      </trkpt>
      <trkpt lat="43.63845" lon="7.02655">
        <ele>159</ele>
        <time>2026-06-10T08:06:08.371+00:00</time>
      </trkpt>
      <trkpt lat="43.63851" lon="7.02654">
        <ele>158</ele>
        <time>2026-06-10T08:06:13.069+00:00</time>
      </trkpt>
      <trkpt lat="43.63856" lon="7.02657">
        <ele>158</ele>
        <time>2026-06-10T08:06:17.371+00:00</time>
      </trkpt>
      <trkpt lat="43.63861" lon="7.02661">
        <ele>158</ele>
        <time>2026-06-10T08:06:21.910+00:00</time>
      </trkpt>
      <trkpt lat="43.63863" lon="7.02667">
        <ele>158</ele>
        <time>2026-06-10T08:06:26.371+00:00</time>
      </trkpt>
      <trkpt lat="43.63864" lon="7.02673">
        <ele>158</ele>
        <time>2026-06-10T08:06:30.885+00:00</time>
      </trkpt>
      <trkpt lat="43.63866" lon="7.02676">
        <ele>158</ele>
        <time>2026-06-10T08:06:35.106+00:00</time>
      </trkpt>
      <trkpt lat="43.63863" lon="7.02679">
        <ele>158</ele>
        <time>2026-06-10T08:06:58.038+00:00</time>
      </trkpt>
      <trkpt lat="43.6386" lon="7.02685">
        <ele>159</ele>
        <time>2026-06-10T08:07:02.371+00:00</time>
      </trkpt>
      <trkpt lat="43.63858" lon="7.02694">
        <ele>159</ele>
        <time>2026-06-10T08:07:07.105+00:00</time>
      </trkpt>
      <trkpt lat="43.63855" lon="7.027">
        <ele>159</ele>
        <time>2026-06-10T08:07:11.266+00:00</time>
      </trkpt>
      <trkpt lat="43.63852" lon="7.02705">
        <ele>159</ele>
        <time>2026-06-10T08:07:15.371+00:00</time>
      </trkpt>
      <trkpt lat="43.6385" lon="7.02713">
        <ele>160</ele>
        <time>2026-06-10T08:07:20.371+00:00</time>
      </trkpt>
      <trkpt lat="43.63847" lon="7.0272">
        <ele>160</ele>
        <time>2026-06-10T08:07:25.005+00:00</time>
      </trkpt>
      <trkpt lat="43.63845" lon="7.02726">
        <ele>157</ele>
        <time>2026-06-10T08:07:29.371+00:00</time>
      </trkpt>
      <trkpt lat="43.63843" lon="7.02731">
        <ele>157</ele>
        <time>2026-06-10T08:07:33.371+00:00</time>
      </trkpt>
      <trkpt lat="43.63841" lon="7.02737">
        <ele>157</ele>
        <time>2026-06-10T08:07:38.390+00:00</time>
      </trkpt>
      <trkpt lat="43.63838" lon="7.02743">
        <ele>157</ele>
        <time>2026-06-10T08:07:42.729+00:00</time>
      </trkpt>
      <trkpt lat="43.63835" lon="7.02747">
        <ele>157</ele>
        <time>2026-06-10T08:07:47.008+00:00</time>
      </trkpt>
      <trkpt lat="43.63832" lon="7.02753">
        <ele>157</ele>
        <time>2026-06-10T08:07:51.371+00:00</time>
      </trkpt>
      <trkpt lat="43.63829" lon="7.0276">
        <ele>157</ele>
        <time>2026-06-10T08:07:55.847+00:00</time>
      </trkpt>
      <trkpt lat="43.63828" lon="7.02767">
        <ele>157</ele>
        <time>2026-06-10T08:08:00.188+00:00</time>
      </trkpt>
      <trkpt lat="43.63828" lon="7.0277">
        <ele>157</ele>
        <time>2026-06-10T08:08:04.371+00:00</time>
      </trkpt>
      <trkpt lat="43.63824" lon="7.02774">
        <ele>157</ele>
        <time>2026-06-10T08:08:08.507+00:00</time>
      </trkpt>
      <trkpt lat="43.6382" lon="7.02783">
        <ele>157</ele>
        <time>2026-06-10T08:08:13.265+00:00</time>
      </trkpt>
      <trkpt lat="43.63819" lon="7.02789">
        <ele>155</ele>
        <time>2026-06-10T08:08:17.371+00:00</time>
      </trkpt>
      <trkpt lat="43.63815" lon="7.02794">
        <ele>155</ele>
        <time>2026-06-10T08:08:22.370+00:00</time>
      </trkpt>
      <trkpt lat="43.63814" lon="7.02801">
        <ele>155</ele>
        <time>2026-06-10T08:08:26.943+00:00</time>
      </trkpt>
      <trkpt lat="43.63812" lon="7.02806">
        <ele>155</ele>
        <time>2026-06-10T08:08:31.370+00:00</time>
      </trkpt>
      <trkpt lat="43.6381" lon="7.0281">
        <ele>155</ele>
        <time>2026-06-10T08:08:35.370+00:00</time>
      </trkpt>
      <trkpt lat="43.63808" lon="7.02816">
        <ele>155</ele>
        <time>2026-06-10T08:08:40.079+00:00</time>
      </trkpt>
      <trkpt lat="43.63809" lon="7.02821">
        <ele>157</ele>
        <time>2026-06-10T08:08:44.669+00:00</time>
      </trkpt>
      <trkpt lat="43.63807" lon="7.02828">
        <ele>157</ele>
        <time>2026-06-10T08:08:49.370+00:00</time>
      </trkpt>
      <trkpt lat="43.63803" lon="7.02831">
        <ele>157</ele>
        <time>2026-06-10T08:08:53.528+00:00</time>
      </trkpt>
      <trkpt lat="43.638" lon="7.02837">
        <ele>157</ele>
        <time>2026-06-10T08:08:57.769+00:00</time>
      </trkpt>
      <trkpt lat="43.63797" lon="7.02842">
        <ele>157</ele>
        <time>2026-06-10T08:09:02.370+00:00</time>
      </trkpt>
      <trkpt lat="43.6379" lon="7.02848">
        <ele>157</ele>
        <time>2026-06-10T08:09:07.370+00:00</time>
      </trkpt>
      <trkpt lat="43.63784" lon="7.02854">
        <ele>157</ele>
        <time>2026-06-10T08:09:12.370+00:00</time>
      </trkpt>
      <trkpt lat="43.63778" lon="7.02859">
        <ele>157</ele>
        <time>2026-06-10T08:09:17.370+00:00</time>
      </trkpt>
      <trkpt lat="43.63773" lon="7.02863">
        <ele>157</ele>
        <time>2026-06-10T08:09:22.370+00:00</time>
      </trkpt>
      <trkpt lat="43.63764" lon="7.02867">
        <ele>157</ele>
        <time>2026-06-10T08:09:45.369+00:00</time>
      </trkpt>
      <trkpt lat="43.63763" lon="7.02868">
        <ele>154</ele>
        <time>2026-06-10T08:09:49.826+00:00</time>
      </trkpt>
      <trkpt lat="43.6376" lon="7.02863">
        <ele>154</ele>
        <time>2026-06-10T08:09:54.066+00:00</time>
      </trkpt>
      <trkpt lat="43.63754" lon="7.02863">
        <ele>154</ele>
        <time>2026-06-10T08:09:58.369+00:00</time>
      </trkpt>
      <trkpt lat="43.63747" lon="7.02868">
        <ele>154</ele>
        <time>2026-06-10T08:10:03.370+00:00</time>
      </trkpt>
      <trkpt lat="43.63746" lon="7.02873">
        <ele>154</ele>
        <time>2026-06-10T08:10:07.882+00:00</time>
      </trkpt>
      <trkpt lat="43.6374" lon="7.02877">
        <ele>160</ele>
        <time>2026-06-10T08:10:12.201+00:00</time>
      </trkpt>
      <trkpt lat="43.63734" lon="7.02877">
        <ele>156</ele>
        <time>2026-06-10T08:10:16.369+00:00</time>
      </trkpt>
      <trkpt lat="43.63727" lon="7.02877">
        <ele>156</ele>
        <time>2026-06-10T08:10:21.011+00:00</time>
      </trkpt>
      <trkpt lat="43.63722" lon="7.02875">
        <ele>156</ele>
        <time>2026-06-10T08:10:25.370+00:00</time>
      </trkpt>
      <trkpt lat="43.63717" lon="7.0288">
        <ele>156</ele>
        <time>2026-06-10T08:10:30.327+00:00</time>
      </trkpt>
      <trkpt lat="43.63712" lon="7.02879">
        <ele>156</ele>
        <time>2026-06-10T08:10:34.369+00:00</time>
      </trkpt>
      <trkpt lat="43.63706" lon="7.02877">
        <ele>153</ele>
        <time>2026-06-10T08:10:38.370+00:00</time>
      </trkpt>
      <trkpt lat="43.63701" lon="7.02881">
        <ele>153</ele>
        <time>2026-06-10T08:10:43.370+00:00</time>
      </trkpt>
      <trkpt lat="43.63697" lon="7.02886">
        <ele>153</ele>
        <time>2026-06-10T08:10:48.144+00:00</time>
      </trkpt>
      <trkpt lat="43.63693" lon="7.02892">
        <ele>153</ele>
        <time>2026-06-10T08:10:52.369+00:00</time>
      </trkpt>
      <trkpt lat="43.63689" lon="7.02895">
        <ele>153</ele>
        <time>2026-06-10T08:10:56.584+00:00</time>
      </trkpt>
      <trkpt lat="43.63685" lon="7.029">
        <ele>153</ele>
        <time>2026-06-10T08:11:01.365+00:00</time>
      </trkpt>
      <trkpt lat="43.63681" lon="7.02905">
        <ele>153</ele>
        <time>2026-06-10T08:11:06.189+00:00</time>
      </trkpt>
      <trkpt lat="43.63678" lon="7.02911">
        <ele>152</ele>
        <time>2026-06-10T08:11:10.369+00:00</time>
      </trkpt>
      <trkpt lat="43.63673" lon="7.02919">
        <ele>152</ele>
        <time>2026-06-10T08:11:15.370+00:00</time>
      </trkpt>
      <trkpt lat="43.63668" lon="7.02928">
        <ele>152</ele>
        <time>2026-06-10T08:11:20.369+00:00</time>
      </trkpt>
      <trkpt lat="43.63665" lon="7.02936">
        <ele>153</ele>
        <time>2026-06-10T08:11:25.370+00:00</time>
      </trkpt>
      <trkpt lat="43.63661" lon="7.02938">
        <ele>153</ele>
        <time>2026-06-10T08:11:30.369+00:00</time>
      </trkpt>
      <trkpt lat="43.63657" lon="7.02945">
        <ele>153</ele>
        <time>2026-06-10T08:11:35.370+00:00</time>
      </trkpt>
      <trkpt lat="43.6365" lon="7.0295">
        <ele>157</ele>
        <time>2026-06-10T08:11:40.369+00:00</time>
      </trkpt>
      <trkpt lat="43.63649" lon="7.02956">
        <ele>157</ele>
        <time>2026-06-10T08:11:44.370+00:00</time>
      </trkpt>
      <trkpt lat="43.63649" lon="7.02966">
        <ele>160</ele>
        <time>2026-06-10T08:11:49.370+00:00</time>
      </trkpt>
      <trkpt lat="43.63649" lon="7.02973">
        <ele>160</ele>
        <time>2026-06-10T08:11:53.370+00:00</time>
      </trkpt>
      <trkpt lat="43.63648" lon="7.0298">
        <ele>160</ele>
        <time>2026-06-10T08:11:58.030+00:00</time>
      </trkpt>
      <trkpt lat="43.63647" lon="7.02989">
        <ele>160</ele>
        <time>2026-06-10T08:12:02.668+00:00</time>
      </trkpt>
      <trkpt lat="43.63648" lon="7.02998">
        <ele>160</ele>
        <time>2026-06-10T08:12:06.866+00:00</time>
      </trkpt>
      <trkpt lat="43.63647" lon="7.03007">
        <ele>160</ele>
        <time>2026-06-10T08:12:11.048+00:00</time>
      </trkpt>
      <trkpt lat="43.63647" lon="7.03013">
        <ele>160</ele>
        <time>2026-06-10T08:12:15.369+00:00</time>
      </trkpt>
      <trkpt lat="43.63648" lon="7.0302">
        <ele>162</ele>
        <time>2026-06-10T08:12:19.369+00:00</time>
      </trkpt>
      <trkpt lat="43.63644" lon="7.03025">
        <ele>162</ele>
        <time>2026-06-10T08:12:24.369+00:00</time>
      </trkpt>
      <trkpt lat="43.63641" lon="7.03031">
        <ele>162</ele>
        <time>2026-06-10T08:12:29.127+00:00</time>
      </trkpt>
      <trkpt lat="43.63642" lon="7.03039">
        <ele>162</ele>
        <time>2026-06-10T08:12:33.369+00:00</time>
      </trkpt>
      <trkpt lat="43.63649" lon="7.03045">
        <ele>164</ele>
        <time>2026-06-10T08:12:38.122+00:00</time>
      </trkpt>
      <trkpt lat="43.63656" lon="7.03047">
        <ele>155</ele>
        <time>2026-06-10T08:12:42.184+00:00</time>
      </trkpt>
      <trkpt lat="43.6366" lon="7.03053">
        <ele>155</ele>
        <time>2026-06-10T08:12:46.369+00:00</time>
      </trkpt>
      <trkpt lat="43.63662" lon="7.03058">
        <ele>155</ele>
        <time>2026-06-10T08:12:51.368+00:00</time>
      </trkpt>
      <trkpt lat="43.63663" lon="7.03063">
        <ele>155</ele>
        <time>2026-06-10T08:12:55.368+00:00</time>
      </trkpt>
      <trkpt lat="43.63664" lon="7.0307">
        <ele>155</ele>
        <time>2026-06-10T08:12:59.369+00:00</time>
      </trkpt>
      <trkpt lat="43.63663" lon="7.03076">
        <ele>155</ele>
        <time>2026-06-10T08:13:03.369+00:00</time>
      </trkpt>
      <trkpt lat="43.63663" lon="7.03082">
        <ele>155</ele>
        <time>2026-06-10T08:13:08.369+00:00</time>
      </trkpt>
      <trkpt lat="43.63667" lon="7.03088">
        <ele>155</ele>
        <time>2026-06-10T08:13:13.369+00:00</time>
      </trkpt>
      <trkpt lat="43.63666" lon="7.03096">
        <ele>155</ele>
        <time>2026-06-10T08:13:18.369+00:00</time>
      </trkpt>
      <trkpt lat="43.63665" lon="7.03106">
        <ele>154</ele>
        <time>2026-06-10T08:13:23.369+00:00</time>
      </trkpt>
      <trkpt lat="43.63666" lon="7.03111">
        <ele>154</ele>
        <time>2026-06-10T08:13:27.368+00:00</time>
      </trkpt>
      <trkpt lat="43.63666" lon="7.0312">
        <ele>154</ele>
        <time>2026-06-10T08:13:32.369+00:00</time>
      </trkpt>
      <trkpt lat="43.63664" lon="7.03128">
        <ele>154</ele>
        <time>2026-06-10T08:13:36.888+00:00</time>
      </trkpt>
      <trkpt lat="43.63664" lon="7.03136">
        <ele>154</ele>
        <time>2026-06-10T08:13:41.369+00:00</time>
      </trkpt>
      <trkpt lat="43.63662" lon="7.03143">
        <ele>154</ele>
        <time>2026-06-10T08:13:45.788+00:00</time>
      </trkpt>
      <trkpt lat="43.63663" lon="7.0315">
        <ele>154</ele>
        <time>2026-06-10T08:13:50.369+00:00</time>
      </trkpt>
      <trkpt lat="43.63664" lon="7.03157">
        <ele>155</ele>
        <time>2026-06-10T08:13:55.006+00:00</time>
      </trkpt>
      <trkpt lat="43.63666" lon="7.03164">
        <ele>155</ele>
        <time>2026-06-10T08:13:59.368+00:00</time>
      </trkpt>
      <trkpt lat="43.63668" lon="7.03169">
        <ele>155</ele>
        <time>2026-06-10T08:14:04.368+00:00</time>
      </trkpt>
      <trkpt lat="43.63665" lon="7.03173">
        <ele>155</ele>
        <time>2026-06-10T08:14:08.949+00:00</time>
      </trkpt>
      <trkpt lat="43.63659" lon="7.03174">
        <ele>155</ele>
        <time>2026-06-10T08:14:13.369+00:00</time>
      </trkpt>
      <trkpt lat="43.63656" lon="7.03181">
        <ele>156</ele>
        <time>2026-06-10T08:14:17.548+00:00</time>
      </trkpt>
      <trkpt lat="43.63653" lon="7.03192">
        <ele>156</ele>
        <time>2026-06-10T08:14:22.248+00:00</time>
      </trkpt>
      <trkpt lat="43.63654" lon="7.032">
        <ele>156</ele>
        <time>2026-06-10T08:14:26.508+00:00</time>
      </trkpt>
      <trkpt lat="43.63654" lon="7.03206">
        <ele>156</ele>
        <time>2026-06-10T08:14:30.886+00:00</time>
      </trkpt>
      <trkpt lat="43.63652" lon="7.03212">
        <ele>161</ele>
        <time>2026-06-10T08:14:35.372+00:00</time>
      </trkpt>
      <trkpt lat="43.63645" lon="7.03217">
        <ele>161</ele>
        <time>2026-06-10T08:14:40.369+00:00</time>
      </trkpt>
      <trkpt lat="43.63643" lon="7.03225">
        <ele>161</ele>
        <time>2026-06-10T08:14:44.864+00:00</time>
      </trkpt>
      <trkpt lat="43.63643" lon="7.03233">
        <ele>161</ele>
        <time>2026-06-10T08:14:49.369+00:00</time>
      </trkpt>
      <trkpt lat="43.63639" lon="7.03238">
        <ele>161</ele>
        <time>2026-06-10T08:14:54.083+00:00</time>
      </trkpt>
      <trkpt lat="43.63636" lon="7.03244">
        <ele>161</ele>
        <time>2026-06-10T08:14:58.381+00:00</time>
      </trkpt>
      <trkpt lat="43.63633" lon="7.03251">
        <ele>161</ele>
        <time>2026-06-10T08:15:02.873+00:00</time>
      </trkpt>
      <trkpt lat="43.63632" lon="7.03257">
        <ele>161</ele>
        <time>2026-06-10T08:15:07.130+00:00</time>
      </trkpt>
      <trkpt lat="43.63631" lon="7.03264">
        <ele>162</ele>
        <time>2026-06-10T08:15:11.351+00:00</time>
      </trkpt>
      <trkpt lat="43.63631" lon="7.03274">
        <ele>162</ele>
        <time>2026-06-10T08:15:16.247+00:00</time>
      </trkpt>
      <trkpt lat="43.63629" lon="7.03283">
        <ele>162</ele>
        <time>2026-06-10T08:15:20.685+00:00</time>
      </trkpt>
      <trkpt lat="43.63627" lon="7.03291">
        <ele>162</ele>
        <time>2026-06-10T08:15:25.369+00:00</time>
      </trkpt>
      <trkpt lat="43.63625" lon="7.03295">
        <ele>164</ele>
        <time>2026-06-10T08:15:29.626+00:00</time>
      </trkpt>
      <trkpt lat="43.63622" lon="7.03302">
        <ele>164</ele>
        <time>2026-06-10T08:15:34.285+00:00</time>
      </trkpt>
      <trkpt lat="43.63618" lon="7.03308">
        <ele>164</ele>
        <time>2026-06-10T08:15:38.369+00:00</time>
      </trkpt>
      <trkpt lat="43.63616" lon="7.03315">
        <ele>164</ele>
        <time>2026-06-10T08:15:42.706+00:00</time>
      </trkpt>
      <trkpt lat="43.63615" lon="7.03321">
        <ele>159</ele>
        <time>2026-06-10T08:15:47.368+00:00</time>
      </trkpt>
      <trkpt lat="43.63615" lon="7.03328">
        <ele>159</ele>
        <time>2026-06-10T08:15:52.393+00:00</time>
      </trkpt>
      <trkpt lat="43.63612" lon="7.03335">
        <ele>159</ele>
        <time>2026-06-10T08:15:56.834+00:00</time>
      </trkpt>
      <trkpt lat="43.6361" lon="7.03342">
        <ele>159</ele>
        <time>2026-06-10T08:16:01.269+00:00</time>
      </trkpt>
      <trkpt lat="43.63607" lon="7.03349">
        <ele>157</ele>
        <time>2026-06-10T08:16:05.569+00:00</time>
      </trkpt>
      <trkpt lat="43.63606" lon="7.03356">
        <ele>157</ele>
        <time>2026-06-10T08:16:09.828+00:00</time>
      </trkpt>
      <trkpt lat="43.63604" lon="7.03363">
        <ele>157</ele>
        <time>2026-06-10T08:16:14.367+00:00</time>
      </trkpt>
      <trkpt lat="43.63601" lon="7.03371">
        <ele>157</ele>
        <time>2026-06-10T08:16:19.106+00:00</time>
      </trkpt>
      <trkpt lat="43.63599" lon="7.03378">
        <ele>156</ele>
        <time>2026-06-10T08:16:23.286+00:00</time>
      </trkpt>
      <trkpt lat="43.63598" lon="7.03387">
        <ele>156</ele>
        <time>2026-06-10T08:16:27.706+00:00</time>
      </trkpt>
      <trkpt lat="43.63599" lon="7.03394">
        <ele>156</ele>
        <time>2026-06-10T08:16:32.045+00:00</time>
      </trkpt>
      <trkpt lat="43.636" lon="7.034">
        <ele>156</ele>
        <time>2026-06-10T08:16:36.371+00:00</time>
      </trkpt>
      <trkpt lat="43.636" lon="7.03407">
        <ele>155</ele>
        <time>2026-06-10T08:16:40.825+00:00</time>
      </trkpt>
      <trkpt lat="43.63599" lon="7.03414">
        <ele>155</ele>
        <time>2026-06-10T08:16:45.106+00:00</time>
      </trkpt>
      <trkpt lat="43.63599" lon="7.03421">
        <ele>155</ele>
        <time>2026-06-10T08:16:49.368+00:00</time>
      </trkpt>
      <trkpt lat="43.636" lon="7.03428">
        <ele>155</ele>
        <time>2026-06-10T08:16:53.759+00:00</time>
      </trkpt>
      <trkpt lat="43.636" lon="7.03435">
        <ele>152</ele>
        <time>2026-06-10T08:16:58.368+00:00</time>
      </trkpt>
      <trkpt lat="43.63602" lon="7.03442">
        <ele>152</ele>
        <time>2026-06-10T08:17:02.983+00:00</time>
      </trkpt>
      <trkpt lat="43.63602" lon="7.03447">
        <ele>152</ele>
        <time>2026-06-10T08:17:07.165+00:00</time>
      </trkpt>
      <trkpt lat="43.63603" lon="7.03454">
        <ele>152</ele>
        <time>2026-06-10T08:17:11.304+00:00</time>
      </trkpt>
      <trkpt lat="43.63604" lon="7.0346">
        <ele>151</ele>
        <time>2026-06-10T08:17:15.684+00:00</time>
      </trkpt>
      <trkpt lat="43.63605" lon="7.03469">
        <ele>151</ele>
        <time>2026-06-10T08:17:20.104+00:00</time>
      </trkpt>
      <trkpt lat="43.63605" lon="7.03477">
        <ele>151</ele>
        <time>2026-06-10T08:17:24.364+00:00</time>
      </trkpt>
      <trkpt lat="43.63605" lon="7.03486">
        <ele>151</ele>
        <time>2026-06-10T08:17:28.524+00:00</time>
      </trkpt>
      <trkpt lat="43.63605" lon="7.03494">
        <ele>149</ele>
        <time>2026-06-10T08:17:32.825+00:00</time>
      </trkpt>
      <trkpt lat="43.63604" lon="7.03499">
        <ele>149</ele>
        <time>2026-06-10T08:17:37.165+00:00</time>
      </trkpt>
      <trkpt lat="43.63605" lon="7.03505">
        <ele>149</ele>
        <time>2026-06-10T08:17:41.364+00:00</time>
      </trkpt>
      <trkpt lat="43.63605" lon="7.03509">
        <ele>149</ele>
        <time>2026-06-10T08:17:45.365+00:00</time>
      </trkpt>
      <trkpt lat="43.63609" lon="7.03514">
        <ele>149</ele>
        <time>2026-06-10T08:17:49.605+00:00</time>
      </trkpt>
      <trkpt lat="43.6361" lon="7.03519">
        <ele>150</ele>
        <time>2026-06-10T08:17:54.369+00:00</time>
      </trkpt>
      <trkpt lat="43.63609" lon="7.03524">
        <ele>150</ele>
        <time>2026-06-10T08:17:59.368+00:00</time>
      </trkpt>
      <trkpt lat="43.63609" lon="7.03528">
        <ele>150</ele>
        <time>2026-06-10T08:18:04.368+00:00</time>
      </trkpt>
      <trkpt lat="43.63608" lon="7.03537">
        <ele>150</ele>
        <time>2026-06-10T08:18:08.773+00:00</time>
      </trkpt>
      <trkpt lat="43.63606" lon="7.03543">
        <ele>148</ele>
        <time>2026-06-10T08:18:12.828+00:00</time>
      </trkpt>
      <trkpt lat="43.63605" lon="7.03551">
        <ele>148</ele>
        <time>2026-06-10T08:18:17.129+00:00</time>
      </trkpt>
      <trkpt lat="43.63604" lon="7.03559">
        <ele>148</ele>
        <time>2026-06-10T08:18:21.368+00:00</time>
      </trkpt>
      <trkpt lat="43.63603" lon="7.03566">
        <ele>148</ele>
        <time>2026-06-10T08:18:25.568+00:00</time>
      </trkpt>
      <trkpt lat="43.63602" lon="7.03573">
        <ele>148</ele>
        <time>2026-06-10T08:18:30.368+00:00</time>
      </trkpt>
      <trkpt lat="43.63599" lon="7.03581">
        <ele>148</ele>
        <time>2026-06-10T08:18:35.367+00:00</time>
      </trkpt>
      <trkpt lat="43.63597" lon="7.03587">
        <ele>148</ele>
        <time>2026-06-10T08:18:39.604+00:00</time>
      </trkpt>
      <trkpt lat="43.63598" lon="7.03593">
        <ele>148</ele>
        <time>2026-06-10T08:18:44.124+00:00</time>
      </trkpt>
      <trkpt lat="43.636" lon="7.0359">
        <ele>148</ele>
        <time>2026-06-10T08:19:06.368+00:00</time>
      </trkpt>
      <trkpt lat="43.636" lon="7.03589">
        <ele>148</ele>
        <time>2026-06-10T08:19:10.699+00:00</time>
      </trkpt>
      <trkpt lat="43.63601" lon="7.0359">
        <ele>148</ele>
        <time>2026-06-10T08:19:14.950+00:00</time>
      </trkpt>
      <trkpt lat="43.63603" lon="7.0359">
        <ele>148</ele>
        <time>2026-06-10T08:19:19.367+00:00</time>
      </trkpt>
      <trkpt lat="43.63607" lon="7.03593">
        <ele>148</ele>
        <time>2026-06-10T08:19:24.367+00:00</time>
      </trkpt>
      <trkpt lat="43.63607" lon="7.03598">
        <ele>148</ele>
        <time>2026-06-10T08:19:29.367+00:00</time>
      </trkpt>
      <trkpt lat="43.63606" lon="7.03602">
        <ele>148</ele>
        <time>2026-06-10T08:19:34.367+00:00</time>
      </trkpt>
      <trkpt lat="43.63604" lon="7.03607">
        <ele>148</ele>
        <time>2026-06-10T08:19:38.531+00:00</time>
      </trkpt>
      <trkpt lat="43.63601" lon="7.03612">
        <ele>148</ele>
        <time>2026-06-10T08:19:43.269+00:00</time>
      </trkpt>
      <trkpt lat="43.63597" lon="7.03615">
        <ele>144</ele>
        <time>2026-06-10T08:19:47.830+00:00</time>
      </trkpt>
      <trkpt lat="43.63595" lon="7.03618">
        <ele>144</ele>
        <time>2026-06-10T08:19:52.367+00:00</time>
      </trkpt>
      <trkpt lat="43.63592" lon="7.03624">
        <ele>144</ele>
        <time>2026-06-10T08:19:57.381+00:00</time>
      </trkpt>
      <trkpt lat="43.63589" lon="7.03631">
        <ele>146</ele>
        <time>2026-06-10T08:20:01.730+00:00</time>
      </trkpt>
      <trkpt lat="43.63587" lon="7.03638">
        <ele>146</ele>
        <time>2026-06-10T08:20:05.882+00:00</time>
      </trkpt>
      <trkpt lat="43.63584" lon="7.03643">
        <ele>146</ele>
        <time>2026-06-10T08:20:10.204+00:00</time>
      </trkpt>
      <trkpt lat="43.63583" lon="7.03646">
        <ele>146</ele>
        <time>2026-06-10T08:20:15.075+00:00</time>
      </trkpt>
      <trkpt lat="43.63578" lon="7.03651">
        <ele>146</ele>
        <time>2026-06-10T08:20:19.550+00:00</time>
      </trkpt>
      <trkpt lat="43.63571" lon="7.03652">
        <ele>146</ele>
        <time>2026-06-10T08:20:24.386+00:00</time>
      </trkpt>
      <trkpt lat="43.63566" lon="7.03653">
        <ele>144</ele>
        <time>2026-06-10T08:20:28.826+00:00</time>
      </trkpt>
      <trkpt lat="43.63562" lon="7.03653">
        <ele>144</ele>
        <time>2026-06-10T08:20:33.367+00:00</time>
      </trkpt>
      <trkpt lat="43.63557" lon="7.03651">
        <ele>144</ele>
        <time>2026-06-10T08:20:37.366+00:00</time>
      </trkpt>
      <trkpt lat="43.63552" lon="7.0365">
        <ele>144</ele>
        <time>2026-06-10T08:20:42.367+00:00</time>
      </trkpt>
      <trkpt lat="43.63547" lon="7.03651">
        <ele>144</ele>
        <time>2026-06-10T08:20:46.944+00:00</time>
      </trkpt>
      <trkpt lat="43.63543" lon="7.03654">
        <ele>145</ele>
        <time>2026-06-10T08:20:51.367+00:00</time>
      </trkpt>
      <trkpt lat="43.63541" lon="7.03662">
        <ele>145</ele>
        <time>2026-06-10T08:20:56.366+00:00</time>
      </trkpt>
      <trkpt lat="43.6354" lon="7.03664">
        <ele>145</ele>
        <time>2026-06-10T08:21:01.367+00:00</time>
      </trkpt>
      <trkpt lat="43.63542" lon="7.03674">
        <ele>145</ele>
        <time>2026-06-10T08:21:06.366+00:00</time>
      </trkpt>
      <trkpt lat="43.63542" lon="7.03683">
        <ele>146</ele>
        <time>2026-06-10T08:21:11.250+00:00</time>
      </trkpt>
      <trkpt lat="43.63545" lon="7.0369">
        <ele>146</ele>
        <time>2026-06-10T08:21:15.694+00:00</time>
      </trkpt>
      <trkpt lat="43.63547" lon="7.03695">
        <ele>146</ele>
        <time>2026-06-10T08:21:20.366+00:00</time>
      </trkpt>
      <trkpt lat="43.63549" lon="7.03699">
        <ele>146</ele>
        <time>2026-06-10T08:21:24.688+00:00</time>
      </trkpt>
      <trkpt lat="43.63551" lon="7.03706">
        <ele>146</ele>
        <time>2026-06-10T08:21:29.265+00:00</time>
      </trkpt>
      <trkpt lat="43.63554" lon="7.03712">
        <ele>147</ele>
        <time>2026-06-10T08:21:33.348+00:00</time>
      </trkpt>
      <trkpt lat="43.63557" lon="7.03716">
        <ele>147</ele>
        <time>2026-06-10T08:21:37.393+00:00</time>
      </trkpt>
      <trkpt lat="43.63557" lon="7.03722">
        <ele>147</ele>
        <time>2026-06-10T08:21:41.946+00:00</time>
      </trkpt>
      <trkpt lat="43.63558" lon="7.03727">
        <ele>147</ele>
        <time>2026-06-10T08:21:46.008+00:00</time>
      </trkpt>
      <trkpt lat="43.63559" lon="7.03731">
        <ele>147</ele>
        <time>2026-06-10T08:21:50.367+00:00</time>
      </trkpt>
      <trkpt lat="43.63559" lon="7.03737">
        <ele>147</ele>
        <time>2026-06-10T08:21:54.726+00:00</time>
      </trkpt>
      <trkpt lat="43.6356" lon="7.03743">
        <ele>147</ele>
        <time>2026-06-10T08:21:59.086+00:00</time>
      </trkpt>
      <trkpt lat="43.63561" lon="7.03749">
        <ele>147</ele>
        <time>2026-06-10T08:22:03.367+00:00</time>
      </trkpt>
      <trkpt lat="43.63562" lon="7.03755">
        <ele>147</ele>
        <time>2026-06-10T08:22:07.366+00:00</time>
      </trkpt>
      <trkpt lat="43.63561" lon="7.0376">
        <ele>147</ele>
        <time>2026-06-10T08:22:11.371+00:00</time>
      </trkpt>
      <trkpt lat="43.63561" lon="7.03766">
        <ele>149</ele>
        <time>2026-06-10T08:22:15.731+00:00</time>
      </trkpt>
      <trkpt lat="43.6356" lon="7.03772">
        <ele>149</ele>
        <time>2026-06-10T08:22:20.367+00:00</time>
      </trkpt>
      <trkpt lat="43.6356" lon="7.03779">
        <ele>149</ele>
        <time>2026-06-10T08:22:24.587+00:00</time>
      </trkpt>
      <trkpt lat="43.63559" lon="7.03786">
        <ele>149</ele>
        <time>2026-06-10T08:22:29.187+00:00</time>
      </trkpt>
      <trkpt lat="43.63556" lon="7.03791">
        <ele>149</ele>
        <time>2026-06-10T08:22:33.350+00:00</time>
      </trkpt>
      <trkpt lat="43.63555" lon="7.03798">
        <ele>153</ele>
        <time>2026-06-10T08:22:38.225+00:00</time>
      </trkpt>
      <trkpt lat="43.63553" lon="7.03804">
        <ele>153</ele>
        <time>2026-06-10T08:22:43.263+00:00</time>
      </trkpt>
      <trkpt lat="43.6355" lon="7.0381">
        <ele>153</ele>
        <time>2026-06-10T08:22:48.289+00:00</time>
      </trkpt>
      <trkpt lat="43.63549" lon="7.03818">
        <ele>153</ele>
        <time>2026-06-10T08:22:53.266+00:00</time>
      </trkpt>
      <trkpt lat="43.63547" lon="7.03826">
        <ele>157</ele>
        <time>2026-06-10T08:22:57.366+00:00</time>
      </trkpt>
      <trkpt lat="43.63545" lon="7.03833">
        <ele>157</ele>
        <time>2026-06-10T08:23:01.807+00:00</time>
      </trkpt>
      <trkpt lat="43.63541" lon="7.03839">
        <ele>147</ele>
        <time>2026-06-10T08:23:06.365+00:00</time>
      </trkpt>
      <trkpt lat="43.63537" lon="7.03844">
        <ele>147</ele>
        <time>2026-06-10T08:23:11.266+00:00</time>
      </trkpt>
      <trkpt lat="43.63535" lon="7.03844">
        <ele>147</ele>
        <time>2026-06-10T08:23:15.366+00:00</time>
      </trkpt>
      <trkpt lat="43.63533" lon="7.03848">
        <ele>153</ele>
        <time>2026-06-10T08:23:19.665+00:00</time>
      </trkpt>
      <trkpt lat="43.6353" lon="7.03854">
        <ele>153</ele>
        <time>2026-06-10T08:23:24.045+00:00</time>
      </trkpt>
      <trkpt lat="43.63528" lon="7.03859">
        <ele>153</ele>
        <time>2026-06-10T08:23:28.366+00:00</time>
      </trkpt>
      <trkpt lat="43.63525" lon="7.03864">
        <ele>153</ele>
        <time>2026-06-10T08:23:32.546+00:00</time>
      </trkpt>
      <trkpt lat="43.63522" lon="7.03869">
        <ele>153</ele>
        <time>2026-06-10T08:23:36.824+00:00</time>
      </trkpt>
      <trkpt lat="43.63521" lon="7.03876">
        <ele>160</ele>
        <time>2026-06-10T08:23:41.365+00:00</time>
      </trkpt>
      <trkpt lat="43.63518" lon="7.03884">
        <ele>160</ele>
        <time>2026-06-10T08:23:46.048+00:00</time>
      </trkpt>
      <trkpt lat="43.6351" lon="7.03889">
        <ele>150</ele>
        <time>2026-06-10T08:23:50.365+00:00</time>
      </trkpt>
      <trkpt lat="43.63503" lon="7.03891">
        <ele>150</ele>
        <time>2026-06-10T08:23:54.861+00:00</time>
      </trkpt>
      <trkpt lat="43.63499" lon="7.03893">
        <ele>150</ele>
        <time>2026-06-10T08:23:59.289+00:00</time>
      </trkpt>
      <trkpt lat="43.63497" lon="7.03896">
        <ele>150</ele>
        <time>2026-06-10T08:24:03.365+00:00</time>
      </trkpt>
      <trkpt lat="43.63492" lon="7.039">
        <ele>150</ele>
        <time>2026-06-10T08:24:08.366+00:00</time>
      </trkpt>
      <trkpt lat="43.63487" lon="7.03903">
        <ele>158</ele>
        <time>2026-06-10T08:24:12.365+00:00</time>
      </trkpt>
      <trkpt lat="43.63481" lon="7.03906">
        <ele>157</ele>
        <time>2026-06-10T08:24:17.226+00:00</time>
      </trkpt>
      <trkpt lat="43.63476" lon="7.03905">
        <ele>157</ele>
        <time>2026-06-10T08:24:21.270+00:00</time>
      </trkpt>
      <trkpt lat="43.63471" lon="7.03906">
        <ele>157</ele>
        <time>2026-06-10T08:24:25.366+00:00</time>
      </trkpt>
      <trkpt lat="43.63466" lon="7.03909">
        <ele>157</ele>
        <time>2026-06-10T08:24:29.375+00:00</time>
      </trkpt>
      <trkpt lat="43.63463" lon="7.03911">
        <ele>157</ele>
        <time>2026-06-10T08:24:34.365+00:00</time>
      </trkpt>
      <trkpt lat="43.63459" lon="7.03913">
        <ele>157</ele>
        <time>2026-06-10T08:24:39.366+00:00</time>
      </trkpt>
      <trkpt lat="43.63456" lon="7.03914">
        <ele>153</ele>
        <time>2026-06-10T08:24:44.366+00:00</time>
      </trkpt>
      <trkpt lat="43.63451" lon="7.03914">
        <ele>153</ele>
        <time>2026-06-10T08:24:49.366+00:00</time>
      </trkpt>
      <trkpt lat="43.63446" lon="7.03913">
        <ele>153</ele>
        <time>2026-06-10T08:24:54.365+00:00</time>
      </trkpt>
      <trkpt lat="43.63441" lon="7.03912">
        <ele>153</ele>
        <time>2026-06-10T08:24:59.366+00:00</time>
      </trkpt>
      <trkpt lat="43.63436" lon="7.03909">
        <ele>153</ele>
        <time>2026-06-10T08:25:04.365+00:00</time>
      </trkpt>
      <trkpt lat="43.6343" lon="7.03907">
        <ele>148</ele>
        <time>2026-06-10T08:25:09.366+00:00</time>
      </trkpt>
      <trkpt lat="43.63424" lon="7.03907">
        <ele>148</ele>
        <time>2026-06-10T08:25:14.366+00:00</time>
      </trkpt>
      <trkpt lat="43.63419" lon="7.03909">
        <ele>148</ele>
        <time>2026-06-10T08:25:19.366+00:00</time>
      </trkpt>
      <trkpt lat="43.63415" lon="7.03912">
        <ele>148</ele>
        <time>2026-06-10T08:25:23.365+00:00</time>
      </trkpt>
      <trkpt lat="43.63411" lon="7.03917">
        <ele>148</ele>
        <time>2026-06-10T08:25:28.366+00:00</time>
      </trkpt>
      <trkpt lat="43.63408" lon="7.03921">
        <ele>148</ele>
        <time>2026-06-10T08:25:32.366+00:00</time>
      </trkpt>
      <trkpt lat="43.63404" lon="7.03926">
        <ele>148</ele>
        <time>2026-06-10T08:25:37.366+00:00</time>
      </trkpt>
      <trkpt lat="43.63401" lon="7.0393">
        <ele>145</ele>
        <time>2026-06-10T08:25:41.366+00:00</time>
      </trkpt>
      <trkpt lat="43.63398" lon="7.03936">
        <ele>145</ele>
        <time>2026-06-10T08:25:46.366+00:00</time>
      </trkpt>
      <trkpt lat="43.63396" lon="7.03942">
        <ele>145</ele>
        <time>2026-06-10T08:25:51.366+00:00</time>
      </trkpt>
      <trkpt lat="43.63394" lon="7.0395">
        <ele>145</ele>
        <time>2026-06-10T08:25:56.366+00:00</time>
      </trkpt>
      <trkpt lat="43.63393" lon="7.03958">
        <ele>145</ele>
        <time>2026-06-10T08:26:01.365+00:00</time>
      </trkpt>
      <trkpt lat="43.63393" lon="7.03967">
        <ele>144</ele>
        <time>2026-06-10T08:26:06.366+00:00</time>
      </trkpt>
      <trkpt lat="43.63393" lon="7.03974">
        <ele>144</ele>
        <time>2026-06-10T08:26:10.365+00:00</time>
      </trkpt>
      <trkpt lat="43.63393" lon="7.03981">
        <ele>144</ele>
        <time>2026-06-10T08:26:14.702+00:00</time>
      </trkpt>
      <trkpt lat="43.63394" lon="7.03988">
        <ele>142</ele>
        <time>2026-06-10T08:26:19.062+00:00</time>
      </trkpt>
      <trkpt lat="43.63393" lon="7.03995">
        <ele>142</ele>
        <time>2026-06-10T08:26:23.365+00:00</time>
      </trkpt>
      <trkpt lat="43.63392" lon="7.04002">
        <ele>142</ele>
        <time>2026-06-10T08:26:27.365+00:00</time>
      </trkpt>
      <trkpt lat="43.63391" lon="7.04009">
        <ele>142</ele>
        <time>2026-06-10T08:26:31.921+00:00</time>
      </trkpt>
      <trkpt lat="43.63392" lon="7.04015">
        <ele>142</ele>
        <time>2026-06-10T08:26:36.261+00:00</time>
      </trkpt>
      <trkpt lat="43.63392" lon="7.04021">
        <ele>142</ele>
        <time>2026-06-10T08:26:40.365+00:00</time>
      </trkpt>
      <trkpt lat="43.63392" lon="7.04029">
        <ele>142</ele>
        <time>2026-06-10T08:26:45.132+00:00</time>
      </trkpt>
      <trkpt lat="43.63393" lon="7.04038">
        <ele>142</ele>
        <time>2026-06-10T08:26:50.249+00:00</time>
      </trkpt>
      <trkpt lat="43.63393" lon="7.04045">
        <ele>140</ele>
        <time>2026-06-10T08:26:54.365+00:00</time>
      </trkpt>
      <trkpt lat="43.63396" lon="7.04053">
        <ele>140</ele>
        <time>2026-06-10T08:26:59.365+00:00</time>
      </trkpt>
      <trkpt lat="43.63399" lon="7.04058">
        <ele>140</ele>
        <time>2026-06-10T08:27:03.665+00:00</time>
      </trkpt>
      <trkpt lat="43.63404" lon="7.04063">
        <ele>146</ele>
        <time>2026-06-10T08:27:08.365+00:00</time>
      </trkpt>
      <trkpt lat="43.63408" lon="7.04066">
        <ele>146</ele>
        <time>2026-06-10T08:27:12.900+00:00</time>
      </trkpt>
      <trkpt lat="43.63413" lon="7.04069">
        <ele>146</ele>
        <time>2026-06-10T08:27:17.066+00:00</time>
      </trkpt>
      <trkpt lat="43.63417" lon="7.04072">
        <ele>142</ele>
        <time>2026-06-10T08:27:21.138+00:00</time>
      </trkpt>
      <trkpt lat="43.63421" lon="7.04074">
        <ele>142</ele>
        <time>2026-06-10T08:27:25.364+00:00</time>
      </trkpt>
      <trkpt lat="43.63425" lon="7.04078">
        <ele>142</ele>
        <time>2026-06-10T08:27:30.243+00:00</time>
      </trkpt>
      <trkpt lat="43.63429" lon="7.04082">
        <ele>142</ele>
        <time>2026-06-10T08:27:35.267+00:00</time>
      </trkpt>
      <trkpt lat="43.63433" lon="7.04086">
        <ele>147</ele>
        <time>2026-06-10T08:27:39.364+00:00</time>
      </trkpt>
      <trkpt lat="43.63437" lon="7.04091">
        <ele>147</ele>
        <time>2026-06-10T08:27:43.611+00:00</time>
      </trkpt>
      <trkpt lat="43.63441" lon="7.04097">
        <ele>147</ele>
        <time>2026-06-10T08:27:48.248+00:00</time>
      </trkpt>
      <trkpt lat="43.63444" lon="7.04104">
        <ele>143</ele>
        <time>2026-06-10T08:27:52.365+00:00</time>
      </trkpt>
      <trkpt lat="43.63447" lon="7.04111">
        <ele>143</ele>
        <time>2026-06-10T08:27:57.088+00:00</time>
      </trkpt>
      <trkpt lat="43.6345" lon="7.04118">
        <ele>143</ele>
        <time>2026-06-10T08:28:01.761+00:00</time>
      </trkpt>
      <trkpt lat="43.63454" lon="7.04123">
        <ele>143</ele>
        <time>2026-06-10T08:28:06.266+00:00</time>
      </trkpt>
      <trkpt lat="43.63458" lon="7.04128">
        <ele>139</ele>
        <time>2026-06-10T08:28:10.346+00:00</time>
      </trkpt>
      <trkpt lat="43.63462" lon="7.04132">
        <ele>145</ele>
        <time>2026-06-10T08:28:14.365+00:00</time>
      </trkpt>
      <trkpt lat="43.63466" lon="7.04137">
        <ele>145</ele>
        <time>2026-06-10T08:28:19.186+00:00</time>
      </trkpt>
      <trkpt lat="43.63471" lon="7.04141">
        <ele>145</ele>
        <time>2026-06-10T08:28:23.365+00:00</time>
      </trkpt>
      <trkpt lat="43.63474" lon="7.04145">
        <ele>145</ele>
        <time>2026-06-10T08:28:27.607+00:00</time>
      </trkpt>
      <trkpt lat="43.63479" lon="7.04149">
        <ele>145</ele>
        <time>2026-06-10T08:28:32.365+00:00</time>
      </trkpt>
      <trkpt lat="43.63483" lon="7.04155">
        <ele>141</ele>
        <time>2026-06-10T08:28:37.364+00:00</time>
      </trkpt>
      <trkpt lat="43.63487" lon="7.0416">
        <ele>144</ele>
        <time>2026-06-10T08:28:41.702+00:00</time>
      </trkpt>
      <trkpt lat="43.63491" lon="7.04164">
        <ele>144</ele>
        <time>2026-06-10T08:28:46.301+00:00</time>
      </trkpt>
      <trkpt lat="43.63495" lon="7.04168">
        <ele>144</ele>
        <time>2026-06-10T08:28:50.368+00:00</time>
      </trkpt>
      <trkpt lat="43.63498" lon="7.04173">
        <ele>144</ele>
        <time>2026-06-10T08:28:55.370+00:00</time>
      </trkpt>
      <trkpt lat="43.63501" lon="7.04179">
        <ele>144</ele>
        <time>2026-06-10T08:29:00.148+00:00</time>
      </trkpt>
      <trkpt lat="43.63504" lon="7.04184">
        <ele>141</ele>
        <time>2026-06-10T08:29:04.765+00:00</time>
      </trkpt>
      <trkpt lat="43.63507" lon="7.04189">
        <ele>141</ele>
        <time>2026-06-10T08:29:09.050+00:00</time>
      </trkpt>
      <trkpt lat="43.63511" lon="7.04193">
        <ele>141</ele>
        <time>2026-06-10T08:29:13.365+00:00</time>
      </trkpt>
      <trkpt lat="43.63516" lon="7.04198">
        <ele>144</ele>
        <time>2026-06-10T08:29:18.365+00:00</time>
      </trkpt>
      <trkpt lat="43.63522" lon="7.042">
        <ele>144</ele>
        <time>2026-06-10T08:29:23.365+00:00</time>
      </trkpt>
      <trkpt lat="43.63527" lon="7.04202">
        <ele>144</ele>
        <time>2026-06-10T08:29:28.308+00:00</time>
      </trkpt>
      <trkpt lat="43.63531" lon="7.04206">
        <ele>144</ele>
        <time>2026-06-10T08:29:32.365+00:00</time>
      </trkpt>
      <trkpt lat="43.63536" lon="7.04209">
        <ele>141</ele>
        <time>2026-06-10T08:29:36.720+00:00</time>
      </trkpt>
      <trkpt lat="43.63541" lon="7.0421">
        <ele>141</ele>
        <time>2026-06-10T08:29:40.805+00:00</time>
      </trkpt>
      <trkpt lat="43.63547" lon="7.04211">
        <ele>143</ele>
        <time>2026-06-10T08:29:45.364+00:00</time>
      </trkpt>
      <trkpt lat="43.63553" lon="7.04209">
        <ele>143</ele>
        <time>2026-06-10T08:29:50.363+00:00</time>
      </trkpt>
      <trkpt lat="43.63559" lon="7.04206">
        <ele>146</ele>
        <time>2026-06-10T08:29:55.049+00:00</time>
      </trkpt>
      <trkpt lat="43.63566" lon="7.04205">
        <ele>146</ele>
        <time>2026-06-10T08:29:59.165+00:00</time>
      </trkpt>
      <trkpt lat="43.63573" lon="7.042">
        <ele>149</ele>
        <time>2026-06-10T08:30:04.382+00:00</time>
      </trkpt>
      <trkpt lat="43.63578" lon="7.042">
        <ele>149</ele>
        <time>2026-06-10T08:30:08.704+00:00</time>
      </trkpt>
      <trkpt lat="43.6358" lon="7.04201">
        <ele>149</ele>
        <time>2026-06-10T08:30:13.363+00:00</time>
      </trkpt>
      <trkpt lat="43.63584" lon="7.04205">
        <ele>149</ele>
        <time>2026-06-10T08:30:17.384+00:00</time>
      </trkpt>
      <trkpt lat="43.63589" lon="7.0421">
        <ele>145</ele>
        <time>2026-06-10T08:30:21.887+00:00</time>
      </trkpt>
      <trkpt lat="43.63593" lon="7.04214">
        <ele>145</ele>
        <time>2026-06-10T08:30:26.364+00:00</time>
      </trkpt>
      <trkpt lat="43.63599" lon="7.04219">
        <ele>147</ele>
        <time>2026-06-10T08:30:31.144+00:00</time>
      </trkpt>
      <trkpt lat="43.63605" lon="7.04222">
        <ele>147</ele>
        <time>2026-06-10T08:30:35.368+00:00</time>
      </trkpt>
      <trkpt lat="43.63611" lon="7.04224">
        <ele>147</ele>
        <time>2026-06-10T08:30:40.102+00:00</time>
      </trkpt>
      <trkpt lat="43.63615" lon="7.04227">
        <ele>147</ele>
        <time>2026-06-10T08:30:44.322+00:00</time>
      </trkpt>
      <trkpt lat="43.63619" lon="7.04226">
        <ele>147</ele>
        <time>2026-06-10T08:30:48.364+00:00</time>
      </trkpt>
      <trkpt lat="43.63625" lon="7.04226">
        <ele>147</ele>
        <time>2026-06-10T08:30:53.364+00:00</time>
      </trkpt>
      <trkpt lat="43.63631" lon="7.04228">
        <ele>147</ele>
        <time>2026-06-10T08:30:58.369+00:00</time>
      </trkpt>
      <trkpt lat="43.63636" lon="7.04236">
        <ele>147</ele>
        <time>2026-06-10T08:31:03.191+00:00</time>
      </trkpt>
      <trkpt lat="43.63639" lon="7.04242">
        <ele>144</ele>
        <time>2026-06-10T08:31:07.366+00:00</time>
      </trkpt>
      <trkpt lat="43.63644" lon="7.04247">
        <ele>144</ele>
        <time>2026-06-10T08:31:11.985+00:00</time>
      </trkpt>
      <trkpt lat="43.63647" lon="7.04252">
        <ele>144</ele>
        <time>2026-06-10T08:31:16.005+00:00</time>
      </trkpt>
      <trkpt lat="43.63651" lon="7.04258">
        <ele>144</ele>
        <time>2026-06-10T08:31:20.028+00:00</time>
      </trkpt>
      <trkpt lat="43.63657" lon="7.04264">
        <ele>143</ele>
        <time>2026-06-10T08:31:25.088+00:00</time>
      </trkpt>
      <trkpt lat="43.63662" lon="7.04268">
        <ele>143</ele>
        <time>2026-06-10T08:31:29.363+00:00</time>
      </trkpt>
      <trkpt lat="43.63668" lon="7.0427">
        <ele>143</ele>
        <time>2026-06-10T08:31:33.900+00:00</time>
      </trkpt>
      <trkpt lat="43.63673" lon="7.04272">
        <ele>143</ele>
        <time>2026-06-10T08:31:38.364+00:00</time>
      </trkpt>
      <trkpt lat="43.63679" lon="7.04273">
        <ele>143</ele>
        <time>2026-06-10T08:31:43.364+00:00</time>
      </trkpt>
      <trkpt lat="43.63685" lon="7.04277">
        <ele>146</ele>
        <time>2026-06-10T08:31:48.364+00:00</time>
      </trkpt>
      <trkpt lat="43.63689" lon="7.04282">
        <ele>146</ele>
        <time>2026-06-10T08:31:52.927+00:00</time>
      </trkpt>
      <trkpt lat="43.63693" lon="7.04287">
        <ele>146</ele>
        <time>2026-06-10T08:31:57.364+00:00</time>
      </trkpt>
      <trkpt lat="43.63696" lon="7.04294">
        <ele>145</ele>
        <time>2026-06-10T08:32:02.364+00:00</time>
      </trkpt>
      <trkpt lat="43.63697" lon="7.04301">
        <ele>145</ele>
        <time>2026-06-10T08:32:06.486+00:00</time>
      </trkpt>
      <trkpt lat="43.63698" lon="7.04309">
        <ele>145</ele>
        <time>2026-06-10T08:32:10.965+00:00</time>
      </trkpt>
      <trkpt lat="43.63695" lon="7.04316">
        <ele>145</ele>
        <time>2026-06-10T08:32:15.265+00:00</time>
      </trkpt>
      <trkpt lat="43.63694" lon="7.04323">
        <ele>144</ele>
        <time>2026-06-10T08:32:19.364+00:00</time>
      </trkpt>
      <trkpt lat="43.63693" lon="7.04332">
        <ele>144</ele>
        <time>2026-06-10T08:32:24.305+00:00</time>
      </trkpt>
      <trkpt lat="43.63696" lon="7.04336">
        <ele>144</ele>
        <time>2026-06-10T08:32:28.364+00:00</time>
      </trkpt>
      <trkpt lat="43.63695" lon="7.04337">
        <ele>144</ele>
        <time>2026-06-10T08:32:32.985+00:00</time>
      </trkpt>
      <trkpt lat="43.63696" lon="7.04346">
        <ele>144</ele>
        <time>2026-06-10T08:32:37.364+00:00</time>
      </trkpt>
      <trkpt lat="43.63696" lon="7.04353">
        <ele>143</ele>
        <time>2026-06-10T08:32:41.665+00:00</time>
      </trkpt>
      <trkpt lat="43.63697" lon="7.0436">
        <ele>143</ele>
        <time>2026-06-10T08:32:46.123+00:00</time>
      </trkpt>
      <trkpt lat="43.63699" lon="7.04366">
        <ele>143</ele>
        <time>2026-06-10T08:32:50.363+00:00</time>
      </trkpt>
      <trkpt lat="43.63701" lon="7.04374">
        <ele>143</ele>
        <time>2026-06-10T08:32:54.771+00:00</time>
      </trkpt>
      <trkpt lat="43.63703" lon="7.04381">
        <ele>143</ele>
        <time>2026-06-10T08:32:59.243+00:00</time>
      </trkpt>
      <trkpt lat="43.63704" lon="7.04388">
        <ele>143</ele>
        <time>2026-06-10T08:33:03.369+00:00</time>
      </trkpt>
      <trkpt lat="43.63706" lon="7.04395">
        <ele>143</ele>
        <time>2026-06-10T08:33:07.763+00:00</time>
      </trkpt>
      <trkpt lat="43.63708" lon="7.04401">
        <ele>143</ele>
        <time>2026-06-10T08:33:11.965+00:00</time>
      </trkpt>
      <trkpt lat="43.6371" lon="7.04408">
        <ele>141</ele>
        <time>2026-06-10T08:33:16.363+00:00</time>
      </trkpt>
      <trkpt lat="43.63712" lon="7.04413">
        <ele>141</ele>
        <time>2026-06-10T08:33:20.362+00:00</time>
      </trkpt>
      <trkpt lat="43.63717" lon="7.04417">
        <ele>141</ele>
        <time>2026-06-10T08:33:25.085+00:00</time>
      </trkpt>
      <trkpt lat="43.63721" lon="7.04414">
        <ele>141</ele>
        <time>2026-06-10T08:33:29.146+00:00</time>
      </trkpt>
      <trkpt lat="43.63724" lon="7.04417">
        <ele>141</ele>
        <time>2026-06-10T08:33:33.289+00:00</time>
      </trkpt>
      <trkpt lat="43.63724" lon="7.04427">
        <ele>141</ele>
        <time>2026-06-10T08:33:38.246+00:00</time>
      </trkpt>
      <trkpt lat="43.63721" lon="7.04433">
        <ele>141</ele>
        <time>2026-06-10T08:33:42.723+00:00</time>
      </trkpt>
      <trkpt lat="43.63718" lon="7.04438">
        <ele>141</ele>
        <time>2026-06-10T08:33:47.343+00:00</time>
      </trkpt>
      <trkpt lat="43.63718" lon="7.0444">
        <ele>141</ele>
        <time>2026-06-10T08:33:51.363+00:00</time>
      </trkpt>
      <trkpt lat="43.63716" lon="7.0444">
        <ele>141</ele>
        <time>2026-06-10T08:33:55.363+00:00</time>
      </trkpt>
      <trkpt lat="43.63711" lon="7.04445">
        <ele>141</ele>
        <time>2026-06-10T08:34:00.322+00:00</time>
      </trkpt>
      <trkpt lat="43.63707" lon="7.04449">
        <ele>140</ele>
        <time>2026-06-10T08:34:04.365+00:00</time>
      </trkpt>
      <trkpt lat="43.63704" lon="7.04455">
        <ele>140</ele>
        <time>2026-06-10T08:34:09.182+00:00</time>
      </trkpt>
      <trkpt lat="43.63705" lon="7.04458">
        <ele>140</ele>
        <time>2026-06-10T08:34:13.368+00:00</time>
      </trkpt>
      <trkpt lat="43.63706" lon="7.04465">
        <ele>139</ele>
        <time>2026-06-10T08:34:17.645+00:00</time>
      </trkpt>
      <trkpt lat="43.63709" lon="7.0447">
        <ele>139</ele>
        <time>2026-06-10T08:34:21.864+00:00</time>
      </trkpt>
      <trkpt lat="43.63713" lon="7.04476">
        <ele>139</ele>
        <time>2026-06-10T08:34:26.143+00:00</time>
      </trkpt>
      <trkpt lat="43.63715" lon="7.04483">
        <ele>139</ele>
        <time>2026-06-10T08:34:30.363+00:00</time>
      </trkpt>
      <trkpt lat="43.63716" lon="7.0449">
        <ele>137</ele>
        <time>2026-06-10T08:34:34.983+00:00</time>
      </trkpt>
      <trkpt lat="43.63713" lon="7.04495">
        <ele>137</ele>
        <time>2026-06-10T08:34:39.363+00:00</time>
      </trkpt>
      <trkpt lat="43.63708" lon="7.04498">
        <ele>136</ele>
        <time>2026-06-10T08:34:44.363+00:00</time>
      </trkpt>
      <trkpt lat="43.63704" lon="7.04501">
        <ele>136</ele>
        <time>2026-06-10T08:34:48.582+00:00</time>
      </trkpt>
      <trkpt lat="43.637" lon="7.04503">
        <ele>136</ele>
        <time>2026-06-10T08:34:52.624+00:00</time>
      </trkpt>
      <trkpt lat="43.63696" lon="7.04508">
        <ele>136</ele>
        <time>2026-06-10T08:34:57.363+00:00</time>
      </trkpt>
      <trkpt lat="43.63693" lon="7.04512">
        <ele>136</ele>
        <time>2026-06-10T08:35:01.682+00:00</time>
      </trkpt>
      <trkpt lat="43.63692" lon="7.0452">
        <ele>135</ele>
        <time>2026-06-10T08:35:06.227+00:00</time>
      </trkpt>
      <trkpt lat="43.63693" lon="7.04527">
        <ele>135</ele>
        <time>2026-06-10T08:35:10.363+00:00</time>
      </trkpt>
      <trkpt lat="43.63694" lon="7.04534">
        <ele>135</ele>
        <time>2026-06-10T08:35:15.209+00:00</time>
      </trkpt>
      <trkpt lat="43.63696" lon="7.0454">
        <ele>135</ele>
        <time>2026-06-10T08:35:19.361+00:00</time>
      </trkpt>
      <trkpt lat="43.63695" lon="7.04546">
        <ele>133</ele>
        <time>2026-06-10T08:35:23.368+00:00</time>
      </trkpt>
      <trkpt lat="43.63695" lon="7.04554">
        <ele>133</ele>
        <time>2026-06-10T08:35:27.543+00:00</time>
      </trkpt>
      <trkpt lat="43.63698" lon="7.0456">
        <ele>133</ele>
        <time>2026-06-10T08:35:32.046+00:00</time>
      </trkpt>
      <trkpt lat="43.637" lon="7.04567">
        <ele>133</ele>
        <time>2026-06-10T08:35:36.504+00:00</time>
      </trkpt>
      <trkpt lat="43.63701" lon="7.04574">
        <ele>132</ele>
        <time>2026-06-10T08:35:40.842+00:00</time>
      </trkpt>
      <trkpt lat="43.63703" lon="7.0458">
        <ele>132</ele>
        <time>2026-06-10T08:35:45.004+00:00</time>
      </trkpt>
      <trkpt lat="43.63705" lon="7.04585">
        <ele>132</ele>
        <time>2026-06-10T08:35:49.367+00:00</time>
      </trkpt>
      <trkpt lat="43.63709" lon="7.04589">
        <ele>133</ele>
        <time>2026-06-10T08:35:54.063+00:00</time>
      </trkpt>
      <trkpt lat="43.63711" lon="7.04597">
        <ele>133</ele>
        <time>2026-06-10T08:35:58.804+00:00</time>
      </trkpt>
      <trkpt lat="43.63709" lon="7.04603">
        <ele>131</ele>
        <time>2026-06-10T08:36:03.242+00:00</time>
      </trkpt>
      <trkpt lat="43.63708" lon="7.04611">
        <ele>132</ele>
        <time>2026-06-10T08:36:08.207+00:00</time>
      </trkpt>
      <trkpt lat="43.63704" lon="7.04616">
        <ele>132</ele>
        <time>2026-06-10T08:36:12.361+00:00</time>
      </trkpt>
      <trkpt lat="43.63699" lon="7.04621">
        <ele>132</ele>
        <time>2026-06-10T08:36:17.309+00:00</time>
      </trkpt>
      <trkpt lat="43.63695" lon="7.04625">
        <ele>129</ele>
        <time>2026-06-10T08:36:21.547+00:00</time>
      </trkpt>
      <trkpt lat="43.63691" lon="7.0463">
        <ele>129</ele>
        <time>2026-06-10T08:36:25.730+00:00</time>
      </trkpt>
      <trkpt lat="43.63688" lon="7.04637">
        <ele>129</ele>
        <time>2026-06-10T08:36:29.969+00:00</time>
      </trkpt>
      <trkpt lat="43.63685" lon="7.04643">
        <ele>129</ele>
        <time>2026-06-10T08:36:34.120+00:00</time>
      </trkpt>
      <trkpt lat="43.63682" lon="7.0465">
        <ele>129</ele>
        <time>2026-06-10T08:36:38.503+00:00</time>
      </trkpt>
      <trkpt lat="43.63679" lon="7.04656">
        <ele>126</ele>
        <time>2026-06-10T08:36:42.781+00:00</time>
      </trkpt>
      <trkpt lat="43.63675" lon="7.04659">
        <ele>126</ele>
        <time>2026-06-10T08:36:46.982+00:00</time>
      </trkpt>
      <trkpt lat="43.6367" lon="7.04661">
        <ele>126</ele>
        <time>2026-06-10T08:36:51.222+00:00</time>
      </trkpt>
      <trkpt lat="43.63666" lon="7.04665">
        <ele>126</ele>
        <time>2026-06-10T08:36:55.362+00:00</time>
      </trkpt>
      <trkpt lat="43.63663" lon="7.04668">
        <ele>126</ele>
        <time>2026-06-10T08:36:59.726+00:00</time>
      </trkpt>
      <trkpt lat="43.63659" lon="7.04673">
        <ele>126</ele>
        <time>2026-06-10T08:37:04.189+00:00</time>
      </trkpt>
      <trkpt lat="43.63657" lon="7.04674">
        <ele>126</ele>
        <time>2026-06-10T08:37:08.362+00:00</time>
      </trkpt>
      <trkpt lat="43.63655" lon="7.04678">
        <ele>126</ele>
        <time>2026-06-10T08:37:12.361+00:00</time>
      </trkpt>
      <trkpt lat="43.63653" lon="7.0468">
        <ele>126</ele>
        <time>2026-06-10T08:37:17.105+00:00</time>
      </trkpt>
      <trkpt lat="43.63649" lon="7.04684">
        <ele>122</ele>
        <time>2026-06-10T08:37:21.485+00:00</time>
      </trkpt>
      <trkpt lat="43.63646" lon="7.04689">
        <ele>122</ele>
        <time>2026-06-10T08:37:25.866+00:00</time>
      </trkpt>
      <trkpt lat="43.63641" lon="7.04696">
        <ele>122</ele>
        <time>2026-06-10T08:37:30.362+00:00</time>
      </trkpt>
      <trkpt lat="43.63634" lon="7.04701">
        <ele>122</ele>
        <time>2026-06-10T08:37:34.944+00:00</time>
      </trkpt>
      <trkpt lat="43.63629" lon="7.04701">
        <ele>122</ele>
        <time>2026-06-10T08:37:39.105+00:00</time>
      </trkpt>
      <trkpt lat="43.63622" lon="7.047">
        <ele>124</ele>
        <time>2026-06-10T08:37:44.042+00:00</time>
      </trkpt>
      <trkpt lat="43.6362" lon="7.04705">
        <ele>124</ele>
        <time>2026-06-10T08:37:49.130+00:00</time>
      </trkpt>
      <trkpt lat="43.63617" lon="7.04712">
        <ele>120</ele>
        <time>2026-06-10T08:37:53.362+00:00</time>
      </trkpt>
      <trkpt lat="43.63612" lon="7.04718">
        <ele>120</ele>
        <time>2026-06-10T08:37:57.776+00:00</time>
      </trkpt>
      <trkpt lat="43.63608" lon="7.04723">
        <ele>120</ele>
        <time>2026-06-10T08:38:02.230+00:00</time>
      </trkpt>
      <trkpt lat="43.63601" lon="7.04723">
        <ele>120</ele>
        <time>2026-06-10T08:38:07.233+00:00</time>
      </trkpt>
      <trkpt lat="43.63595" lon="7.04724">
        <ele>120</ele>
        <time>2026-06-10T08:38:11.986+00:00</time>
      </trkpt>
      <trkpt lat="43.63593" lon="7.04734">
        <ele>120</ele>
        <time>2026-06-10T08:38:16.245+00:00</time>
      </trkpt>
      <trkpt lat="43.63593" lon="7.04743">
        <ele>118</ele>
        <time>2026-06-10T08:38:20.362+00:00</time>
      </trkpt>
      <trkpt lat="43.63592" lon="7.0475">
        <ele>118</ele>
        <time>2026-06-10T08:38:24.806+00:00</time>
      </trkpt>
      <trkpt lat="43.63592" lon="7.04756">
        <ele>118</ele>
        <time>2026-06-10T08:38:28.888+00:00</time>
      </trkpt>
      <trkpt lat="43.6359" lon="7.04762">
        <ele>118</ele>
        <time>2026-06-10T08:38:33.028+00:00</time>
      </trkpt>
      <trkpt lat="43.63587" lon="7.04766">
        <ele>114</ele>
        <time>2026-06-10T08:38:37.365+00:00</time>
      </trkpt>
      <trkpt lat="43.63585" lon="7.04771">
        <ele>114</ele>
        <time>2026-06-10T08:38:42.028+00:00</time>
      </trkpt>
      <trkpt lat="43.63582" lon="7.04776">
        <ele>114</ele>
        <time>2026-06-10T08:38:46.050+00:00</time>
      </trkpt>
      <trkpt lat="43.63581" lon="7.04783">
        <ele>114</ele>
        <time>2026-06-10T08:38:50.361+00:00</time>
      </trkpt>
      <trkpt lat="43.63575" lon="7.04789">
        <ele>114</ele>
        <time>2026-06-10T08:38:55.236+00:00</time>
      </trkpt>
      <trkpt lat="43.63574" lon="7.04796">
        <ele>114</ele>
        <time>2026-06-10T08:38:59.361+00:00</time>
      </trkpt>
      <trkpt lat="43.63572" lon="7.04803">
        <ele>114</ele>
        <time>2026-06-10T08:39:03.590+00:00</time>
      </trkpt>
      <trkpt lat="43.6357" lon="7.04809">
        <ele>114</ele>
        <time>2026-06-10T08:39:07.681+00:00</time>
      </trkpt>
      <trkpt lat="43.63566" lon="7.04815">
        <ele>114</ele>
        <time>2026-06-10T08:39:12.365+00:00</time>
      </trkpt>
      <trkpt lat="43.63564" lon="7.04819">
        <ele>114</ele>
        <time>2026-06-10T08:39:16.361+00:00</time>
      </trkpt>
      <trkpt lat="43.63561" lon="7.04826">
        <ele>113</ele>
        <time>2026-06-10T08:39:20.722+00:00</time>
      </trkpt>
      <trkpt lat="43.63557" lon="7.0483">
        <ele>113</ele>
        <time>2026-06-10T08:39:24.775+00:00</time>
      </trkpt>
      <trkpt lat="43.63554" lon="7.04834">
        <ele>113</ele>
        <time>2026-06-10T08:39:28.903+00:00</time>
      </trkpt>
      <trkpt lat="43.63551" lon="7.04839">
        <ele>113</ele>
        <time>2026-06-10T08:39:33.045+00:00</time>
      </trkpt>
      <trkpt lat="43.63548" lon="7.04845">
        <ele>113</ele>
        <time>2026-06-10T08:39:37.086+00:00</time>
      </trkpt>
      <trkpt lat="43.63544" lon="7.04851">
        <ele>110</ele>
        <time>2026-06-10T08:39:41.361+00:00</time>
      </trkpt>
      <trkpt lat="43.63541" lon="7.04857">
        <ele>109</ele>
        <time>2026-06-10T08:39:46.066+00:00</time>
      </trkpt>
      <trkpt lat="43.63537" lon="7.0486">
        <ele>109</ele>
        <time>2026-06-10T08:39:50.269+00:00</time>
      </trkpt>
      <trkpt lat="43.63531" lon="7.04863">
        <ele>109</ele>
        <time>2026-06-10T08:39:54.786+00:00</time>
      </trkpt>
      <trkpt lat="43.63528" lon="7.04864">
        <ele>109</ele>
        <time>2026-06-10T08:39:58.949+00:00</time>
      </trkpt>
      <trkpt lat="43.63524" lon="7.04864">
        <ele>109</ele>
        <time>2026-06-10T08:40:03.360+00:00</time>
      </trkpt>
      <trkpt lat="43.63521" lon="7.04865">
        <ele>109</ele>
        <time>2026-06-10T08:40:07.707+00:00</time>
      </trkpt>
      <trkpt lat="43.63518" lon="7.04868">
        <ele>109</ele>
        <time>2026-06-10T08:40:12.207+00:00</time>
      </trkpt>
      <trkpt lat="43.63514" lon="7.04872">
        <ele>109</ele>
        <time>2026-06-10T08:40:16.646+00:00</time>
      </trkpt>
      <trkpt lat="43.63513" lon="7.04877">
        <ele>101</ele>
        <time>2026-06-10T08:40:21.147+00:00</time>
      </trkpt>
      <trkpt lat="43.63511" lon="7.04881">
        <ele>101</ele>
        <time>2026-06-10T08:40:25.361+00:00</time>
      </trkpt>
      <trkpt lat="43.63508" lon="7.04883">
        <ele>101</ele>
        <time>2026-06-10T08:40:29.414+00:00</time>
      </trkpt>
      <trkpt lat="43.63504" lon="7.04887">
        <ele>101</ele>
        <time>2026-06-10T08:40:33.929+00:00</time>
      </trkpt>
      <trkpt lat="43.63503" lon="7.04899">
        <ele>101</ele>
        <time>2026-06-10T08:40:52.360+00:00</time>
      </trkpt>
      <trkpt lat="43.63498" lon="7.04901">
        <ele>101</ele>
        <time>2026-06-10T08:40:56.823+00:00</time>
      </trkpt>
      <trkpt lat="43.63495" lon="7.04905">
        <ele>98</ele>
        <time>2026-06-10T08:41:00.904+00:00</time>
      </trkpt>
      <trkpt lat="43.63494" lon="7.0491">
        <ele>98</ele>
        <time>2026-06-10T08:41:04.906+00:00</time>
      </trkpt>
      <trkpt lat="43.63492" lon="7.04917">
        <ele>98</ele>
        <time>2026-06-10T08:41:09.387+00:00</time>
      </trkpt>
      <trkpt lat="43.63488" lon="7.04921">
        <ele>98</ele>
        <time>2026-06-10T08:41:14.064+00:00</time>
      </trkpt>
      <trkpt lat="43.63484" lon="7.04923">
        <ele>98</ele>
        <time>2026-06-10T08:41:18.360+00:00</time>
      </trkpt>
      <trkpt lat="43.63479" lon="7.04922">
        <ele>98</ele>
        <time>2026-06-10T08:41:22.361+00:00</time>
      </trkpt>
      <trkpt lat="43.63474" lon="7.04919">
        <ele>98</ele>
        <time>2026-06-10T08:41:27.365+00:00</time>
      </trkpt>
      <trkpt lat="43.6347" lon="7.04918">
        <ele>98</ele>
        <time>2026-06-10T08:41:31.361+00:00</time>
      </trkpt>
      <trkpt lat="43.63466" lon="7.04917">
        <ele>98</ele>
        <time>2026-06-10T08:41:36.360+00:00</time>
      </trkpt>
      <trkpt lat="43.6346" lon="7.04918">
        <ele>98</ele>
        <time>2026-06-10T08:41:41.245+00:00</time>
      </trkpt>
      <trkpt lat="43.63453" lon="7.04923">
        <ele>99</ele>
        <time>2026-06-10T08:41:45.361+00:00</time>
      </trkpt>
      <trkpt lat="43.63445" lon="7.04942">
        <ele>99</ele>
        <time>2026-06-10T08:42:04.360+00:00</time>
      </trkpt>
      <trkpt lat="43.63448" lon="7.04947">
        <ele>99</ele>
        <time>2026-06-10T08:42:08.803+00:00</time>
      </trkpt>
      <trkpt lat="43.63445" lon="7.04956">
        <ele>99</ele>
        <time>2026-06-10T08:42:13.084+00:00</time>
      </trkpt>
      <trkpt lat="43.63447" lon="7.04964">
        <ele>101</ele>
        <time>2026-06-10T08:42:17.309+00:00</time>
      </trkpt>
      <trkpt lat="43.63449" lon="7.04972">
        <ele>101</ele>
        <time>2026-06-10T08:42:21.546+00:00</time>
      </trkpt>
      <trkpt lat="43.63449" lon="7.0498">
        <ele>101</ele>
        <time>2026-06-10T08:42:25.887+00:00</time>
      </trkpt>
      <trkpt lat="43.63446" lon="7.04988">
        <ele>103</ele>
        <time>2026-06-10T08:42:30.368+00:00</time>
      </trkpt>
      <trkpt lat="43.63443" lon="7.04997">
        <ele>103</ele>
        <time>2026-06-10T08:42:34.568+00:00</time>
      </trkpt>
      <trkpt lat="43.63442" lon="7.05004">
        <ele>103</ele>
        <time>2026-06-10T08:42:39.084+00:00</time>
      </trkpt>
      <trkpt lat="43.63444" lon="7.05009">
        <ele>103</ele>
        <time>2026-06-10T08:42:43.360+00:00</time>
      </trkpt>
      <trkpt lat="43.63449" lon="7.05013">
        <ele>103</ele>
        <time>2026-06-10T08:42:48.083+00:00</time>
      </trkpt>
      <trkpt lat="43.63449" lon="7.05021">
        <ele>103</ele>
        <time>2026-06-10T08:42:52.360+00:00</time>
      </trkpt>
      <trkpt lat="43.63448" lon="7.05029">
        <ele>103</ele>
        <time>2026-06-10T08:42:57.065+00:00</time>
      </trkpt>
      <trkpt lat="43.63443" lon="7.05024">
        <ele>103</ele>
        <time>2026-06-10T08:43:10.360+00:00</time>
      </trkpt>
      <trkpt lat="43.63439" lon="7.05033">
        <ele>103</ele>
        <time>2026-06-10T08:43:15.349+00:00</time>
      </trkpt>
      <trkpt lat="43.63436" lon="7.0504">
        <ele>103</ele>
        <time>2026-06-10T08:43:20.147+00:00</time>
      </trkpt>
      <trkpt lat="43.63434" lon="7.05045">
        <ele>103</ele>
        <time>2026-06-10T08:43:24.707+00:00</time>
      </trkpt>
      <trkpt lat="43.63432" lon="7.05049">
        <ele>103</ele>
        <time>2026-06-10T08:43:28.927+00:00</time>
      </trkpt>
      <trkpt lat="43.63429" lon="7.05053">
        <ele>111</ele>
        <time>2026-06-10T08:43:33.108+00:00</time>
      </trkpt>
      <trkpt lat="43.63426" lon="7.05055">
        <ele>111</ele>
        <time>2026-06-10T08:43:37.359+00:00</time>
      </trkpt>
      <trkpt lat="43.63424" lon="7.0506">
        <ele>111</ele>
        <time>2026-06-10T08:43:41.360+00:00</time>
      </trkpt>
      <trkpt lat="43.63422" lon="7.05065">
        <ele>111</ele>
        <time>2026-06-10T08:43:45.968+00:00</time>
      </trkpt>
      <trkpt lat="43.63423" lon="7.05071">
        <ele>108</ele>
        <time>2026-06-10T08:43:50.249+00:00</time>
      </trkpt>
      <trkpt lat="43.63419" lon="7.05077">
        <ele>108</ele>
        <time>2026-06-10T08:43:54.282+00:00</time>
      </trkpt>
      <trkpt lat="43.63417" lon="7.05083">
        <ele>108</ele>
        <time>2026-06-10T08:43:58.721+00:00</time>
      </trkpt>
      <trkpt lat="43.63414" lon="7.05087">
        <ele>108</ele>
        <time>2026-06-10T08:44:03.396+00:00</time>
      </trkpt>
      <trkpt lat="43.63407" lon="7.05089">
        <ele>108</ele>
        <time>2026-06-10T08:44:08.188+00:00</time>
      </trkpt>
      <trkpt lat="43.63403" lon="7.05092">
        <ele>108</ele>
        <time>2026-06-10T08:44:12.360+00:00</time>
      </trkpt>
      <trkpt lat="43.63398" lon="7.05096">
        <ele>114</ele>
        <time>2026-06-10T08:44:17.085+00:00</time>
      </trkpt>
      <trkpt lat="43.63394" lon="7.05098">
        <ele>111</ele>
        <time>2026-06-10T08:44:21.147+00:00</time>
      </trkpt>
      <trkpt lat="43.63391" lon="7.051">
        <ele>111</ele>
        <time>2026-06-10T08:44:25.230+00:00</time>
      </trkpt>
      <trkpt lat="43.63389" lon="7.05105">
        <ele>111</ele>
        <time>2026-06-10T08:44:29.359+00:00</time>
      </trkpt>
      <trkpt lat="43.63386" lon="7.05111">
        <ele>111</ele>
        <time>2026-06-10T08:44:33.360+00:00</time>
      </trkpt>
      <trkpt lat="43.6338" lon="7.05115">
        <ele>111</ele>
        <time>2026-06-10T08:44:38.373+00:00</time>
      </trkpt>
      <trkpt lat="43.63379" lon="7.05113">
        <ele>111</ele>
        <time>2026-06-10T08:44:42.947+00:00</time>
      </trkpt>
      <trkpt lat="43.63374" lon="7.05113">
        <ele>113</ele>
        <time>2026-06-10T08:44:46.949+00:00</time>
      </trkpt>
      <trkpt lat="43.63369" lon="7.05115">
        <ele>113</ele>
        <time>2026-06-10T08:44:52.284+00:00</time>
      </trkpt>
      <trkpt lat="43.63364" lon="7.0512">
        <ele>113</ele>
        <time>2026-06-10T08:44:56.360+00:00</time>
      </trkpt>
      <trkpt lat="43.63359" lon="7.05121">
        <ele>113</ele>
        <time>2026-06-10T08:45:01.109+00:00</time>
      </trkpt>
      <trkpt lat="43.63355" lon="7.05121">
        <ele>113</ele>
        <time>2026-06-10T08:45:05.359+00:00</time>
      </trkpt>
      <trkpt lat="43.6335" lon="7.0512">
        <ele>113</ele>
        <time>2026-06-10T08:45:09.889+00:00</time>
      </trkpt>
      <trkpt lat="43.63348" lon="7.05111">
        <ele>113</ele>
        <time>2026-06-10T08:45:15.359+00:00</time>
      </trkpt>
      <trkpt lat="43.63348" lon="7.05104">
        <ele>113</ele>
        <time>2026-06-10T08:45:20.111+00:00</time>
      </trkpt>
      <trkpt lat="43.63348" lon="7.05096">
        <ele>116</ele>
        <time>2026-06-10T08:45:25.246+00:00</time>
      </trkpt>
      <trkpt lat="43.63349" lon="7.05088">
        <ele>116</ele>
        <time>2026-06-10T08:45:30.358+00:00</time>
      </trkpt>
      <trkpt lat="43.6335" lon="7.05083">
        <ele>116</ele>
        <time>2026-06-10T08:45:34.609+00:00</time>
      </trkpt>
      <trkpt lat="43.63352" lon="7.05078">
        <ele>116</ele>
        <time>2026-06-10T08:45:38.623+00:00</time>
      </trkpt>
      <trkpt lat="43.63352" lon="7.05071">
        <ele>116</ele>
        <time>2026-06-10T08:45:43.121+00:00</time>
      </trkpt>
      <trkpt lat="43.63352" lon="7.05065">
        <ele>118</ele>
        <time>2026-06-10T08:45:47.648+00:00</time>
      </trkpt>
      <trkpt lat="43.63352" lon="7.05057">
        <ele>118</ele>
        <time>2026-06-10T08:45:52.070+00:00</time>
      </trkpt>
      <trkpt lat="43.63353" lon="7.05049">
        <ele>118</ele>
        <time>2026-06-10T08:45:56.359+00:00</time>
      </trkpt>
      <trkpt lat="43.63353" lon="7.05042">
        <ele>118</ele>
        <time>2026-06-10T08:46:00.359+00:00</time>
      </trkpt>
      <trkpt lat="43.63354" lon="7.05035">
        <ele>120</ele>
        <time>2026-06-10T08:46:05.210+00:00</time>
      </trkpt>
      <trkpt lat="43.63355" lon="7.05029">
        <ele>120</ele>
        <time>2026-06-10T08:46:09.358+00:00</time>
      </trkpt>
      <trkpt lat="43.63357" lon="7.05024">
        <ele>120</ele>
        <time>2026-06-10T08:46:14.089+00:00</time>
      </trkpt>
      <trkpt lat="43.63356" lon="7.05019">
        <ele>120</ele>
        <time>2026-06-10T08:46:18.129+00:00</time>
      </trkpt>
      <trkpt lat="43.63358" lon="7.05013">
        <ele>121</ele>
        <time>2026-06-10T08:46:22.359+00:00</time>
      </trkpt>
      <trkpt lat="43.6336" lon="7.05004">
        <ele>121</ele>
        <time>2026-06-10T08:46:27.358+00:00</time>
      </trkpt>
      <trkpt lat="43.63362" lon="7.04996">
        <ele>121</ele>
        <time>2026-06-10T08:46:31.359+00:00</time>
      </trkpt>
      <trkpt lat="43.63363" lon="7.04989">
        <ele>121</ele>
        <time>2026-06-10T08:46:35.808+00:00</time>
      </trkpt>
      <trkpt lat="43.63364" lon="7.04982">
        <ele>122</ele>
        <time>2026-06-10T08:46:40.209+00:00</time>
      </trkpt>
      <trkpt lat="43.63365" lon="7.04974">
        <ele>122</ele>
        <time>2026-06-10T08:46:45.186+00:00</time>
      </trkpt>
      <trkpt lat="43.63365" lon="7.04967">
        <ele>122</ele>
        <time>2026-06-10T08:46:50.226+00:00</time>
      </trkpt>
      <trkpt lat="43.63364" lon="7.04959">
        <ele>122</ele>
        <time>2026-06-10T08:46:55.394+00:00</time>
      </trkpt>
      <trkpt lat="43.63364" lon="7.04952">
        <ele>123</ele>
        <time>2026-06-10T08:46:59.993+00:00</time>
      </trkpt>
      <trkpt lat="43.63363" lon="7.04946">
        <ele>123</ele>
        <time>2026-06-10T08:47:04.359+00:00</time>
      </trkpt>
      <trkpt lat="43.63362" lon="7.04939">
        <ele>123</ele>
        <time>2026-06-10T08:47:09.358+00:00</time>
      </trkpt>
      <trkpt lat="43.63359" lon="7.04933">
        <ele>123</ele>
        <time>2026-06-10T08:47:13.783+00:00</time>
      </trkpt>
      <trkpt lat="43.63355" lon="7.04927">
        <ele>121</ele>
        <time>2026-06-10T08:47:18.084+00:00</time>
      </trkpt>
      <trkpt lat="43.63352" lon="7.04923">
        <ele>121</ele>
        <time>2026-06-10T08:47:22.345+00:00</time>
      </trkpt>
      <trkpt lat="43.6335" lon="7.04918">
        <ele>121</ele>
        <time>2026-06-10T08:47:26.345+00:00</time>
      </trkpt>
      <trkpt lat="43.63347" lon="7.04913">
        <ele>121</ele>
        <time>2026-06-10T08:47:30.776+00:00</time>
      </trkpt>
      <trkpt lat="43.63344" lon="7.04907">
        <ele>125</ele>
        <time>2026-06-10T08:47:35.344+00:00</time>
      </trkpt>
      <trkpt lat="43.63342" lon="7.04903">
        <ele>125</ele>
        <time>2026-06-10T08:47:40.005+00:00</time>
      </trkpt>
      <trkpt lat="43.63339" lon="7.04902">
        <ele>126</ele>
        <time>2026-06-10T08:47:44.359+00:00</time>
      </trkpt>
      <trkpt lat="43.63335" lon="7.04901">
        <ele>126</ele>
        <time>2026-06-10T08:47:48.962+00:00</time>
      </trkpt>
      <trkpt lat="43.63331" lon="7.04898">
        <ele>126</ele>
        <time>2026-06-10T08:47:53.358+00:00</time>
      </trkpt>
      <trkpt lat="43.63328" lon="7.04895">
        <ele>126</ele>
        <time>2026-06-10T08:47:57.343+00:00</time>
      </trkpt>
      <trkpt lat="43.63325" lon="7.04889">
        <ele>126</ele>
        <time>2026-06-10T08:48:01.802+00:00</time>
      </trkpt>
      <trkpt lat="43.63323" lon="7.04883">
        <ele>126</ele>
        <time>2026-06-10T08:48:06.302+00:00</time>
      </trkpt>
      <trkpt lat="43.63321" lon="7.04877">
        <ele>126</ele>
        <time>2026-06-10T08:48:10.802+00:00</time>
      </trkpt>
      <trkpt lat="43.6332" lon="7.04871">
        <ele>124</ele>
        <time>2026-06-10T08:48:15.365+00:00</time>
      </trkpt>
      <trkpt lat="43.63318" lon="7.04864">
        <ele>130</ele>
        <time>2026-06-10T08:48:20.358+00:00</time>
      </trkpt>
      <trkpt lat="43.63317" lon="7.04859">
        <ele>130</ele>
        <time>2026-06-10T08:48:25.167+00:00</time>
      </trkpt>
      <trkpt lat="43.63311" lon="7.04854">
        <ele>130</ele>
        <time>2026-06-10T08:48:29.605+00:00</time>
      </trkpt>
      <trkpt lat="43.63307" lon="7.04849">
        <ele>130</ele>
        <time>2026-06-10T08:48:33.983+00:00</time>
      </trkpt>
      <trkpt lat="43.63305" lon="7.04842">
        <ele>130</ele>
        <time>2026-06-10T08:48:38.358+00:00</time>
      </trkpt>
      <trkpt lat="43.63303" lon="7.04834">
        <ele>130</ele>
        <time>2026-06-10T08:48:43.358+00:00</time>
      </trkpt>
      <trkpt lat="43.633" lon="7.04827">
        <ele>130</ele>
        <time>2026-06-10T08:48:48.168+00:00</time>
      </trkpt>
      <trkpt lat="43.63296" lon="7.04825">
        <ele>130</ele>
        <time>2026-06-10T08:48:52.789+00:00</time>
      </trkpt>
      <trkpt lat="43.63296" lon="7.04817">
        <ele>129</ele>
        <time>2026-06-10T08:48:57.206+00:00</time>
      </trkpt>
      <trkpt lat="43.63295" lon="7.04811">
        <ele>129</ele>
        <time>2026-06-10T08:49:01.766+00:00</time>
      </trkpt>
      <trkpt lat="43.63294" lon="7.04806">
        <ele>129</ele>
        <time>2026-06-10T08:49:06.165+00:00</time>
      </trkpt>
      <trkpt lat="43.63293" lon="7.048">
        <ele>129</ele>
        <time>2026-06-10T08:49:10.685+00:00</time>
      </trkpt>
      <trkpt lat="43.63291" lon="7.04795">
        <ele>134</ele>
        <time>2026-06-10T08:49:15.065+00:00</time>
      </trkpt>
      <trkpt lat="43.6329" lon="7.04789">
        <ele>135</ele>
        <time>2026-06-10T08:49:19.358+00:00</time>
      </trkpt>
      <trkpt lat="43.6329" lon="7.04783">
        <ele>135</ele>
        <time>2026-06-10T08:49:23.982+00:00</time>
      </trkpt>
      <trkpt lat="43.63288" lon="7.04777">
        <ele>135</ele>
        <time>2026-06-10T08:49:28.383+00:00</time>
      </trkpt>
      <trkpt lat="43.63287" lon="7.04771">
        <ele>135</ele>
        <time>2026-06-10T08:49:33.357+00:00</time>
      </trkpt>
      <trkpt lat="43.63287" lon="7.04764">
        <ele>135</ele>
        <time>2026-06-10T08:49:37.989+00:00</time>
      </trkpt>
      <trkpt lat="43.63289" lon="7.04758">
        <ele>138</ele>
        <time>2026-06-10T08:49:42.204+00:00</time>
      </trkpt>
      <trkpt lat="43.6329" lon="7.04752">
        <ele>138</ele>
        <time>2026-06-10T08:49:46.384+00:00</time>
      </trkpt>
      <trkpt lat="43.6329" lon="7.04747">
        <ele>138</ele>
        <time>2026-06-10T08:49:51.357+00:00</time>
      </trkpt>
      <trkpt lat="43.6329" lon="7.04741">
        <ele>138</ele>
        <time>2026-06-10T08:49:55.785+00:00</time>
      </trkpt>
      <trkpt lat="43.6329" lon="7.04734">
        <ele>140</ele>
        <time>2026-06-10T08:50:00.246+00:00</time>
      </trkpt>
      <trkpt lat="43.63291" lon="7.04726">
        <ele>140</ele>
        <time>2026-06-10T08:50:05.342+00:00</time>
      </trkpt>
      <trkpt lat="43.63291" lon="7.04718">
        <ele>140</ele>
        <time>2026-06-10T08:50:10.358+00:00</time>
      </trkpt>
      <trkpt lat="43.63291" lon="7.04711">
        <ele>140</ele>
        <time>2026-06-10T08:50:15.365+00:00</time>
      </trkpt>
      <trkpt lat="43.63292" lon="7.04703">
        <ele>138</ele>
        <time>2026-06-10T08:50:20.382+00:00</time>
      </trkpt>
      <trkpt lat="43.63293" lon="7.04697">
        <ele>138</ele>
        <time>2026-06-10T08:50:24.727+00:00</time>
      </trkpt>
      <trkpt lat="43.63294" lon="7.04691">
        <ele>138</ele>
        <time>2026-06-10T08:50:29.101+00:00</time>
      </trkpt>
      <trkpt lat="43.63296" lon="7.04685">
        <ele>138</ele>
        <time>2026-06-10T08:50:33.357+00:00</time>
      </trkpt>
      <trkpt lat="43.63298" lon="7.04678">
        <ele>140</ele>
        <time>2026-06-10T08:50:38.082+00:00</time>
      </trkpt>
      <trkpt lat="43.63299" lon="7.04672">
        <ele>140</ele>
        <time>2026-06-10T08:50:42.358+00:00</time>
      </trkpt>
      <trkpt lat="43.63302" lon="7.04666">
        <ele>140</ele>
        <time>2026-06-10T08:50:47.357+00:00</time>
      </trkpt>
      <trkpt lat="43.63304" lon="7.04657">
        <ele>140</ele>
        <time>2026-06-10T08:50:52.346+00:00</time>
      </trkpt>
      <trkpt lat="43.63306" lon="7.0465">
        <ele>147</ele>
        <time>2026-06-10T08:50:57.223+00:00</time>
      </trkpt>
      <trkpt lat="43.63309" lon="7.04645">
        <ele>147</ele>
        <time>2026-06-10T08:51:01.358+00:00</time>
      </trkpt>
      <trkpt lat="43.63312" lon="7.04638">
        <ele>147</ele>
        <time>2026-06-10T08:51:06.162+00:00</time>
      </trkpt>
      <trkpt lat="43.63312" lon="7.04632">
        <ele>147</ele>
        <time>2026-06-10T08:51:10.182+00:00</time>
      </trkpt>
      <trkpt lat="43.63315" lon="7.04627">
        <ele>147</ele>
        <time>2026-06-10T08:51:14.841+00:00</time>
      </trkpt>
      <trkpt lat="43.63319" lon="7.04623">
        <ele>152</ele>
        <time>2026-06-10T08:51:19.357+00:00</time>
      </trkpt>
      <trkpt lat="43.63324" lon="7.04619">
        <ele>145</ele>
        <time>2026-06-10T08:51:23.357+00:00</time>
      </trkpt>
      <trkpt lat="43.6333" lon="7.04615">
        <ele>145</ele>
        <time>2026-06-10T08:51:28.358+00:00</time>
      </trkpt>
      <trkpt lat="43.63335" lon="7.0461">
        <ele>145</ele>
        <time>2026-06-10T08:51:32.358+00:00</time>
      </trkpt>
      <trkpt lat="43.6334" lon="7.04605">
        <ele>145</ele>
        <time>2026-06-10T08:51:36.948+00:00</time>
      </trkpt>
      <trkpt lat="43.63344" lon="7.04599">
        <ele>145</ele>
        <time>2026-06-10T08:51:41.358+00:00</time>
      </trkpt>
      <trkpt lat="43.63348" lon="7.04591">
        <ele>141</ele>
        <time>2026-06-10T08:51:46.072+00:00</time>
      </trkpt>
      <trkpt lat="43.63352" lon="7.04586">
        <ele>141</ele>
        <time>2026-06-10T08:51:50.208+00:00</time>
      </trkpt>
      <trkpt lat="43.63355" lon="7.04579">
        <ele>141</ele>
        <time>2026-06-10T08:51:54.708+00:00</time>
      </trkpt>
      <trkpt lat="43.63359" lon="7.04575">
        <ele>141</ele>
        <time>2026-06-10T08:51:59.357+00:00</time>
      </trkpt>
      <trkpt lat="43.63359" lon="7.04566">
        <ele>144</ele>
        <time>2026-06-10T08:52:04.084+00:00</time>
      </trkpt>
      <trkpt lat="43.6336" lon="7.04558">
        <ele>144</ele>
        <time>2026-06-10T08:52:09.210+00:00</time>
      </trkpt>
      <trkpt lat="43.63361" lon="7.0455">
        <ele>144</ele>
        <time>2026-06-10T08:52:13.708+00:00</time>
      </trkpt>
      <trkpt lat="43.63362" lon="7.04543">
        <ele>144</ele>
        <time>2026-06-10T08:52:17.840+00:00</time>
      </trkpt>
      <trkpt lat="43.63361" lon="7.04536">
        <ele>145</ele>
        <time>2026-06-10T08:52:22.357+00:00</time>
      </trkpt>
      <trkpt lat="43.63358" lon="7.04527">
        <ele>145</ele>
        <time>2026-06-10T08:52:27.357+00:00</time>
      </trkpt>
      <trkpt lat="43.63359" lon="7.04518">
        <ele>145</ele>
        <time>2026-06-10T08:52:32.357+00:00</time>
      </trkpt>
      <trkpt lat="43.63359" lon="7.04512">
        <ele>146</ele>
        <time>2026-06-10T08:52:36.357+00:00</time>
      </trkpt>
      <trkpt lat="43.63358" lon="7.04504">
        <ele>146</ele>
        <time>2026-06-10T08:52:41.342+00:00</time>
      </trkpt>
      <trkpt lat="43.63355" lon="7.04497">
        <ele>146</ele>
        <time>2026-06-10T08:52:46.373+00:00</time>
      </trkpt>
      <trkpt lat="43.63354" lon="7.0449">
        <ele>146</ele>
        <time>2026-06-10T08:52:51.227+00:00</time>
      </trkpt>
      <trkpt lat="43.63353" lon="7.04483">
        <ele>148</ele>
        <time>2026-06-10T08:52:55.357+00:00</time>
      </trkpt>
      <trkpt lat="43.63352" lon="7.04475">
        <ele>148</ele>
        <time>2026-06-10T08:53:00.370+00:00</time>
      </trkpt>
      <trkpt lat="43.63351" lon="7.04466">
        <ele>148</ele>
        <time>2026-06-10T08:53:05.301+00:00</time>
      </trkpt>
      <trkpt lat="43.63351" lon="7.04459">
        <ele>148</ele>
        <time>2026-06-10T08:53:10.059+00:00</time>
      </trkpt>
      <trkpt lat="43.6335" lon="7.04452">
        <ele>147</ele>
        <time>2026-06-10T08:53:14.356+00:00</time>
      </trkpt>
      <trkpt lat="43.6335" lon="7.04443">
        <ele>147</ele>
        <time>2026-06-10T08:53:19.270+00:00</time>
      </trkpt>
      <trkpt lat="43.63348" lon="7.04436">
        <ele>147</ele>
        <time>2026-06-10T08:53:24.108+00:00</time>
      </trkpt>
      <trkpt lat="43.63346" lon="7.0443">
        <ele>155</ele>
        <time>2026-06-10T08:53:28.167+00:00</time>
      </trkpt>
      <trkpt lat="43.63344" lon="7.04423">
        <ele>155</ele>
        <time>2026-06-10T08:53:32.357+00:00</time>
      </trkpt>
      <trkpt lat="43.63343" lon="7.04416">
        <ele>155</ele>
        <time>2026-06-10T08:53:37.357+00:00</time>
      </trkpt>
      <trkpt lat="43.63341" lon="7.0441">
        <ele>155</ele>
        <time>2026-06-10T08:53:41.356+00:00</time>
      </trkpt>
      <trkpt lat="43.63338" lon="7.04404">
        <ele>155</ele>
        <time>2026-06-10T08:53:46.358+00:00</time>
      </trkpt>
      <trkpt lat="43.63336" lon="7.04396">
        <ele>150</ele>
        <time>2026-06-10T08:53:51.103+00:00</time>
      </trkpt>
      <trkpt lat="43.63332" lon="7.0439">
        <ele>150</ele>
        <time>2026-06-10T08:53:55.357+00:00</time>
      </trkpt>
      <trkpt lat="43.6333" lon="7.04383">
        <ele>150</ele>
        <time>2026-06-10T08:54:00.190+00:00</time>
      </trkpt>
      <trkpt lat="43.63327" lon="7.04377">
        <ele>150</ele>
        <time>2026-06-10T08:54:05.168+00:00</time>
      </trkpt>
      <trkpt lat="43.63323" lon="7.04372">
        <ele>142</ele>
        <time>2026-06-10T08:54:09.357+00:00</time>
      </trkpt>
      <trkpt lat="43.63321" lon="7.0437">
        <ele>142</ele>
        <time>2026-06-10T08:54:13.357+00:00</time>
      </trkpt>
      <trkpt lat="43.63319" lon="7.04369">
        <ele>160</ele>
        <time>2026-06-10T08:54:18.127+00:00</time>
      </trkpt>
      <trkpt lat="43.63319" lon="7.04361">
        <ele>160</ele>
        <time>2026-06-10T08:54:22.356+00:00</time>
      </trkpt>
      <trkpt lat="43.63316" lon="7.04353">
        <ele>160</ele>
        <time>2026-06-10T08:54:26.732+00:00</time>
      </trkpt>
      <trkpt lat="43.63308" lon="7.0435">
        <ele>160</ele>
        <time>2026-06-10T08:54:30.988+00:00</time>
      </trkpt>
      <trkpt lat="43.63303" lon="7.04348">
        <ele>160</ele>
        <time>2026-06-10T08:54:35.068+00:00</time>
      </trkpt>
      <trkpt lat="43.633" lon="7.04345">
        <ele>151</ele>
        <time>2026-06-10T08:54:39.357+00:00</time>
      </trkpt>
      <trkpt lat="43.63297" lon="7.04337">
        <ele>151</ele>
        <time>2026-06-10T08:54:44.357+00:00</time>
      </trkpt>
      <trkpt lat="43.63296" lon="7.04329">
        <ele>151</ele>
        <time>2026-06-10T08:54:48.357+00:00</time>
      </trkpt>
      <trkpt lat="43.63291" lon="7.04327">
        <ele>165</ele>
        <time>2026-06-10T08:54:53.357+00:00</time>
      </trkpt>
      <trkpt lat="43.63288" lon="7.04323">
        <ele>165</ele>
        <time>2026-06-10T08:54:58.356+00:00</time>
      </trkpt>
      <trkpt lat="43.63286" lon="7.04318">
        <ele>156</ele>
        <time>2026-06-10T08:55:02.344+00:00</time>
      </trkpt>
      <trkpt lat="43.6328" lon="7.04315">
        <ele>156</ele>
        <time>2026-06-10T08:55:07.201+00:00</time>
      </trkpt>
      <trkpt lat="43.63279" lon="7.04309">
        <ele>156</ele>
        <time>2026-06-10T08:55:11.889+00:00</time>
      </trkpt>
      <trkpt lat="43.63276" lon="7.04304">
        <ele>156</ele>
        <time>2026-06-10T08:55:16.111+00:00</time>
      </trkpt>
      <trkpt lat="43.63273" lon="7.04298">
        <ele>156</ele>
        <time>2026-06-10T08:55:21.355+00:00</time>
      </trkpt>
      <trkpt lat="43.63269" lon="7.04294">
        <ele>156</ele>
        <time>2026-06-10T08:55:26.356+00:00</time>
      </trkpt>
      <trkpt lat="43.63266" lon="7.04291">
        <ele>147</ele>
        <time>2026-06-10T08:55:31.356+00:00</time>
      </trkpt>
      <trkpt lat="43.63262" lon="7.04286">
        <ele>164</ele>
        <time>2026-06-10T08:55:35.888+00:00</time>
      </trkpt>
      <trkpt lat="43.63258" lon="7.04283">
        <ele>164</ele>
        <time>2026-06-10T08:55:40.356+00:00</time>
      </trkpt>
      <trkpt lat="43.63254" lon="7.04279">
        <ele>164</ele>
        <time>2026-06-10T08:55:44.771+00:00</time>
      </trkpt>
      <trkpt lat="43.63251" lon="7.04275">
        <ele>164</ele>
        <time>2026-06-10T08:55:49.355+00:00</time>
      </trkpt>
      <trkpt lat="43.63248" lon="7.04271">
        <ele>164</ele>
        <time>2026-06-10T08:55:53.356+00:00</time>
      </trkpt>
      <trkpt lat="43.63245" lon="7.04265">
        <ele>164</ele>
        <time>2026-06-10T08:55:58.186+00:00</time>
      </trkpt>
      <trkpt lat="43.63242" lon="7.0426">
        <ele>158</ele>
        <time>2026-06-10T08:56:02.356+00:00</time>
      </trkpt>
      <trkpt lat="43.6324" lon="7.04255">
        <ele>158</ele>
        <time>2026-06-10T08:56:06.356+00:00</time>
      </trkpt>
      <trkpt lat="43.63237" lon="7.04248">
        <ele>158</ele>
        <time>2026-06-10T08:56:11.067+00:00</time>
      </trkpt>
      <trkpt lat="43.63236" lon="7.04243">
        <ele>170</ele>
        <time>2026-06-10T08:56:15.356+00:00</time>
      </trkpt>
      <trkpt lat="43.63235" lon="7.04236">
        <ele>167</ele>
        <time>2026-06-10T08:56:19.807+00:00</time>
      </trkpt>
      <trkpt lat="43.63233" lon="7.04229">
        <ele>167</ele>
        <time>2026-06-10T08:56:24.356+00:00</time>
      </trkpt>
      <trkpt lat="43.63231" lon="7.04223">
        <ele>167</ele>
        <time>2026-06-10T08:56:28.945+00:00</time>
      </trkpt>
      <trkpt lat="43.63227" lon="7.04219">
        <ele>167</ele>
        <time>2026-06-10T08:56:33.356+00:00</time>
      </trkpt>
      <trkpt lat="43.63225" lon="7.04215">
        <ele>167</ele>
        <time>2026-06-10T08:56:37.356+00:00</time>
      </trkpt>
      <trkpt lat="43.63223" lon="7.04211">
        <ele>167</ele>
        <time>2026-06-10T08:56:41.944+00:00</time>
      </trkpt>
      <trkpt lat="43.6322" lon="7.04208">
        <ele>164</ele>
        <time>2026-06-10T08:56:46.356+00:00</time>
      </trkpt>
      <trkpt lat="43.63217" lon="7.04204">
        <ele>164</ele>
        <time>2026-06-10T08:56:51.154+00:00</time>
      </trkpt>
      <trkpt lat="43.63214" lon="7.04198">
        <ele>164</ele>
        <time>2026-06-10T08:56:55.850+00:00</time>
      </trkpt>
      <trkpt lat="43.63212" lon="7.04194">
        <ele>164</ele>
        <time>2026-06-10T08:56:59.985+00:00</time>
      </trkpt>
      <trkpt lat="43.63209" lon="7.04188">
        <ele>164</ele>
        <time>2026-06-10T08:57:05.246+00:00</time>
      </trkpt>
      <trkpt lat="43.63207" lon="7.04182">
        <ele>177</ele>
        <time>2026-06-10T08:57:09.786+00:00</time>
      </trkpt>
      <trkpt lat="43.63205" lon="7.04177">
        <ele>172</ele>
        <time>2026-06-10T08:57:14.264+00:00</time>
      </trkpt>
      <trkpt lat="43.63201" lon="7.04172">
        <ele>172</ele>
        <time>2026-06-10T08:57:19.356+00:00</time>
      </trkpt>
      <trkpt lat="43.63199" lon="7.04167">
        <ele>172</ele>
        <time>2026-06-10T08:57:23.562+00:00</time>
      </trkpt>
      <trkpt lat="43.63196" lon="7.04161">
        <ele>172</ele>
        <time>2026-06-10T08:57:28.229+00:00</time>
      </trkpt>
      <trkpt lat="43.63194" lon="7.04154">
        <ele>172</ele>
        <time>2026-06-10T08:57:33.356+00:00</time>
      </trkpt>
      <trkpt lat="43.63192" lon="7.0415">
        <ele>166</ele>
        <time>2026-06-10T08:57:37.965+00:00</time>
      </trkpt>
      <trkpt lat="43.63189" lon="7.04144">
        <ele>166</ele>
        <time>2026-06-10T08:57:42.356+00:00</time>
      </trkpt>
      <trkpt lat="43.63186" lon="7.04139">
        <ele>166</ele>
        <time>2026-06-10T08:57:46.663+00:00</time>
      </trkpt>
      <trkpt lat="43.63183" lon="7.04134">
        <ele>166</ele>
        <time>2026-06-10T08:57:50.773+00:00</time>
      </trkpt>
      <trkpt lat="43.6318" lon="7.04129">
        <ele>179</ele>
        <time>2026-06-10T08:57:55.304+00:00</time>
      </trkpt>
      <trkpt lat="43.63175" lon="7.04123">
        <ele>172</ele>
        <time>2026-06-10T08:58:00.356+00:00</time>
      </trkpt>
      <trkpt lat="43.63172" lon="7.04117">
        <ele>172</ele>
        <time>2026-06-10T08:58:05.029+00:00</time>
      </trkpt>
      <trkpt lat="43.63169" lon="7.04114">
        <ele>172</ele>
        <time>2026-06-10T08:58:09.356+00:00</time>
      </trkpt>
      <trkpt lat="43.63165" lon="7.04108">
        <ele>172</ele>
        <time>2026-06-10T08:58:14.168+00:00</time>
      </trkpt>
      <trkpt lat="43.63162" lon="7.04103">
        <ele>172</ele>
        <time>2026-06-10T08:58:18.355+00:00</time>
      </trkpt>
      <trkpt lat="43.63158" lon="7.04096">
        <ele>164</ele>
        <time>2026-06-10T08:58:23.359+00:00</time>
      </trkpt>
      <trkpt lat="43.63158" lon="7.0409">
        <ele>164</ele>
        <time>2026-06-10T08:58:27.906+00:00</time>
      </trkpt>
      <trkpt lat="43.63155" lon="7.04086">
        <ele>164</ele>
        <time>2026-06-10T08:58:31.965+00:00</time>
      </trkpt>
      <trkpt lat="43.63151" lon="7.04083">
        <ele>178</ele>
        <time>2026-06-10T08:58:36.355+00:00</time>
      </trkpt>
      <trkpt lat="43.63146" lon="7.04079">
        <ele>178</ele>
        <time>2026-06-10T08:58:41.355+00:00</time>
      </trkpt>
      <trkpt lat="43.63142" lon="7.04075">
        <ele>178</ele>
        <time>2026-06-10T08:58:45.849+00:00</time>
      </trkpt>
      <trkpt lat="43.6314" lon="7.0407">
        <ele>178</ele>
        <time>2026-06-10T08:58:50.355+00:00</time>
      </trkpt>
      <trkpt lat="43.63137" lon="7.04063">
        <ele>170</ele>
        <time>2026-06-10T08:58:55.355+00:00</time>
      </trkpt>
      <trkpt lat="43.63134" lon="7.04058">
        <ele>170</ele>
        <time>2026-06-10T08:58:59.355+00:00</time>
      </trkpt>
      <trkpt lat="43.63132" lon="7.04053">
        <ele>170</ele>
        <time>2026-06-10T08:59:03.374+00:00</time>
      </trkpt>
      <trkpt lat="43.63129" lon="7.04048">
        <ele>170</ele>
        <time>2026-06-10T08:59:07.966+00:00</time>
      </trkpt>
      <trkpt lat="43.63127" lon="7.04043">
        <ele>170</ele>
        <time>2026-06-10T08:59:12.354+00:00</time>
      </trkpt>
      <trkpt lat="43.63124" lon="7.04036">
        <ele>174</ele>
        <time>2026-06-10T08:59:17.355+00:00</time>
      </trkpt>
      <trkpt lat="43.63122" lon="7.04029">
        <ele>174</ele>
        <time>2026-06-10T08:59:22.366+00:00</time>
      </trkpt>
      <trkpt lat="43.63119" lon="7.04022">
        <ele>174</ele>
        <time>2026-06-10T08:59:27.271+00:00</time>
      </trkpt>
      <trkpt lat="43.63116" lon="7.04018">
        <ele>174</ele>
        <time>2026-06-10T08:59:31.355+00:00</time>
      </trkpt>
      <trkpt lat="43.63111" lon="7.04013">
        <ele>168</ele>
        <time>2026-06-10T08:59:36.190+00:00</time>
      </trkpt>
      <trkpt lat="43.63107" lon="7.04008">
        <ele>168</ele>
        <time>2026-06-10T08:59:40.761+00:00</time>
      </trkpt>
      <trkpt lat="43.63104" lon="7.04003">
        <ele>168</ele>
        <time>2026-06-10T08:59:45.192+00:00</time>
      </trkpt>
      <trkpt lat="43.63101" lon="7.03997">
        <ele>168</ele>
        <time>2026-06-10T08:59:49.605+00:00</time>
      </trkpt>
      <trkpt lat="43.63097" lon="7.03994">
        <ele>177</ele>
        <time>2026-06-10T08:59:53.885+00:00</time>
      </trkpt>
      <trkpt lat="43.63094" lon="7.03989">
        <ele>177</ele>
        <time>2026-06-10T08:59:58.355+00:00</time>
      </trkpt>
      <trkpt lat="43.63091" lon="7.03986">
        <ele>172</ele>
        <time>2026-06-10T09:00:02.355+00:00</time>
      </trkpt>
      <trkpt lat="43.63087" lon="7.0398">
        <ele>172</ele>
        <time>2026-06-10T09:00:07.354+00:00</time>
      </trkpt>
      <trkpt lat="43.63083" lon="7.03974">
        <ele>172</ele>
        <time>2026-06-10T09:00:12.170+00:00</time>
      </trkpt>
      <trkpt lat="43.6308" lon="7.03969">
        <ele>172</ele>
        <time>2026-06-10T09:00:17.189+00:00</time>
      </trkpt>
      <trkpt lat="43.63077" lon="7.03963">
        <ele>172</ele>
        <time>2026-06-10T09:00:21.355+00:00</time>
      </trkpt>
      <trkpt lat="43.63075" lon="7.03957">
        <ele>169</ele>
        <time>2026-06-10T09:00:25.967+00:00</time>
      </trkpt>
      <trkpt lat="43.63072" lon="7.03953">
        <ele>169</ele>
        <time>2026-06-10T09:00:30.355+00:00</time>
      </trkpt>
      <trkpt lat="43.6307" lon="7.03947">
        <ele>169</ele>
        <time>2026-06-10T09:00:35.144+00:00</time>
      </trkpt>
      <trkpt lat="43.63067" lon="7.03943">
        <ele>176</ele>
        <time>2026-06-10T09:00:39.354+00:00</time>
      </trkpt>
      <trkpt lat="43.63064" lon="7.03938">
        <ele>176</ele>
        <time>2026-06-10T09:00:43.902+00:00</time>
      </trkpt>
      <trkpt lat="43.63061" lon="7.03935">
        <ele>176</ele>
        <time>2026-06-10T09:00:48.223+00:00</time>
      </trkpt>
      <trkpt lat="43.63058" lon="7.0393">
        <ele>175</ele>
        <time>2026-06-10T09:00:52.344+00:00</time>
      </trkpt>
      <trkpt lat="43.63057" lon="7.03923">
        <ele>175</ele>
        <time>2026-06-10T09:00:56.355+00:00</time>
      </trkpt>
      <trkpt lat="43.63058" lon="7.03915">
        <ele>175</ele>
        <time>2026-06-10T09:01:01.028+00:00</time>
      </trkpt>
      <trkpt lat="43.6306" lon="7.03908">
        <ele>175</ele>
        <time>2026-06-10T09:01:05.355+00:00</time>
      </trkpt>
      <trkpt lat="43.63064" lon="7.03902">
        <ele>176</ele>
        <time>2026-06-10T09:01:10.355+00:00</time>
      </trkpt>
      <trkpt lat="43.63068" lon="7.03896">
        <ele>176</ele>
        <time>2026-06-10T09:01:15.154+00:00</time>
      </trkpt>
      <trkpt lat="43.63072" lon="7.03891">
        <ele>169</ele>
        <time>2026-06-10T09:01:19.169+00:00</time>
      </trkpt>
      <trkpt lat="43.63074" lon="7.03885">
        <ele>169</ele>
        <time>2026-06-10T09:01:23.354+00:00</time>
      </trkpt>
      <trkpt lat="43.63078" lon="7.03879">
        <ele>169</ele>
        <time>2026-06-10T09:01:28.127+00:00</time>
      </trkpt>
      <trkpt lat="43.63082" lon="7.03874">
        <ele>173</ele>
        <time>2026-06-10T09:01:32.355+00:00</time>
      </trkpt>
      <trkpt lat="43.63085" lon="7.03869">
        <ele>173</ele>
        <time>2026-06-10T09:01:36.354+00:00</time>
      </trkpt>
      <trkpt lat="43.63089" lon="7.03864">
        <ele>173</ele>
        <time>2026-06-10T09:01:40.729+00:00</time>
      </trkpt>
      <trkpt lat="43.63093" lon="7.03859">
        <ele>173</ele>
        <time>2026-06-10T09:01:45.355+00:00</time>
      </trkpt>
      <trkpt lat="43.63095" lon="7.03854">
        <ele>173</ele>
        <time>2026-06-10T09:01:49.906+00:00</time>
      </trkpt>
      <trkpt lat="43.63098" lon="7.03849">
        <ele>167</ele>
        <time>2026-06-10T09:01:54.307+00:00</time>
      </trkpt>
      <trkpt lat="43.63101" lon="7.03844">
        <ele>173</ele>
        <time>2026-06-10T09:01:58.362+00:00</time>
      </trkpt>
      <trkpt lat="43.63104" lon="7.03839">
        <ele>173</ele>
        <time>2026-06-10T09:02:03.027+00:00</time>
      </trkpt>
      <trkpt lat="43.63105" lon="7.03834">
        <ele>173</ele>
        <time>2026-06-10T09:02:07.207+00:00</time>
      </trkpt>
      <trkpt lat="43.63106" lon="7.03829">
        <ele>173</ele>
        <time>2026-06-10T09:02:11.353+00:00</time>
      </trkpt>
      <trkpt lat="43.63105" lon="7.03822">
        <ele>173</ele>
        <time>2026-06-10T09:02:16.045+00:00</time>
      </trkpt>
      <trkpt lat="43.63105" lon="7.03816">
        <ele>176</ele>
        <time>2026-06-10T09:02:20.666+00:00</time>
      </trkpt>
      <trkpt lat="43.63105" lon="7.03809">
        <ele>176</ele>
        <time>2026-06-10T09:02:24.984+00:00</time>
      </trkpt>
      <trkpt lat="43.63106" lon="7.03802">
        <ele>176</ele>
        <time>2026-06-10T09:02:29.354+00:00</time>
      </trkpt>
      <trkpt lat="43.63108" lon="7.03795">
        <ele>176</ele>
        <time>2026-06-10T09:02:33.354+00:00</time>
      </trkpt>
      <trkpt lat="43.63108" lon="7.03787">
        <ele>176</ele>
        <time>2026-06-10T09:02:37.804+00:00</time>
      </trkpt>
      <trkpt lat="43.63108" lon="7.03781">
        <ele>176</ele>
        <time>2026-06-10T09:02:42.354+00:00</time>
      </trkpt>
      <trkpt lat="43.63107" lon="7.03774">
        <ele>176</ele>
        <time>2026-06-10T09:02:47.354+00:00</time>
      </trkpt>
      <trkpt lat="43.63105" lon="7.03767">
        <ele>176</ele>
        <time>2026-06-10T09:02:51.808+00:00</time>
      </trkpt>
      <trkpt lat="43.63102" lon="7.0376">
        <ele>176</ele>
        <time>2026-06-10T09:02:56.386+00:00</time>
      </trkpt>
      <trkpt lat="43.63099" lon="7.03756">
        <ele>176</ele>
        <time>2026-06-10T09:03:00.906+00:00</time>
      </trkpt>
      <trkpt lat="43.63096" lon="7.03752">
        <ele>182</ele>
        <time>2026-06-10T09:03:05.327+00:00</time>
      </trkpt>
      <trkpt lat="43.63093" lon="7.03749">
        <ele>182</ele>
        <time>2026-06-10T09:03:09.354+00:00</time>
      </trkpt>
      <trkpt lat="43.63089" lon="7.03745">
        <ele>182</ele>
        <time>2026-06-10T09:03:13.987+00:00</time>
      </trkpt>
      <trkpt lat="43.63084" lon="7.03741">
        <ele>182</ele>
        <time>2026-06-10T09:03:18.287+00:00</time>
      </trkpt>
      <trkpt lat="43.63082" lon="7.03739">
        <ele>182</ele>
        <time>2026-06-10T09:03:22.388+00:00</time>
      </trkpt>
      <trkpt lat="43.63079" lon="7.03735">
        <ele>181</ele>
        <time>2026-06-10T09:03:26.708+00:00</time>
      </trkpt>
      <trkpt lat="43.63076" lon="7.03732">
        <ele>181</ele>
        <time>2026-06-10T09:03:31.354+00:00</time>
      </trkpt>
      <trkpt lat="43.63074" lon="7.03729">
        <ele>181</ele>
        <time>2026-06-10T09:03:35.845+00:00</time>
      </trkpt>
      <trkpt lat="43.6307" lon="7.03726">
        <ele>181</ele>
        <time>2026-06-10T09:03:40.354+00:00</time>
      </trkpt>
      <trkpt lat="43.63065" lon="7.03722">
        <ele>188</ele>
        <time>2026-06-10T09:03:44.864+00:00</time>
      </trkpt>
      <trkpt lat="43.6306" lon="7.03719">
        <ele>188</ele>
        <time>2026-06-10T09:03:49.353+00:00</time>
      </trkpt>
      <trkpt lat="43.63057" lon="7.03718">
        <ele>188</ele>
        <time>2026-06-10T09:03:53.981+00:00</time>
      </trkpt>
      <trkpt lat="43.63054" lon="7.03716">
        <ele>188</ele>
        <time>2026-06-10T09:03:58.354+00:00</time>
      </trkpt>
      <trkpt lat="43.63051" lon="7.03712">
        <ele>188</ele>
        <time>2026-06-10T09:04:02.354+00:00</time>
      </trkpt>
      <trkpt lat="43.63048" lon="7.03709">
        <ele>188</ele>
        <time>2026-06-10T09:04:07.102+00:00</time>
      </trkpt>
      <trkpt lat="43.63044" lon="7.03706">
        <ele>185</ele>
        <time>2026-06-10T09:04:11.354+00:00</time>
      </trkpt>
      <trkpt lat="43.63039" lon="7.03704">
        <ele>191</ele>
        <time>2026-06-10T09:04:15.560+00:00</time>
      </trkpt>
      <trkpt lat="43.63036" lon="7.037">
        <ele>191</ele>
        <time>2026-06-10T09:04:19.981+00:00</time>
      </trkpt>
      <trkpt lat="43.63032" lon="7.03696">
        <ele>191</ele>
        <time>2026-06-10T09:04:24.353+00:00</time>
      </trkpt>
      <trkpt lat="43.63028" lon="7.03694">
        <ele>191</ele>
        <time>2026-06-10T09:04:29.354+00:00</time>
      </trkpt>
      <trkpt lat="43.63023" lon="7.0369">
        <ele>191</ele>
        <time>2026-06-10T09:04:34.354+00:00</time>
      </trkpt>
      <trkpt lat="43.63019" lon="7.03685">
        <ele>191</ele>
        <time>2026-06-10T09:04:38.783+00:00</time>
      </trkpt>
      <trkpt lat="43.63016" lon="7.0368">
        <ele>190</ele>
        <time>2026-06-10T09:04:43.354+00:00</time>
      </trkpt>
      <trkpt lat="43.63013" lon="7.03678">
        <ele>194</ele>
        <time>2026-06-10T09:04:47.842+00:00</time>
      </trkpt>
      <trkpt lat="43.63009" lon="7.03676">
        <ele>194</ele>
        <time>2026-06-10T09:04:52.354+00:00</time>
      </trkpt>
      <trkpt lat="43.63005" lon="7.03674">
        <ele>194</ele>
        <time>2026-06-10T09:04:56.981+00:00</time>
      </trkpt>
      <trkpt lat="43.63003" lon="7.0367">
        <ele>194</ele>
        <time>2026-06-10T09:05:01.354+00:00</time>
      </trkpt>
      <trkpt lat="43.62999" lon="7.03667">
        <ele>194</ele>
        <time>2026-06-10T09:05:05.354+00:00</time>
      </trkpt>
      <trkpt lat="43.62996" lon="7.03662">
        <ele>194</ele>
        <time>2026-06-10T09:05:10.070+00:00</time>
      </trkpt>
      <trkpt lat="43.62992" lon="7.03657">
        <ele>194</ele>
        <time>2026-06-10T09:05:15.246+00:00</time>
      </trkpt>
      <trkpt lat="43.62985" lon="7.03654">
        <ele>199</ele>
        <time>2026-06-10T09:05:20.353+00:00</time>
      </trkpt>
      <trkpt lat="43.62981" lon="7.03652">
        <ele>195</ele>
        <time>2026-06-10T09:05:25.103+00:00</time>
      </trkpt>
      <trkpt lat="43.62977" lon="7.03652">
        <ele>195</ele>
        <time>2026-06-10T09:05:29.223+00:00</time>
      </trkpt>
      <trkpt lat="43.62975" lon="7.03649">
        <ele>195</ele>
        <time>2026-06-10T09:05:33.353+00:00</time>
      </trkpt>
      <trkpt lat="43.62972" lon="7.03646">
        <ele>195</ele>
        <time>2026-06-10T09:05:37.353+00:00</time>
      </trkpt>
      <trkpt lat="43.62969" lon="7.03642">
        <ele>195</ele>
        <time>2026-06-10T09:05:41.645+00:00</time>
      </trkpt>
      <trkpt lat="43.62965" lon="7.03638">
        <ele>195</ele>
        <time>2026-06-10T09:05:46.352+00:00</time>
      </trkpt>
      <trkpt lat="43.62961" lon="7.03634">
        <ele>195</ele>
        <time>2026-06-10T09:05:51.140+00:00</time>
      </trkpt>
      <trkpt lat="43.6296" lon="7.0363">
        <ele>195</ele>
        <time>2026-06-10T09:05:55.241+00:00</time>
      </trkpt>
      <trkpt lat="43.62956" lon="7.03627">
        <ele>201</ele>
        <time>2026-06-10T09:05:59.264+00:00</time>
      </trkpt>
      <trkpt lat="43.6295" lon="7.03626">
        <ele>201</ele>
        <time>2026-06-10T09:06:03.352+00:00</time>
      </trkpt>
      <trkpt lat="43.62946" lon="7.03625">
        <ele>197</ele>
        <time>2026-06-10T09:06:07.842+00:00</time>
      </trkpt>
      <trkpt lat="43.62941" lon="7.03621">
        <ele>197</ele>
        <time>2026-06-10T09:06:12.352+00:00</time>
      </trkpt>
      <trkpt lat="43.62937" lon="7.03618">
        <ele>197</ele>
        <time>2026-06-10T09:06:17.200+00:00</time>
      </trkpt>
      <trkpt lat="43.62933" lon="7.03614">
        <ele>197</ele>
        <time>2026-06-10T09:06:21.761+00:00</time>
      </trkpt>
      <trkpt lat="43.62928" lon="7.0361">
        <ele>200</ele>
        <time>2026-06-10T09:06:26.353+00:00</time>
      </trkpt>
      <trkpt lat="43.62925" lon="7.03611">
        <ele>200</ele>
        <time>2026-06-10T09:06:30.352+00:00</time>
      </trkpt>
      <trkpt lat="43.6292" lon="7.03605">
        <ele>200</ele>
        <time>2026-06-10T09:06:34.788+00:00</time>
      </trkpt>
      <trkpt lat="43.62913" lon="7.03604">
        <ele>200</ele>
        <time>2026-06-10T09:06:39.051+00:00</time>
      </trkpt>
      <trkpt lat="43.6291" lon="7.03604">
        <ele>200</ele>
        <time>2026-06-10T09:06:43.355+00:00</time>
      </trkpt>
      <trkpt lat="43.62908" lon="7.03598">
        <ele>200</ele>
        <time>2026-06-10T09:06:47.611+00:00</time>
      </trkpt>
      <trkpt lat="43.62905" lon="7.03593">
        <ele>200</ele>
        <time>2026-06-10T09:06:51.905+00:00</time>
      </trkpt>
      <trkpt lat="43.62901" lon="7.03588">
        <ele>202</ele>
        <time>2026-06-10T09:06:56.184+00:00</time>
      </trkpt>
      <trkpt lat="43.62897" lon="7.03586">
        <ele>202</ele>
        <time>2026-06-10T09:07:00.352+00:00</time>
      </trkpt>
      <trkpt lat="43.62892" lon="7.03585">
        <ele>202</ele>
        <time>2026-06-10T09:07:04.682+00:00</time>
      </trkpt>
      <trkpt lat="43.62886" lon="7.03585">
        <ele>202</ele>
        <time>2026-06-10T09:07:08.982+00:00</time>
      </trkpt>
      <trkpt lat="43.62881" lon="7.03583">
        <ele>202</ele>
        <time>2026-06-10T09:07:13.352+00:00</time>
      </trkpt>
      <trkpt lat="43.62875" lon="7.03584">
        <ele>202</ele>
        <time>2026-06-10T09:07:17.846+00:00</time>
      </trkpt>
      <trkpt lat="43.6287" lon="7.03584">
        <ele>203</ele>
        <time>2026-06-10T09:07:22.004+00:00</time>
      </trkpt>
      <trkpt lat="43.62865" lon="7.03581">
        <ele>203</ele>
        <time>2026-06-10T09:07:26.353+00:00</time>
      </trkpt>
      <trkpt lat="43.6286" lon="7.03578">
        <ele>203</ele>
        <time>2026-06-10T09:07:30.771+00:00</time>
      </trkpt>
      <trkpt lat="43.62847" lon="7.03574">
        <ele>202</ele>
        <time>2026-06-10T09:07:53.362+00:00</time>
      </trkpt>
      <trkpt lat="43.62847" lon="7.03574">
        <ele>202</ele>
        <time>2026-06-10T09:07:57.789+00:00</time>
      </trkpt>
      <trkpt lat="43.62843" lon="7.03568">
        <ele>202</ele>
        <time>2026-06-10T09:08:01.870+00:00</time>
      </trkpt>
      <trkpt lat="43.6284" lon="7.03565">
        <ele>202</ele>
        <time>2026-06-10T09:08:06.353+00:00</time>
      </trkpt>
      <trkpt lat="43.62838" lon="7.0357">
        <ele>202</ele>
        <time>2026-06-10T09:08:10.852+00:00</time>
      </trkpt>
      <trkpt lat="43.62839" lon="7.03568">
        <ele>202</ele>
        <time>2026-06-10T09:10:28.352+00:00</time>
      </trkpt>
      <trkpt lat="43.62839" lon="7.03568">
        <ele>202</ele>
        <time>2026-06-10T09:10:33.352+00:00</time>
      </trkpt>
      <trkpt lat="43.6284" lon="7.03568">
        <ele>202</ele>
        <time>2026-06-10T09:10:38.069+00:00</time>
      </trkpt>
      <trkpt lat="43.62843" lon="7.03569">
        <ele>202</ele>
        <time>2026-06-10T09:10:41.964+00:00</time>
      </trkpt>
      <trkpt lat="43.62848" lon="7.0357">
        <ele>203</ele>
        <time>2026-06-10T09:10:47.305+00:00</time>
      </trkpt>
      <trkpt lat="43.62851" lon="7.03574">
        <ele>203</ele>
        <time>2026-06-10T09:10:51.586+00:00</time>
      </trkpt>
      <trkpt lat="43.62851" lon="7.0358">
        <ele>203</ele>
        <time>2026-06-10T09:10:55.824+00:00</time>
      </trkpt>
      <trkpt lat="43.62849" lon="7.03585">
        <ele>203</ele>
        <time>2026-06-10T09:10:59.888+00:00</time>
      </trkpt>
      <trkpt lat="43.62847" lon="7.03589">
        <ele>202</ele>
        <time>2026-06-10T09:11:04.087+00:00</time>
      </trkpt>
      <trkpt lat="43.62845" lon="7.03595">
        <ele>202</ele>
        <time>2026-06-10T09:11:08.362+00:00</time>
      </trkpt>
      <trkpt lat="43.62846" lon="7.036">
        <ele>202</ele>
        <time>2026-06-10T09:11:13.125+00:00</time>
      </trkpt>
      <trkpt lat="43.62844" lon="7.03605">
        <ele>202</ele>
        <time>2026-06-10T09:11:17.604+00:00</time>
      </trkpt>
      <trkpt lat="43.62842" lon="7.0361">
        <ele>202</ele>
        <time>2026-06-10T09:11:22.099+00:00</time>
      </trkpt>
      <trkpt lat="43.62841" lon="7.03616">
        <ele>202</ele>
        <time>2026-06-10T09:11:26.352+00:00</time>
      </trkpt>
      <trkpt lat="43.62836" lon="7.03619">
        <ele>202</ele>
        <time>2026-06-10T09:11:30.724+00:00</time>
      </trkpt>
      <trkpt lat="43.62832" lon="7.03624">
        <ele>202</ele>
        <time>2026-06-10T09:11:35.351+00:00</time>
      </trkpt>
      <trkpt lat="43.6283" lon="7.0363">
        <ele>200</ele>
        <time>2026-06-10T09:11:39.352+00:00</time>
      </trkpt>
      <trkpt lat="43.62825" lon="7.03634">
        <ele>200</ele>
        <time>2026-06-10T09:11:44.352+00:00</time>
      </trkpt>
      <trkpt lat="43.62819" lon="7.03635">
        <ele>198</ele>
        <time>2026-06-10T09:11:49.150+00:00</time>
      </trkpt>
      <trkpt lat="43.62814" lon="7.03636">
        <ele>198</ele>
        <time>2026-06-10T09:11:53.350+00:00</time>
      </trkpt>
      <trkpt lat="43.6281" lon="7.03632">
        <ele>198</ele>
        <time>2026-06-10T09:11:58.351+00:00</time>
      </trkpt>
      <trkpt lat="43.62805" lon="7.03632">
        <ele>198</ele>
        <time>2026-06-10T09:12:02.354+00:00</time>
      </trkpt>
      <trkpt lat="43.62799" lon="7.03635">
        <ele>198</ele>
        <time>2026-06-10T09:12:07.351+00:00</time>
      </trkpt>
      <trkpt lat="43.62795" lon="7.03638">
        <ele>198</ele>
        <time>2026-06-10T09:12:11.667+00:00</time>
      </trkpt>
      <trkpt lat="43.6279" lon="7.03641">
        <ele>199</ele>
        <time>2026-06-10T09:12:16.351+00:00</time>
      </trkpt>
      <trkpt lat="43.62786" lon="7.03644">
        <ele>199</ele>
        <time>2026-06-10T09:12:20.351+00:00</time>
      </trkpt>
      <trkpt lat="43.62783" lon="7.03651">
        <ele>199</ele>
        <time>2026-06-10T09:12:25.283+00:00</time>
      </trkpt>
      <trkpt lat="43.62777" lon="7.03651">
        <ele>199</ele>
        <time>2026-06-10T09:12:30.160+00:00</time>
      </trkpt>
      <trkpt lat="43.62772" lon="7.03653">
        <ele>196</ele>
        <time>2026-06-10T09:12:34.350+00:00</time>
      </trkpt>
      <trkpt lat="43.62768" lon="7.03661">
        <ele>196</ele>
        <time>2026-06-10T09:12:38.351+00:00</time>
      </trkpt>
      <trkpt lat="43.62766" lon="7.03668">
        <ele>196</ele>
        <time>2026-06-10T09:12:42.534+00:00</time>
      </trkpt>
      <trkpt lat="43.62761" lon="7.03671">
        <ele>199</ele>
        <time>2026-06-10T09:12:47.351+00:00</time>
      </trkpt>
      <trkpt lat="43.62757" lon="7.03676">
        <ele>199</ele>
        <time>2026-06-10T09:12:52.351+00:00</time>
      </trkpt>
      <trkpt lat="43.62753" lon="7.03682">
        <ele>198</ele>
        <time>2026-06-10T09:12:57.028+00:00</time>
      </trkpt>
      <trkpt lat="43.6275" lon="7.03686">
        <ele>198</ele>
        <time>2026-06-10T09:13:01.004+00:00</time>
      </trkpt>
      <trkpt lat="43.62745" lon="7.03691">
        <ele>198</ele>
        <time>2026-06-10T09:13:05.508+00:00</time>
      </trkpt>
      <trkpt lat="43.6274" lon="7.03695">
        <ele>198</ele>
        <time>2026-06-10T09:13:09.867+00:00</time>
      </trkpt>
      <trkpt lat="43.62736" lon="7.037">
        <ele>200</ele>
        <time>2026-06-10T09:13:14.350+00:00</time>
      </trkpt>
      <trkpt lat="43.62731" lon="7.03705">
        <ele>200</ele>
        <time>2026-06-10T09:13:18.986+00:00</time>
      </trkpt>
      <trkpt lat="43.62727" lon="7.03711">
        <ele>198</ele>
        <time>2026-06-10T09:13:23.351+00:00</time>
      </trkpt>
      <trkpt lat="43.62723" lon="7.03711">
        <ele>198</ele>
        <time>2026-06-10T09:13:27.351+00:00</time>
      </trkpt>
      <trkpt lat="43.62722" lon="7.03707">
        <ele>200</ele>
        <time>2026-06-10T09:13:31.851+00:00</time>
      </trkpt>
      <trkpt lat="43.62718" lon="7.03712">
        <ele>198</ele>
        <time>2026-06-10T09:13:36.350+00:00</time>
      </trkpt>
      <trkpt lat="43.62714" lon="7.03719">
        <ele>198</ele>
        <time>2026-06-10T09:13:41.351+00:00</time>
      </trkpt>
      <trkpt lat="43.6271" lon="7.03724">
        <ele>198</ele>
        <time>2026-06-10T09:13:46.024+00:00</time>
      </trkpt>
      <trkpt lat="43.62704" lon="7.03728">
        <ele>195</ele>
        <time>2026-06-10T09:13:50.350+00:00</time>
      </trkpt>
      <trkpt lat="43.62699" lon="7.03732">
        <ele>195</ele>
        <time>2026-06-10T09:13:55.253+00:00</time>
      </trkpt>
      <trkpt lat="43.62694" lon="7.03734">
        <ele>195</ele>
        <time>2026-06-10T09:13:59.351+00:00</time>
      </trkpt>
      <trkpt lat="43.62688" lon="7.03737">
        <ele>194</ele>
        <time>2026-06-10T09:14:04.351+00:00</time>
      </trkpt>
      <trkpt lat="43.62683" lon="7.03739">
        <ele>194</ele>
        <time>2026-06-10T09:14:08.350+00:00</time>
      </trkpt>
      <trkpt lat="43.62677" lon="7.03743">
        <ele>191</ele>
        <time>2026-06-10T09:14:13.351+00:00</time>
      </trkpt>
      <trkpt lat="43.62672" lon="7.03746">
        <ele>191</ele>
        <time>2026-06-10T09:14:17.707+00:00</time>
      </trkpt>
      <trkpt lat="43.62667" lon="7.03748">
        <ele>191</ele>
        <time>2026-06-10T09:14:22.247+00:00</time>
      </trkpt>
      <trkpt lat="43.62661" lon="7.03751">
        <ele>191</ele>
        <time>2026-06-10T09:14:27.183+00:00</time>
      </trkpt>
      <trkpt lat="43.62657" lon="7.03754">
        <ele>191</ele>
        <time>2026-06-10T09:14:31.351+00:00</time>
      </trkpt>
      <trkpt lat="43.62652" lon="7.03756">
        <ele>190</ele>
        <time>2026-06-10T09:14:36.242+00:00</time>
      </trkpt>
      <trkpt lat="43.62648" lon="7.03757">
        <ele>190</ele>
        <time>2026-06-10T09:14:40.351+00:00</time>
      </trkpt>
      <trkpt lat="43.62642" lon="7.03759">
        <ele>190</ele>
        <time>2026-06-10T09:14:45.350+00:00</time>
      </trkpt>
      <trkpt lat="43.62636" lon="7.03758">
        <ele>190</ele>
        <time>2026-06-10T09:14:49.894+00:00</time>
      </trkpt>
      <trkpt lat="43.6263" lon="7.03756">
        <ele>190</ele>
        <time>2026-06-10T09:14:54.351+00:00</time>
      </trkpt>
      <trkpt lat="43.62625" lon="7.03754">
        <ele>188</ele>
        <time>2026-06-10T09:14:59.006+00:00</time>
      </trkpt>
      <trkpt lat="43.6262" lon="7.03754">
        <ele>188</ele>
        <time>2026-06-10T09:15:03.351+00:00</time>
      </trkpt>
      <trkpt lat="43.62614" lon="7.03752">
        <ele>188</ele>
        <time>2026-06-10T09:15:08.166+00:00</time>
      </trkpt>
      <trkpt lat="43.62609" lon="7.03748">
        <ele>188</ele>
        <time>2026-06-10T09:15:12.350+00:00</time>
      </trkpt>
      <trkpt lat="43.62604" lon="7.03744">
        <ele>188</ele>
        <time>2026-06-10T09:15:17.224+00:00</time>
      </trkpt>
      <trkpt lat="43.62599" lon="7.03741">
        <ele>188</ele>
        <time>2026-06-10T09:15:21.350+00:00</time>
      </trkpt>
      <trkpt lat="43.62594" lon="7.03736">
        <ele>186</ele>
        <time>2026-06-10T09:15:26.350+00:00</time>
      </trkpt>
      <trkpt lat="43.6259" lon="7.03731">
        <ele>188</ele>
        <time>2026-06-10T09:15:31+00:00</time>
      </trkpt>
      <trkpt lat="43.62586" lon="7.03728">
        <ele>188</ele>
        <time>2026-06-10T09:15:35.350+00:00</time>
      </trkpt>
      <trkpt lat="43.62581" lon="7.03727">
        <ele>188</ele>
        <time>2026-06-10T09:15:39.755+00:00</time>
      </trkpt>
      <trkpt lat="43.62575" lon="7.03726">
        <ele>188</ele>
        <time>2026-06-10T09:15:44.350+00:00</time>
      </trkpt>
      <trkpt lat="43.62569" lon="7.03725">
        <ele>186</ele>
        <time>2026-06-10T09:15:49.207+00:00</time>
      </trkpt>
      <trkpt lat="43.62564" lon="7.03725">
        <ele>186</ele>
        <time>2026-06-10T09:15:53.350+00:00</time>
      </trkpt>
      <trkpt lat="43.62558" lon="7.03726">
        <ele>186</ele>
        <time>2026-06-10T09:15:58.225+00:00</time>
      </trkpt>
      <trkpt lat="43.62553" lon="7.03727">
        <ele>186</ele>
        <time>2026-06-10T09:16:02.350+00:00</time>
      </trkpt>
      <trkpt lat="43.62548" lon="7.03728">
        <ele>186</ele>
        <time>2026-06-10T09:16:06.349+00:00</time>
      </trkpt>
      <trkpt lat="43.62544" lon="7.03729">
        <ele>186</ele>
        <time>2026-06-10T09:16:10.813+00:00</time>
      </trkpt>
      <trkpt lat="43.62539" lon="7.03733">
        <ele>186</ele>
        <time>2026-06-10T09:16:15.352+00:00</time>
      </trkpt>
      <trkpt lat="43.62533" lon="7.03734">
        <ele>186</ele>
        <time>2026-06-10T09:16:20.205+00:00</time>
      </trkpt>
      <trkpt lat="43.62529" lon="7.03733">
        <ele>186</ele>
        <time>2026-06-10T09:16:24.350+00:00</time>
      </trkpt>
      <trkpt lat="43.62523" lon="7.0373">
        <ele>186</ele>
        <time>2026-06-10T09:16:29.350+00:00</time>
      </trkpt>
      <trkpt lat="43.62518" lon="7.03729">
        <ele>186</ele>
        <time>2026-06-10T09:16:34.160+00:00</time>
      </trkpt>
      <trkpt lat="43.62512" lon="7.03728">
        <ele>184</ele>
        <time>2026-06-10T09:16:38.350+00:00</time>
      </trkpt>
      <trkpt lat="43.62506" lon="7.03729">
        <ele>184</ele>
        <time>2026-06-10T09:16:42.928+00:00</time>
      </trkpt>
      <trkpt lat="43.625" lon="7.03729">
        <ele>184</ele>
        <time>2026-06-10T09:16:47.349+00:00</time>
      </trkpt>
      <trkpt lat="43.62494" lon="7.03728">
        <ele>184</ele>
        <time>2026-06-10T09:16:52.028+00:00</time>
      </trkpt>
      <trkpt lat="43.62489" lon="7.03724">
        <ele>184</ele>
        <time>2026-06-10T09:16:57.108+00:00</time>
      </trkpt>
      <trkpt lat="43.62484" lon="7.03723">
        <ele>186</ele>
        <time>2026-06-10T09:17:01.349+00:00</time>
      </trkpt>
      <trkpt lat="43.62479" lon="7.03725">
        <ele>186</ele>
        <time>2026-06-10T09:17:06.164+00:00</time>
      </trkpt>
      <trkpt lat="43.62476" lon="7.03731">
        <ele>186</ele>
        <time>2026-06-10T09:17:10.350+00:00</time>
      </trkpt>
      <trkpt lat="43.62475" lon="7.0374">
        <ele>185</ele>
        <time>2026-06-10T09:17:15.322+00:00</time>
      </trkpt>
      <trkpt lat="43.62475" lon="7.03749">
        <ele>185</ele>
        <time>2026-06-10T09:17:19.349+00:00</time>
      </trkpt>
      <trkpt lat="43.62477" lon="7.03758">
        <ele>185</ele>
        <time>2026-06-10T09:17:24.350+00:00</time>
      </trkpt>
      <trkpt lat="43.62478" lon="7.03765">
        <ele>186</ele>
        <time>2026-06-10T09:17:28.350+00:00</time>
      </trkpt>
      <trkpt lat="43.62481" lon="7.03772">
        <ele>186</ele>
        <time>2026-06-10T09:17:33.354+00:00</time>
      </trkpt>
      <trkpt lat="43.62486" lon="7.03775">
        <ele>186</ele>
        <time>2026-06-10T09:17:37.773+00:00</time>
      </trkpt>
      <trkpt lat="43.62491" lon="7.0378">
        <ele>183</ele>
        <time>2026-06-10T09:17:42.228+00:00</time>
      </trkpt>
      <trkpt lat="43.62495" lon="7.03785">
        <ele>183</ele>
        <time>2026-06-10T09:17:46.350+00:00</time>
      </trkpt>
      <trkpt lat="43.625" lon="7.03791">
        <ele>183</ele>
        <time>2026-06-10T09:17:50.350+00:00</time>
      </trkpt>
      <trkpt lat="43.62505" lon="7.03794">
        <ele>185</ele>
        <time>2026-06-10T09:17:55.093+00:00</time>
      </trkpt>
      <trkpt lat="43.6251" lon="7.03798">
        <ele>185</ele>
        <time>2026-06-10T09:17:59.490+00:00</time>
      </trkpt>
      <trkpt lat="43.62514" lon="7.03804">
        <ele>183</ele>
        <time>2026-06-10T09:18:03.828+00:00</time>
      </trkpt>
      <trkpt lat="43.6252" lon="7.03808">
        <ele>183</ele>
        <time>2026-06-10T09:18:08.307+00:00</time>
      </trkpt>
      <trkpt lat="43.62525" lon="7.03812">
        <ele>183</ele>
        <time>2026-06-10T09:18:12.350+00:00</time>
      </trkpt>
      <trkpt lat="43.62529" lon="7.03818">
        <ele>183</ele>
        <time>2026-06-10T09:18:17.306+00:00</time>
      </trkpt>
      <trkpt lat="43.62533" lon="7.03823">
        <ele>183</ele>
        <time>2026-06-10T09:18:21.349+00:00</time>
      </trkpt>
      <trkpt lat="43.62535" lon="7.0383">
        <ele>183</ele>
        <time>2026-06-10T09:18:25.699+00:00</time>
      </trkpt>
      <trkpt lat="43.62537" lon="7.03837">
        <ele>183</ele>
        <time>2026-06-10T09:18:30.188+00:00</time>
      </trkpt>
      <trkpt lat="43.6254" lon="7.03843">
        <ele>183</ele>
        <time>2026-06-10T09:18:35.086+00:00</time>
      </trkpt>
      <trkpt lat="43.62545" lon="7.03849">
        <ele>182</ele>
        <time>2026-06-10T09:18:39.349+00:00</time>
      </trkpt>
      <trkpt lat="43.6255" lon="7.03853">
        <ele>182</ele>
        <time>2026-06-10T09:18:44.324+00:00</time>
      </trkpt>
      <trkpt lat="43.62556" lon="7.03857">
        <ele>182</ele>
        <time>2026-06-10T09:18:48.824+00:00</time>
      </trkpt>
      <trkpt lat="43.62561" lon="7.03861">
        <ele>182</ele>
        <time>2026-06-10T09:18:53.362+00:00</time>
      </trkpt>
      <trkpt lat="43.62566" lon="7.03866">
        <ele>182</ele>
        <time>2026-06-10T09:18:58.285+00:00</time>
      </trkpt>
      <trkpt lat="43.62569" lon="7.03868">
        <ele>182</ele>
        <time>2026-06-10T09:19:02.349+00:00</time>
      </trkpt>
      <trkpt lat="43.62572" lon="7.03875">
        <ele>178</ele>
        <time>2026-06-10T09:19:07.364+00:00</time>
      </trkpt>
      <trkpt lat="43.62577" lon="7.0388">
        <ele>178</ele>
        <time>2026-06-10T09:19:12.349+00:00</time>
      </trkpt>
      <trkpt lat="43.62581" lon="7.03884">
        <ele>178</ele>
        <time>2026-06-10T09:19:17.025+00:00</time>
      </trkpt>
      <trkpt lat="43.62583" lon="7.03888">
        <ele>178</ele>
        <time>2026-06-10T09:19:21.348+00:00</time>
      </trkpt>
      <trkpt lat="43.62586" lon="7.03893">
        <ele>178</ele>
        <time>2026-06-10T09:19:26.044+00:00</time>
      </trkpt>
      <trkpt lat="43.6259" lon="7.03897">
        <ele>178</ele>
        <time>2026-06-10T09:19:30.884+00:00</time>
      </trkpt>
      <trkpt lat="43.62594" lon="7.03902">
        <ele>178</ele>
        <time>2026-06-10T09:19:35.222+00:00</time>
      </trkpt>
      <trkpt lat="43.62597" lon="7.03906">
        <ele>177</ele>
        <time>2026-06-10T09:19:39.349+00:00</time>
      </trkpt>
      <trkpt lat="43.62602" lon="7.03912">
        <ele>173</ele>
        <time>2026-06-10T09:19:44.289+00:00</time>
      </trkpt>
      <trkpt lat="43.62606" lon="7.03916">
        <ele>173</ele>
        <time>2026-06-10T09:19:48.349+00:00</time>
      </trkpt>
      <trkpt lat="43.62611" lon="7.03922">
        <ele>173</ele>
        <time>2026-06-10T09:19:53.371+00:00</time>
      </trkpt>
      <trkpt lat="43.62616" lon="7.03926">
        <ele>173</ele>
        <time>2026-06-10T09:19:58.349+00:00</time>
      </trkpt>
      <trkpt lat="43.62621" lon="7.03931">
        <ele>172</ele>
        <time>2026-06-10T09:20:03.349+00:00</time>
      </trkpt>
      <trkpt lat="43.62626" lon="7.03935">
        <ele>172</ele>
        <time>2026-06-10T09:20:08.102+00:00</time>
      </trkpt>
      <trkpt lat="43.6263" lon="7.0394">
        <ele>172</ele>
        <time>2026-06-10T09:20:12.349+00:00</time>
      </trkpt>
      <trkpt lat="43.62635" lon="7.03945">
        <ele>172</ele>
        <time>2026-06-10T09:20:17.289+00:00</time>
      </trkpt>
      <trkpt lat="43.62639" lon="7.03949">
        <ele>172</ele>
        <time>2026-06-10T09:20:21.349+00:00</time>
      </trkpt>
      <trkpt lat="43.62637" lon="7.03954">
        <ele>172</ele>
        <time>2026-06-10T09:20:26.349+00:00</time>
      </trkpt>
      <trkpt lat="43.62638" lon="7.03959">
        <ele>171</ele>
        <time>2026-06-10T09:20:30.849+00:00</time>
      </trkpt>
      <trkpt lat="43.62641" lon="7.03966">
        <ele>171</ele>
        <time>2026-06-10T09:20:35.348+00:00</time>
      </trkpt>
      <trkpt lat="43.62648" lon="7.03968">
        <ele>171</ele>
        <time>2026-06-10T09:20:40.045+00:00</time>
      </trkpt>
      <trkpt lat="43.62652" lon="7.0397">
        <ele>171</ele>
        <time>2026-06-10T09:20:44.718+00:00</time>
      </trkpt>
      <trkpt lat="43.62657" lon="7.03973">
        <ele>171</ele>
        <time>2026-06-10T09:20:49.349+00:00</time>
      </trkpt>
      <trkpt lat="43.62661" lon="7.0398">
        <ele>171</ele>
        <time>2026-06-10T09:20:54.141+00:00</time>
      </trkpt>
      <trkpt lat="43.62662" lon="7.03987">
        <ele>170</ele>
        <time>2026-06-10T09:20:58.349+00:00</time>
      </trkpt>
      <trkpt lat="43.62661" lon="7.03996">
        <ele>170</ele>
        <time>2026-06-10T09:21:03.353+00:00</time>
      </trkpt>
      <trkpt lat="43.62663" lon="7.04002">
        <ele>170</ele>
        <time>2026-06-10T09:21:08.125+00:00</time>
      </trkpt>
      <trkpt lat="43.62664" lon="7.04009">
        <ele>170</ele>
        <time>2026-06-10T09:21:12.348+00:00</time>
      </trkpt>
      <trkpt lat="43.62665" lon="7.04015">
        <ele>170</ele>
        <time>2026-06-10T09:21:16.349+00:00</time>
      </trkpt>
      <trkpt lat="43.62667" lon="7.0402">
        <ele>170</ele>
        <time>2026-06-10T09:21:21.348+00:00</time>
      </trkpt>
      <trkpt lat="43.62669" lon="7.04027">
        <ele>170</ele>
        <time>2026-06-10T09:21:26.066+00:00</time>
      </trkpt>
      <trkpt lat="43.62671" lon="7.04035">
        <ele>170</ele>
        <time>2026-06-10T09:21:30.624+00:00</time>
      </trkpt>
      <trkpt lat="43.62674" lon="7.04043">
        <ele>170</ele>
        <time>2026-06-10T09:21:35.166+00:00</time>
      </trkpt>
      <trkpt lat="43.62676" lon="7.04052">
        <ele>170</ele>
        <time>2026-06-10T09:21:39.723+00:00</time>
      </trkpt>
      <trkpt lat="43.62675" lon="7.04061">
        <ele>170</ele>
        <time>2026-06-10T09:21:44.321+00:00</time>
      </trkpt>
      <trkpt lat="43.62673" lon="7.04067">
        <ele>170</ele>
        <time>2026-06-10T09:21:48.348+00:00</time>
      </trkpt>
      <trkpt lat="43.6267" lon="7.04073">
        <ele>169</ele>
        <time>2026-06-10T09:21:52.983+00:00</time>
      </trkpt>
      <trkpt lat="43.62668" lon="7.0408">
        <ele>169</ele>
        <time>2026-06-10T09:21:57.084+00:00</time>
      </trkpt>
      <trkpt lat="43.62665" lon="7.04087">
        <ele>169</ele>
        <time>2026-06-10T09:22:02.289+00:00</time>
      </trkpt>
      <trkpt lat="43.6266" lon="7.04088">
        <ele>169</ele>
        <time>2026-06-10T09:22:06.348+00:00</time>
      </trkpt>
      <trkpt lat="43.62656" lon="7.04091">
        <ele>169</ele>
        <time>2026-06-10T09:22:11.348+00:00</time>
      </trkpt>
      <trkpt lat="43.62652" lon="7.04098">
        <ele>171</ele>
        <time>2026-06-10T09:22:16.149+00:00</time>
      </trkpt>
      <trkpt lat="43.6265" lon="7.04107">
        <ele>171</ele>
        <time>2026-06-10T09:22:20.347+00:00</time>
      </trkpt>
      <trkpt lat="43.62643" lon="7.04109">
        <ele>171</ele>
        <time>2026-06-10T09:22:25.348+00:00</time>
      </trkpt>
      <trkpt lat="43.62638" lon="7.04112">
        <ele>171</ele>
        <time>2026-06-10T09:22:30.304+00:00</time>
      </trkpt>
      <trkpt lat="43.62638" lon="7.04121">
        <ele>171</ele>
        <time>2026-06-10T09:22:34.662+00:00</time>
      </trkpt>
      <trkpt lat="43.62639" lon="7.04129">
        <ele>170</ele>
        <time>2026-06-10T09:22:39.083+00:00</time>
      </trkpt>
      <trkpt lat="43.6264" lon="7.04135">
        <ele>170</ele>
        <time>2026-06-10T09:22:43.289+00:00</time>
      </trkpt>
      <trkpt lat="43.62642" lon="7.04142">
        <ele>170</ele>
        <time>2026-06-10T09:22:47.827+00:00</time>
      </trkpt>
      <trkpt lat="43.62647" lon="7.04145">
        <ele>170</ele>
        <time>2026-06-10T09:22:52.347+00:00</time>
      </trkpt>
      <trkpt lat="43.62648" lon="7.04151">
        <ele>170</ele>
        <time>2026-06-10T09:22:56.961+00:00</time>
      </trkpt>
      <trkpt lat="43.62646" lon="7.04152">
        <ele>170</ele>
        <time>2026-06-10T09:23:01.348+00:00</time>
      </trkpt>
      <trkpt lat="43.62643" lon="7.04157">
        <ele>168</ele>
        <time>2026-06-10T09:23:05.348+00:00</time>
      </trkpt>
      <trkpt lat="43.62639" lon="7.04168">
        <ele>168</ele>
        <time>2026-06-10T09:23:09.922+00:00</time>
      </trkpt>
      <trkpt lat="43.62635" lon="7.04176">
        <ele>168</ele>
        <time>2026-06-10T09:23:14.348+00:00</time>
      </trkpt>
      <trkpt lat="43.62632" lon="7.04183">
        <ele>168</ele>
        <time>2026-06-10T09:23:19.348+00:00</time>
      </trkpt>
      <trkpt lat="43.62629" lon="7.0419">
        <ele>168</ele>
        <time>2026-06-10T09:23:24.189+00:00</time>
      </trkpt>
      <trkpt lat="43.62626" lon="7.04196">
        <ele>168</ele>
        <time>2026-06-10T09:23:28.347+00:00</time>
      </trkpt>
      <trkpt lat="43.62622" lon="7.04197">
        <ele>172</ele>
        <time>2026-06-10T09:23:32.348+00:00</time>
      </trkpt>
      <trkpt lat="43.62617" lon="7.04187">
        <ele>172</ele>
        <time>2026-06-10T09:23:37.033+00:00</time>
      </trkpt>
      <trkpt lat="43.62613" lon="7.04183">
        <ele>172</ele>
        <time>2026-06-10T09:23:41.348+00:00</time>
      </trkpt>
      <trkpt lat="43.62608" lon="7.0418">
        <ele>175</ele>
        <time>2026-06-10T09:23:45.807+00:00</time>
      </trkpt>
      <trkpt lat="43.62603" lon="7.04181">
        <ele>172</ele>
        <time>2026-06-10T09:23:50.286+00:00</time>
      </trkpt>
      <trkpt lat="43.626" lon="7.04177">
        <ele>175</ele>
        <time>2026-06-10T09:23:55.347+00:00</time>
      </trkpt>
      <trkpt lat="43.62597" lon="7.04183">
        <ele>175</ele>
        <time>2026-06-10T09:23:59.606+00:00</time>
      </trkpt>
      <trkpt lat="43.62595" lon="7.04189">
        <ele>175</ele>
        <time>2026-06-10T09:24:03.706+00:00</time>
      </trkpt>
      <trkpt lat="43.62591" lon="7.04193">
        <ele>175</ele>
        <time>2026-06-10T09:24:08.348+00:00</time>
      </trkpt>
      <trkpt lat="43.62583" lon="7.04188">
        <ele>175</ele>
        <time>2026-06-10T09:24:13.226+00:00</time>
      </trkpt>
      <trkpt lat="43.62586" lon="7.04178">
        <ele>178</ele>
        <time>2026-06-10T09:24:17.350+00:00</time>
      </trkpt>
      <trkpt lat="43.62586" lon="7.04171">
        <ele>178</ele>
        <time>2026-06-10T09:24:21.606+00:00</time>
      </trkpt>
      <trkpt lat="43.62583" lon="7.04165">
        <ele>178</ele>
        <time>2026-06-10T09:24:25.812+00:00</time>
      </trkpt>
      <trkpt lat="43.62579" lon="7.04161">
        <ele>178</ele>
        <time>2026-06-10T09:24:30.029+00:00</time>
      </trkpt>
      <trkpt lat="43.62572" lon="7.04164">
        <ele>178</ele>
        <time>2026-06-10T09:24:34.129+00:00</time>
      </trkpt>
      <trkpt lat="43.62567" lon="7.04167">
        <ele>179</ele>
        <time>2026-06-10T09:24:38.347+00:00</time>
      </trkpt>
      <trkpt lat="43.62561" lon="7.0417">
        <ele>179</ele>
        <time>2026-06-10T09:24:42.582+00:00</time>
      </trkpt>
      <trkpt lat="43.62556" lon="7.04173">
        <ele>179</ele>
        <time>2026-06-10T09:24:47.170+00:00</time>
      </trkpt>
      <trkpt lat="43.62551" lon="7.0417">
        <ele>179</ele>
        <time>2026-06-10T09:24:51.346+00:00</time>
      </trkpt>
      <trkpt lat="43.62545" lon="7.04175">
        <ele>179</ele>
        <time>2026-06-10T09:24:55.950+00:00</time>
      </trkpt>
      <trkpt lat="43.62541" lon="7.04178">
        <ele>181</ele>
        <time>2026-06-10T09:25:00.101+00:00</time>
      </trkpt>
      <trkpt lat="43.62534" lon="7.04178">
        <ele>181</ele>
        <time>2026-06-10T09:25:04.346+00:00</time>
      </trkpt>
      <trkpt lat="43.6253" lon="7.04179">
        <ele>181</ele>
        <time>2026-06-10T09:25:08.359+00:00</time>
      </trkpt>
      <trkpt lat="43.62525" lon="7.04178">
        <ele>181</ele>
        <time>2026-06-10T09:25:12.347+00:00</time>
      </trkpt>
      <trkpt lat="43.6252" lon="7.04179">
        <ele>181</ele>
        <time>2026-06-10T09:25:16.609+00:00</time>
      </trkpt>
      <trkpt lat="43.62515" lon="7.04179">
        <ele>181</ele>
        <time>2026-06-10T09:25:20.929+00:00</time>
      </trkpt>
      <trkpt lat="43.6251" lon="7.04178">
        <ele>180</ele>
        <time>2026-06-10T09:25:25.109+00:00</time>
      </trkpt>
      <trkpt lat="43.62504" lon="7.04177">
        <ele>180</ele>
        <time>2026-06-10T09:25:29.347+00:00</time>
      </trkpt>
      <trkpt lat="43.62498" lon="7.04174">
        <ele>180</ele>
        <time>2026-06-10T09:25:33.449+00:00</time>
      </trkpt>
      <trkpt lat="43.62492" lon="7.04173">
        <ele>180</ele>
        <time>2026-06-10T09:25:38.168+00:00</time>
      </trkpt>
      <trkpt lat="43.62488" lon="7.04172">
        <ele>180</ele>
        <time>2026-06-10T09:25:42.347+00:00</time>
      </trkpt>
      <trkpt lat="43.62483" lon="7.0417">
        <ele>181</ele>
        <time>2026-06-10T09:25:46.560+00:00</time>
      </trkpt>
      <trkpt lat="43.62473" lon="7.04177">
        <ele>181</ele>
        <time>2026-06-10T09:26:03.662+00:00</time>
      </trkpt>
      <trkpt lat="43.62473" lon="7.04182">
        <ele>178</ele>
        <time>2026-06-10T09:26:07.804+00:00</time>
      </trkpt>
      <trkpt lat="43.62473" lon="7.04188">
        <ele>178</ele>
        <time>2026-06-10T09:26:12.257+00:00</time>
      </trkpt>
      <trkpt lat="43.62469" lon="7.04192">
        <ele>178</ele>
        <time>2026-06-10T09:26:16.331+00:00</time>
      </trkpt>
      <trkpt lat="43.62464" lon="7.0419">
        <ele>178</ele>
        <time>2026-06-10T09:26:20.771+00:00</time>
      </trkpt>
      <trkpt lat="43.62459" lon="7.0419">
        <ele>178</ele>
        <time>2026-06-10T09:26:25.148+00:00</time>
      </trkpt>
      <trkpt lat="43.62455" lon="7.04195">
        <ele>178</ele>
        <time>2026-06-10T09:26:29.774+00:00</time>
      </trkpt>
      <trkpt lat="43.62453" lon="7.04203">
        <ele>178</ele>
        <time>2026-06-10T09:26:34.105+00:00</time>
      </trkpt>
      <trkpt lat="43.62452" lon="7.0421">
        <ele>175</ele>
        <time>2026-06-10T09:26:38.208+00:00</time>
      </trkpt>
      <trkpt lat="43.62449" lon="7.04216">
        <ele>175</ele>
        <time>2026-06-10T09:26:42.571+00:00</time>
      </trkpt>
      <trkpt lat="43.62446" lon="7.04221">
        <ele>175</ele>
        <time>2026-06-10T09:26:46.607+00:00</time>
      </trkpt>
      <trkpt lat="43.62442" lon="7.04225">
        <ele>175</ele>
        <time>2026-06-10T09:26:50.641+00:00</time>
      </trkpt>
      <trkpt lat="43.62439" lon="7.04231">
        <ele>175</ele>
        <time>2026-06-10T09:26:54.822+00:00</time>
      </trkpt>
      <trkpt lat="43.62436" lon="7.04237">
        <ele>173</ele>
        <time>2026-06-10T09:26:59.347+00:00</time>
      </trkpt>
      <trkpt lat="43.62435" lon="7.04243">
        <ele>173</ele>
        <time>2026-06-10T09:27:03.782+00:00</time>
      </trkpt>
      <trkpt lat="43.62433" lon="7.04249">
        <ele>173</ele>
        <time>2026-06-10T09:27:08.347+00:00</time>
      </trkpt>
      <trkpt lat="43.62433" lon="7.04255">
        <ele>173</ele>
        <time>2026-06-10T09:27:12.521+00:00</time>
      </trkpt>
      <trkpt lat="43.62431" lon="7.04261">
        <ele>173</ele>
        <time>2026-06-10T09:27:16.922+00:00</time>
      </trkpt>
      <trkpt lat="43.62429" lon="7.04268">
        <ele>171</ele>
        <time>2026-06-10T09:27:21.442+00:00</time>
      </trkpt>
      <trkpt lat="43.62429" lon="7.04275">
        <ele>171</ele>
        <time>2026-06-10T09:27:25.504+00:00</time>
      </trkpt>
      <trkpt lat="43.62428" lon="7.04281">
        <ele>171</ele>
        <time>2026-06-10T09:27:29.685+00:00</time>
      </trkpt>
      <trkpt lat="43.62425" lon="7.04286">
        <ele>171</ele>
        <time>2026-06-10T09:27:33.726+00:00</time>
      </trkpt>
      <trkpt lat="43.62422" lon="7.0429">
        <ele>171</ele>
        <time>2026-06-10T09:27:37.887+00:00</time>
      </trkpt>
      <trkpt lat="43.62419" lon="7.04294">
        <ele>169</ele>
        <time>2026-06-10T09:27:42.107+00:00</time>
      </trkpt>
      <trkpt lat="43.62414" lon="7.04298">
        <ele>169</ele>
        <time>2026-06-10T09:27:46.328+00:00</time>
      </trkpt>
      <trkpt lat="43.6241" lon="7.04301">
        <ele>169</ele>
        <time>2026-06-10T09:27:50.346+00:00</time>
      </trkpt>
      <trkpt lat="43.62405" lon="7.04303">
        <ele>169</ele>
        <time>2026-06-10T09:27:54.767+00:00</time>
      </trkpt>
      <trkpt lat="43.62399" lon="7.04305">
        <ele>169</ele>
        <time>2026-06-10T09:27:59.345+00:00</time>
      </trkpt>
      <trkpt lat="43.62395" lon="7.04309">
        <ele>169</ele>
        <time>2026-06-10T09:28:04.366+00:00</time>
      </trkpt>
      <trkpt lat="43.62392" lon="7.04313">
        <ele>169</ele>
        <time>2026-06-10T09:28:08.506+00:00</time>
      </trkpt>
      <trkpt lat="43.62389" lon="7.04317">
        <ele>169</ele>
        <time>2026-06-10T09:28:12.733+00:00</time>
      </trkpt>
      <trkpt lat="43.62384" lon="7.04319">
        <ele>169</ele>
        <time>2026-06-10T09:28:16.821+00:00</time>
      </trkpt>
      <trkpt lat="43.62379" lon="7.04321">
        <ele>169</ele>
        <time>2026-06-10T09:28:20.964+00:00</time>
      </trkpt>
      <trkpt lat="43.62376" lon="7.04326">
        <ele>169</ele>
        <time>2026-06-10T09:28:24.984+00:00</time>
      </trkpt>
      <trkpt lat="43.62371" lon="7.0433">
        <ele>169</ele>
        <time>2026-06-10T09:28:29.304+00:00</time>
      </trkpt>
      <trkpt lat="43.62367" lon="7.04333">
        <ele>169</ele>
        <time>2026-06-10T09:28:33.565+00:00</time>
      </trkpt>
      <trkpt lat="43.62364" lon="7.04338">
        <ele>169</ele>
        <time>2026-06-10T09:28:37.897+00:00</time>
      </trkpt>
      <trkpt lat="43.62359" lon="7.04342">
        <ele>169</ele>
        <time>2026-06-10T09:28:42.346+00:00</time>
      </trkpt>
      <trkpt lat="43.62355" lon="7.04346">
        <ele>169</ele>
        <time>2026-06-10T09:28:46.544+00:00</time>
      </trkpt>
      <trkpt lat="43.62352" lon="7.04349">
        <ele>169</ele>
        <time>2026-06-10T09:28:50.885+00:00</time>
      </trkpt>
      <trkpt lat="43.62348" lon="7.04353">
        <ele>169</ele>
        <time>2026-06-10T09:28:54.987+00:00</time>
      </trkpt>
      <trkpt lat="43.62344" lon="7.04356">
        <ele>169</ele>
        <time>2026-06-10T09:28:59.228+00:00</time>
      </trkpt>
      <trkpt lat="43.62339" lon="7.04359">
        <ele>169</ele>
        <time>2026-06-10T09:29:03.328+00:00</time>
      </trkpt>
      <trkpt lat="43.62335" lon="7.04362">
        <ele>169</ele>
        <time>2026-06-10T09:29:07.345+00:00</time>
      </trkpt>
      <trkpt lat="43.62332" lon="7.04368">
        <ele>169</ele>
        <time>2026-06-10T09:29:11.841+00:00</time>
      </trkpt>
      <trkpt lat="43.62329" lon="7.04373">
        <ele>169</ele>
        <time>2026-06-10T09:29:15.861+00:00</time>
      </trkpt>
      <trkpt lat="43.62323" lon="7.04375">
        <ele>169</ele>
        <time>2026-06-10T09:29:20.346+00:00</time>
      </trkpt>
      <trkpt lat="43.62318" lon="7.04378">
        <ele>165</ele>
        <time>2026-06-10T09:29:25.328+00:00</time>
      </trkpt>
      <trkpt lat="43.62313" lon="7.04379">
        <ele>165</ele>
        <time>2026-06-10T09:29:29.708+00:00</time>
      </trkpt>
      <trkpt lat="43.62308" lon="7.04383">
        <ele>165</ele>
        <time>2026-06-10T09:29:34.128+00:00</time>
      </trkpt>
      <trkpt lat="43.62304" lon="7.04386">
        <ele>165</ele>
        <time>2026-06-10T09:29:38.394+00:00</time>
      </trkpt>
      <trkpt lat="43.62298" lon="7.04389">
        <ele>165</ele>
        <time>2026-06-10T09:29:42.808+00:00</time>
      </trkpt>
      <trkpt lat="43.62293" lon="7.04393">
        <ele>165</ele>
        <time>2026-06-10T09:29:47.248+00:00</time>
      </trkpt>
      <trkpt lat="43.62289" lon="7.04397">
        <ele>162</ele>
        <time>2026-06-10T09:29:51.346+00:00</time>
      </trkpt>
      <trkpt lat="43.62285" lon="7.04399">
        <ele>162</ele>
        <time>2026-06-10T09:29:55.346+00:00</time>
      </trkpt>
      <trkpt lat="43.62279" lon="7.04401">
        <ele>162</ele>
        <time>2026-06-10T09:29:59.883+00:00</time>
      </trkpt>
      <trkpt lat="43.62275" lon="7.04406">
        <ele>162</ele>
        <time>2026-06-10T09:30:04.346+00:00</time>
      </trkpt>
      <trkpt lat="43.62271" lon="7.04406">
        <ele>162</ele>
        <time>2026-06-10T09:30:08.345+00:00</time>
      </trkpt>
      <trkpt lat="43.62265" lon="7.04407">
        <ele>162</ele>
        <time>2026-06-10T09:30:12.945+00:00</time>
      </trkpt>
      <trkpt lat="43.62263" lon="7.04414">
        <ele>161</ele>
        <time>2026-06-10T09:30:17.122+00:00</time>
      </trkpt>
      <trkpt lat="43.62261" lon="7.04421">
        <ele>161</ele>
        <time>2026-06-10T09:30:21.283+00:00</time>
      </trkpt>
    </trkseg>
  </trk>
</gpx>